Wetterdaten: Donnerstag, 04.01.2018
Datum Zeit Temp. A. Pool Temp. Feuchte A. Luftdruck Regen Wind Richtung Richtung Sonnenschein ET UV Solar Taupunkt Windchill Windben Empfang
04.01.2018 00:00 6,8 C 3,9 C 66 % 1004,1 hPa 0,0 l/m 30,6 km/h (5 Bft) SW 225 0 min 0,102 mm 0,0 UV-I 0 W/m 0,9 C -4,0 C 41,8 km/h (6 Bft) 91,30 %
04.01.2018 00:01 6,8 C 3,9 C 67 % 1004,1 hPa 0,0 l/m 29,0 km/h (5 Bft) W-SW 247 0 min 0,000 mm 0,0 UV-I 0 W/m 1,1 C -3,6 C 43,5 km/h (6 Bft) 91,30 %
04.01.2018 00:02 6,8 C 3,9 C 67 % 1004,2 hPa 0,0 l/m 29,0 km/h (5 Bft) SW 225 0 min 0,000 mm 0,0 UV-I 0 W/m 1,1 C -3,6 C 41,8 km/h (6 Bft) 100,00 %
04.01.2018 00:03 6,8 C 3,9 C 67 % 1004,1 hPa 0,0 l/m 27,4 km/h (4 Bft) W-SW 247 0 min 0,000 mm 0,0 UV-I 0 W/m 1,1 C -3,2 C 40,2 km/h (6 Bft) 95,65 %
04.01.2018 00:04 6,8 C 3,9 C 67 % 1004,2 hPa 0,0 l/m 30,6 km/h (5 Bft) SW 225 0 min 0,000 mm 0,0 UV-I 0 W/m 1,1 C -4,0 C 46,7 km/h (6 Bft) 100,00 %
04.01.2018 00:05 6,8 C 3,9 C 67 % 1004,2 hPa 0,0 l/m 30,6 km/h (5 Bft) SW 225 0 min 0,000 mm 0,0 UV-I 0 W/m 1,1 C -4,0 C 40,2 km/h (6 Bft) 100,00 %
04.01.2018 00:06 6,8 C 3,9 C 66 % 1004,0 hPa 0,0 l/m 33,8 km/h (5 Bft) W-SW 247 0 min 0,000 mm 0,0 UV-I 0 W/m 0,9 C -4,7 C 46,7 km/h (6 Bft) 95,65 %
04.01.2018 00:07 6,8 C 3,9 C 66 % 1004,1 hPa 0,0 l/m 27,4 km/h (4 Bft) SW 225 0 min 0,000 mm 0,0 UV-I 0 W/m 0,9 C -3,2 C 38,6 km/h (5 Bft) 95,65 %
04.01.2018 00:08 6,8 C 3,9 C 67 % 1004,2 hPa 0,0 l/m 30,6 km/h (5 Bft) W-SW 247 0 min 0,000 mm 0,0 UV-I 0 W/m 1,1 C -4,0 C 40,2 km/h (6 Bft) 95,65 %
04.01.2018 00:09 6,8 C 3,9 C 67 % 1004,1 hPa 0,0 l/m 29,0 km/h (5 Bft) SW 225 0 min 0,000 mm 0,0 UV-I 0 W/m 1,1 C -3,6 C 38,6 km/h (5 Bft) 100,00 %
04.01.2018 00:10 6,8 C 3,9 C 67 % 1004,1 hPa 0,0 l/m 33,8 km/h (5 Bft) SW 225 0 min 0,000 mm 0,0 UV-I 0 W/m 1,1 C -4,7 C 43,5 km/h (6 Bft) 95,65 %
04.01.2018 00:11 6,8 C 3,9 C 67 % 1004,1 hPa 0,0 l/m 30,6 km/h (5 Bft) SW 225 0 min 0,000 mm 0,0 UV-I 0 W/m 1,1 C -4,0 C 41,8 km/h (6 Bft) 100,00 %
04.01.2018 00:12 6,8 C 3,9 C 67 % 1004,0 hPa 0,0 l/m 32,2 km/h (5 Bft) W-SW 247 0 min 0,000 mm 0,0 UV-I 0 W/m 1,1 C -4,4 C 41,8 km/h (6 Bft) 100,00 %
04.01.2018 00:13 6,8 C 3,9 C 67 % 1004,1 hPa 0,0 l/m 25,7 km/h (4 Bft) W-SW 247 0 min 0,000 mm 0,0 UV-I 0 W/m 1,1 C -2,7 C 35,4 km/h (5 Bft) 100,00 %
04.01.2018 00:14 6,8 C 3,9 C 67 % 1004,2 hPa 0,0 l/m 27,4 km/h (4 Bft) W-SW 247 0 min 0,000 mm 0,0 UV-I 0 W/m 1,1 C -3,2 C 35,4 km/h (5 Bft) 91,30 %
04.01.2018 00:15 6,7 C 3,9 C 67 % 1004,1 hPa 0,0 l/m 38,6 km/h (5 Bft) SW 225 0 min 0,000 mm 0,0 UV-I 0 W/m 1,0 C -5,8 C 56,3 km/h (7 Bft) 100,00 %
04.01.2018 00:16 6,8 C 3,9 C 66 % 1004,1 hPa 0,0 l/m 33,8 km/h (5 Bft) W-SW 247 0 min 0,000 mm 0,0 UV-I 0 W/m 0,9 C -4,7 C 56,3 km/h (7 Bft) 100,00 %
04.01.2018 00:17 6,8 C 3,9 C 66 % 1004,1 hPa 0,0 l/m 30,6 km/h (5 Bft) SW 225 0 min 0,000 mm 0,0 UV-I 0 W/m 0,9 C -4,0 C 40,2 km/h (6 Bft) 100,00 %
04.01.2018 00:18 6,8 C 3,9 C 67 % 1004,1 hPa 0,0 l/m 32,2 km/h (5 Bft) SW 225 0 min 0,000 mm 0,0 UV-I 0 W/m 1,1 C -4,4 C 45,1 km/h (6 Bft) 100,00 %
04.01.2018 00:19 6,8 C 3,9 C 67 % 1004,2 hPa 0,0 l/m 35,4 km/h (5 Bft) SW 225 0 min 0,000 mm 0,0 UV-I 0 W/m 1,1 C -5,0 C 53,1 km/h (7 Bft) 100,00 %
04.01.2018 00:20 6,8 C 3,9 C 66 % 1004,2 hPa 0,0 l/m 40,2 km/h (6 Bft) SW 225 0 min 0,000 mm 0,0 UV-I 0 W/m 0,9 C -5,9 C 57,9 km/h (7 Bft) 100,00 %
04.01.2018 00:21 6,8 C 3,9 C 66 % 1004,2 hPa 0,0 l/m 38,6 km/h (5 Bft) W-SW 247 0 min 0,000 mm 0,0 UV-I 0 W/m 0,9 C -5,6 C 51,5 km/h (7 Bft) 91,30 %
04.01.2018 00:22 6,8 C 3,9 C 67 % 1004,2 hPa 0,0 l/m 40,2 km/h (6 Bft) W-SW 247 0 min 0,000 mm 0,0 UV-I 0 W/m 1,1 C -5,9 C 57,9 km/h (7 Bft) 100,00 %
04.01.2018 00:23 6,8 C 3,9 C 67 % 1004,2 hPa 0,0 l/m 41,8 km/h (6 Bft) W-SW 247 0 min 0,000 mm 0,0 UV-I 0 W/m 1,1 C -6,1 C 57,9 km/h (7 Bft) 100,00 %
04.01.2018 00:24 6,8 C 3,9 C 67 % 1004,1 hPa 0,0 l/m 32,2 km/h (5 Bft) SW 225 0 min 0,000 mm 0,0 UV-I 0 W/m 1,1 C -4,4 C 45,1 km/h (6 Bft) 100,00 %
04.01.2018 00:25 6,8 C 3,9 C 68 % 1004,3 hPa 0,0 l/m 27,4 km/h (4 Bft) SW 225 0 min 0,000 mm 0,0 UV-I 0 W/m 1,3 C -3,2 C 41,8 km/h (6 Bft) 100,00 %
04.01.2018 00:26 6,7 C 3,9 C 68 % 1004,4 hPa 0,0 l/m 38,6 km/h (5 Bft) W 270 0 min 0,000 mm 0,0 UV-I 0 W/m 1,2 C -5,8 C 61,2 km/h (7 Bft) 95,65 %
04.01.2018 00:27 6,7 C 3,9 C 68 % 1004,2 hPa 0,0 l/m 30,6 km/h (5 Bft) W-SW 247 0 min 0,000 mm 0,0 UV-I 0 W/m 1,2 C -4,1 C 61,2 km/h (7 Bft) 95,65 %
04.01.2018 00:28 6,7 C 3,9 C 68 % 1004,2 hPa 0,0 l/m 30,6 km/h (5 Bft) W-SW 247 0 min 0,000 mm 0,0 UV-I 0 W/m 1,2 C -4,1 C 40,2 km/h (6 Bft) 95,65 %
04.01.2018 00:29 6,6 C 3,9 C 68 % 1004,3 hPa 0,0 l/m 27,4 km/h (4 Bft) SW 225 0 min 0,000 mm 0,0 UV-I 0 W/m 1,1 C -3,5 C 37,0 km/h (5 Bft) 100,00 %
04.01.2018 00:30 6,6 C 3,9 C 69 % 1004,3 hPa 0,0 l/m 30,6 km/h (5 Bft) W-SW 247 0 min 0,000 mm 0,0 UV-I 0 W/m 1,3 C -4,3 C 37,0 km/h (5 Bft) 100,00 %
04.01.2018 00:31 6,6 C 3,9 C 68 % 1004,3 hPa 0,0 l/m 27,4 km/h (4 Bft) SW 225 0 min 0,000 mm 0,0 UV-I 0 W/m 1,1 C -3,5 C 43,5 km/h (6 Bft) 100,00 %
04.01.2018 00:32 6,6 C 3,9 C 69 % 1004,3 hPa 0,0 l/m 30,6 km/h (5 Bft) SW 225 0 min 0,000 mm 0,0 UV-I 0 W/m 1,3 C -4,3 C 43,5 km/h (6 Bft) 100,00 %
04.01.2018 00:33 6,6 C 3,9 C 69 % 1004,3 hPa 0,0 l/m 27,4 km/h (4 Bft) SW 225 0 min 0,000 mm 0,0 UV-I 0 W/m 1,3 C -3,5 C 40,2 km/h (6 Bft) 100,00 %
04.01.2018 00:34 6,6 C 3,9 C 69 % 1004,3 hPa 0,0 l/m 40,2 km/h (6 Bft) SW 225 0 min 0,000 mm 0,0 UV-I 0 W/m 1,3 C -6,2 C 57,9 km/h (7 Bft) 100,00 %
04.01.2018 00:35 6,6 C 3,9 C 68 % 1004,3 hPa 0,0 l/m 33,8 km/h (5 Bft) SW 225 0 min 0,000 mm 0,0 UV-I 0 W/m 1,1 C -5,0 C 48,3 km/h (6 Bft) 95,65 %
04.01.2018 00:36 6,6 C 3,9 C 68 % 1004,3 hPa 0,0 l/m 33,8 km/h (5 Bft) W-SW 247 0 min 0,000 mm 0,0 UV-I 0 W/m 1,1 C -5,0 C 49,9 km/h (6 Bft) 95,65 %
04.01.2018 00:37 6,6 C 3,9 C 68 % 1004,3 hPa 0,0 l/m 29,0 km/h (5 Bft) W-SW 247 0 min 0,000 mm 0,0 UV-I 0 W/m 1,1 C -3,9 C 46,7 km/h (6 Bft) 100,00 %
04.01.2018 00:38 6,6 C 3,9 C 68 % 1004,3 hPa 0,0 l/m 30,6 km/h (5 Bft) SW 225 0 min 0,000 mm 0,0 UV-I 0 W/m 1,1 C -4,3 C 48,3 km/h (6 Bft) 100,00 %
04.01.2018 00:39 6,7 C 3,9 C 68 % 1004,3 hPa 0,0 l/m 30,6 km/h (5 Bft) SW 225 0 min 0,000 mm 0,0 UV-I 0 W/m 1,2 C -4,1 C 48,3 km/h (6 Bft) 100,00 %
04.01.2018 00:40 6,7 C 3,9 C 68 % 1004,3 hPa 0,0 l/m 30,6 km/h (5 Bft) W-SW 247 0 min 0,000 mm 0,0 UV-I 0 W/m 1,2 C -4,1 C 40,2 km/h (6 Bft) 100,00 %
04.01.2018 00:41 6,7 C 3,9 C 68 % 1004,2 hPa 0,0 l/m 25,7 km/h (4 Bft) SW 225 0 min 0,000 mm 0,0 UV-I 0 W/m 1,2 C -2,8 C 41,8 km/h (6 Bft) 100,00 %
04.01.2018 00:42 6,7 C 3,9 C 68 % 1004,3 hPa 0,0 l/m 37,0 km/h (5 Bft) SW 225 0 min 0,000 mm 0,0 UV-I 0 W/m 1,2 C -5,5 C 45,1 km/h (6 Bft) 95,65 %
04.01.2018 00:43 6,7 C 3,9 C 68 % 1004,2 hPa 0,0 l/m 37,0 km/h (5 Bft) SW 225 0 min 0,000 mm 0,0 UV-I 0 W/m 1,2 C -5,5 C 49,9 km/h (6 Bft) 95,65 %
04.01.2018 00:44 6,7 C 3,9 C 68 % 1004,2 hPa 0,0 l/m 32,2 km/h (5 Bft) W-SW 247 0 min 0,000 mm 0,0 UV-I 0 W/m 1,2 C -4,5 C 46,7 km/h (6 Bft) 100,00 %
04.01.2018 00:45 6,8 C 3,9 C 68 % 1004,3 hPa 0,0 l/m 33,8 km/h (5 Bft) SW 225 0 min 0,000 mm 0,0 UV-I 0 W/m 1,3 C -4,7 C 49,9 km/h (6 Bft) 100,00 %
04.01.2018 00:46 6,8 C 3,9 C 68 % 1004,4 hPa 0,0 l/m 33,8 km/h (5 Bft) SW 225 0 min 0,000 mm 0,0 UV-I 0 W/m 1,3 C -4,7 C 56,3 km/h (7 Bft) 95,65 %
04.01.2018 00:47 6,8 C 3,9 C 68 % 1004,3 hPa 0,0 l/m 27,4 km/h (4 Bft) SW 225 0 min 0,000 mm 0,0 UV-I 0 W/m 1,3 C -3,2 C 37,0 km/h (5 Bft) 100,00 %
04.01.2018 00:48 6,8 C 3,9 C 68 % 1004,4 hPa 0,0 l/m 32,2 km/h (5 Bft) W-SW 247 0 min 0,000 mm 0,0 UV-I 0 W/m 1,3 C -4,4 C 57,9 km/h (7 Bft) 100,00 %
04.01.2018 00:49 6,8 C 3,9 C 68 % 1004,5 hPa 0,0 l/m 38,6 km/h (5 Bft) SW 225 0 min 0,000 mm 0,0 UV-I 0 W/m 1,3 C -5,6 C 56,3 km/h (7 Bft) 95,65 %
04.01.2018 00:50 6,8 C 3,9 C 68 % 1004,4 hPa 0,0 l/m 32,2 km/h (5 Bft) W-SW 247 0 min 0,000 mm 0,0 UV-I 0 W/m 1,3 C -4,4 C 43,5 km/h (6 Bft) 100,00 %
04.01.2018 00:51 6,8 C 3,9 C 68 % 1004,3 hPa 0,0 l/m 25,7 km/h (4 Bft) SW 225 0 min 0,000 mm 0,0 UV-I 0 W/m 1,3 C -2,7 C 35,4 km/h (5 Bft) 100,00 %
04.01.2018 00:52 6,7 C 3,9 C 68 % 1004,4 hPa 0,0 l/m 32,2 km/h (5 Bft) W-SW 247 0 min 0,000 mm 0,0 UV-I 0 W/m 1,2 C -4,5 C 46,7 km/h (6 Bft) 95,65 %
04.01.2018 00:53 6,7 C 3,9 C 68 % 1004,4 hPa 0,0 l/m 35,4 km/h (5 Bft) SW 225 0 min 0,000 mm 0,0 UV-I 0 W/m 1,2 C -5,2 C 51,5 km/h (7 Bft) 95,65 %
04.01.2018 00:54 6,7 C 3,9 C 69 % 1004,5 hPa 0,0 l/m 25,7 km/h (4 Bft) SW 225 0 min 0,000 mm 0,0 UV-I 0 W/m 1,4 C -2,8 C 37,0 km/h (5 Bft) 100,00 %
04.01.2018 00:55 6,7 C 3,9 C 69 % 1004,4 hPa 0,0 l/m 29,0 km/h (5 Bft) SW 225 0 min 0,000 mm 0,0 UV-I 0 W/m 1,4 C -3,7 C 37,0 km/h (5 Bft) 86,96 %
04.01.2018 00:56 6,7 C 3,9 C 69 % 1004,4 hPa 0,0 l/m 35,4 km/h (5 Bft) W-SW 247 0 min 0,000 mm 0,0 UV-I 0 W/m 1,4 C -5,2 C 51,5 km/h (7 Bft) 91,30 %
04.01.2018 00:57 6,7 C 3,9 C 69 % 1004,4 hPa 0,0 l/m 32,2 km/h (5 Bft) W-SW 247 0 min 0,000 mm 0,0 UV-I 0 W/m 1,4 C -4,5 C 48,3 km/h (6 Bft) 91,30 %
04.01.2018 00:58 6,7 C 3,9 C 69 % 1004,4 hPa 0,0 l/m 25,7 km/h (4 Bft) W-SW 247 0 min 0,000 mm 0,0 UV-I 0 W/m 1,4 C -2,8 C 40,2 km/h (6 Bft) 100,00 %
04.01.2018 00:59 6,6 C 3,9 C 70 % 1004,6 hPa 0,0 l/m 27,4 km/h (4 Bft) W-SW 247 0 min 0,000 mm 0,0 UV-I 0 W/m 1,5 C -3,5 C 35,4 km/h (5 Bft) 91,30 %
04.01.2018 01:00 6,6 C 3,9 C 70 % 1004,4 hPa 0,0 l/m 37,0 km/h (5 Bft) W-SW 247 0 min 0,102 mm 0,0 UV-I 0 W/m 1,5 C -5,6 C 54,7 km/h (7 Bft) 100,00 %
04.01.2018 01:01 6,6 C 3,9 C 70 % 1004,5 hPa 0,0 l/m 29,0 km/h (5 Bft) W-SW 247 0 min 0,000 mm 0,0 UV-I 0 W/m 1,5 C -3,9 C 46,7 km/h (6 Bft) 91,30 %
04.01.2018 01:02 6,6 C 3,9 C 70 % 1004,6 hPa 0,0 l/m 32,2 km/h (5 Bft) W-SW 247 0 min 0,000 mm 0,0 UV-I 0 W/m 1,5 C -4,6 C 45,1 km/h (6 Bft) 91,30 %
04.01.2018 01:03 6,6 C 3,9 C 70 % 1004,4 hPa 0,0 l/m 41,8 km/h (6 Bft) W-SW 247 0 min 0,000 mm 0,0 UV-I 0 W/m 1,5 C -6,4 C 54,7 km/h (7 Bft) 100,00 %
04.01.2018 01:04 6,6 C 3,9 C 71 % 1004,5 hPa 0,0 l/m 33,8 km/h (5 Bft) SW 225 0 min 0,000 mm 0,0 UV-I 0 W/m 1,7 C -5,0 C 43,5 km/h (6 Bft) 86,96 %
04.01.2018 01:05 6,6 C 3,9 C 71 % 1004,6 hPa 0,0 l/m 40,2 km/h (6 Bft) SW 225 0 min 0,000 mm 0,0 UV-I 0 W/m 1,7 C -6,2 C 57,9 km/h (7 Bft) 100,00 %
04.01.2018 01:06 6,6 C 3,9 C 71 % 1004,5 hPa 0,0 l/m 37,0 km/h (5 Bft) W-SW 247 0 min 0,000 mm 0,0 UV-I 0 W/m 1,7 C -5,6 C 57,9 km/h (7 Bft) 91,30 %
04.01.2018 01:07 6,6 C 3,9 C 71 % 1004,5 hPa 0,0 l/m 37,0 km/h (5 Bft) SW 225 0 min 0,000 mm 0,0 UV-I 0 W/m 1,7 C -5,6 C 56,3 km/h (7 Bft) 100,00 %
04.01.2018 01:08 6,5 C 3,9 C 71 % 1004,6 hPa 0,0 l/m 32,2 km/h (5 Bft) W-SW 247 0 min 0,000 mm 0,0 UV-I 0 W/m 1,6 C -4,8 C 40,2 km/h (6 Bft) 91,30 %
04.01.2018 01:09 6,5 C 3,9 C 71 % 1004,6 hPa 0,0 l/m 27,4 km/h (4 Bft) W-SW 247 0 min 0,000 mm 0,0 UV-I 0 W/m 1,6 C -3,6 C 37,0 km/h (5 Bft) 95,65 %
04.01.2018 01:10 6,5 C 3,9 C 71 % 1004,6 hPa 0,0 l/m 37,0 km/h (5 Bft) W-SW 247 0 min 0,000 mm 0,0 UV-I 0 W/m 1,6 C -5,8 C 48,3 km/h (6 Bft) 91,30 %
04.01.2018 01:11 6,5 C 3,9 C 71 % 1004,6 hPa 0,0 l/m 37,0 km/h (5 Bft) SW 225 0 min 0,000 mm 0,0 UV-I 0 W/m 1,6 C -5,8 C 45,1 km/h (6 Bft) 86,96 %
04.01.2018 01:12 6,5 C 3,9 C 71 % 1004,7 hPa 0,0 l/m 38,6 km/h (5 Bft) SW 225 0 min 0,000 mm 0,0 UV-I 0 W/m 1,6 C -6,1 C 53,1 km/h (7 Bft) 95,65 %
04.01.2018 01:13 6,5 C 3,9 C 71 % 1004,6 hPa 0,0 l/m 35,4 km/h (5 Bft) W-SW 247 0 min 0,000 mm 0,0 UV-I 0 W/m 1,6 C -5,5 C 56,3 km/h (7 Bft) 91,30 %
04.01.2018 01:14 6,5 C 3,9 C 71 % 1004,5 hPa 0,0 l/m 37,0 km/h (5 Bft) SW 225 0 min 0,000 mm 0,0 UV-I 0 W/m 1,6 C -5,8 C 46,7 km/h (6 Bft) 95,65 %
04.01.2018 01:15 6,5 C 3,9 C 71 % 1004,6 hPa 0,0 l/m 35,4 km/h (5 Bft) SW 225 0 min 0,000 mm 0,0 UV-I 0 W/m 1,6 C -5,5 C 43,5 km/h (6 Bft) 91,30 %
04.01.2018 01:16 6,5 C 3,9 C 71 % 1004,6 hPa 0,0 l/m 25,7 km/h (4 Bft) W-SW 247 0 min 0,000 mm 0,0 UV-I 0 W/m 1,6 C -3,1 C 35,4 km/h (5 Bft) 100,00 %
04.01.2018 01:17 6,4 C 3,9 C 71 % 1004,6 hPa 0,0 l/m 27,4 km/h (4 Bft) SW 225 0 min 0,000 mm 0,0 UV-I 0 W/m 1,5 C -3,7 C 35,4 km/h (5 Bft) 91,30 %
04.01.2018 01:18 6,4 C 3,9 C 71 % 1004,7 hPa 0,0 l/m 27,4 km/h (4 Bft) SW 225 0 min 0,000 mm 0,0 UV-I 0 W/m 1,5 C -3,7 C 33,8 km/h (5 Bft) 100,00 %
04.01.2018 01:19 6,4 C 3,9 C 72 % 1004,7 hPa 0,0 l/m 27,4 km/h (4 Bft) SW 225 0 min 0,000 mm 0,0 UV-I 0 W/m 1,7 C -3,7 C 45,1 km/h (6 Bft) 95,65 %
04.01.2018 01:20 6,4 C 3,9 C 72 % 1004,7 hPa 0,0 l/m 22,5 km/h (4 Bft) SW 225 0 min 0,000 mm 0,0 UV-I 0 W/m 1,7 C -2,3 C 30,6 km/h (5 Bft) 95,65 %
04.01.2018 01:21 6,3 C 3,9 C 72 % 1004,7 hPa 0,0 l/m 22,5 km/h (4 Bft) SW 225 0 min 0,000 mm 0,0 UV-I 0 W/m 1,6 C -2,4 C 30,6 km/h (5 Bft) 100,00 %
04.01.2018 01:22 6,3 C 3,9 C 72 % 1004,7 hPa 0,0 l/m 24,1 km/h (4 Bft) W-SW 247 0 min 0,000 mm 0,0 UV-I 0 W/m 1,6 C -2,9 C 35,4 km/h (5 Bft) 95,65 %
04.01.2018 01:23 6,3 C 3,9 C 72 % 1004,7 hPa 0,0 l/m 25,7 km/h (4 Bft) W-SW 247 0 min 0,000 mm 0,0 UV-I 0 W/m 1,6 C -3,4 C 33,8 km/h (5 Bft) 100,00 %
04.01.2018 01:24 6,3 C 3,9 C 72 % 1004,7 hPa 0,0 l/m 24,1 km/h (4 Bft) W-SW 247 0 min 0,000 mm 0,0 UV-I 0 W/m 1,6 C -2,9 C 33,8 km/h (5 Bft) 91,30 %
04.01.2018 01:25 6,3 C 3,9 C 72 % 1004,7 hPa 0,0 l/m 25,7 km/h (4 Bft) W-SW 247 0 min 0,000 mm 0,0 UV-I 0 W/m 1,6 C -3,4 C 32,2 km/h (5 Bft) 100,00 %
04.01.2018 01:26 6,3 C 3,9 C 72 % 1004,7 hPa 0,0 l/m 25,7 km/h (4 Bft) W-SW 247 0 min 0,000 mm 0,0 UV-I 0 W/m 1,6 C -3,4 C 35,4 km/h (5 Bft) 95,65 %
04.01.2018 01:27 6,3 C 3,9 C 72 % 1004,8 hPa 0,0 l/m 27,4 km/h (4 Bft) W-SW 247 0 min 0,000 mm 0,0 UV-I 0 W/m 1,6 C -3,9 C 37,0 km/h (5 Bft) 100,00 %
04.01.2018 01:28 6,3 C 3,9 C 72 % 1004,7 hPa 0,0 l/m 25,7 km/h (4 Bft) W-SW 247 0 min 0,000 mm 0,0 UV-I 0 W/m 1,6 C -3,4 C 37,0 km/h (5 Bft) 95,65 %
04.01.2018 01:29 6,3 C 3,9 C 72 % 1004,6 hPa 0,0 l/m 24,1 km/h (4 Bft) W-SW 247 0 min 0,000 mm 0,0 UV-I 0 W/m 1,6 C -2,9 C 30,6 km/h (5 Bft) 91,30 %
04.01.2018 01:30 6,3 C 3,9 C 72 % 1004,7 hPa 0,0 l/m 20,9 km/h (4 Bft) W-SW 247 0 min 0,000 mm 0,0 UV-I 0 W/m 1,6 C -1,8 C 37,0 km/h (5 Bft) 100,00 %
04.01.2018 01:31 6,3 C 3,9 C 72 % 1004,7 hPa 0,0 l/m 20,9 km/h (4 Bft) W-SW 247 0 min 0,000 mm 0,0 UV-I 0 W/m 1,6 C -1,8 C 29,0 km/h (5 Bft) 86,96 %
04.01.2018 01:32 6,3 C 3,9 C 72 % 1004,7 hPa 0,0 l/m 20,9 km/h (4 Bft) W-SW 247 0 min 0,000 mm 0,0 UV-I 0 W/m 1,6 C -1,8 C 27,4 km/h (4 Bft) 100,00 %
04.01.2018 01:33 6,3 C 3,9 C 72 % 1004,7 hPa 0,0 l/m 19,3 km/h (3 Bft) W-SW 247 0 min 0,000 mm 0,0 UV-I 0 W/m 1,6 C -1,2 C 24,1 km/h (4 Bft) 100,00 %
04.01.2018 01:34 6,3 C 3,9 C 72 % 1004,8 hPa 0,0 l/m 24,1 km/h (4 Bft) W-SW 247 0 min 0,000 mm 0,0 UV-I 0 W/m 1,6 C -2,9 C 40,2 km/h (6 Bft) 100,00 %
04.01.2018 01:35 6,4 C 3,9 C 71 % 1004,7 hPa 0,0 l/m 29,0 km/h (5 Bft) SW 225 0 min 0,000 mm 0,0 UV-I 0 W/m 1,5 C -4,2 C 40,2 km/h (6 Bft) 100,00 %
04.01.2018 01:36 6,4 C 3,9 C 71 % 1004,7 hPa 0,0 l/m 24,1 km/h (4 Bft) W-SW 247 0 min 0,000 mm 0,0 UV-I 0 W/m 1,5 C -2,8 C 33,8 km/h (5 Bft) 100,00 %
04.01.2018 01:37 6,4 C 3,9 C 71 % 1004,8 hPa 0,0 l/m 29,0 km/h (5 Bft) SW 225 0 min 0,000 mm 0,0 UV-I 0 W/m 1,5 C -4,2 C 41,8 km/h (6 Bft) 100,00 %
04.01.2018 01:38 6,5 C 3,9 C 71 % 1004,7 hPa 0,0 l/m 29,0 km/h (5 Bft) W-SW 247 0 min 0,000 mm 0,0 UV-I 0 W/m 1,6 C -4,0 C 40,2 km/h (6 Bft) 95,65 %
04.01.2018 01:39 6,6 C 3,9 C 70 % 1004,8 hPa 0,0 l/m 24,1 km/h (4 Bft) SW 225 0 min 0,000 mm 0,0 UV-I 0 W/m 1,5 C -2,5 C 33,8 km/h (5 Bft) 100,00 %
04.01.2018 01:40 6,6 C 3,9 C 70 % 1004,8 hPa 0,0 l/m 25,7 km/h (4 Bft) W-SW 247 0 min 0,000 mm 0,0 UV-I 0 W/m 1,5 C -3,0 C 37,0 km/h (5 Bft) 100,00 %
04.01.2018 01:41 6,6 C 3,9 C 70 % 1004,7 hPa 0,0 l/m 24,1 km/h (4 Bft) W-SW 247 0 min 0,000 mm 0,0 UV-I 0 W/m 1,5 C -2,5 C 32,2 km/h (5 Bft) 100,00 %
04.01.2018 01:42 6,6 C 3,9 C 70 % 1004,8 hPa 0,0 l/m 25,7 km/h (4 Bft) W-SW 247 0 min 0,000 mm 0,0 UV-I 0 W/m 1,5 C -3,0 C 35,4 km/h (5 Bft) 100,00 %
04.01.2018 01:43 6,6 C 3,9 C 70 % 1004,8 hPa 0,0 l/m 25,7 km/h (4 Bft) W 270 0 min 0,000 mm 0,0 UV-I 0 W/m 1,5 C -3,0 C 40,2 km/h (6 Bft) 100,00 %
04.01.2018 01:44 6,6 C 3,9 C 70 % 1004,8 hPa 0,0 l/m 24,1 km/h (4 Bft) SW 225 0 min 0,000 mm 0,0 UV-I 0 W/m 1,5 C -2,5 C 33,8 km/h (5 Bft) 100,00 %
04.01.2018 01:45 6,6 C 3,9 C 70 % 1004,8 hPa 0,0 l/m 20,9 km/h (4 Bft) SW 225 0 min 0,000 mm 0,0 UV-I 0 W/m 1,5 C -1,4 C 38,6 km/h (5 Bft) 95,65 %
04.01.2018 01:46 6,6 C 3,9 C 70 % 1004,8 hPa 0,0 l/m 24,1 km/h (4 Bft) SW 225 0 min 0,000 mm 0,0 UV-I 0 W/m 1,5 C -2,5 C 35,4 km/h (5 Bft) 100,00 %
04.01.2018 01:47 6,6 C 3,9 C 70 % 1004,9 hPa 0,0 l/m 20,9 km/h (4 Bft) W-SW 247 0 min 0,000 mm 0,0 UV-I 0 W/m 1,5 C -1,4 C 29,0 km/h (5 Bft) 100,00 %
04.01.2018 01:48 6,6 C 3,9 C 70 % 1004,7 hPa 0,0 l/m 24,1 km/h (4 Bft) W-SW 247 0 min 0,000 mm 0,0 UV-I 0 W/m 1,5 C -2,5 C 41,8 km/h (6 Bft) 100,00 %
04.01.2018 01:49 6,6 C 3,9 C 70 % 1004,7 hPa 0,0 l/m 24,1 km/h (4 Bft) SW 225 0 min 0,000 mm 0,0 UV-I 0 W/m 1,5 C -2,5 C 35,4 km/h (5 Bft) 100,00 %
04.01.2018 01:50 6,6 C 3,9 C 70 % 1004,9 hPa 0,0 l/m 27,4 km/h (4 Bft) SW 225 0 min 0,000 mm 0,0 UV-I 0 W/m 1,5 C -3,5 C 38,6 km/h (5 Bft) 100,00 %
04.01.2018 01:51 6,6 C 3,9 C 70 % 1004,7 hPa 0,0 l/m 24,1 km/h (4 Bft) W-SW 247 0 min 0,000 mm 0,0 UV-I 0 W/m 1,5 C -2,5 C 33,8 km/h (5 Bft) 95,65 %
04.01.2018 01:52 6,6 C 3,9 C 70 % 1004,7 hPa 0,0 l/m 24,1 km/h (4 Bft) SW 225 0 min 0,000 mm 0,0 UV-I 0 W/m 1,5 C -2,5 C 30,6 km/h (5 Bft) 95,65 %
04.01.2018 01:53 6,6 C 3,9 C 70 % 1004,8 hPa 0,0 l/m 20,9 km/h (4 Bft) SW 225 0 min 0,000 mm 0,0 UV-I 0 W/m 1,5 C -1,4 C 27,4 km/h (4 Bft) 100,00 %
04.01.2018 01:54 6,6 C 3,9 C 70 % 1004,8 hPa 0,0 l/m 17,7 km/h (3 Bft) SW 225 0 min 0,000 mm 0,0 UV-I 0 W/m 1,5 C -0,2 C 27,4 km/h (4 Bft) 100,00 %
04.01.2018 01:55 6,6 C 3,9 C 70 % 1004,9 hPa 0,0 l/m 20,9 km/h (4 Bft) W-SW 247 0 min 0,000 mm 0,0 UV-I 0 W/m 1,5 C -1,4 C 32,2 km/h (5 Bft) 100,00 %
04.01.2018 01:56 6,6 C 3,9 C 70 % 1004,9 hPa 0,0 l/m 27,4 km/h (4 Bft) W-SW 247 0 min 0,000 mm 0,0 UV-I 0 W/m 1,5 C -3,5 C 40,2 km/h (6 Bft) 100,00 %
04.01.2018 01:57 6,6 C 3,9 C 70 % 1004,9 hPa 0,0 l/m 17,7 km/h (3 Bft) W-SW 247 0 min 0,000 mm 0,0 UV-I 0 W/m 1,5 C -0,2 C 27,4 km/h (4 Bft) 95,65 %
04.01.2018 01:58 6,6 C 3,9 C 70 % 1004,9 hPa 0,0 l/m 19,3 km/h (3 Bft) SW 225 0 min 0,000 mm 0,0 UV-I 0 W/m 1,5 C -0,8 C 27,4 km/h (4 Bft) 95,65 %
04.01.2018 01:59 6,6 C 3,9 C 70 % 1004,9 hPa 0,0 l/m 19,3 km/h (3 Bft) SW 225 0 min 0,000 mm 0,0 UV-I 0 W/m 1,5 C -0,8 C 25,7 km/h (4 Bft) 95,65 %
04.01.2018 02:00 6,6 C 3,9 C 70 % 1005,0 hPa 0,0 l/m 22,5 km/h (4 Bft) W-SW 247 0 min 0,076 mm 0,0 UV-I 0 W/m 1,5 C -2,0 C 29,0 km/h (5 Bft) 100,00 %
04.01.2018 02:01 6,6 C 3,9 C 70 % 1005,0 hPa 0,0 l/m 24,1 km/h (4 Bft) SW 225 0 min 0,000 mm 0,0 UV-I 0 W/m 1,5 C -2,5 C 40,2 km/h (6 Bft) 100,00 %
04.01.2018 02:02 6,7 C 3,9 C 70 % 1005,0 hPa 0,0 l/m 24,1 km/h (4 Bft) SW 225 0 min 0,000 mm 0,0 UV-I 0 W/m 1,6 C -2,4 C 40,2 km/h (6 Bft) 100,00 %
04.01.2018 02:03 6,7 C 3,9 C 70 % 1005,0 hPa 0,0 l/m 20,9 km/h (4 Bft) W-SW 247 0 min 0,000 mm 0,0 UV-I 0 W/m 1,6 C -1,3 C 27,4 km/h (4 Bft) 95,65 %
04.01.2018 02:04 6,7 C 3,9 C 69 % 1005,1 hPa 0,0 l/m 22,5 km/h (4 Bft) SW 225 0 min 0,000 mm 0,0 UV-I 0 W/m 1,4 C -1,9 C 30,6 km/h (5 Bft) 100,00 %
04.01.2018 02:05 6,7 C 3,9 C 70 % 1005,1 hPa 0,0 l/m 22,5 km/h (4 Bft) SW 225 0 min 0,000 mm 0,0 UV-I 0 W/m 1,6 C -1,9 C 30,6 km/h (5 Bft) 100,00 %
04.01.2018 02:06 6,7 C 3,9 C 69 % 1004,9 hPa 0,0 l/m 24,1 km/h (4 Bft) SW 225 0 min 0,000 mm 0,0 UV-I 0 W/m 1,4 C -2,4 C 37,0 km/h (5 Bft) 95,65 %
04.01.2018 02:07 6,7 C 3,9 C 69 % 1005,1 hPa 0,0 l/m 22,5 km/h (4 Bft) W-SW 247 0 min 0,000 mm 0,0 UV-I 0 W/m 1,4 C -1,9 C 30,6 km/h (5 Bft) 100,00 %
04.01.2018 02:08 6,7 C 3,9 C 69 % 1005,1 hPa 0,0 l/m 25,7 km/h (4 Bft) W-SW 247 0 min 0,000 mm 0,0 UV-I 0 W/m 1,4 C -2,8 C 30,6 km/h (5 Bft) 95,65 %
04.01.2018 02:09 6,7 C 3,9 C 69 % 1005,1 hPa 0,0 l/m 22,5 km/h (4 Bft) W-SW 247 0 min 0,000 mm 0,0 UV-I 0 W/m 1,4 C -1,9 C 33,8 km/h (5 Bft) 95,65 %
04.01.2018 02:10 6,7 C 3,9 C 69 % 1005,2 hPa 0,0 l/m 20,9 km/h (4 Bft) W-SW 247 0 min 0,000 mm 0,0 UV-I 0 W/m 1,4 C -1,3 C 29,0 km/h (5 Bft) 100,00 %
04.01.2018 02:11 6,7 C 3,9 C 69 % 1005,1 hPa 0,0 l/m 20,9 km/h (4 Bft) W-SW 247 0 min 0,000 mm 0,0 UV-I 0 W/m 1,4 C -1,3 C 33,8 km/h (5 Bft) 100,00 %
04.01.2018 02:12 6,7 C 3,9 C 69 % 1005,1 hPa 0,0 l/m 19,3 km/h (3 Bft) W-SW 247 0 min 0,000 mm 0,0 UV-I 0 W/m 1,4 C -0,7 C 29,0 km/h (5 Bft) 100,00 %
04.01.2018 02:13 6,7 C 3,9 C 69 % 1005,1 hPa 0,0 l/m 17,7 km/h (3 Bft) W-SW 247 0 min 0,000 mm 0,0 UV-I 0 W/m 1,4 C -0,1 C 25,7 km/h (4 Bft) 95,65 %
04.01.2018 02:14 6,7 C 3,9 C 69 % 1005,1 hPa 0,0 l/m 24,1 km/h (4 Bft) SW 225 0 min 0,000 mm 0,0 UV-I 0 W/m 1,4 C -2,4 C 30,6 km/h (5 Bft) 100,00 %
04.01.2018 02:15 6,7 C 3,9 C 69 % 1005,1 hPa 0,0 l/m 22,5 km/h (4 Bft) W-SW 247 0 min 0,000 mm 0,0 UV-I 0 W/m 1,4 C -1,9 C 29,0 km/h (5 Bft) 100,00 %
04.01.2018 02:16 6,7 C 3,9 C 69 % 1005,1 hPa 0,0 l/m 24,1 km/h (4 Bft) SW 225 0 min 0,000 mm 0,0 UV-I 0 W/m 1,4 C -2,4 C 35,4 km/h (5 Bft) 95,65 %
04.01.2018 02:17 6,7 C 3,9 C 69 % 1005,1 hPa 0,0 l/m 25,7 km/h (4 Bft) SW 225 0 min 0,000 mm 0,0 UV-I 0 W/m 1,4 C -2,8 C 35,4 km/h (5 Bft) 100,00 %
04.01.2018 02:18 6,7 C 3,9 C 69 % 1005,1 hPa 0,0 l/m 22,5 km/h (4 Bft) SW 225 0 min 0,000 mm 0,0 UV-I 0 W/m 1,4 C -1,9 C 27,4 km/h (4 Bft) 91,30 %
04.01.2018 02:19 6,7 C 3,9 C 69 % 1005,1 hPa 0,0 l/m 19,3 km/h (3 Bft) SW 225 0 min 0,000 mm 0,0 UV-I 0 W/m 1,4 C -0,7 C 25,7 km/h (4 Bft) 100,00 %
04.01.2018 02:20 6,7 C 3,9 C 69 % 1005,2 hPa 0,0 l/m 24,1 km/h (4 Bft) SW 225 0 min 0,000 mm 0,0 UV-I 0 W/m 1,4 C -2,4 C 35,4 km/h (5 Bft) 91,30 %
04.01.2018 02:21 6,7 C 3,9 C 69 % 1005,2 hPa 0,0 l/m 24,1 km/h (4 Bft) SW 225 0 min 0,000 mm 0,0 UV-I 0 W/m 1,4 C -2,4 C 37,0 km/h (5 Bft) 100,00 %
04.01.2018 02:22 6,7 C 3,9 C 69 % 1005,1 hPa 0,0 l/m 24,1 km/h (4 Bft) W-SW 247 0 min 0,000 mm 0,0 UV-I 0 W/m 1,4 C -2,4 C 33,8 km/h (5 Bft) 91,30 %
04.01.2018 02:23 6,7 C 3,9 C 69 % 1005,2 hPa 0,0 l/m 20,9 km/h (4 Bft) SW 225 0 min 0,000 mm 0,0 UV-I 0 W/m 1,4 C -1,3 C 25,7 km/h (4 Bft) 95,65 %
04.01.2018 02:24 6,7 C 3,9 C 69 % 1005,2 hPa 0,0 l/m 20,9 km/h (4 Bft) SW 225 0 min 0,000 mm 0,0 UV-I 0 W/m 1,4 C -1,3 C 29,0 km/h (5 Bft) 95,65 %
04.01.2018 02:25 6,7 C 3,9 C 69 % 1005,2 hPa 0,0 l/m 16,1 km/h (3 Bft) SW 225 0 min 0,000 mm 0,0 UV-I 0 W/m 1,4 C 0,6 C 19,3 km/h (3 Bft) 95,65 %
04.01.2018 02:26 6,7 C 3,9 C 70 % 1005,2 hPa 0,0 l/m 19,3 km/h (3 Bft) W-SW 247 0 min 0,000 mm 0,0 UV-I 0 W/m 1,6 C -0,7 C 29,0 km/h (5 Bft) 100,00 %
04.01.2018 02:27 6,6 C 3,9 C 70 % 1005,2 hPa 0,0 l/m 25,7 km/h (4 Bft) SW 225 0 min 0,000 mm 0,0 UV-I 0 W/m 1,5 C -3,0 C 37,0 km/h (5 Bft) 91,30 %
04.01.2018 02:28 6,6 C 3,9 C 70 % 1005,2 hPa 0,0 l/m 20,9 km/h (4 Bft) W-SW 247 0 min 0,000 mm 0,0 UV-I 0 W/m 1,5 C -1,4 C 30,6 km/h (5 Bft) 100,00 %
04.01.2018 02:29 6,6 C 3,9 C 70 % 1005,2 hPa 0,0 l/m 24,1 km/h (4 Bft) W-SW 247 0 min 0,000 mm 0,0 UV-I 0 W/m 1,5 C -2,5 C 35,4 km/h (5 Bft) 95,65 %
04.01.2018 02:30 6,6 C 3,9 C 70 % 1005,2 hPa 0,0 l/m 22,5 km/h (4 Bft) SW 225 0 min 0,000 mm 0,0 UV-I 0 W/m 1,5 C -2,0 C 35,4 km/h (5 Bft) 100,00 %
04.01.2018 02:31 6,6 C 3,9 C 69 % 1005,2 hPa 0,0 l/m 27,4 km/h (4 Bft) W-SW 247 0 min 0,000 mm 0,0 UV-I 0 W/m 1,3 C -3,5 C 35,4 km/h (5 Bft) 95,65 %
04.01.2018 02:32 6,6 C 3,9 C 70 % 1005,2 hPa 0,0 l/m 27,4 km/h (4 Bft) SW 225 0 min 0,000 mm 0,0 UV-I 0 W/m 1,5 C -3,5 C 35,4 km/h (5 Bft) 100,00 %
04.01.2018 02:33 6,6 C 3,9 C 69 % 1005,2 hPa 0,0 l/m 25,7 km/h (4 Bft) W-SW 247 0 min 0,000 mm 0,0 UV-I 0 W/m 1,3 C -3,0 C 35,4 km/h (5 Bft) 95,65 %
04.01.2018 02:34 6,6 C 3,9 C 69 % 1005,2 hPa 0,0 l/m 22,5 km/h (4 Bft) SW 225 0 min 0,000 mm 0,0 UV-I 0 W/m 1,3 C -2,0 C 30,6 km/h (5 Bft) 95,65 %
04.01.2018 02:35 6,7 C 3,9 C 69 % 1005,2 hPa 0,0 l/m 20,9 km/h (4 Bft) SW 225 0 min 0,000 mm 0,0 UV-I 0 W/m 1,4 C -1,3 C 33,8 km/h (5 Bft) 91,30 %
04.01.2018 02:36 6,7 C 3,9 C 69 % 1005,2 hPa 0,0 l/m 29,0 km/h (5 Bft) W-SW 247 0 min 0,000 mm 0,0 UV-I 0 W/m 1,4 C -3,7 C 38,6 km/h (5 Bft) 95,65 %
04.01.2018 02:37 6,7 C 3,9 C 69 % 1005,2 hPa 0,0 l/m 22,5 km/h (4 Bft) SW 225 0 min 0,000 mm 0,0 UV-I 0 W/m 1,4 C -1,9 C 32,2 km/h (5 Bft) 95,65 %
04.01.2018 02:38 6,7 C 3,9 C 69 % 1005,1 hPa 0,0 l/m 24,1 km/h (4 Bft) SW 225 0 min 0,000 mm 0,0 UV-I 0 W/m 1,4 C -2,4 C 37,0 km/h (5 Bft) 95,65 %
04.01.2018 02:39 6,7 C 3,9 C 69 % 1005,1 hPa 0,0 l/m 19,3 km/h (3 Bft) W-SW 247 0 min 0,000 mm 0,0 UV-I 0 W/m 1,4 C -0,7 C 29,0 km/h (5 Bft) 100,00 %
04.01.2018 02:40 6,6 C 3,9 C 69 % 1005,1 hPa 0,0 l/m 17,7 km/h (3 Bft) SW 225 0 min 0,000 mm 0,0 UV-I 0 W/m 1,3 C -0,2 C 29,0 km/h (5 Bft) 100,00 %
04.01.2018 02:41 6,6 C 3,9 C 69 % 1005,1 hPa 0,0 l/m 17,7 km/h (3 Bft) W-SW 247 0 min 0,000 mm 0,0 UV-I 0 W/m 1,3 C -0,2 C 22,5 km/h (4 Bft) 95,65 %
04.01.2018 02:42 6,6 C 3,9 C 70 % 1005,1 hPa 0,0 l/m 19,3 km/h (3 Bft) SW 225 0 min 0,000 mm 0,0 UV-I 0 W/m 1,5 C -0,8 C 27,4 km/h (4 Bft) 100,00 %
04.01.2018 02:43 6,6 C 3,9 C 69 % 1005,1 hPa 0,0 l/m 17,7 km/h (3 Bft) W-SW 247 0 min 0,000 mm 0,0 UV-I 0 W/m 1,3 C -0,2 C 22,5 km/h (4 Bft) 100,00 %
04.01.2018 02:44 6,6 C 3,9 C 69 % 1005,1 hPa 0,0 l/m 25,7 km/h (4 Bft) W-SW 247 0 min 0,000 mm 0,0 UV-I 0 W/m 1,3 C -3,0 C 35,4 km/h (5 Bft) 100,00 %
04.01.2018 02:45 6,6 C 3,9 C 70 % 1005,1 hPa 0,0 l/m 20,9 km/h (4 Bft) SW 225 0 min 0,000 mm 0,0 UV-I 0 W/m 1,5 C -1,4 C 29,0 km/h (5 Bft) 100,00 %
04.01.2018 02:46 6,6 C 3,9 C 69 % 1005,1 hPa 0,0 l/m 17,7 km/h (3 Bft) SW 225 0 min 0,000 mm 0,0 UV-I 0 W/m 1,3 C -0,2 C 24,1 km/h (4 Bft) 95,65 %
04.01.2018 02:47 6,6 C 3,9 C 70 % 1005,1 hPa 0,0 l/m 19,3 km/h (3 Bft) SW 225 0 min 0,000 mm 0,0 UV-I 0 W/m 1,5 C -0,8 C 32,2 km/h (5 Bft) 100,00 %
04.01.2018 02:48 6,6 C 3,9 C 69 % 1005,1 hPa 0,0 l/m 22,5 km/h (4 Bft) W-SW 247 0 min 0,000 mm 0,0 UV-I 0 W/m 1,3 C -2,0 C 32,2 km/h (5 Bft) 100,00 %
04.01.2018 02:49 6,6 C 3,9 C 69 % 1005,1 hPa 0,0 l/m 19,3 km/h (3 Bft) SW 225 0 min 0,000 mm 0,0 UV-I 0 W/m 1,3 C -0,8 C 29,0 km/h (5 Bft) 95,65 %
04.01.2018 02:50 6,5 C 3,9 C 69 % 1005,1 hPa 0,0 l/m 25,7 km/h (4 Bft) SW 225 0 min 0,000 mm 0,0 UV-I 0 W/m 1,2 C -3,1 C 41,8 km/h (6 Bft) 100,00 %
04.01.2018 02:51 6,6 C 3,9 C 69 % 1005,1 hPa 0,0 l/m 20,9 km/h (4 Bft) W-SW 247 0 min 0,000 mm 0,0 UV-I 0 W/m 1,3 C -1,4 C 32,2 km/h (5 Bft) 100,00 %
04.01.2018 02:52 6,5 C 3,9 C 69 % 1005,1 hPa 0,0 l/m 19,3 km/h (3 Bft) W-SW 247 0 min 0,000 mm 0,0 UV-I 0 W/m 1,2 C -1,0 C 33,8 km/h (5 Bft) 100,00 %
04.01.2018 02:53 6,5 C 3,9 C 69 % 1005,1 hPa 0,0 l/m 27,4 km/h (4 Bft) SW 225 0 min 0,000 mm 0,0 UV-I 0 W/m 1,2 C -3,6 C 35,4 km/h (5 Bft) 100,00 %
04.01.2018 02:54 6,5 C 3,9 C 69 % 1005,1 hPa 0,0 l/m 24,1 km/h (4 Bft) SW 225 0 min 0,000 mm 0,0 UV-I 0 W/m 1,2 C -2,6 C 30,6 km/h (5 Bft) 95,65 %
04.01.2018 02:55 6,5 C 3,9 C 69 % 1005,1 hPa 0,0 l/m 19,3 km/h (3 Bft) SW 225 0 min 0,000 mm 0,0 UV-I 0 W/m 1,2 C -1,0 C 27,4 km/h (4 Bft) 100,00 %
04.01.2018 02:56 6,5 C 3,9 C 70 % 1005,1 hPa 0,0 l/m 22,5 km/h (4 Bft) W-SW 247 0 min 0,000 mm 0,0 UV-I 0 W/m 1,4 C -2,1 C 32,2 km/h (5 Bft) 95,65 %
04.01.2018 02:57 6,5 C 3,9 C 70 % 1005,1 hPa 0,0 l/m 22,5 km/h (4 Bft) SW 225 0 min 0,000 mm 0,0 UV-I 0 W/m 1,4 C -2,1 C 30,6 km/h (5 Bft) 95,65 %
04.01.2018 02:58 6,4 C 3,9 C 70 % 1005,1 hPa 0,0 l/m 20,9 km/h (4 Bft) SW 225 0 min 0,000 mm 0,0 UV-I 0 W/m 1,3 C -1,7 C 33,8 km/h (5 Bft) 100,00 %
04.01.2018 02:59 6,4 C 3,9 C 70 % 1005,1 hPa 0,0 l/m 22,5 km/h (4 Bft) W-SW 247 0 min 0,000 mm 0,0 UV-I 0 W/m 1,3 C -2,3 C 27,4 km/h (4 Bft) 100,00 %
04.01.2018 03:00 6,4 C 3,9 C 70 % 1005,1 hPa 0,0 l/m 17,7 km/h (3 Bft) W-SW 247 0 min 0,076 mm 0,0 UV-I 0 W/m 1,3 C -0,4 C 24,1 km/h (4 Bft) 100,00 %
04.01.2018 03:01 6,4 C 3,9 C 70 % 1005,1 hPa 0,0 l/m 22,5 km/h (4 Bft) SW 225 0 min 0,000 mm 0,0 UV-I 0 W/m 1,3 C -2,3 C 33,8 km/h (5 Bft) 95,65 %
04.01.2018 03:02 6,4 C 3,9 C 70 % 1005,1 hPa 0,0 l/m 17,7 km/h (3 Bft) W-SW 247 0 min 0,000 mm 0,0 UV-I 0 W/m 1,3 C -0,4 C 29,0 km/h (5 Bft) 100,00 %
04.01.2018 03:03 6,4 C 3,9 C 70 % 1005,1 hPa 0,0 l/m 17,7 km/h (3 Bft) S-SW 202 0 min 0,000 mm 0,0 UV-I 0 W/m 1,3 C -0,4 C 22,5 km/h (4 Bft) 91,30 %
04.01.2018 03:04 6,4 C 3,9 C 70 % 1005,1 hPa 0,0 l/m 19,3 km/h (3 Bft) SW 225 0 min 0,000 mm 0,0 UV-I 0 W/m 1,3 C -1,1 C 25,7 km/h (4 Bft) 95,65 %
04.01.2018 03:05 6,4 C 3,9 C 70 % 1005,1 hPa 0,0 l/m 16,1 km/h (3 Bft) SW 225 0 min 0,000 mm 0,0 UV-I 0 W/m 1,3 C 0,3 C 24,1 km/h (4 Bft) 95,65 %
04.01.2018 03:06 6,4 C 3,9 C 70 % 1005,1 hPa 0,0 l/m 14,5 km/h (3 Bft) SW 225 0 min 0,000 mm 0,0 UV-I 0 W/m 1,3 C 1,0 C 24,1 km/h (4 Bft) 95,65 %
04.01.2018 03:07 6,4 C 3,9 C 70 % 1005,1 hPa 0,0 l/m 22,5 km/h (4 Bft) SW 225 0 min 0,000 mm 0,0 UV-I 0 W/m 1,3 C -2,3 C 30,6 km/h (5 Bft) 100,00 %
04.01.2018 03:08 6,4 C 3,9 C 70 % 1005,1 hPa 0,0 l/m 19,3 km/h (3 Bft) SW 225 0 min 0,000 mm 0,0 UV-I 0 W/m 1,3 C -1,1 C 29,0 km/h (5 Bft) 91,30 %
04.01.2018 03:09 6,4 C 3,9 C 70 % 1005,0 hPa 0,0 l/m 19,3 km/h (3 Bft) SW 225 0 min 0,000 mm 0,0 UV-I 0 W/m 1,3 C -1,1 C 30,6 km/h (5 Bft) 100,00 %
04.01.2018 03:10 6,3 C 3,9 C 70 % 1005,1 hPa 0,0 l/m 17,7 km/h (3 Bft) SW 225 0 min 0,000 mm 0,0 UV-I 0 W/m 1,2 C -0,6 C 27,4 km/h (4 Bft) 86,96 %
04.01.2018 03:11 6,3 C 3,9 C 70 % 1005,0 hPa 0,0 l/m 12,9 km/h (3 Bft) SW 225 0 min 0,000 mm 0,0 UV-I 0 W/m 1,2 C 1,7 C 16,1 km/h (3 Bft) 100,00 %
04.01.2018 03:12 6,3 C 3,9 C 71 % 1005,0 hPa 0,0 l/m 12,9 km/h (3 Bft) SW 225 0 min 0,000 mm 0,0 UV-I 0 W/m 1,4 C 1,7 C 20,9 km/h (4 Bft) 95,65 %
04.01.2018 03:13 6,3 C 3,9 C 71 % 1005,1 hPa 0,0 l/m 16,1 km/h (3 Bft) SW 225 0 min 0,000 mm 0,0 UV-I 0 W/m 1,4 C 0,1 C 22,5 km/h (4 Bft) 95,65 %
04.01.2018 03:14 6,3 C 3,9 C 71 % 1005,0 hPa 0,0 l/m 16,1 km/h (3 Bft) SW 225 0 min 0,000 mm 0,0 UV-I 0 W/m 1,4 C 0,1 C 20,9 km/h (4 Bft) 100,00 %
04.01.2018 03:15 6,3 C 3,9 C 71 % 1005,1 hPa 0,0 l/m 16,1 km/h (3 Bft) SW 225 0 min 0,000 mm 0,0 UV-I 0 W/m 1,4 C 0,1 C 20,9 km/h (4 Bft) 95,65 %
04.01.2018 03:16 6,3 C 3,9 C 71 % 1005,0 hPa 0,0 l/m 17,7 km/h (3 Bft) S-SW 202 0 min 0,000 mm 0,0 UV-I 0 W/m 1,4 C -0,6 C 22,5 km/h (4 Bft) 95,65 %
04.01.2018 03:17 6,3 C 3,9 C 71 % 1005,0 hPa 0,0 l/m 20,9 km/h (4 Bft) SW 225 0 min 0,000 mm 0,0 UV-I 0 W/m 1,4 C -1,8 C 33,8 km/h (5 Bft) 86,96 %
04.01.2018 03:18 6,3 C 3,9 C 71 % 1005,0 hPa 0,0 l/m 17,7 km/h (3 Bft) SW 225 0 min 0,000 mm 0,0 UV-I 0 W/m 1,4 C -0,6 C 32,2 km/h (5 Bft) 95,65 %
04.01.2018 03:19 6,3 C 3,9 C 70 % 1005,0 hPa 0,0 l/m 22,5 km/h (4 Bft) S-SW 202 0 min 0,000 mm 0,0 UV-I 0 W/m 1,2 C -2,4 C 29,0 km/h (5 Bft) 95,65 %
04.01.2018 03:20 6,4 C 3,9 C 70 % 1005,0 hPa 0,0 l/m 19,3 km/h (3 Bft) SW 225 0 min 0,000 mm 0,0 UV-I 0 W/m 1,3 C -1,1 C 33,8 km/h (5 Bft) 95,65 %
04.01.2018 03:21 6,4 C 3,9 C 70 % 1005,0 hPa 0,0 l/m 17,7 km/h (3 Bft) SW 225 0 min 0,000 mm 0,0 UV-I 0 W/m 1,3 C -0,4 C 25,7 km/h (4 Bft) 95,65 %
04.01.2018 03:22 6,4 C 3,9 C 70 % 1005,1 hPa 0,0 l/m 20,9 km/h (4 Bft) W-SW 247 0 min 0,000 mm 0,0 UV-I 0 W/m 1,3 C -1,7 C 29,0 km/h (5 Bft) 91,30 %
04.01.2018 03:23 6,4 C 3,9 C 70 % 1004,9 hPa 0,0 l/m 17,7 km/h (3 Bft) SW 225 0 min 0,000 mm 0,0 UV-I 0 W/m 1,3 C -0,4 C 24,1 km/h (4 Bft) 100,00 %
04.01.2018 03:24 6,4 C 3,9 C 70 % 1005,0 hPa 0,0 l/m 17,7 km/h (3 Bft) SW 225 0 min 0,000 mm 0,0 UV-I 0 W/m 1,3 C -0,4 C 25,7 km/h (4 Bft) 86,96 %
04.01.2018 03:25 6,4 C 3,9 C 70 % 1004,9 hPa 0,0 l/m 14,5 km/h (3 Bft) W-SW 247 0 min 0,000 mm 0,0 UV-I 0 W/m 1,3 C 1,0 C 19,3 km/h (3 Bft) 100,00 %
04.01.2018 03:26 6,4 C 3,9 C 71 % 1004,9 hPa 0,0 l/m 14,5 km/h (3 Bft) SW 225 0 min 0,000 mm 0,0 UV-I 0 W/m 1,5 C 1,0 C 22,5 km/h (4 Bft) 95,65 %
04.01.2018 03:27 6,4 C 3,9 C 70 % 1004,9 hPa 0,0 l/m 12,9 km/h (3 Bft) W-SW 247 0 min 0,000 mm 0,0 UV-I 0 W/m 1,3 C 1,9 C 19,3 km/h (3 Bft) 100,00 %
04.01.2018 03:28 6,3 C 3,9 C 71 % 1004,9 hPa 0,0 l/m 14,5 km/h (3 Bft) SW 225 0 min 0,000 mm 0,0 UV-I 0 W/m 1,4 C 0,9 C 19,3 km/h (3 Bft) 95,65 %
04.01.2018 03:29 6,3 C 3,9 C 71 % 1004,8 hPa 0,0 l/m 19,3 km/h (3 Bft) SW 225 0 min 0,000 mm 0,0 UV-I 0 W/m 1,4 C -1,2 C 25,7 km/h (4 Bft) 100,00 %
04.01.2018 03:30 6,3 C 3,9 C 71 % 1004,9 hPa 0,0 l/m 14,5 km/h (3 Bft) SW 225 0 min 0,000 mm 0,0 UV-I 0 W/m 1,4 C 0,9 C 22,5 km/h (4 Bft) 95,65 %
04.01.2018 03:31 6,3 C 3,9 C 71 % 1004,8 hPa 0,0 l/m 14,5 km/h (3 Bft) W-SW 247 0 min 0,000 mm 0,0 UV-I 0 W/m 1,4 C 0,9 C 20,9 km/h (4 Bft) 86,96 %
04.01.2018 03:32 6,3 C 3,9 C 71 % 1005,0 hPa 0,0 l/m 11,3 km/h (2 Bft) W-SW 247 0 min 0,000 mm 0,0 UV-I 0 W/m 1,4 C 2,7 C 16,1 km/h (3 Bft) 100,00 %
04.01.2018 03:33 6,3 C 3,9 C 71 % 1004,9 hPa 0,0 l/m 16,1 km/h (3 Bft) W-SW 247 0 min 0,000 mm 0,0 UV-I 0 W/m 1,4 C 0,1 C 22,5 km/h (4 Bft) 95,65 %
04.01.2018 03:34 6,3 C 3,9 C 71 % 1004,9 hPa 0,0 l/m 22,5 km/h (4 Bft) SW 225 0 min 0,000 mm 0,0 UV-I 0 W/m 1,4 C -2,4 C 30,6 km/h (5 Bft) 100,00 %
04.01.2018 03:35 6,3 C 3,9 C 71 % 1004,9 hPa 0,0 l/m 14,5 km/h (3 Bft) SW 225 0 min 0,000 mm 0,0 UV-I 0 W/m 1,4 C 0,9 C 20,9 km/h (4 Bft) 95,65 %
04.01.2018 03:36 6,3 C 3,9 C 71 % 1004,9 hPa 0,0 l/m 12,9 km/h (3 Bft) W-SW 247 0 min 0,000 mm 0,0 UV-I 0 W/m 1,4 C 1,7 C 16,1 km/h (3 Bft) 95,65 %
04.01.2018 03:37 6,3 C 3,9 C 71 % 1004,8 hPa 0,0 l/m 12,9 km/h (3 Bft) SW 225 0 min 0,000 mm 0,0 UV-I 0 W/m 1,4 C 1,7 C 20,9 km/h (4 Bft) 95,65 %
04.01.2018 03:38 6,3 C 3,9 C 71 % 1004,8 hPa 0,0 l/m 14,5 km/h (3 Bft) W-SW 247 0 min 0,000 mm 0,0 UV-I 0 W/m 1,4 C 0,9 C 24,1 km/h (4 Bft) 95,65 %
04.01.2018 03:39 6,3 C 3,9 C 71 % 1004,8 hPa 0,0 l/m 12,9 km/h (3 Bft) W-SW 247 0 min 0,000 mm 0,0 UV-I 0 W/m 1,4 C 1,7 C 17,7 km/h (3 Bft) 91,30 %
04.01.2018 03:40 6,3 C 3,9 C 71 % 1004,8 hPa 0,0 l/m 11,3 km/h (2 Bft) SW 225 0 min 0,000 mm 0,0 UV-I 0 W/m 1,4 C 2,7 C 20,9 km/h (4 Bft) 100,00 %
04.01.2018 03:41 6,3 C 3,9 C 71 % 1004,8 hPa 0,0 l/m 12,9 km/h (3 Bft) SW 225 0 min 0,000 mm 0,0 UV-I 0 W/m 1,4 C 1,7 C 19,3 km/h (3 Bft) 95,65 %
04.01.2018 03:42 6,3 C 3,9 C 72 % 1004,8 hPa 0,0 l/m 12,9 km/h (3 Bft) SW 225 0 min 0,000 mm 0,0 UV-I 0 W/m 1,6 C 1,7 C 17,7 km/h (3 Bft) 95,65 %
04.01.2018 03:43 6,3 C 3,9 C 72 % 1004,8 hPa 0,0 l/m 14,5 km/h (3 Bft) W-SW 247 0 min 0,000 mm 0,0 UV-I 0 W/m 1,6 C 0,9 C 19,3 km/h (3 Bft) 100,00 %
04.01.2018 03:44 6,3 C 3,9 C 72 % 1004,8 hPa 0,0 l/m 11,3 km/h (2 Bft) SW 225 0 min 0,000 mm 0,0 UV-I 0 W/m 1,6 C 2,7 C 17,7 km/h (3 Bft) 95,65 %
04.01.2018 03:45 6,3 C 3,9 C 71 % 1004,8 hPa 0,0 l/m 12,9 km/h (3 Bft) SW 225 0 min 0,000 mm 0,0 UV-I 0 W/m 1,4 C 1,7 C 17,7 km/h (3 Bft) 95,65 %
04.01.2018 03:46 6,3 C 3,9 C 71 % 1004,7 hPa 0,0 l/m 9,7 km/h (2 Bft) SW 225 0 min 0,000 mm 0,0 UV-I 0 W/m 1,4 C 3,7 C 16,1 km/h (3 Bft) 95,65 %
04.01.2018 03:47 6,3 C 3,9 C 71 % 1004,7 hPa 0,0 l/m 11,3 km/h (2 Bft) SW 225 0 min 0,000 mm 0,0 UV-I 0 W/m 1,4 C 2,7 C 20,9 km/h (4 Bft) 100,00 %
04.01.2018 03:48 6,3 C 3,9 C 71 % 1004,8 hPa 0,0 l/m 16,1 km/h (3 Bft) W-SW 247 0 min 0,000 mm 0,0 UV-I 0 W/m 1,4 C 0,1 C 22,5 km/h (4 Bft) 95,65 %
04.01.2018 03:49 6,3 C 3,9 C 72 % 1004,8 hPa 0,0 l/m 14,5 km/h (3 Bft) SW 225 0 min 0,000 mm 0,0 UV-I 0 W/m 1,6 C 0,9 C 20,9 km/h (4 Bft) 100,00 %
04.01.2018 03:50 6,3 C 3,9 C 72 % 1004,8 hPa 0,0 l/m 14,5 km/h (3 Bft) SW 225 0 min 0,000 mm 0,0 UV-I 0 W/m 1,6 C 0,9 C 20,9 km/h (4 Bft) 95,65 %
04.01.2018 03:51 6,3 C 3,9 C 72 % 1004,7 hPa 0,0 l/m 16,1 km/h (3 Bft) SW 225 0 min 0,000 mm 0,0 UV-I 0 W/m 1,6 C 0,1 C 19,3 km/h (3 Bft) 100,00 %
04.01.2018 03:52 6,3 C 3,9 C 72 % 1004,8 hPa 0,0 l/m 17,7 km/h (3 Bft) SW 225 0 min 0,000 mm 0,0 UV-I 0 W/m 1,6 C -0,6 C 24,1 km/h (4 Bft) 91,30 %
04.01.2018 03:53 6,3 C 3,9 C 72 % 1004,8 hPa 0,0 l/m 17,7 km/h (3 Bft) SW 225 0 min 0,000 mm 0,0 UV-I 0 W/m 1,6 C -0,6 C 25,7 km/h (4 Bft) 100,00 %
04.01.2018 03:54 6,3 C 3,9 C 72 % 1004,7 hPa 0,0 l/m 19,3 km/h (3 Bft) W-SW 247 0 min 0,000 mm 0,0 UV-I 0 W/m 1,6 C -1,2 C 29,0 km/h (5 Bft) 91,30 %
04.01.2018 03:55 6,3 C 3,9 C 72 % 1004,7 hPa 0,0 l/m 20,9 km/h (4 Bft) SW 225 0 min 0,000 mm 0,0 UV-I 0 W/m 1,6 C -1,8 C 29,0 km/h (5 Bft) 100,00 %
04.01.2018 03:56 6,3 C 3,9 C 71 % 1004,7 hPa 0,0 l/m 22,5 km/h (4 Bft) SW 225 0 min 0,000 mm 0,0 UV-I 0 W/m 1,4 C -2,4 C 27,4 km/h (4 Bft) 95,65 %
04.01.2018 03:57 6,3 C 3,9 C 71 % 1004,7 hPa 0,0 l/m 14,5 km/h (3 Bft) W-SW 247 0 min 0,000 mm 0,0 UV-I 0 W/m 1,4 C 0,9 C 19,3 km/h (3 Bft) 95,65 %
04.01.2018 03:58 6,3 C 3,9 C 72 % 1004,7 hPa 0,0 l/m 16,1 km/h (3 Bft) SW 225 0 min 0,000 mm 0,0 UV-I 0 W/m 1,6 C 0,1 C 19,3 km/h (3 Bft) 100,00 %
04.01.2018 03:59 6,3 C 3,9 C 72 % 1004,7 hPa 0,0 l/m 20,9 km/h (4 Bft) W-SW 247 0 min 0,000 mm 0,0 UV-I 0 W/m 1,6 C -1,8 C 30,6 km/h (5 Bft) 91,30 %
04.01.2018 04:00 6,3 C 3,9 C 72 % 1004,7 hPa 0,0 l/m 20,9 km/h (4 Bft) SW 225 0 min 0,051 mm 0,0 UV-I 0 W/m 1,6 C -1,8 C 32,2 km/h (5 Bft) 91,30 %
04.01.2018 04:01 6,3 C 3,9 C 72 % 1004,7 hPa 0,0 l/m 24,1 km/h (4 Bft) SW 225 0 min 0,000 mm 0,0 UV-I 0 W/m 1,6 C -2,9 C 32,2 km/h (5 Bft) 95,65 %
04.01.2018 04:02 6,3 C 3,9 C 72 % 1004,7 hPa 0,0 l/m 24,1 km/h (4 Bft) W-SW 247 0 min 0,000 mm 0,0 UV-I 0 W/m 1,6 C -2,9 C 33,8 km/h (5 Bft) 100,00 %
04.01.2018 04:03 6,3 C 3,9 C 72 % 1004,7 hPa 0,0 l/m 16,1 km/h (3 Bft) W-SW 247 0 min 0,000 mm 0,0 UV-I 0 W/m 1,6 C 0,1 C 22,5 km/h (4 Bft) 100,00 %
04.01.2018 04:04 6,3 C 3,9 C 72 % 1004,7 hPa 0,0 l/m 17,7 km/h (3 Bft) W-SW 247 0 min 0,000 mm 0,0 UV-I 0 W/m 1,6 C -0,6 C 25,7 km/h (4 Bft) 100,00 %
04.01.2018 04:05 6,3 C 3,9 C 72 % 1004,6 hPa 0,0 l/m 19,3 km/h (3 Bft) W-SW 247 0 min 0,000 mm 0,0 UV-I 0 W/m 1,6 C -1,2 C 27,4 km/h (4 Bft) 100,00 %
04.01.2018 04:06 6,3 C 3,9 C 72 % 1004,6 hPa 0,0 l/m 22,5 km/h (4 Bft) W-SW 247 0 min 0,000 mm 0,0 UV-I 0 W/m 1,6 C -2,4 C 33,8 km/h (5 Bft) 91,30 %
04.01.2018 04:07 6,3 C 3,9 C 73 % 1004,6 hPa 0,0 l/m 16,1 km/h (3 Bft) W-SW 247 0 min 0,000 mm 0,0 UV-I 0 W/m 1,8 C 0,1 C 24,1 km/h (4 Bft) 95,65 %
04.01.2018 04:08 6,2 C 3,9 C 73 % 1004,6 hPa 0,0 l/m 16,1 km/h (3 Bft) SW 225 0 min 0,000 mm 0,0 UV-I 0 W/m 1,7 C 0,0 C 27,4 km/h (4 Bft) 100,00 %
04.01.2018 04:09 6,2 C 3,9 C 73 % 1004,6 hPa 0,0 l/m 19,3 km/h (3 Bft) W 270 0 min 0,000 mm 0,0 UV-I 0 W/m 1,7 C -1,4 C 30,6 km/h (5 Bft) 100,00 %
04.01.2018 04:10 6,2 C 3,9 C 73 % 1004,6 hPa 0,0 l/m 17,7 km/h (3 Bft) W-SW 247 0 min 0,000 mm 0,0 UV-I 0 W/m 1,7 C -0,7 C 24,1 km/h (4 Bft) 100,00 %
04.01.2018 04:11 6,2 C 3,9 C 73 % 1004,6 hPa 0,0 l/m 14,5 km/h (3 Bft) W-SW 247 0 min 0,000 mm 0,0 UV-I 0 W/m 1,7 C 0,8 C 24,1 km/h (4 Bft) 100,00 %
04.01.2018 04:12 6,2 C 3,9 C 73 % 1004,5 hPa 0,0 l/m 14,5 km/h (3 Bft) W-SW 247 0 min 0,000 mm 0,0 UV-I 0 W/m 1,7 C 0,8 C 25,7 km/h (4 Bft) 100,00 %
04.01.2018 04:13 6,2 C 3,9 C 73 % 1004,5 hPa 0,0 l/m 16,1 km/h (3 Bft) SW 225 0 min 0,000 mm 0,0 UV-I 0 W/m 1,7 C 0,0 C 25,7 km/h (4 Bft) 95,65 %
04.01.2018 04:14 6,2 C 3,9 C 73 % 1004,6 hPa 0,0 l/m 16,1 km/h (3 Bft) SW 225 0 min 0,000 mm 0,0 UV-I 0 W/m 1,7 C 0,0 C 22,5 km/h (4 Bft) 100,00 %
04.01.2018 04:15 6,1 C 3,9 C 74 % 1004,6 hPa 0,0 l/m 16,1 km/h (3 Bft) SW 225 0 min 0,000 mm 0,0 UV-I 0 W/m 1,8 C -0,1 C 24,1 km/h (4 Bft) 95,65 %
04.01.2018 04:16 6,1 C 3,9 C 74 % 1004,6 hPa 0,0 l/m 16,1 km/h (3 Bft) SW 225 0 min 0,000 mm 0,0 UV-I 0 W/m 1,8 C -0,1 C 25,7 km/h (4 Bft) 100,00 %
04.01.2018 04:17 6,1 C 3,9 C 74 % 1004,6 hPa 0,0 l/m 11,3 km/h (2 Bft) SW 225 0 min 0,000 mm 0,0 UV-I 0 W/m 1,8 C 2,4 C 17,7 km/h (3 Bft) 100,00 %
04.01.2018 04:18 6,1 C 3,9 C 74 % 1004,6 hPa 0,0 l/m 16,1 km/h (3 Bft) SW 225 0 min 0,000 mm 0,0 UV-I 0 W/m 1,8 C -0,1 C 22,5 km/h (4 Bft) 100,00 %
04.01.2018 04:19 6,1 C 3,9 C 74 % 1004,6 hPa 0,0 l/m 16,1 km/h (3 Bft) W-SW 247 0 min 0,000 mm 0,0 UV-I 0 W/m 1,8 C -0,1 C 22,5 km/h (4 Bft) 95,65 %
04.01.2018 04:20 6,1 C 3,9 C 74 % 1004,6 hPa 0,0 l/m 16,1 km/h (3 Bft) W-SW 247 0 min 0,000 mm 0,0 UV-I 0 W/m 1,8 C -0,1 C 25,7 km/h (4 Bft) 95,65 %
04.01.2018 04:21 6,1 C 3,9 C 74 % 1004,7 hPa 0,0 l/m 12,9 km/h (3 Bft) SW 225 0 min 0,000 mm 0,0 UV-I 0 W/m 1,8 C 1,5 C 19,3 km/h (3 Bft) 100,00 %
04.01.2018 04:22 6,1 C 3,9 C 74 % 1004,7 hPa 0,0 l/m 17,7 km/h (3 Bft) SW 225 0 min 0,000 mm 0,0 UV-I 0 W/m 1,8 C -0,8 C 24,1 km/h (4 Bft) 100,00 %
04.01.2018 04:23 6,1 C 3,9 C 74 % 1004,7 hPa 0,0 l/m 19,3 km/h (3 Bft) W-SW 247 0 min 0,000 mm 0,0 UV-I 0 W/m 1,8 C -1,5 C 29,0 km/h (5 Bft) 100,00 %
04.01.2018 04:24 6,1 C 3,9 C 73 % 1004,6 hPa 0,0 l/m 19,3 km/h (3 Bft) W-SW 247 0 min 0,000 mm 0,0 UV-I 0 W/m 1,6 C -1,5 C 29,0 km/h (5 Bft) 100,00 %
04.01.2018 04:25 6,2 C 3,9 C 73 % 1004,6 hPa 0,0 l/m 20,9 km/h (4 Bft) SW 225 0 min 0,000 mm 0,0 UV-I 0 W/m 1,7 C -2,0 C 30,6 km/h (5 Bft) 100,00 %
04.01.2018 04:26 6,2 C 3,9 C 73 % 1004,6 hPa 0,0 l/m 22,5 km/h (4 Bft) SW 225 0 min 0,000 mm 0,0 UV-I 0 W/m 1,7 C -2,5 C 29,0 km/h (5 Bft) 100,00 %
04.01.2018 04:27 6,3 C 3,9 C 72 % 1004,6 hPa 0,0 l/m 17,7 km/h (3 Bft) SW 225 0 min 0,000 mm 0,0 UV-I 0 W/m 1,6 C -0,6 C 25,7 km/h (4 Bft) 95,65 %
04.01.2018 04:28 6,3 C 3,9 C 72 % 1004,6 hPa 0,0 l/m 17,7 km/h (3 Bft) SW 225 0 min 0,000 mm 0,0 UV-I 0 W/m 1,6 C -0,6 C 25,7 km/h (4 Bft) 100,00 %
04.01.2018 04:29 6,3 C 3,9 C 72 % 1004,6 hPa 0,0 l/m 17,7 km/h (3 Bft) SW 225 0 min 0,000 mm 0,0 UV-I 0 W/m 1,6 C -0,6 C 25,7 km/h (4 Bft) 100,00 %
04.01.2018 04:30 6,3 C 3,9 C 72 % 1004,6 hPa 0,0 l/m 16,1 km/h (3 Bft) W-SW 247 0 min 0,000 mm 0,0 UV-I 0 W/m 1,6 C 0,1 C 27,4 km/h (4 Bft) 95,65 %
04.01.2018 04:31 6,3 C 3,9 C 72 % 1004,6 hPa 0,0 l/m 19,3 km/h (3 Bft) W-SW 247 0 min 0,000 mm 0,0 UV-I 0 W/m 1,6 C -1,2 C 30,6 km/h (5 Bft) 100,00 %
04.01.2018 04:32 6,3 C 3,9 C 72 % 1004,6 hPa 0,0 l/m 16,1 km/h (3 Bft) SW 225 0 min 0,000 mm 0,0 UV-I 0 W/m 1,6 C 0,1 C 22,5 km/h (4 Bft) 100,00 %
04.01.2018 04:33 6,3 C 3,9 C 72 % 1004,6 hPa 0,0 l/m 12,9 km/h (3 Bft) SW 225 0 min 0,000 mm 0,0 UV-I 0 W/m 1,6 C 1,7 C 19,3 km/h (3 Bft) 95,65 %
04.01.2018 04:34 6,3 C 3,9 C 72 % 1004,6 hPa 0,0 l/m 12,9 km/h (3 Bft) W-SW 247 0 min 0,000 mm 0,0 UV-I 0 W/m 1,6 C 1,7 C 19,3 km/h (3 Bft) 91,30 %
04.01.2018 04:35 6,2 C 3,9 C 72 % 1004,6 hPa 0,0 l/m 16,1 km/h (3 Bft) W-SW 247 0 min 0,000 mm 0,0 UV-I 0 W/m 1,5 C 0,0 C 32,2 km/h (5 Bft) 100,00 %
04.01.2018 04:36 6,3 C 3,9 C 72 % 1004,5 hPa 0,0 l/m 20,9 km/h (4 Bft) SW 225 0 min 0,000 mm 0,0 UV-I 0 W/m 1,6 C -1,8 C 27,4 km/h (4 Bft) 100,00 %
04.01.2018 04:37 6,3 C 3,9 C 72 % 1004,6 hPa 0,0 l/m 22,5 km/h (4 Bft) SW 225 0 min 0,000 mm 0,0 UV-I 0 W/m 1,6 C -2,4 C 30,6 km/h (5 Bft) 100,00 %
04.01.2018 04:38 6,3 C 3,9 C 72 % 1004,6 hPa 0,0 l/m 16,1 km/h (3 Bft) SW 225 0 min 0,000 mm 0,0 UV-I 0 W/m 1,6 C 0,1 C 30,6 km/h (5 Bft) 95,65 %
04.01.2018 04:39 6,3 C 3,9 C 71 % 1004,5 hPa 0,0 l/m 20,9 km/h (4 Bft) W-SW 247 0 min 0,000 mm 0,0 UV-I 0 W/m 1,4 C -1,8 C 27,4 km/h (4 Bft) 100,00 %
04.01.2018 04:40 6,3 C 3,9 C 71 % 1004,6 hPa 0,0 l/m 16,1 km/h (3 Bft) SW 225 0 min 0,000 mm 0,0 UV-I 0 W/m 1,4 C 0,1 C 19,3 km/h (3 Bft) 100,00 %
04.01.2018 04:41 6,3 C 3,9 C 72 % 1004,6 hPa 0,0 l/m 20,9 km/h (4 Bft) SW 225 0 min 0,000 mm 0,0 UV-I 0 W/m 1,6 C -1,8 C 27,4 km/h (4 Bft) 95,65 %
04.01.2018 04:42 6,3 C 3,9 C 72 % 1004,5 hPa 0,0 l/m 19,3 km/h (3 Bft) SW 225 0 min 0,000 mm 0,0 UV-I 0 W/m 1,6 C -1,2 C 27,4 km/h (4 Bft) 100,00 %
04.01.2018 04:43 6,3 C 3,9 C 72 % 1004,5 hPa 0,0 l/m 19,3 km/h (3 Bft) W-SW 247 0 min 0,000 mm 0,0 UV-I 0 W/m 1,6 C -1,2 C 25,7 km/h (4 Bft) 91,30 %
04.01.2018 04:44 6,3 C 3,9 C 72 % 1004,5 hPa 0,0 l/m 14,5 km/h (3 Bft) W-SW 247 0 min 0,000 mm 0,0 UV-I 0 W/m 1,6 C 0,9 C 25,7 km/h (4 Bft) 100,00 %
04.01.2018 04:45 6,3 C 3,9 C 72 % 1004,5 hPa 0,0 l/m 12,9 km/h (3 Bft) W-SW 247 0 min 0,000 mm 0,0 UV-I 0 W/m 1,6 C 1,7 C 17,7 km/h (3 Bft) 100,00 %
04.01.2018 04:46 6,3 C 3,9 C 72 % 1004,5 hPa 0,0 l/m 16,1 km/h (3 Bft) W-SW 247 0 min 0,000 mm 0,0 UV-I 0 W/m 1,6 C 0,1 C 20,9 km/h (4 Bft) 100,00 %
04.01.2018 04:47 6,3 C 3,9 C 71 % 1004,5 hPa 0,0 l/m 17,7 km/h (3 Bft) SW 225 0 min 0,000 mm 0,0 UV-I 0 W/m 1,4 C -0,6 C 25,7 km/h (4 Bft) 100,00 %
04.01.2018 04:48 6,3 C 3,9 C 72 % 1004,5 hPa 0,0 l/m 16,1 km/h (3 Bft) W-SW 247 0 min 0,000 mm 0,0 UV-I 0 W/m 1,6 C 0,1 C 29,0 km/h (5 Bft) 95,65 %
04.01.2018 04:49 6,3 C 3,9 C 71 % 1004,4 hPa 0,0 l/m 17,7 km/h (3 Bft) W-SW 247 0 min 0,000 mm 0,0 UV-I 0 W/m 1,4 C -0,6 C 25,7 km/h (4 Bft) 100,00 %
04.01.2018 04:50 6,3 C 3,9 C 71 % 1004,4 hPa 0,0 l/m 16,1 km/h (3 Bft) SW 225 0 min 0,000 mm 0,0 UV-I 0 W/m 1,4 C 0,1 C 24,1 km/h (4 Bft) 100,00 %
04.01.2018 04:51 6,3 C 3,9 C 71 % 1004,5 hPa 0,0 l/m 17,7 km/h (3 Bft) SW 225 0 min 0,000 mm 0,0 UV-I 0 W/m 1,4 C -0,6 C 22,5 km/h (4 Bft) 100,00 %
04.01.2018 04:52 6,3 C 3,9 C 71 % 1004,5 hPa 0,0 l/m 12,9 km/h (3 Bft) W-SW 247 0 min 0,000 mm 0,0 UV-I 0 W/m 1,4 C 1,7 C 17,7 km/h (3 Bft) 100,00 %
04.01.2018 04:53 6,3 C 3,9 C 72 % 1004,5 hPa 0,0 l/m 12,9 km/h (3 Bft) SW 225 0 min 0,000 mm 0,0 UV-I 0 W/m 1,6 C 1,7 C 19,3 km/h (3 Bft) 100,00 %
04.01.2018 04:54 6,3 C 3,9 C 72 % 1004,5 hPa 0,0 l/m 12,9 km/h (3 Bft) SW 225 0 min 0,000 mm 0,0 UV-I 0 W/m 1,6 C 1,7 C 19,3 km/h (3 Bft) 100,00 %
04.01.2018 04:55 6,2 C 3,9 C 72 % 1004,5 hPa 0,0 l/m 16,1 km/h (3 Bft) SW 225 0 min 0,000 mm 0,0 UV-I 0 W/m 1,5 C 0,0 C 19,3 km/h (3 Bft) 95,65 %
04.01.2018 04:56 6,2 C 3,9 C 72 % 1004,5 hPa 0,0 l/m 12,9 km/h (3 Bft) SW 225 0 min 0,000 mm 0,0 UV-I 0 W/m 1,5 C 1,6 C 17,7 km/h (3 Bft) 100,00 %
04.01.2018 04:57 6,2 C 3,9 C 72 % 1004,5 hPa 0,0 l/m 17,7 km/h (3 Bft) SW 225 0 min 0,000 mm 0,0 UV-I 0 W/m 1,5 C -0,7 C 24,1 km/h (4 Bft) 100,00 %
04.01.2018 04:58 6,2 C 3,9 C 72 % 1004,5 hPa 0,0 l/m 14,5 km/h (3 Bft) SW 225 0 min 0,000 mm 0,0 UV-I 0 W/m 1,5 C 0,8 C 22,5 km/h (4 Bft) 100,00 %
04.01.2018 04:59 6,2 C 3,9 C 72 % 1004,4 hPa 0,0 l/m 16,1 km/h (3 Bft) SW 225 0 min 0,000 mm 0,0 UV-I 0 W/m 1,5 C 0,0 C 24,1 km/h (4 Bft) 100,00 %
04.01.2018 05:00 6,2 C 3,9 C 72 % 1004,5 hPa 0,0 l/m 14,5 km/h (3 Bft) SW 225 0 min 0,051 mm 0,0 UV-I 0 W/m 1,5 C 0,8 C 20,9 km/h (4 Bft) 100,00 %
04.01.2018 05:01 6,2 C 3,9 C 72 % 1004,5 hPa 0,0 l/m 16,1 km/h (3 Bft) SW 225 0 min 0,000 mm 0,0 UV-I 0 W/m 1,5 C 0,0 C 27,4 km/h (4 Bft) 100,00 %
04.01.2018 05:02 6,2 C 3,9 C 72 % 1004,5 hPa 0,0 l/m 12,9 km/h (3 Bft) SW 225 0 min 0,000 mm 0,0 UV-I 0 W/m 1,5 C 1,6 C 20,9 km/h (4 Bft) 95,65 %
04.01.2018 05:03 6,2 C 3,9 C 72 % 1004,5 hPa 0,0 l/m 20,9 km/h (4 Bft) SW 225 0 min 0,000 mm 0,0 UV-I 0 W/m 1,5 C -2,0 C 32,2 km/h (5 Bft) 91,30 %
04.01.2018 05:04 6,2 C 3,9 C 72 % 1004,5 hPa 0,0 l/m 17,7 km/h (3 Bft) SW 225 0 min 0,000 mm 0,0 UV-I 0 W/m 1,5 C -0,7 C 25,7 km/h (4 Bft) 100,00 %
04.01.2018 05:05 6,2 C 3,9 C 72 % 1004,5 hPa 0,0 l/m 17,7 km/h (3 Bft) SW 225 0 min 0,000 mm 0,0 UV-I 0 W/m 1,5 C -0,7 C 24,1 km/h (4 Bft) 95,65 %
04.01.2018 05:06 6,2 C 3,9 C 72 % 1004,6 hPa 0,0 l/m 20,9 km/h (4 Bft) SW 225 0 min 0,000 mm 0,0 UV-I 0 W/m 1,5 C -2,0 C 25,7 km/h (4 Bft) 100,00 %
04.01.2018 05:07 6,2 C 3,9 C 72 % 1004,6 hPa 0,0 l/m 16,1 km/h (3 Bft) SW 225 0 min 0,000 mm 0,0 UV-I 0 W/m 1,5 C 0,0 C 20,9 km/h (4 Bft) 91,30 %
04.01.2018 05:08 6,2 C 3,9 C 72 % 1004,6 hPa 0,0 l/m 20,9 km/h (4 Bft) W-SW 247 0 min 0,000 mm 0,0 UV-I 0 W/m 1,5 C -2,0 C 29,0 km/h (5 Bft) 95,65 %
04.01.2018 05:09 6,2 C 3,9 C 72 % 1004,6 hPa 0,0 l/m 16,1 km/h (3 Bft) SW 225 0 min 0,000 mm 0,0 UV-I 0 W/m 1,5 C 0,0 C 24,1 km/h (4 Bft) 86,96 %
04.01.2018 05:10 6,2 C 3,9 C 72 % 1004,5 hPa 0,0 l/m 14,5 km/h (3 Bft) W-SW 247 0 min 0,000 mm 0,0 UV-I 0 W/m 1,5 C 0,8 C 22,5 km/h (4 Bft) 95,65 %
04.01.2018 05:11 6,2 C 3,9 C 72 % 1004,5 hPa 0,0 l/m 16,1 km/h (3 Bft) SW 225 0 min 0,000 mm 0,0 UV-I 0 W/m 1,5 C 0,0 C 22,5 km/h (4 Bft) 95,65 %
04.01.2018 05:12 6,2 C 3,9 C 72 % 1004,6 hPa 0,0 l/m 19,3 km/h (3 Bft) SW 225 0 min 0,000 mm 0,0 UV-I 0 W/m 1,5 C -1,4 C 32,2 km/h (5 Bft) 91,30 %
04.01.2018 05:13 6,2 C 3,9 C 72 % 1004,6 hPa 0,0 l/m 22,5 km/h (4 Bft) W-SW 247 0 min 0,000 mm 0,0 UV-I 0 W/m 1,5 C -2,5 C 29,0 km/h (5 Bft) 95,65 %
04.01.2018 05:14 6,2 C 3,9 C 72 % 1004,6 hPa 0,0 l/m 20,9 km/h (4 Bft) W-SW 247 0 min 0,000 mm 0,0 UV-I 0 W/m 1,5 C -2,0 C 30,6 km/h (5 Bft) 95,65 %
04.01.2018 05:15 6,2 C 3,9 C 72 % 1004,6 hPa 0,0 l/m 14,5 km/h (3 Bft) SW 225 0 min 0,000 mm 0,0 UV-I 0 W/m 1,5 C 0,8 C 20,9 km/h (4 Bft) 91,30 %
04.01.2018 05:16 6,2 C 3,9 C 72 % 1004,6 hPa 0,0 l/m 19,3 km/h (3 Bft) SW 225 0 min 0,000 mm 0,0 UV-I 0 W/m 1,5 C -1,4 C 30,6 km/h (5 Bft) 95,65 %
04.01.2018 05:17 6,2 C 3,9 C 72 % 1004,6 hPa 0,0 l/m 20,9 km/h (4 Bft) SW 225 0 min 0,000 mm 0,0 UV-I 0 W/m 1,5 C -2,0 C 24,1 km/h (4 Bft) 91,30 %
04.01.2018 05:18 6,2 C 3,9 C 72 % 1004,5 hPa 0,0 l/m 17,7 km/h (3 Bft) SW 225 0 min 0,000 mm 0,0 UV-I 0 W/m 1,5 C -0,7 C 24,1 km/h (4 Bft) 91,30 %
04.01.2018 05:19 6,2 C 3,9 C 72 % 1004,5 hPa 0,0 l/m 11,3 km/h (2 Bft) SW 225 0 min 0,000 mm 0,0 UV-I 0 W/m 1,5 C 2,6 C 16,1 km/h (3 Bft) 95,65 %
04.01.2018 05:20 6,2 C 3,9 C 72 % 1004,5 hPa 0,0 l/m 14,5 km/h (3 Bft) SW 225 0 min 0,000 mm 0,0 UV-I 0 W/m 1,5 C 0,8 C 22,5 km/h (4 Bft) 95,65 %
04.01.2018 05:21 6,2 C 3,9 C 72 % 1004,5 hPa 0,0 l/m 17,7 km/h (3 Bft) SW 225 0 min 0,000 mm 0,0 UV-I 0 W/m 1,5 C -0,7 C 25,7 km/h (4 Bft) 95,65 %
04.01.2018 05:22 6,2 C 3,9 C 72 % 1004,5 hPa 0,0 l/m 17,7 km/h (3 Bft) SW 225 0 min 0,000 mm 0,0 UV-I 0 W/m 1,5 C -0,7 C 22,5 km/h (4 Bft) 91,30 %
04.01.2018 05:23 6,1 C 3,9 C 73 % 1004,5 hPa 0,0 l/m 19,3 km/h (3 Bft) W-SW 247 0 min 0,000 mm 0,0 UV-I 0 W/m 1,6 C -1,5 C 24,1 km/h (4 Bft) 95,65 %
04.01.2018 05:24 6,1 C 3,9 C 73 % 1004,6 hPa 0,0 l/m 17,7 km/h (3 Bft) SW 225 0 min 0,000 mm 0,0 UV-I 0 W/m 1,6 C -0,8 C 22,5 km/h (4 Bft) 91,30 %
04.01.2018 05:25 6,1 C 3,9 C 73 % 1004,6 hPa 0,0 l/m 17,7 km/h (3 Bft) SW 225 0 min 0,000 mm 0,0 UV-I 0 W/m 1,6 C -0,8 C 25,7 km/h (4 Bft) 100,00 %
04.01.2018 05:26 6,1 C 3,9 C 73 % 1004,6 hPa 0,0 l/m 19,3 km/h (3 Bft) SW 225 0 min 0,000 mm 0,0 UV-I 0 W/m 1,6 C -1,5 C 33,8 km/h (5 Bft) 91,30 %
04.01.2018 05:27 6,2 C 3,9 C 72 % 1004,5 hPa 0,0 l/m 29,0 km/h (5 Bft) W-SW 247 0 min 0,000 mm 0,0 UV-I 0 W/m 1,5 C -4,4 C 38,6 km/h (5 Bft) 100,00 %
04.01.2018 05:28 6,2 C 3,9 C 72 % 1004,6 hPa 0,0 l/m 20,9 km/h (4 Bft) SW 225 0 min 0,000 mm 0,0 UV-I 0 W/m 1,5 C -2,0 C 25,7 km/h (4 Bft) 91,30 %
04.01.2018 05:29 6,3 C 3,9 C 72 % 1004,6 hPa 0,0 l/m 22,5 km/h (4 Bft) W-SW 247 0 min 0,000 mm 0,0 UV-I 0 W/m 1,6 C -2,4 C 30,6 km/h (5 Bft) 100,00 %
04.01.2018 05:30 6,3 C 3,9 C 72 % 1004,7 hPa 0,0 l/m 25,7 km/h (4 Bft) SW 225 0 min 0,000 mm 0,0 UV-I 0 W/m 1,6 C -3,4 C 33,8 km/h (5 Bft) 91,30 %
04.01.2018 05:31 6,3 C 3,9 C 72 % 1004,7 hPa 0,0 l/m 12,9 km/h (3 Bft) W-SW 247 0 min 0,000 mm 0,0 UV-I 0 W/m 1,6 C 1,7 C 17,7 km/h (3 Bft) 95,65 %
04.01.2018 05:32 6,3 C 3,9 C 72 % 1004,7 hPa 0,0 l/m 19,3 km/h (3 Bft) W-SW 247 0 min 0,000 mm 0,0 UV-I 0 W/m 1,6 C -1,2 C 29,0 km/h (5 Bft) 100,00 %
04.01.2018 05:33 6,3 C 3,9 C 72 % 1004,7 hPa 0,0 l/m 14,5 km/h (3 Bft) SW 225 0 min 0,000 mm 0,0 UV-I 0 W/m 1,6 C 0,9 C 22,5 km/h (4 Bft) 95,65 %
04.01.2018 05:34 6,2 C 3,9 C 72 % 1004,7 hPa 0,0 l/m 11,3 km/h (2 Bft) SW 225 0 min 0,000 mm 0,0 UV-I 0 W/m 1,5 C 2,6 C 19,3 km/h (3 Bft) 100,00 %
04.01.2018 05:35 6,2 C 3,9 C 72 % 1004,7 hPa 0,0 l/m 20,9 km/h (4 Bft) SW 225 0 min 0,000 mm 0,0 UV-I 0 W/m 1,5 C -2,0 C 27,4 km/h (4 Bft) 95,65 %
04.01.2018 05:36 6,2 C 3,9 C 72 % 1004,6 hPa 0,0 l/m 16,1 km/h (3 Bft) W-SW 247 0 min 0,000 mm 0,0 UV-I 0 W/m 1,5 C 0,0 C 24,1 km/h (4 Bft) 95,65 %
04.01.2018 05:37 6,2 C 3,9 C 72 % 1004,7 hPa 0,0 l/m 14,5 km/h (3 Bft) SW 225 0 min 0,000 mm 0,0 UV-I 0 W/m 1,5 C 0,8 C 20,9 km/h (4 Bft) 91,30 %
04.01.2018 05:38 6,1 C 3,9 C 73 % 1004,7 hPa 0,0 l/m 14,5 km/h (3 Bft) W-SW 247 0 min 0,000 mm 0,0 UV-I 0 W/m 1,6 C 0,7 C 17,7 km/h (3 Bft) 100,00 %
04.01.2018 05:39 6,1 C 3,9 C 73 % 1004,7 hPa 0,0 l/m 12,9 km/h (3 Bft) SW 225 0 min 0,000 mm 0,0 UV-I 0 W/m 1,6 C 1,5 C 20,9 km/h (4 Bft) 95,65 %
04.01.2018 05:40 6,1 C 3,9 C 73 % 1004,6 hPa 0,0 l/m 12,9 km/h (3 Bft) W-SW 247 0 min 0,000 mm 0,0 UV-I 0 W/m 1,6 C 1,5 C 17,7 km/h (3 Bft) 95,65 %
04.01.2018 05:41 6,1 C 3,9 C 73 % 1004,7 hPa 0,0 l/m 12,9 km/h (3 Bft) W-SW 247 0 min 0,000 mm 0,0 UV-I 0 W/m 1,6 C 1,5 C 19,3 km/h (3 Bft) 100,00 %
04.01.2018 05:42 6,1 C 3,9 C 73 % 1004,7 hPa 0,0 l/m 14,5 km/h (3 Bft) W-SW 247 0 min 0,000 mm 0,0 UV-I 0 W/m 1,6 C 0,7 C 20,9 km/h (4 Bft) 95,65 %
04.01.2018 05:43 6,0 C 3,9 C 73 % 1004,7 hPa 0,0 l/m 14,5 km/h (3 Bft) SW 225 0 min 0,000 mm 0,0 UV-I 0 W/m 1,5 C 0,5 C 20,9 km/h (4 Bft) 100,00 %
04.01.2018 05:44 6,0 C 3,9 C 73 % 1004,6 hPa 0,0 l/m 14,5 km/h (3 Bft) SW 225 0 min 0,000 mm 0,0 UV-I 0 W/m 1,5 C 0,5 C 19,3 km/h (3 Bft) 86,96 %
04.01.2018 05:45 6,0 C 3,9 C 73 % 1004,7 hPa 0,0 l/m 17,7 km/h (3 Bft) SW 225 0 min 0,000 mm 0,0 UV-I 0 W/m 1,5 C -1,0 C 24,1 km/h (4 Bft) 100,00 %
04.01.2018 05:46 6,0 C 3,9 C 73 % 1004,6 hPa 0,0 l/m 14,5 km/h (3 Bft) W-SW 247 0 min 0,000 mm 0,0 UV-I 0 W/m 1,5 C 0,5 C 20,9 km/h (4 Bft) 95,65 %
04.01.2018 05:47 6,0 C 3,9 C 73 % 1004,7 hPa 0,0 l/m 14,5 km/h (3 Bft) SW 225 0 min 0,000 mm 0,0 UV-I 0 W/m 1,5 C 0,5 C 19,3 km/h (3 Bft) 100,00 %
04.01.2018 05:48 6,0 C 3,9 C 73 % 1004,7 hPa 0,0 l/m 20,9 km/h (4 Bft) W-SW 247 0 min 0,000 mm 0,0 UV-I 0 W/m 1,5 C -2,2 C 27,4 km/h (4 Bft) 100,00 %
04.01.2018 05:49 6,1 C 3,9 C 73 % 1004,7 hPa 0,0 l/m 17,7 km/h (3 Bft) SW 225 0 min 0,000 mm 0,0 UV-I 0 W/m 1,6 C -0,8 C 27,4 km/h (4 Bft) 95,65 %
04.01.2018 05:50 6,1 C 3,9 C 73 % 1004,7 hPa 0,0 l/m 17,7 km/h (3 Bft) SW 225 0 min 0,000 mm 0,0 UV-I 0 W/m 1,6 C -0,8 C 22,5 km/h (4 Bft) 100,00 %
04.01.2018 05:51 6,0 C 3,9 C 73 % 1004,7 hPa 0,0 l/m 14,5 km/h (3 Bft) SW 225 0 min 0,000 mm 0,0 UV-I 0 W/m 1,5 C 0,5 C 27,4 km/h (4 Bft) 95,65 %
04.01.2018 05:52 6,1 C 3,9 C 74 % 1004,7 hPa 0,0 l/m 22,5 km/h (4 Bft) SW 225 0 min 0,000 mm 0,0 UV-I 0 W/m 1,8 C -2,6 C 29,0 km/h (5 Bft) 95,65 %
04.01.2018 05:53 6,1 C 3,9 C 73 % 1004,7 hPa 0,0 l/m 17,7 km/h (3 Bft) W-SW 247 0 min 0,000 mm 0,0 UV-I 0 W/m 1,6 C -0,8 C 27,4 km/h (4 Bft) 100,00 %
04.01.2018 05:54 6,1 C 3,9 C 74 % 1004,8 hPa 0,0 l/m 16,1 km/h (3 Bft) W-SW 247 0 min 0,000 mm 0,0 UV-I 0 W/m 1,8 C -0,1 C 22,5 km/h (4 Bft) 95,65 %
04.01.2018 05:55 6,1 C 3,9 C 74 % 1004,8 hPa 0,0 l/m 17,7 km/h (3 Bft) SW 225 0 min 0,000 mm 0,0 UV-I 0 W/m 1,8 C -0,8 C 24,1 km/h (4 Bft) 100,00 %
04.01.2018 05:56 6,1 C 3,9 C 73 % 1004,8 hPa 0,0 l/m 16,1 km/h (3 Bft) SW 225 0 min 0,000 mm 0,0 UV-I 0 W/m 1,6 C -0,1 C 29,0 km/h (5 Bft) 100,00 %
04.01.2018 05:57 6,1 C 3,9 C 74 % 1004,7 hPa 0,0 l/m 22,5 km/h (4 Bft) SW 225 0 min 0,000 mm 0,0 UV-I 0 W/m 1,8 C -2,6 C 29,0 km/h (5 Bft) 100,00 %
04.01.2018 05:58 6,1 C 3,9 C 73 % 1004,8 hPa 0,0 l/m 19,3 km/h (3 Bft) SW 225 0 min 0,000 mm 0,0 UV-I 0 W/m 1,6 C -1,5 C 30,6 km/h (5 Bft) 95,65 %
04.01.2018 05:59 6,1 C 3,9 C 73 % 1004,7 hPa 0,0 l/m 17,7 km/h (3 Bft) W-SW 247 0 min 0,000 mm 0,0 UV-I 0 W/m 1,6 C -0,8 C 29,0 km/h (5 Bft) 100,00 %
04.01.2018 06:00 6,1 C 3,9 C 73 % 1004,8 hPa 0,0 l/m 12,9 km/h (3 Bft) W-SW 247 0 min 0,051 mm 0,0 UV-I 0 W/m 1,6 C 1,5 C 24,1 km/h (4 Bft) 95,65 %
04.01.2018 06:01 6,1 C 3,9 C 73 % 1004,8 hPa 0,0 l/m 16,1 km/h (3 Bft) SW 225 0 min 0,000 mm 0,0 UV-I 0 W/m 1,6 C -0,1 C 20,9 km/h (4 Bft) 100,00 %
04.01.2018 06:02 6,1 C 3,9 C 73 % 1004,8 hPa 0,0 l/m 14,5 km/h (3 Bft) W-SW 247 0 min 0,000 mm 0,0 UV-I 0 W/m 1,6 C 0,7 C 20,9 km/h (4 Bft) 100,00 %
04.01.2018 06:03 6,1 C 3,9 C 73 % 1004,8 hPa 0,0 l/m 17,7 km/h (3 Bft) W-SW 247 0 min 0,000 mm 0,0 UV-I 0 W/m 1,6 C -0,8 C 22,5 km/h (4 Bft) 100,00 %
04.01.2018 06:04 6,1 C 3,9 C 73 % 1004,8 hPa 0,0 l/m 16,1 km/h (3 Bft) SW 225 0 min 0,000 mm 0,0 UV-I 0 W/m 1,6 C -0,1 C 20,9 km/h (4 Bft) 100,00 %
04.01.2018 06:05 6,1 C 3,9 C 73 % 1004,8 hPa 0,0 l/m 17,7 km/h (3 Bft) W-SW 247 0 min 0,000 mm 0,0 UV-I 0 W/m 1,6 C -0,8 C 22,5 km/h (4 Bft) 95,65 %
04.01.2018 06:06 6,1 C 3,9 C 73 % 1004,8 hPa 0,0 l/m 14,5 km/h (3 Bft) W-SW 247 0 min 0,000 mm 0,0 UV-I 0 W/m 1,6 C 0,7 C 22,5 km/h (4 Bft) 100,00 %
04.01.2018 06:07 6,1 C 3,9 C 74 % 1004,8 hPa 0,0 l/m 11,3 km/h (2 Bft) SW 225 0 min 0,000 mm 0,0 UV-I 0 W/m 1,8 C 2,4 C 17,7 km/h (3 Bft) 100,00 %
04.01.2018 06:08 6,0 C 3,9 C 74 % 1004,8 hPa 0,0 l/m 17,7 km/h (3 Bft) SW 225 0 min 0,000 mm 0,0 UV-I 0 W/m 1,7 C -1,0 C 22,5 km/h (4 Bft) 100,00 %
04.01.2018 06:09 6,0 C 3,9 C 74 % 1004,8 hPa 0,0 l/m 16,1 km/h (3 Bft) SW 225 0 min 0,000 mm 0,0 UV-I 0 W/m 1,7 C -0,2 C 24,1 km/h (4 Bft) 100,00 %
04.01.2018 06:10 6,0 C 3,9 C 74 % 1004,8 hPa 0,0 l/m 17,7 km/h (3 Bft) W-SW 247 0 min 0,000 mm 0,0 UV-I 0 W/m 1,7 C -1,0 C 22,5 km/h (4 Bft) 100,00 %
04.01.2018 06:11 6,0 C 3,9 C 74 % 1004,8 hPa 0,0 l/m 9,7 km/h (2 Bft) SW 225 0 min 0,000 mm 0,0 UV-I 0 W/m 1,7 C 3,4 C 16,1 km/h (3 Bft) 100,00 %
04.01.2018 06:12 6,0 C 3,9 C 74 % 1004,8 hPa 0,0 l/m 12,9 km/h (3 Bft) SW 225 0 min 0,000 mm 0,0 UV-I 0 W/m 1,7 C 1,4 C 17,7 km/h (3 Bft) 95,65 %
04.01.2018 06:13 6,0 C 3,9 C 74 % 1004,8 hPa 0,0 l/m 14,5 km/h (3 Bft) SW 225 0 min 0,000 mm 0,0 UV-I 0 W/m 1,7 C 0,5 C 20,9 km/h (4 Bft) 100,00 %
04.01.2018 06:14 6,0 C 3,9 C 74 % 1004,8 hPa 0,0 l/m 17,7 km/h (3 Bft) SW 225 0 min 0,000 mm 0,0 UV-I 0 W/m 1,7 C -1,0 C 24,1 km/h (4 Bft) 100,00 %
04.01.2018 06:15 6,0 C 3,9 C 74 % 1004,8 hPa 0,0 l/m 14,5 km/h (3 Bft) W-SW 247 0 min 0,000 mm 0,0 UV-I 0 W/m 1,7 C 0,5 C 24,1 km/h (4 Bft) 100,00 %
04.01.2018 06:16 5,9 C 3,9 C 74 % 1004,7 hPa 0,0 l/m 14,5 km/h (3 Bft) SW 225 0 min 0,000 mm 0,0 UV-I 0 W/m 1,6 C 0,4 C 24,1 km/h (4 Bft) 100,00 %
04.01.2018 06:17 5,9 C 3,9 C 74 % 1004,8 hPa 0,0 l/m 16,1 km/h (3 Bft) W-SW 247 0 min 0,000 mm 0,0 UV-I 0 W/m 1,6 C -0,4 C 27,4 km/h (4 Bft) 100,00 %
04.01.2018 06:18 5,9 C 3,9 C 74 % 1004,8 hPa 0,0 l/m 12,9 km/h (3 Bft) SW 225 0 min 0,000 mm 0,0 UV-I 0 W/m 1,6 C 1,3 C 19,3 km/h (3 Bft) 95,65 %
04.01.2018 06:19 5,9 C 3,9 C 74 % 1004,8 hPa 0,0 l/m 14,5 km/h (3 Bft) SW 225 0 min 0,000 mm 0,0 UV-I 0 W/m 1,6 C 0,4 C 22,5 km/h (4 Bft) 95,65 %
04.01.2018 06:20 5,9 C 3,9 C 74 % 1004,7 hPa 0,0 l/m 12,9 km/h (3 Bft) SW 225 0 min 0,000 mm 0,0 UV-I 0 W/m 1,6 C 1,3 C 19,3 km/h (3 Bft) 95,65 %
04.01.2018 06:21 5,9 C 3,9 C 74 % 1004,8 hPa 0,0 l/m 16,1 km/h (3 Bft) SW 225 0 min 0,000 mm 0,0 UV-I 0 W/m 1,6 C -0,4 C 22,5 km/h (4 Bft) 100,00 %
04.01.2018 06:22 5,9 C 3,9 C 74 % 1004,8 hPa 0,0 l/m 14,5 km/h (3 Bft) SW 225 0 min 0,000 mm 0,0 UV-I 0 W/m 1,6 C 0,4 C 17,7 km/h (3 Bft) 100,00 %
04.01.2018 06:23 5,9 C 3,9 C 74 % 1004,8 hPa 0,0 l/m 14,5 km/h (3 Bft) SW 225 0 min 0,000 mm 0,0 UV-I 0 W/m 1,6 C 0,4 C 19,3 km/h (3 Bft) 100,00 %
04.01.2018 06:24 5,9 C 3,9 C 74 % 1004,8 hPa 0,0 l/m 12,9 km/h (3 Bft) SW 225 0 min 0,000 mm 0,0 UV-I 0 W/m 1,6 C 1,3 C 20,9 km/h (4 Bft) 95,65 %
04.01.2018 06:25 5,9 C 3,9 C 74 % 1004,8 hPa 0,0 l/m 19,3 km/h (3 Bft) SW 225 0 min 0,000 mm 0,0 UV-I 0 W/m 1,6 C -1,7 C 25,7 km/h (4 Bft) 100,00 %
04.01.2018 06:26 5,9 C 3,9 C 74 % 1004,8 hPa 0,0 l/m 14,5 km/h (3 Bft) W-SW 247 0 min 0,000 mm 0,0 UV-I 0 W/m 1,6 C 0,4 C 24,1 km/h (4 Bft) 91,30 %
04.01.2018 06:27 5,9 C 3,9 C 74 % 1004,8 hPa 0,0 l/m 16,1 km/h (3 Bft) SW 225 0 min 0,000 mm 0,0 UV-I 0 W/m 1,6 C -0,4 C 19,3 km/h (3 Bft) 100,00 %
04.01.2018 06:28 5,9 C 3,9 C 74 % 1004,8 hPa 0,0 l/m 14,5 km/h (3 Bft) W-SW 247 0 min 0,000 mm 0,0 UV-I 0 W/m 1,6 C 0,4 C 24,1 km/h (4 Bft) 95,65 %
04.01.2018 06:29 5,9 C 3,9 C 74 % 1004,9 hPa 0,0 l/m 17,7 km/h (3 Bft) W-SW 247 0 min 0,000 mm 0,0 UV-I 0 W/m 1,6 C -1,1 C 24,1 km/h (4 Bft) 100,00 %
04.01.2018 06:30 5,9 C 3,9 C 74 % 1004,8 hPa 0,0 l/m 17,7 km/h (3 Bft) SW 225 0 min 0,000 mm 0,0 UV-I 0 W/m 1,6 C -1,1 C 22,5 km/h (4 Bft) 95,65 %
04.01.2018 06:31 5,9 C 3,9 C 74 % 1004,8 hPa 0,0 l/m 16,1 km/h (3 Bft) W-SW 247 0 min 0,000 mm 0,0 UV-I 0 W/m 1,6 C -0,4 C 24,1 km/h (4 Bft) 100,00 %
04.01.2018 06:32 5,8 C 3,9 C 74 % 1005,0 hPa 0,0 l/m 19,3 km/h (3 Bft) SW 225 0 min 0,000 mm 0,0 UV-I 0 W/m 1,5 C -1,9 C 27,4 km/h (4 Bft) 95,65 %
04.01.2018 06:33 5,8 C 3,9 C 74 % 1004,9 hPa 0,0 l/m 14,5 km/h (3 Bft) W-SW 247 0 min 0,000 mm 0,0 UV-I 0 W/m 1,5 C 0,3 C 20,9 km/h (4 Bft) 95,65 %
04.01.2018 06:34 5,8 C 3,9 C 74 % 1004,9 hPa 0,0 l/m 19,3 km/h (3 Bft) SW 225 0 min 0,000 mm 0,0 UV-I 0 W/m 1,5 C -1,9 C 25,7 km/h (4 Bft) 95,65 %
04.01.2018 06:35 5,8 C 3,9 C 74 % 1004,8 hPa 0,0 l/m 19,3 km/h (3 Bft) W-SW 247 0 min 0,000 mm 0,0 UV-I 0 W/m 1,5 C -1,9 C 29,0 km/h (5 Bft) 100,00 %
04.01.2018 06:36 5,8 C 3,9 C 74 % 1004,8 hPa 0,0 l/m 16,1 km/h (3 Bft) S-SW 202 0 min 0,000 mm 0,0 UV-I 0 W/m 1,5 C -0,5 C 24,1 km/h (4 Bft) 91,30 %
04.01.2018 06:37 5,9 C 3,9 C 74 % 1004,8 hPa 0,0 l/m 16,1 km/h (3 Bft) W-SW 247 0 min 0,000 mm 0,0 UV-I 0 W/m 1,6 C -0,4 C 24,1 km/h (4 Bft) 95,65 %
04.01.2018 06:38 5,9 C 3,9 C 74 % 1004,8 hPa 0,0 l/m 16,1 km/h (3 Bft) SW 225 0 min 0,000 mm 0,0 UV-I 0 W/m 1,6 C -0,4 C 19,3 km/h (3 Bft) 100,00 %
04.01.2018 06:39 5,9 C 3,9 C 74 % 1004,8 hPa 0,0 l/m 14,5 km/h (3 Bft) SW 225 0 min 0,000 mm 0,0 UV-I 0 W/m 1,6 C 0,4 C 17,7 km/h (3 Bft) 95,65 %
04.01.2018 06:40 5,9 C 3,9 C 74 % 1004,8 hPa 0,0 l/m 12,9 km/h (3 Bft) SW 225 0 min 0,000 mm 0,0 UV-I 0 W/m 1,6 C 1,3 C 17,7 km/h (3 Bft) 95,65 %
04.01.2018 06:41 5,8 C 3,9 C 74 % 1004,8 hPa 0,0 l/m 12,9 km/h (3 Bft) SW 225 0 min 0,000 mm 0,0 UV-I 0 W/m 1,5 C 1,2 C 17,7 km/h (3 Bft) 95,65 %
04.01.2018 06:42 5,9 C 3,9 C 74 % 1004,8 hPa 0,0 l/m 12,9 km/h (3 Bft) SW 225 0 min 0,000 mm 0,0 UV-I 0 W/m 1,6 C 1,3 C 19,3 km/h (3 Bft) 100,00 %
04.01.2018 06:43 5,8 C 3,9 C 74 % 1004,8 hPa 0,0 l/m 14,5 km/h (3 Bft) SW 225 0 min 0,000 mm 0,0 UV-I 0 W/m 1,5 C 0,3 C 22,5 km/h (4 Bft) 91,30 %
04.01.2018 06:44 5,8 C 3,9 C 74 % 1004,7 hPa 0,0 l/m 12,9 km/h (3 Bft) W-SW 247 0 min 0,000 mm 0,0 UV-I 0 W/m 1,5 C 1,2 C 16,1 km/h (3 Bft) 95,65 %
04.01.2018 06:45 5,8 C 3,9 C 74 % 1004,7 hPa 0,0 l/m 12,9 km/h (3 Bft) SW 225 0 min 0,000 mm 0,0 UV-I 0 W/m 1,5 C 1,2 C 19,3 km/h (3 Bft) 91,30 %
04.01.2018 06:46 5,8 C 3,9 C 74 % 1004,8 hPa 0,0 l/m 17,7 km/h (3 Bft) SW 225 0 min 0,000 mm 0,0 UV-I 0 W/m 1,5 C -1,2 C 24,1 km/h (4 Bft) 95,65 %
04.01.2018 06:47 5,9 C 3,9 C 74 % 1004,8 hPa 0,0 l/m 17,7 km/h (3 Bft) W-SW 247 0 min 0,000 mm 0,0 UV-I 0 W/m 1,6 C -1,1 C 22,5 km/h (4 Bft) 91,30 %
04.01.2018 06:48 5,9 C 3,9 C 74 % 1004,8 hPa 0,0 l/m 14,5 km/h (3 Bft) SW 225 0 min 0,000 mm 0,0 UV-I 0 W/m 1,6 C 0,4 C 20,9 km/h (4 Bft) 100,00 %
04.01.2018 06:49 5,9 C 3,9 C 74 % 1004,8 hPa 0,0 l/m 16,1 km/h (3 Bft) SW 225 0 min 0,000 mm 0,0 UV-I 0 W/m 1,6 C -0,4 C 20,9 km/h (4 Bft) 95,65 %
04.01.2018 06:50 5,9 C 3,9 C 74 % 1004,8 hPa 0,0 l/m 11,3 km/h (2 Bft) SW 225 0 min 0,000 mm 0,0 UV-I 0 W/m 1,6 C 2,2 C 14,5 km/h (3 Bft) 100,00 %
04.01.2018 06:51 5,9 C 3,9 C 74 % 1004,8 hPa 0,0 l/m 14,5 km/h (3 Bft) SW 225 0 min 0,000 mm 0,0 UV-I 0 W/m 1,6 C 0,4 C 19,3 km/h (3 Bft) 95,65 %
04.01.2018 06:52 5,9 C 3,9 C 74 % 1004,7 hPa 0,0 l/m 17,7 km/h (3 Bft) SW 225 0 min 0,000 mm 0,0 UV-I 0 W/m 1,6 C -1,1 C 30,6 km/h (5 Bft) 100,00 %
04.01.2018 06:53 5,9 C 3,9 C 74 % 1004,8 hPa 0,0 l/m 16,1 km/h (3 Bft) SW 225 0 min 0,000 mm 0,0 UV-I 0 W/m 1,6 C -0,4 C 25,7 km/h (4 Bft) 100,00 %
04.01.2018 06:54 5,9 C 3,9 C 74 % 1004,7 hPa 0,0 l/m 12,9 km/h (3 Bft) SW 225 0 min 0,000 mm 0,0 UV-I 0 W/m 1,6 C 1,3 C 22,5 km/h (4 Bft) 95,65 %
04.01.2018 06:55 5,9 C 3,9 C 74 % 1004,8 hPa 0,0 l/m 14,5 km/h (3 Bft) W-SW 247 0 min 0,000 mm 0,0 UV-I 0 W/m 1,6 C 0,4 C 20,9 km/h (4 Bft) 100,00 %
04.01.2018 06:56 5,9 C 3,9 C 74 % 1004,8 hPa 0,0 l/m 16,1 km/h (3 Bft) SW 225 0 min 0,000 mm 0,0 UV-I 0 W/m 1,6 C -0,4 C 19,3 km/h (3 Bft) 100,00 %
04.01.2018 06:57 5,8 C 3,9 C 74 % 1004,8 hPa 0,0 l/m 12,9 km/h (3 Bft) SW 225 0 min 0,000 mm 0,0 UV-I 0 W/m 1,5 C 1,2 C 16,1 km/h (3 Bft) 100,00 %
04.01.2018 06:58 5,8 C 3,9 C 74 % 1004,8 hPa 0,0 l/m 14,5 km/h (3 Bft) SW 225 0 min 0,000 mm 0,0 UV-I 0 W/m 1,5 C 0,3 C 19,3 km/h (3 Bft) 100,00 %
04.01.2018 06:59 5,8 C 3,9 C 74 % 1004,7 hPa 0,0 l/m 14,5 km/h (3 Bft) SW 225 0 min 0,000 mm 0,0 UV-I 0 W/m 1,5 C 0,3 C 22,5 km/h (4 Bft) 95,65 %
04.01.2018 07:00 5,9 C 3,9 C 74 % 1004,7 hPa 0,0 l/m 11,3 km/h (2 Bft) SW 225 0 min 0,051 mm 0,0 UV-I 0 W/m 1,6 C 2,2 C 19,3 km/h (3 Bft) 100,00 %
04.01.2018 07:01 5,9 C 3,9 C 74 % 1004,7 hPa 0,0 l/m 16,1 km/h (3 Bft) W-SW 247 0 min 0,000 mm 0,0 UV-I 0 W/m 1,6 C -0,4 C 24,1 km/h (4 Bft) 95,65 %
04.01.2018 07:02 5,9 C 3,9 C 74 % 1004,6 hPa 0,0 l/m 12,9 km/h (3 Bft) SW 225 0 min 0,000 mm 0,0 UV-I 0 W/m 1,6 C 1,3 C 20,9 km/h (4 Bft) 100,00 %
04.01.2018 07:03 5,9 C 3,9 C 74 % 1004,7 hPa 0,0 l/m 11,3 km/h (2 Bft) SW 225 0 min 0,000 mm 0,0 UV-I 0 W/m 1,6 C 2,2 C 16,1 km/h (3 Bft) 100,00 %
04.01.2018 07:04 5,9 C 3,9 C 74 % 1004,7 hPa 0,0 l/m 12,9 km/h (3 Bft) W-SW 247 0 min 0,000 mm 0,0 UV-I 0 W/m 1,6 C 1,3 C 17,7 km/h (3 Bft) 95,65 %
04.01.2018 07:05 5,9 C 3,9 C 74 % 1004,7 hPa 0,0 l/m 14,5 km/h (3 Bft) SW 225 0 min 0,000 mm 0,0 UV-I 0 W/m 1,6 C 0,4 C 24,1 km/h (4 Bft) 100,00 %
04.01.2018 07:06 5,8 C 3,9 C 74 % 1004,7 hPa 0,0 l/m 11,3 km/h (2 Bft) W-SW 247 0 min 0,000 mm 0,0 UV-I 0 W/m 1,5 C 2,1 C 17,7 km/h (3 Bft) 100,00 %
04.01.2018 07:07 5,8 C 3,9 C 74 % 1004,7 hPa 0,0 l/m 16,1 km/h (3 Bft) SW 225 0 min 0,000 mm 0,0 UV-I 0 W/m 1,5 C -0,5 C 24,1 km/h (4 Bft) 100,00 %
04.01.2018 07:08 5,8 C 3,9 C 74 % 1004,7 hPa 0,0 l/m 16,1 km/h (3 Bft) SW 225 0 min 0,000 mm 0,0 UV-I 0 W/m 1,5 C -0,5 C 19,3 km/h (3 Bft) 86,96 %
04.01.2018 07:09 5,9 C 3,9 C 74 % 1004,7 hPa 0,0 l/m 16,1 km/h (3 Bft) SW 225 0 min 0,000 mm 0,0 UV-I 0 W/m 1,6 C -0,4 C 20,9 km/h (4 Bft) 95,65 %
04.01.2018 07:10 5,9 C 3,9 C 75 % 1004,7 hPa 0,0 l/m 17,7 km/h (3 Bft) SW 225 0 min 0,000 mm 0,0 UV-I 0 W/m 1,8 C -1,1 C 24,1 km/h (4 Bft) 95,65 %
04.01.2018 07:11 5,9 C 3,9 C 75 % 1004,6 hPa 0,0 l/m 14,5 km/h (3 Bft) W-SW 247 0 min 0,000 mm 0,0 UV-I 0 W/m 1,8 C 0,4 C 19,3 km/h (3 Bft) 100,00 %
04.01.2018 07:12 5,9 C 3,9 C 74 % 1004,7 hPa 0,0 l/m 11,3 km/h (2 Bft) SW 225 0 min 0,000 mm 0,0 UV-I 0 W/m 1,6 C 2,2 C 22,5 km/h (4 Bft) 100,00 %
04.01.2018 07:13 5,9 C 3,9 C 74 % 1004,7 hPa 0,0 l/m 14,5 km/h (3 Bft) SW 225 0 min 0,000 mm 0,0 UV-I 0 W/m 1,6 C 0,4 C 22,5 km/h (4 Bft) 100,00 %
04.01.2018 07:14 5,9 C 3,9 C 74 % 1004,7 hPa 0,0 l/m 17,7 km/h (3 Bft) SW 225 0 min 0,000 mm 0,0 UV-I 0 W/m 1,6 C -1,1 C 24,1 km/h (4 Bft) 100,00 %
04.01.2018 07:15 5,9 C 3,9 C 74 % 1004,7 hPa 0,0 l/m 16,1 km/h (3 Bft) SW 225 0 min 0,000 mm 0,0 UV-I 0 W/m 1,6 C -0,4 C 24,1 km/h (4 Bft) 91,30 %
04.01.2018 07:16 5,9 C 3,9 C 74 % 1004,7 hPa 0,0 l/m 17,7 km/h (3 Bft) SW 225 0 min 0,000 mm 0,0 UV-I 0 W/m 1,6 C -1,1 C 25,7 km/h (4 Bft) 100,00 %
04.01.2018 07:17 5,9 C 3,9 C 74 % 1004,7 hPa 0,0 l/m 14,5 km/h (3 Bft) SW 225 0 min 0,000 mm 0,0 UV-I 0 W/m 1,6 C 0,4 C 17,7 km/h (3 Bft) 95,65 %
04.01.2018 07:18 5,9 C 3,9 C 74 % 1004,8 hPa 0,0 l/m 16,1 km/h (3 Bft) SW 225 0 min 0,000 mm 0,0 UV-I 0 W/m 1,6 C -0,4 C 22,5 km/h (4 Bft) 100,00 %
04.01.2018 07:19 5,9 C 3,9 C 74 % 1004,8 hPa 0,0 l/m 14,5 km/h (3 Bft) W-SW 247 0 min 0,000 mm 0,0 UV-I 0 W/m 1,6 C 0,4 C 22,5 km/h (4 Bft) 95,65 %
04.01.2018 07:20 5,9 C 3,9 C 74 % 1004,7 hPa 0,0 l/m 14,5 km/h (3 Bft) SW 225 0 min 0,000 mm 0,0 UV-I 0 W/m 1,6 C 0,4 C 22,5 km/h (4 Bft) 100,00 %
04.01.2018 07:21 5,9 C 3,9 C 75 % 1004,8 hPa 0,0 l/m 14,5 km/h (3 Bft) SW 225 0 min 0,000 mm 0,0 UV-I 0 W/m 1,8 C 0,4 C 20,9 km/h (4 Bft) 91,30 %
04.01.2018 07:22 5,9 C 3,9 C 75 % 1004,8 hPa 0,0 l/m 19,3 km/h (3 Bft) SW 225 0 min 0,000 mm 0,0 UV-I 0 W/m 1,8 C -1,7 C 24,1 km/h (4 Bft) 95,65 %
04.01.2018 07:23 5,9 C 3,9 C 75 % 1004,8 hPa 0,0 l/m 12,9 km/h (3 Bft) SW 225 0 min 0,000 mm 0,0 UV-I 0 W/m 1,8 C 1,3 C 20,9 km/h (4 Bft) 95,65 %
04.01.2018 07:24 5,8 C 3,9 C 75 % 1004,8 hPa 0,0 l/m 12,9 km/h (3 Bft) W-SW 247 0 min 0,000 mm 0,0 UV-I 0 W/m 1,7 C 1,2 C 19,3 km/h (3 Bft) 95,65 %
04.01.2018 07:25 5,8 C 3,9 C 75 % 1004,8 hPa 0,0 l/m 16,1 km/h (3 Bft) SW 225 0 min 0,000 mm 0,0 UV-I 0 W/m 1,7 C -0,5 C 24,1 km/h (4 Bft) 100,00 %
04.01.2018 07:26 5,9 C 3,9 C 75 % 1004,8 hPa 0,0 l/m 16,1 km/h (3 Bft) SW 225 0 min 0,000 mm 0,0 UV-I 0 W/m 1,8 C -0,4 C 22,5 km/h (4 Bft) 95,65 %
04.01.2018 07:27 5,9 C 3,9 C 75 % 1004,9 hPa 0,0 l/m 16,1 km/h (3 Bft) SW 225 0 min 0,000 mm 0,0 UV-I 0 W/m 1,8 C -0,4 C 22,5 km/h (4 Bft) 100,00 %
04.01.2018 07:28 5,9 C 3,9 C 75 % 1004,9 hPa 0,0 l/m 22,5 km/h (4 Bft) W-SW 247 0 min 0,000 mm 0,0 UV-I 0 W/m 1,8 C -2,9 C 25,7 km/h (4 Bft) 95,65 %
04.01.2018 07:29 5,9 C 3,9 C 75 % 1004,8 hPa 0,0 l/m 16,1 km/h (3 Bft) SW 225 0 min 0,000 mm 0,0 UV-I 0 W/m 1,8 C -0,4 C 22,5 km/h (4 Bft) 95,65 %
04.01.2018 07:30 5,9 C 3,9 C 75 % 1004,9 hPa 0,0 l/m 17,7 km/h (3 Bft) SW 225 0 min 0,000 mm 0,0 UV-I 0 W/m 1,8 C -1,1 C 24,1 km/h (4 Bft) 95,65 %
04.01.2018 07:31 5,9 C 3,9 C 74 % 1004,9 hPa 0,0 l/m 14,5 km/h (3 Bft) SW 225 0 min 0,000 mm 0,0 UV-I 0 W/m 1,6 C 0,4 C 22,5 km/h (4 Bft) 100,00 %
04.01.2018 07:32 5,9 C 3,9 C 74 % 1004,9 hPa 0,0 l/m 16,1 km/h (3 Bft) W-SW 247 0 min 0,000 mm 0,0 UV-I 0 W/m 1,6 C -0,4 C 20,9 km/h (4 Bft) 95,65 %
04.01.2018 07:33 5,9 C 3,9 C 75 % 1004,9 hPa 0,0 l/m 17,7 km/h (3 Bft) SW 225 0 min 0,000 mm 0,0 UV-I 0 W/m 1,8 C -1,1 C 22,5 km/h (4 Bft) 91,30 %
04.01.2018 07:34 5,9 C 3,9 C 75 % 1004,9 hPa 0,0 l/m 17,7 km/h (3 Bft) W-SW 247 0 min 0,000 mm 0,0 UV-I 0 W/m 1,8 C -1,1 C 25,7 km/h (4 Bft) 100,00 %
04.01.2018 07:35 5,9 C 3,9 C 74 % 1004,8 hPa 0,0 l/m 14,5 km/h (3 Bft) W-SW 247 0 min 0,000 mm 0,0 UV-I 0 W/m 1,6 C 0,4 C 19,3 km/h (3 Bft) 95,65 %
04.01.2018 07:36 5,9 C 3,9 C 75 % 1004,8 hPa 0,0 l/m 12,9 km/h (3 Bft) SW 225 0 min 0,000 mm 0,0 UV-I 0 W/m 1,8 C 1,3 C 17,7 km/h (3 Bft) 95,65 %
04.01.2018 07:37 5,9 C 3,9 C 75 % 1004,8 hPa 0,0 l/m 12,9 km/h (3 Bft) SW 225 0 min 0,000 mm 0,0 UV-I 0 W/m 1,8 C 1,3 C 19,3 km/h (3 Bft) 95,65 %
04.01.2018 07:38 5,9 C 3,9 C 74 % 1004,8 hPa 0,0 l/m 14,5 km/h (3 Bft) SW 225 0 min 0,000 mm 0,0 UV-I 0 W/m 1,6 C 0,4 C 20,9 km/h (4 Bft) 100,00 %
04.01.2018 07:39 5,9 C 3,9 C 74 % 1004,7 hPa 0,0 l/m 12,9 km/h (3 Bft) SW 225 0 min 0,000 mm 0,0 UV-I 0 W/m 1,6 C 1,3 C 17,7 km/h (3 Bft) 95,65 %
04.01.2018 07:40 5,9 C 3,9 C 75 % 1004,7 hPa 0,0 l/m 11,3 km/h (2 Bft) SW 225 0 min 0,000 mm 0,0 UV-I 0 W/m 1,8 C 2,2 C 19,3 km/h (3 Bft) 100,00 %
04.01.2018 07:41 5,9 C 3,9 C 75 % 1004,7 hPa 0,0 l/m 14,5 km/h (3 Bft) SW 225 0 min 0,000 mm 0,0 UV-I 0 W/m 1,8 C 0,4 C 22,5 km/h (4 Bft) 95,65 %
04.01.2018 07:42 5,9 C 3,9 C 75 % 1004,7 hPa 0,0 l/m 12,9 km/h (3 Bft) SW 225 0 min 0,000 mm 0,0 UV-I 0 W/m 1,8 C 1,3 C 17,7 km/h (3 Bft) 95,65 %
04.01.2018 07:43 5,9 C 3,9 C 75 % 1004,8 hPa 0,0 l/m 12,9 km/h (3 Bft) SW 225 0 min 0,000 mm 0,0 UV-I 0 W/m 1,8 C 1,3 C 19,3 km/h (3 Bft) 91,30 %
04.01.2018 07:44 5,9 C 3,9 C 75 % 1004,8 hPa 0,0 l/m 14,5 km/h (3 Bft) SW 225 0 min 0,000 mm 0,0 UV-I 5 W/m 1,8 C 0,4 C 19,3 km/h (3 Bft) 91,30 %
04.01.2018 07:45 5,9 C 3,9 C 75 % 1004,8 hPa 0,0 l/m 17,7 km/h (3 Bft) SW 225 0 min 0,000 mm 0,0 UV-I 5 W/m 1,8 C -1,1 C 20,9 km/h (4 Bft) 100,00 %
04.01.2018 07:46 5,9 C 3,9 C 75 % 1004,8 hPa 0,0 l/m 12,9 km/h (3 Bft) SW 225 0 min 0,000 mm 0,0 UV-I 7 W/m 1,8 C 1,3 C 16,1 km/h (3 Bft) 95,65 %
04.01.2018 07:47 5,9 C 3,9 C 75 % 1004,8 hPa 0,0 l/m 14,5 km/h (3 Bft) SW 225 0 min 0,000 mm 0,0 UV-I 7 W/m 1,8 C 0,4 C 20,9 km/h (4 Bft) 95,65 %
04.01.2018 07:48 5,8 C 3,9 C 75 % 1004,8 hPa 0,0 l/m 16,1 km/h (3 Bft) SW 225 0 min 0,000 mm 0,0 UV-I 9 W/m 1,7 C -0,5 C 19,3 km/h (3 Bft) 95,65 %
04.01.2018 07:49 5,8 C 3,9 C 75 % 1004,8 hPa 0,0 l/m 12,9 km/h (3 Bft) SW 225 0 min 0,000 mm 0,0 UV-I 9 W/m 1,7 C 1,2 C 20,9 km/h (4 Bft) 100,00 %
04.01.2018 07:50 5,8 C 3,9 C 75 % 1004,8 hPa 0,0 l/m 12,9 km/h (3 Bft) W-SW 247 0 min 0,000 mm 0,0 UV-I 11 W/m 1,7 C 1,2 C 16,1 km/h (3 Bft) 95,65 %
04.01.2018 07:51 5,8 C 3,9 C 75 % 1004,8 hPa 0,0 l/m 14,5 km/h (3 Bft) SW 225 0 min 0,000 mm 0,0 UV-I 12 W/m 1,7 C 0,3 C 17,7 km/h (3 Bft) 91,30 %
04.01.2018 07:52 5,8 C 3,9 C 75 % 1004,8 hPa 0,0 l/m 12,9 km/h (3 Bft) SW 225 0 min 0,000 mm 0,0 UV-I 12 W/m 1,7 C 1,2 C 16,1 km/h (3 Bft) 100,00 %
04.01.2018 07:53 5,8 C 3,9 C 75 % 1004,8 hPa 0,0 l/m 11,3 km/h (2 Bft) SW 225 0 min 0,000 mm 0,0 UV-I 12 W/m 1,7 C 2,1 C 16,1 km/h (3 Bft) 91,30 %
04.01.2018 07:54 5,8 C 3,9 C 75 % 1004,8 hPa 0,0 l/m 11,3 km/h (2 Bft) SW 225 0 min 0,000 mm 0,0 UV-I 12 W/m 1,7 C 2,1 C 19,3 km/h (3 Bft) 100,00 %
04.01.2018 07:55 5,8 C 3,9 C 76 % 1004,8 hPa 0,0 l/m 11,3 km/h (2 Bft) S-SW 202 0 min 0,000 mm 0,0 UV-I 12 W/m 1,9 C 2,1 C 16,1 km/h (3 Bft) 95,65 %
04.01.2018 07:56 5,8 C 3,9 C 76 % 1004,8 hPa 0,0 l/m 9,7 km/h (2 Bft) S-SW 202 0 min 0,000 mm 0,0 UV-I 14 W/m 1,9 C 3,2 C 11,3 km/h (2 Bft) 100,00 %
04.01.2018 07:57 5,8 C 3,9 C 76 % 1004,9 hPa 0,0 l/m 12,9 km/h (3 Bft) SW 225 0 min 0,000 mm 0,0 UV-I 14 W/m 1,9 C 1,2 C 16,1 km/h (3 Bft) 86,96 %
04.01.2018 07:58 5,7 C 3,9 C 76 % 1004,9 hPa 0,0 l/m 16,1 km/h (3 Bft) SW 225 0 min 0,000 mm 0,0 UV-I 12 W/m 1,8 C -0,6 C 20,9 km/h (4 Bft) 91,30 %
04.01.2018 07:59 5,7 C 3,9 C 76 % 1004,8 hPa 0,0 l/m 11,3 km/h (2 Bft) W-SW 247 0 min 0,000 mm 0,0 UV-I 12 W/m 1,8 C 2,0 C 17,7 km/h (3 Bft) 100,00 %
04.01.2018 08:00 5,7 C 3,9 C 76 % 1004,7 hPa 0,0 l/m 12,9 km/h (3 Bft) SW 225 0 min 0,025 mm 0,0 UV-I 12 W/m 1,8 C 1,0 C 16,1 km/h (3 Bft) 95,65 %
04.01.2018 08:01 5,7 C 3,9 C 76 % 1004,7 hPa 0,0 l/m 19,3 km/h (3 Bft) SW 225 0 min 0,000 mm 0,0 UV-I 12 W/m 1,8 C -2,0 C 22,5 km/h (4 Bft) 100,00 %
04.01.2018 08:02 5,7 C 3,9 C 76 % 1004,7 hPa 0,0 l/m 14,5 km/h (3 Bft) SW 225 0 min 0,000 mm 0,0 UV-I 12 W/m 1,8 C 0,2 C 20,9 km/h (4 Bft) 95,65 %
04.01.2018 08:03 5,7 C 3,9 C 76 % 1004,7 hPa 0,0 l/m 12,9 km/h (3 Bft) SW 225 0 min 0,000 mm 0,0 UV-I 12 W/m 1,8 C 1,0 C 19,3 km/h (3 Bft) 100,00 %
04.01.2018 08:04 5,7 C 3,9 C 76 % 1004,7 hPa 0,0 l/m 14,5 km/h (3 Bft) SW 225 0 min 0,000 mm 0,0 UV-I 12 W/m 1,8 C 0,2 C 24,1 km/h (4 Bft) 91,30 %
04.01.2018 08:05 5,7 C 3,9 C 76 % 1004,7 hPa 0,0 l/m 17,7 km/h (3 Bft) SW 225 0 min 0,000 mm 0,0 UV-I 14 W/m 1,8 C -1,3 C 25,7 km/h (4 Bft) 100,00 %
04.01.2018 08:06 5,7 C 3,9 C 76 % 1004,7 hPa 0,0 l/m 16,1 km/h (3 Bft) SW 225 1 min 0,000 mm 0,0 UV-I 16 W/m 1,8 C -0,6 C 24,1 km/h (4 Bft) 95,65 %
04.01.2018 08:07 5,7 C 3,9 C 76 % 1004,7 hPa 0,0 l/m 14,5 km/h (3 Bft) SW 225 1 min 0,000 mm 0,0 UV-I 16 W/m 1,8 C 0,2 C 20,9 km/h (4 Bft) 100,00 %
04.01.2018 08:08 5,7 C 3,9 C 76 % 1004,7 hPa 0,0 l/m 16,1 km/h (3 Bft) SW 225 1 min 0,000 mm 0,0 UV-I 16 W/m 1,8 C -0,6 C 22,5 km/h (4 Bft) 91,30 %
04.01.2018 08:09 5,8 C 3,9 C 76 % 1004,7 hPa 0,0 l/m 17,7 km/h (3 Bft) SW 225 1 min 0,000 mm 0,0 UV-I 16 W/m 1,9 C -1,2 C 22,5 km/h (4 Bft) 100,00 %
04.01.2018 08:10 5,7 C 3,9 C 76 % 1004,8 hPa 0,0 l/m 14,5 km/h (3 Bft) SW 225 1 min 0,000 mm 0,0 UV-I 16 W/m 1,8 C 0,2 C 20,9 km/h (4 Bft) 95,65 %
04.01.2018 08:11 5,7 C 3,9 C 76 % 1004,7 hPa 0,0 l/m 19,3 km/h (3 Bft) SW 225 1 min 0,000 mm 0,0 UV-I 16 W/m 1,8 C -2,0 C 25,7 km/h (4 Bft) 95,65 %
04.01.2018 08:12 5,7 C 3,9 C 76 % 1004,7 hPa 0,0 l/m 16,1 km/h (3 Bft) W-SW 247 1 min 0,000 mm 0,0 UV-I 19 W/m 1,8 C -0,6 C 22,5 km/h (4 Bft) 95,65 %
04.01.2018 08:13 5,8 C 3,9 C 76 % 1004,7 hPa 0,0 l/m 12,9 km/h (3 Bft) W-SW 247 1 min 0,000 mm 0,0 UV-I 21 W/m 1,9 C 1,2 C 19,3 km/h (3 Bft) 95,65 %
04.01.2018 08:14 5,7 C 3,9 C 76 % 1004,6 hPa 0,0 l/m 17,7 km/h (3 Bft) W-SW 247 1 min 0,000 mm 0,0 UV-I 23 W/m 1,8 C -1,3 C 25,7 km/h (4 Bft) 95,65 %
04.01.2018 08:15 5,8 C 3,9 C 76 % 1004,7 hPa 0,0 l/m 14,5 km/h (3 Bft) SW 225 1 min 0,000 mm 0,0 UV-I 24 W/m 1,9 C 0,3 C 25,7 km/h (4 Bft) 95,65 %
04.01.2018 08:16 5,8 C 3,9 C 76 % 1004,7 hPa 0,0 l/m 14,5 km/h (3 Bft) SW 225 1 min 0,000 mm 0,0 UV-I 25 W/m 1,9 C 0,3 C 20,9 km/h (4 Bft) 95,65 %
04.01.2018 08:17 5,8 C 3,9 C 76 % 1004,7 hPa 0,0 l/m 16,1 km/h (3 Bft) SW 225 1 min 0,000 mm 0,0 UV-I 25 W/m 1,9 C -0,5 C 24,1 km/h (4 Bft) 95,65 %
04.01.2018 08:18 5,8 C 3,9 C 75 % 1004,6 hPa 0,0 l/m 16,1 km/h (3 Bft) W-SW 247 1 min 0,000 mm 0,0 UV-I 26 W/m 1,7 C -0,5 C 24,1 km/h (4 Bft) 100,00 %
04.01.2018 08:19 5,8 C 3,9 C 76 % 1004,6 hPa 0,0 l/m 20,9 km/h (4 Bft) SW 225 1 min 0,000 mm 0,0 UV-I 26 W/m 1,9 C -2,5 C 29,0 km/h (5 Bft) 95,65 %
04.01.2018 08:20 5,8 C 3,9 C 76 % 1004,7 hPa 0,0 l/m 17,7 km/h (3 Bft) SW 225 0 min 0,000 mm 0,0 UV-I 25 W/m 1,9 C -1,2 C 25,7 km/h (4 Bft) 100,00 %
04.01.2018 08:21 5,8 C 3,9 C 76 % 1004,7 hPa 0,0 l/m 17,7 km/h (3 Bft) SW 225 0 min 0,000 mm 0,0 UV-I 25 W/m 1,9 C -1,2 C 25,7 km/h (4 Bft) 100,00 %
04.01.2018 08:22 5,8 C 3,9 C 76 % 1004,6 hPa 0,0 l/m 19,3 km/h (3 Bft) SW 225 0 min 0,000 mm 0,0 UV-I 25 W/m 1,9 C -1,9 C 25,7 km/h (4 Bft) 100,00 %
04.01.2018 08:23 5,8 C 3,9 C 75 % 1004,7 hPa 0,0 l/m 17,7 km/h (3 Bft) SW 225 0 min 0,000 mm 0,0 UV-I 25 W/m 1,7 C -1,2 C 25,7 km/h (4 Bft) 100,00 %
04.01.2018 08:24 5,8 C 3,9 C 75 % 1004,6 hPa 0,0 l/m 17,7 km/h (3 Bft) SW 225 0 min 0,000 mm 0,0 UV-I 23 W/m 1,7 C -1,2 C 25,7 km/h (4 Bft) 100,00 %
04.01.2018 08:25 5,8 C 3,9 C 76 % 1004,6 hPa 0,0 l/m 17,7 km/h (3 Bft) SW 225 0 min 0,000 mm 0,0 UV-I 21 W/m 1,9 C -1,2 C 22,5 km/h (4 Bft) 100,00 %
04.01.2018 08:26 5,8 C 3,9 C 76 % 1004,6 hPa 0,0 l/m 20,9 km/h (4 Bft) SW 225 0 min 0,000 mm 0,0 UV-I 26 W/m 1,9 C -2,5 C 29,0 km/h (5 Bft) 95,65 %
04.01.2018 08:27 5,8 C 3,9 C 75 % 1004,6 hPa 0,0 l/m 17,7 km/h (3 Bft) SW 225 0 min 0,000 mm 0,0 UV-I 28 W/m 1,7 C -1,2 C 24,1 km/h (4 Bft) 100,00 %
04.01.2018 08:28 5,8 C 3,9 C 75 % 1004,6 hPa 0,0 l/m 20,9 km/h (4 Bft) SW 225 0 min 0,000 mm 0,0 UV-I 32 W/m 1,7 C -2,5 C 29,0 km/h (5 Bft) 100,00 %
04.01.2018 08:29 5,8 C 3,9 C 76 % 1004,6 hPa 0,0 l/m 19,3 km/h (3 Bft) SW 225 0 min 0,000 mm 0,0 UV-I 33 W/m 1,9 C -1,9 C 27,4 km/h (4 Bft) 95,65 %
04.01.2018 08:30 5,8 C 3,9 C 75 % 1004,5 hPa 0,0 l/m 20,9 km/h (4 Bft) W-SW 247 0 min 0,000 mm 0,0 UV-I 37 W/m 1,7 C -2,5 C 25,7 km/h (4 Bft) 100,00 %
04.01.2018 08:31 5,8 C 3,9 C 75 % 1004,5 hPa 0,0 l/m 17,7 km/h (3 Bft) S-SW 202 0 min 0,000 mm 0,0 UV-I 37 W/m 1,7 C -1,2 C 22,5 km/h (4 Bft) 100,00 %
04.01.2018 08:32 5,8 C 3,9 C 75 % 1004,4 hPa 0,0 l/m 16,1 km/h (3 Bft) SW 225 0 min 0,000 mm 0,0 UV-I 38 W/m 1,7 C -0,5 C 24,1 km/h (4 Bft) 100,00 %
04.01.2018 08:33 5,8 C 3,9 C 75 % 1004,4 hPa 0,0 l/m 19,3 km/h (3 Bft) SW 225 0 min 0,000 mm 0,0 UV-I 40 W/m 1,7 C -1,9 C 29,0 km/h (5 Bft) 95,65 %
04.01.2018 08:34 5,8 C 3,9 C 75 % 1004,4 hPa 0,0 l/m 16,1 km/h (3 Bft) S-SW 202 0 min 0,000 mm 0,0 UV-I 40 W/m 1,7 C -0,5 C 20,9 km/h (4 Bft) 95,65 %
04.01.2018 08:35 5,8 C 3,9 C 75 % 1004,4 hPa 0,0 l/m 16,1 km/h (3 Bft) SW 225 0 min 0,000 mm 0,0 UV-I 40 W/m 1,7 C -0,5 C 22,5 km/h (4 Bft) 100,00 %
04.01.2018 08:36 5,8 C 3,9 C 75 % 1004,4 hPa 0,0 l/m 19,3 km/h (3 Bft) SW 225 0 min 0,000 mm 0,0 UV-I 40 W/m 1,7 C -1,9 C 27,4 km/h (4 Bft) 100,00 %
04.01.2018 08:37 5,8 C 3,9 C 75 % 1004,3 hPa 0,0 l/m 16,1 km/h (3 Bft) SW 225 0 min 0,000 mm 0,0 UV-I 42 W/m 1,7 C -0,5 C 24,1 km/h (4 Bft) 100,00 %
04.01.2018 08:38 5,8 C 3,9 C 75 % 1004,3 hPa 0,0 l/m 22,5 km/h (4 Bft) SW 225 0 min 0,000 mm 0,0 UV-I 47 W/m 1,7 C -3,0 C 30,6 km/h (5 Bft) 100,00 %
04.01.2018 08:39 5,8 C 3,9 C 75 % 1004,3 hPa 0,0 l/m 19,3 km/h (3 Bft) SW 225 0 min 0,000 mm 0,0 UV-I 47 W/m 1,7 C -1,9 C 27,4 km/h (4 Bft) 100,00 %
04.01.2018 08:40 5,8 C 3,9 C 75 % 1004,4 hPa 0,0 l/m 17,7 km/h (3 Bft) SW 225 0 min 0,000 mm 0,0 UV-I 49 W/m 1,7 C -1,2 C 24,1 km/h (4 Bft) 91,30 %
04.01.2018 08:41 5,9 C 3,9 C 75 % 1004,4 hPa 0,0 l/m 19,3 km/h (3 Bft) W-SW 247 0 min 0,000 mm 0,0 UV-I 49 W/m 1,8 C -1,7 C 25,7 km/h (4 Bft) 95,65 %
04.01.2018 08:42 5,9 C 3,9 C 75 % 1004,3 hPa 0,0 l/m 19,3 km/h (3 Bft) SW 225 0 min 0,000 mm 0,0 UV-I 46 W/m 1,8 C -1,7 C 24,1 km/h (4 Bft) 100,00 %
04.01.2018 08:43 5,9 C 3,9 C 75 % 1004,3 hPa 0,0 l/m 19,3 km/h (3 Bft) SW 225 0 min 0,000 mm 0,0 UV-I 42 W/m 1,8 C -1,7 C 27,4 km/h (4 Bft) 100,00 %
04.01.2018 08:44 5,9 C 3,9 C 75 % 1004,3 hPa 0,0 l/m 17,7 km/h (3 Bft) SW 225 0 min 0,000 mm 0,0 UV-I 40 W/m 1,8 C -1,1 C 22,5 km/h (4 Bft) 95,65 %
04.01.2018 08:45 6,0 C 3,9 C 75 % 1004,4 hPa 0,0 l/m 20,9 km/h (4 Bft) SW 225 0 min 0,000 mm 0,0 UV-I 37 W/m 1,9 C -2,2 C 29,0 km/h (5 Bft) 100,00 %
04.01.2018 08:46 6,0 C 3,9 C 75 % 1004,3 hPa 0,0 l/m 16,1 km/h (3 Bft) SW 225 0 min 0,000 mm 0,0 UV-I 33 W/m 1,9 C -0,2 C 24,1 km/h (4 Bft) 95,65 %
04.01.2018 08:47 6,0 C 3,9 C 75 % 1004,3 hPa 0,0 l/m 17,7 km/h (3 Bft) SW 225 0 min 0,000 mm 0,0 UV-I 32 W/m 1,9 C -1,0 C 30,6 km/h (5 Bft) 95,65 %
04.01.2018 08:48 6,0 C 3,9 C 75 % 1004,3 hPa 0,0 l/m 19,3 km/h (3 Bft) W-SW 247 0 min 0,000 mm 0,0 UV-I 33 W/m 1,9 C -1,6 C 29,0 km/h (5 Bft) 100,00 %
04.01.2018 08:49 6,0 C 3,9 C 74 % 1004,3 hPa 0,0 l/m 17,7 km/h (3 Bft) W-SW 247 0 min 0,000 mm 0,0 UV-I 33 W/m 1,7 C -1,0 C 24,1 km/h (4 Bft) 100,00 %
04.01.2018 08:50 6,0 C 3,9 C 74 % 1004,4 hPa 0,0 l/m 19,3 km/h (3 Bft) W-SW 247 0 min 0,000 mm 0,0 UV-I 47 W/m 1,7 C -1,6 C 24,1 km/h (4 Bft) 100,00 %
04.01.2018 08:51 6,0 C 3,9 C 74 % 1004,4 hPa 0,0 l/m 16,1 km/h (3 Bft) SW 225 0 min 0,000 mm 0,0 UV-I 51 W/m 1,7 C -0,2 C 24,1 km/h (4 Bft) 95,65 %
04.01.2018 08:52 6,0 C 3,9 C 75 % 1004,4 hPa 0,0 l/m 19,3 km/h (3 Bft) SW 225 0 min 0,000 mm 0,0 UV-I 53 W/m 1,9 C -1,6 C 27,4 km/h (4 Bft) 100,00 %
04.01.2018 08:53 6,0 C 3,9 C 75 % 1004,4 hPa 0,0 l/m 16,1 km/h (3 Bft) W-SW 247 0 min 0,000 mm 0,0 UV-I 51 W/m 1,9 C -0,2 C 25,7 km/h (4 Bft) 100,00 %
04.01.2018 08:54 6,0 C 3,9 C 75 % 1004,4 hPa 0,0 l/m 19,3 km/h (3 Bft) SW 225 0 min 0,000 mm 0,0 UV-I 46 W/m 1,9 C -1,6 C 25,7 km/h (4 Bft) 95,65 %
04.01.2018 08:55 6,0 C 3,9 C 74 % 1004,4 hPa 0,0 l/m 17,7 km/h (3 Bft) SW 225 0 min 0,000 mm 0,0 UV-I 42 W/m 1,7 C -1,0 C 25,7 km/h (4 Bft) 100,00 %
04.01.2018 08:56 6,0 C 3,9 C 75 % 1004,4 hPa 0,0 l/m 14,5 km/h (3 Bft) SW 225 0 min 0,000 mm 0,0 UV-I 40 W/m 1,9 C 0,5 C 20,9 km/h (4 Bft) 100,00 %
04.01.2018 08:57 6,1 C 3,9 C 75 % 1004,4 hPa 0,0 l/m 14,5 km/h (3 Bft) SW 225 0 min 0,000 mm 0,0 UV-I 37 W/m 2,0 C 0,7 C 19,3 km/h (3 Bft) 100,00 %
04.01.2018 08:58 6,1 C 3,9 C 74 % 1004,4 hPa 0,0 l/m 14,5 km/h (3 Bft) W-SW 247 0 min 0,000 mm 0,0 UV-I 35 W/m 1,8 C 0,7 C 19,3 km/h (3 Bft) 100,00 %
04.01.2018 08:59 6,1 C 3,9 C 75 % 1004,5 hPa 0,0 l/m 14,5 km/h (3 Bft) SW 225 0 min 0,000 mm 0,0 UV-I 33 W/m 2,0 C 0,7 C 20,9 km/h (4 Bft) 100,00 %
04.01.2018 09:00 6,1 C 3,9 C 75 % 1004,5 hPa 0,0 l/m 12,9 km/h (3 Bft) SW 225 0 min 0,051 mm 0,0 UV-I 32 W/m 2,0 C 1,5 C 17,7 km/h (3 Bft) 100,00 %
04.01.2018 09:01 6,1 C 3,9 C 75 % 1004,5 hPa 0,0 l/m 14,5 km/h (3 Bft) SW 225 0 min 0,000 mm 0,0 UV-I 31 W/m 2,0 C 0,7 C 22,5 km/h (4 Bft) 95,65 %
04.01.2018 09:02 6,1 C 3,9 C 75 % 1004,6 hPa 0,0 l/m 16,1 km/h (3 Bft) W-SW 247 0 min 0,000 mm 0,0 UV-I 30 W/m 2,0 C -0,1 C 22,5 km/h (4 Bft) 100,00 %
04.01.2018 09:03 6,1 C 3,9 C 75 % 1004,6 hPa 0,0 l/m 16,1 km/h (3 Bft) SW 225 0 min 0,000 mm 0,0 UV-I 32 W/m 2,0 C -0,1 C 27,4 km/h (4 Bft) 100,00 %
04.01.2018 09:04 6,0 C 3,9 C 75 % 1004,6 hPa 0,0 l/m 19,3 km/h (3 Bft) SW 225 0 min 0,000 mm 0,0 UV-I 32 W/m 1,9 C -1,6 C 25,7 km/h (4 Bft) 100,00 %
04.01.2018 09:05 6,1 C 3,9 C 74 % 1004,6 hPa 0,0 l/m 17,7 km/h (3 Bft) SW 225 0 min 0,000 mm 0,0 UV-I 32 W/m 1,8 C -0,8 C 22,5 km/h (4 Bft) 100,00 %
04.01.2018 09:06 6,1 C 3,9 C 74 % 1004,5 hPa 0,0 l/m 12,9 km/h (3 Bft) SW 225 0 min 0,000 mm 0,0 UV-I 33 W/m 1,8 C 1,5 C 16,1 km/h (3 Bft) 100,00 %
04.01.2018 09:07 6,1 C 3,9 C 74 % 1004,5 hPa 0,0 l/m 14,5 km/h (3 Bft) SW 225 0 min 0,000 mm 0,0 UV-I 40 W/m 1,8 C 0,7 C 22,5 km/h (4 Bft) 100,00 %
04.01.2018 09:08 6,1 C 3,9 C 74 % 1004,4 hPa 0,0 l/m 12,9 km/h (3 Bft) W-SW 247 0 min 0,000 mm 0,0 UV-I 42 W/m 1,8 C 1,5 C 20,9 km/h (4 Bft) 95,65 %
04.01.2018 09:09 6,1 C 3,9 C 75 % 1004,4 hPa 0,0 l/m 12,9 km/h (3 Bft) SW 225 0 min 0,000 mm 0,0 UV-I 46 W/m 2,0 C 1,5 C 20,9 km/h (4 Bft) 100,00 %
04.01.2018 09:10 6,1 C 3,9 C 75 % 1004,4 hPa 0,0 l/m 12,9 km/h (3 Bft) SW 225 0 min 0,000 mm 0,0 UV-I 51 W/m 2,0 C 1,5 C 19,3 km/h (3 Bft) 100,00 %
04.01.2018 09:11 6,1 C 3,9 C 74 % 1004,5 hPa 0,0 l/m 14,5 km/h (3 Bft) SW 225 0 min 0,000 mm 0,0 UV-I 53 W/m 1,8 C 0,7 C 20,9 km/h (4 Bft) 100,00 %
04.01.2018 09:12 6,1 C 3,9 C 75 % 1004,4 hPa 0,0 l/m 11,3 km/h (2 Bft) SW 225 0 min 0,000 mm 0,0 UV-I 54 W/m 2,0 C 2,4 C 17,7 km/h (3 Bft) 100,00 %
04.01.2018 09:13 6,1 C 3,9 C 75 % 1004,5 hPa 0,0 l/m 12,9 km/h (3 Bft) W-SW 247 0 min 0,000 mm 0,0 UV-I 56 W/m 2,0 C 1,5 C 19,3 km/h (3 Bft) 100,00 %
04.01.2018 09:14 6,1 C 3,9 C 75 % 1004,4 hPa 0,0 l/m 11,3 km/h (2 Bft) SW 225 0 min 0,000 mm 0,0 UV-I 56 W/m 2,0 C 2,4 C 16,1 km/h (3 Bft) 95,65 %
04.01.2018 09:15 6,1 C 3,9 C 75 % 1004,4 hPa 0,0 l/m 14,5 km/h (3 Bft) SW 225 0 min 0,000 mm 0,0 UV-I 56 W/m 2,0 C 0,7 C 19,3 km/h (3 Bft) 91,30 %
04.01.2018 09:16 6,1 C 3,9 C 75 % 1004,4 hPa 0,0 l/m 12,9 km/h (3 Bft) S-SW 202 0 min 0,000 mm 0,0 UV-I 54 W/m 2,0 C 1,5 C 20,9 km/h (4 Bft) 95,65 %
04.01.2018 09:17 6,1 C 3,9 C 75 % 1004,4 hPa 0,0 l/m 12,9 km/h (3 Bft) SW 225 0 min 0,000 mm 0,0 UV-I 54 W/m 2,0 C 1,5 C 19,3 km/h (3 Bft) 91,30 %
04.01.2018 09:18 6,2 C 3,9 C 74 % 1004,4 hPa 0,0 l/m 14,5 km/h (3 Bft) SW 225 0 min 0,000 mm 0,0 UV-I 54 W/m 1,9 C 0,8 C 19,3 km/h (3 Bft) 100,00 %
04.01.2018 09:19 6,2 C 3,9 C 74 % 1004,4 hPa 0,0 l/m 11,3 km/h (2 Bft) SW 225 0 min 0,000 mm 0,0 UV-I 56 W/m 1,9 C 2,6 C 16,1 km/h (3 Bft) 95,65 %
04.01.2018 09:20 6,2 C 3,9 C 74 % 1004,5 hPa 0,0 l/m 14,5 km/h (3 Bft) W-SW 247 0 min 0,000 mm 0,0 UV-I 56 W/m 1,9 C 0,8 C 19,3 km/h (3 Bft) 100,00 %
04.01.2018 09:21 6,2 C 3,9 C 74 % 1004,5 hPa 0,0 l/m 14,5 km/h (3 Bft) SW 225 0 min 0,000 mm 0,0 UV-I 58 W/m 1,9 C 0,8 C 24,1 km/h (4 Bft) 91,30 %
04.01.2018 09:22 6,2 C 3,9 C 74 % 1004,5 hPa 0,0 l/m 12,9 km/h (3 Bft) SW 225 0 min 0,000 mm 0,0 UV-I 62 W/m 1,9 C 1,6 C 22,5 km/h (4 Bft) 95,65 %
04.01.2018 09:23 6,2 C 3,9 C 74 % 1004,6 hPa 0,0 l/m 12,9 km/h (3 Bft) SW 225 0 min 0,000 mm 0,0 UV-I 63 W/m 1,9 C 1,6 C 17,7 km/h (3 Bft) 86,96 %
04.01.2018 09:24 6,2 C 3,9 C 74 % 1004,6 hPa 0,0 l/m 14,5 km/h (3 Bft) SW 225 0 min 0,000 mm 0,0 UV-I 65 W/m 1,9 C 0,8 C 22,5 km/h (4 Bft) 100,00 %
04.01.2018 09:25 6,2 C 3,9 C 74 % 1004,6 hPa 0,0 l/m 17,7 km/h (3 Bft) W-SW 247 0 min 0,000 mm 0,0 UV-I 69 W/m 1,9 C -0,7 C 22,5 km/h (4 Bft) 91,30 %
04.01.2018 09:26 6,2 C 3,9 C 74 % 1004,6 hPa 0,0 l/m 11,3 km/h (2 Bft) SW 225 0 min 0,000 mm 0,0 UV-I 74 W/m 1,9 C 2,6 C 17,7 km/h (3 Bft) 95,65 %
04.01.2018 09:27 6,2 C 3,9 C 74 % 1004,7 hPa 0,0 l/m 12,9 km/h (3 Bft) SW 225 0 min 0,000 mm 0,0 UV-I 72 W/m 1,9 C 1,6 C 19,3 km/h (3 Bft) 91,30 %
04.01.2018 09:28 6,2 C 3,9 C 74 % 1004,7 hPa 0,0 l/m 14,5 km/h (3 Bft) SW 225 0 min 0,000 mm 0,0 UV-I 72 W/m 1,9 C 0,8 C 17,7 km/h (3 Bft) 95,65 %
04.01.2018 09:29 6,2 C 3,9 C 74 % 1004,7 hPa 0,0 l/m 16,1 km/h (3 Bft) SW 225 0 min 0,000 mm 0,0 UV-I 76 W/m 1,9 C 0,0 C 25,7 km/h (4 Bft) 91,30 %
04.01.2018 09:30 6,3 C 3,9 C 74 % 1004,8 hPa 0,0 l/m 17,7 km/h (3 Bft) SW 225 0 min 0,000 mm 0,0 UV-I 79 W/m 2,0 C -0,6 C 25,7 km/h (4 Bft) 95,65 %
04.01.2018 09:31 6,3 C 3,9 C 74 % 1004,8 hPa 0,0 l/m 17,7 km/h (3 Bft) SW 225 0 min 0,000 mm 0,0 UV-I 84 W/m 2,0 C -0,6 C 25,7 km/h (4 Bft) 91,30 %
04.01.2018 09:32 6,3 C 3,9 C 74 % 1004,8 hPa 0,0 l/m 14,5 km/h (3 Bft) SW 225 0 min 0,000 mm 0,0 UV-I 84 W/m 2,0 C 0,9 C 20,9 km/h (4 Bft) 95,65 %
04.01.2018 09:33 6,3 C 3,9 C 74 % 1004,8 hPa 0,0 l/m 17,7 km/h (3 Bft) SW 225 0 min 0,000 mm 0,0 UV-I 84 W/m 2,0 C -0,6 C 25,7 km/h (4 Bft) 95,65 %
04.01.2018 09:34 6,3 C 3,9 C 74 % 1004,8 hPa 0,0 l/m 14,5 km/h (3 Bft) SW 225 0 min 0,000 mm 0,0 UV-I 84 W/m 2,0 C 0,9 C 19,3 km/h (3 Bft) 91,30 %
04.01.2018 09:35 6,3 C 3,9 C 74 % 1004,9 hPa 0,0 l/m 16,1 km/h (3 Bft) SW 225 0 min 0,000 mm 0,0 UV-I 79 W/m 2,0 C 0,1 C 20,9 km/h (4 Bft) 91,30 %
04.01.2018 09:36 6,3 C 3,9 C 74 % 1004,9 hPa 0,0 l/m 17,7 km/h (3 Bft) SW 225 0 min 0,000 mm 0,0 UV-I 76 W/m 2,0 C -0,6 C 20,9 km/h (4 Bft) 91,30 %
04.01.2018 09:37 6,4 C 3,9 C 74 % 1005,0 hPa 0,0 l/m 19,3 km/h (3 Bft) SW 225 0 min 0,000 mm 0,0 UV-I 71 W/m 2,1 C -1,1 C 25,7 km/h (4 Bft) 95,65 %
04.01.2018 09:38 6,4 C 3,9 C 74 % 1005,0 hPa 0,0 l/m 19,3 km/h (3 Bft) W-SW 247 0 min 0,000 mm 0,0 UV-I 69 W/m 2,1 C -1,1 C 25,7 km/h (4 Bft) 95,65 %
04.01.2018 09:39 6,4 C 3,9 C 74 % 1005,0 hPa 0,0 l/m 20,9 km/h (4 Bft) SW 225 0 min 0,000 mm 0,0 UV-I 69 W/m 2,1 C -1,7 C 29,0 km/h (5 Bft) 91,30 %
04.01.2018 09:40 6,4 C 3,9 C 73 % 1005,0 hPa 0,0 l/m 17,7 km/h (3 Bft) SW 225 0 min 0,000 mm 0,0 UV-I 67 W/m 1,9 C -0,4 C 22,5 km/h (4 Bft) 95,65 %
04.01.2018 09:41 6,4 C 3,9 C 74 % 1004,9 hPa 0,0 l/m 12,9 km/h (3 Bft) SW 225 0 min 0,000 mm 0,0 UV-I 69 W/m 2,1 C 1,9 C 17,7 km/h (3 Bft) 95,65 %
04.01.2018 09:42 6,4 C 3,9 C 74 % 1004,9 hPa 0,0 l/m 11,3 km/h (2 Bft) SW 225 0 min 0,000 mm 0,0 UV-I 71 W/m 2,1 C 2,8 C 17,7 km/h (3 Bft) 95,65 %
04.01.2018 09:43 6,4 C 3,9 C 74 % 1004,9 hPa 0,0 l/m 16,1 km/h (3 Bft) W-SW 247 0 min 0,000 mm 0,0 UV-I 76 W/m 2,1 C 0,3 C 25,7 km/h (4 Bft) 95,65 %
04.01.2018 09:44 6,4 C 3,9 C 74 % 1004,9 hPa 0,0 l/m 16,1 km/h (3 Bft) W-SW 247 0 min 0,000 mm 0,0 UV-I 79 W/m 2,1 C 0,3 C 24,1 km/h (4 Bft) 95,65 %
04.01.2018 09:45 6,4 C 3,9 C 74 % 1004,9 hPa 0,0 l/m 12,9 km/h (3 Bft) SW 225 0 min 0,000 mm 0,0 UV-I 81 W/m 2,1 C 1,9 C 22,5 km/h (4 Bft) 100,00 %
04.01.2018 09:46 6,4 C 3,9 C 74 % 1004,8 hPa 0,0 l/m 16,1 km/h (3 Bft) SW 225 0 min 0,000 mm 0,0 UV-I 81 W/m 2,1 C 0,3 C 25,7 km/h (4 Bft) 91,30 %
04.01.2018 09:47 6,4 C 3,9 C 74 % 1004,9 hPa 0,0 l/m 14,5 km/h (3 Bft) SW 225 0 min 0,000 mm 0,0 UV-I 81 W/m 2,1 C 1,0 C 22,5 km/h (4 Bft) 100,00 %
04.01.2018 09:48 6,4 C 3,9 C 74 % 1005,0 hPa 0,0 l/m 16,1 km/h (3 Bft) W-SW 247 0 min 0,000 mm 0,0 UV-I 78 W/m 2,1 C 0,3 C 22,5 km/h (4 Bft) 91,30 %
04.01.2018 09:49 6,4 C 3,9 C 74 % 1004,9 hPa 0,0 l/m 12,9 km/h (3 Bft) SW 225 0 min 0,000 mm 0,0 UV-I 81 W/m 2,1 C 1,9 C 17,7 km/h (3 Bft) 100,00 %
04.01.2018 09:50 6,4 C 3,9 C 74 % 1004,8 hPa 0,0 l/m 14,5 km/h (3 Bft) SW 225 0 min 0,000 mm 0,0 UV-I 83 W/m 2,1 C 1,0 C 24,1 km/h (4 Bft) 91,30 %
04.01.2018 09:51 6,4 C 3,9 C 74 % 1004,8 hPa 0,0 l/m 12,9 km/h (3 Bft) SW 225 0 min 0,000 mm 0,0 UV-I 88 W/m 2,1 C 1,9 C 19,3 km/h (3 Bft) 91,30 %
04.01.2018 09:52 6,4 C 3,9 C 74 % 1004,7 hPa 0,0 l/m 16,1 km/h (3 Bft) SW 225 0 min 0,000 mm 0,0 UV-I 91 W/m 2,1 C 0,3 C 25,7 km/h (4 Bft) 100,00 %
04.01.2018 09:53 6,4 C 3,9 C 74 % 1004,7 hPa 0,0 l/m 16,1 km/h (3 Bft) S-SW 202 0 min 0,000 mm 0,0 UV-I 93 W/m 2,1 C 0,3 C 22,5 km/h (4 Bft) 95,65 %
04.01.2018 09:54 6,5 C 3,9 C 74 % 1004,7 hPa 0,0 l/m 16,1 km/h (3 Bft) S-SW 202 0 min 0,000 mm 0,0 UV-I 91 W/m 2,2 C 0,4 C 20,9 km/h (4 Bft) 95,65 %
04.01.2018 09:55 6,5 C 3,9 C 73 % 1004,7 hPa 0,0 l/m 16,1 km/h (3 Bft) SW 225 0 min 0,000 mm 0,0 UV-I 86 W/m 2,0 C 0,4 C 20,9 km/h (4 Bft) 95,65 %
04.01.2018 09:56 6,5 C 3,9 C 73 % 1004,7 hPa 0,0 l/m 14,5 km/h (3 Bft) SW 225 0 min 0,000 mm 0,0 UV-I 86 W/m 2,0 C 1,1 C 20,9 km/h (4 Bft) 100,00 %
04.01.2018 09:57 6,6 C 3,9 C 73 % 1004,7 hPa 0,0 l/m 12,9 km/h (3 Bft) S-SW 202 0 min 0,000 mm 0,0 UV-I 83 W/m 2,1 C 2,1 C 17,7 km/h (3 Bft) 91,30 %
04.01.2018 09:58 6,6 C 3,9 C 74 % 1004,8 hPa 0,0 l/m 16,1 km/h (3 Bft) S-SW 202 0 min 0,000 mm 0,0 UV-I 79 W/m 2,3 C 0,5 C 22,5 km/h (4 Bft) 100,00 %
04.01.2018 09:59 6,6 C 3,9 C 74 % 1004,8 hPa 0,0 l/m 17,7 km/h (3 Bft) SW 225 0 min 0,000 mm 0,0 UV-I 76 W/m 2,3 C -0,2 C 22,5 km/h (4 Bft) 100,00 %
04.01.2018 10:00 6,6 C 3,9 C 74 % 1004,8 hPa 0,0 l/m 19,3 km/h (3 Bft) W-SW 247 0 min 0,076 mm 0,0 UV-I 74 W/m 2,3 C -0,8 C 29,0 km/h (5 Bft) 95,65 %
04.01.2018 10:01 6,5 C 3,9 C 74 % 1004,9 hPa 0,0 l/m 17,7 km/h (3 Bft) SW 225 0 min 0,000 mm 0,0 UV-I 74 W/m 2,2 C -0,3 C 25,7 km/h (4 Bft) 100,00 %
04.01.2018 10:02 6,6 C 3,9 C 74 % 1004,9 hPa 0,0 l/m 16,1 km/h (3 Bft) W-SW 247 0 min 0,000 mm 0,0 UV-I 74 W/m 2,3 C 0,5 C 19,3 km/h (3 Bft) 100,00 %
04.01.2018 10:03 6,6 C 3,9 C 74 % 1005,0 hPa 0,0 l/m 20,9 km/h (4 Bft) SW 225 0 min 0,000 mm 0,0 UV-I 74 W/m 2,3 C -1,4 C 27,4 km/h (4 Bft) 95,65 %
04.01.2018 10:04 6,6 C 3,9 C 74 % 1005,0 hPa 0,0 l/m 16,1 km/h (3 Bft) W-SW 247 0 min 0,000 mm 0,0 UV-I 74 W/m 2,3 C 0,5 C 20,9 km/h (4 Bft) 95,65 %
04.01.2018 10:05 6,6 C 3,9 C 75 % 1005,0 hPa 0,0 l/m 19,3 km/h (3 Bft) W-SW 247 0 min 0,000 mm 0,0 UV-I 72 W/m 2,5 C -0,8 C 29,0 km/h (5 Bft) 95,65 %
04.01.2018 10:06 6,6 C 3,9 C 75 % 1005,0 hPa 0,0 l/m 16,1 km/h (3 Bft) SW 225 0 min 0,000 mm 0,0 UV-I 69 W/m 2,5 C 0,5 C 22,5 km/h (4 Bft) 100,00 %
04.01.2018 10:07 6,6 C 3,9 C 75 % 1005,1 hPa 0,0 l/m 17,7 km/h (3 Bft) SW 225 0 min 0,000 mm 0,0 UV-I 67 W/m 2,5 C -0,2 C 25,7 km/h (4 Bft) 100,00 %
04.01.2018 10:08 6,6 C 3,9 C 75 % 1005,1 hPa 0,0 l/m 19,3 km/h (3 Bft) SW 225 0 min 0,000 mm 0,0 UV-I 67 W/m 2,5 C -0,8 C 30,6 km/h (5 Bft) 100,00 %
04.01.2018 10:09 6,6 C 3,9 C 75 % 1005,1 hPa 0,0 l/m 19,3 km/h (3 Bft) SW 225 0 min 0,000 mm 0,0 UV-I 69 W/m 2,5 C -0,8 C 27,4 km/h (4 Bft) 100,00 %
04.01.2018 10:10 6,6 C 3,9 C 75 % 1005,1 hPa 0,0 l/m 17,7 km/h (3 Bft) SW 225 0 min 0,000 mm 0,0 UV-I 72 W/m 2,5 C -0,2 C 24,1 km/h (4 Bft) 100,00 %
04.01.2018 10:11 6,6 C 3,9 C 75 % 1005,1 hPa 0,0 l/m 14,5 km/h (3 Bft) SW 225 0 min 0,000 mm 0,0 UV-I 72 W/m 2,5 C 1,3 C 20,9 km/h (4 Bft) 95,65 %
04.01.2018 10:12 6,6 C 3,9 C 75 % 1005,2 hPa 0,0 l/m 17,7 km/h (3 Bft) SW 225 0 min 0,000 mm 0,0 UV-I 76 W/m 2,5 C -0,2 C 24,1 km/h (4 Bft) 100,00 %
04.01.2018 10:13 6,6 C 3,9 C 76 % 1005,2 hPa 0,0 l/m 16,1 km/h (3 Bft) SW 225 0 min 0,000 mm 0,0 UV-I 72 W/m 2,7 C 0,5 C 24,1 km/h (4 Bft) 100,00 %
04.01.2018 10:14 6,6 C 3,9 C 76 % 1005,2 hPa 0,0 l/m 20,9 km/h (4 Bft) SW 225 0 min 0,000 mm 0,0 UV-I 72 W/m 2,7 C -1,4 C 27,4 km/h (4 Bft) 100,00 %
04.01.2018 10:15 6,6 C 3,9 C 76 % 1005,2 hPa 0,0 l/m 17,7 km/h (3 Bft) W-SW 247 0 min 0,000 mm 0,0 UV-I 74 W/m 2,7 C -0,2 C 22,5 km/h (4 Bft) 100,00 %
04.01.2018 10:16 6,6 C 3,9 C 76 % 1005,2 hPa 0,0 l/m 14,5 km/h (3 Bft) W-SW 247 0 min 0,000 mm 0,0 UV-I 77 W/m 2,7 C 1,3 C 17,7 km/h (3 Bft) 100,00 %
04.01.2018 10:17 6,6 C 3,9 C 76 % 1005,1 hPa 0,0 l/m 16,1 km/h (3 Bft) W-SW 247 0 min 0,000 mm 0,0 UV-I 81 W/m 2,7 C 0,5 C 20,9 km/h (4 Bft) 100,00 %
04.01.2018 10:18 6,6 C 3,9 C 76 % 1005,1 hPa 0,0 l/m 12,9 km/h (3 Bft) SW 225 0 min 0,000 mm 0,0 UV-I 82 W/m 2,7 C 2,1 C 19,3 km/h (3 Bft) 95,65 %
04.01.2018 10:19 6,6 C 3,9 C 76 % 1005,1 hPa 0,0 l/m 14,5 km/h (3 Bft) W-SW 247 0 min 0,000 mm 0,0 UV-I 83 W/m 2,7 C 1,3 C 20,9 km/h (4 Bft) 100,00 %
04.01.2018 10:20 6,6 C 3,9 C 76 % 1005,2 hPa 0,0 l/m 14,5 km/h (3 Bft) SW 225 0 min 0,000 mm 0,0 UV-I 83 W/m 2,7 C 1,3 C 22,5 km/h (4 Bft) 100,00 %
04.01.2018 10:21 6,6 C 3,9 C 76 % 1005,2 hPa 0,0 l/m 17,7 km/h (3 Bft) SW 225 0 min 0,000 mm 0,0 UV-I 83 W/m 2,7 C -0,2 C 20,9 km/h (4 Bft) 100,00 %
04.01.2018 10:22 6,6 C 3,9 C 76 % 1005,1 hPa 0,0 l/m 16,1 km/h (3 Bft) W-SW 247 0 min 0,000 mm 0,0 UV-I 83 W/m 2,7 C 0,5 C 22,5 km/h (4 Bft) 100,00 %
04.01.2018 10:23 6,6 C 3,9 C 76 % 1005,2 hPa 0,0 l/m 19,3 km/h (3 Bft) W-SW 247 0 min 0,000 mm 0,0 UV-I 83 W/m 2,7 C -0,8 C 22,5 km/h (4 Bft) 100,00 %
04.01.2018 10:24 6,6 C 3,9 C 76 % 1005,2 hPa 0,0 l/m 16,1 km/h (3 Bft) SW 225 0 min 0,000 mm 0,0 UV-I 81 W/m 2,7 C 0,5 C 19,3 km/h (3 Bft) 100,00 %
04.01.2018 10:25 6,6 C 3,9 C 76 % 1005,2 hPa 0,0 l/m 16,1 km/h (3 Bft) W-SW 247 0 min 0,000 mm 0,0 UV-I 77 W/m 2,7 C 0,5 C 25,7 km/h (4 Bft) 95,65 %
04.01.2018 10:26 6,6 C 3,9 C 76 % 1005,3 hPa 0,0 l/m 12,9 km/h (3 Bft) W-SW 247 0 min 0,000 mm 0,0 UV-I 72 W/m 2,7 C 2,1 C 25,7 km/h (4 Bft) 100,00 %
04.01.2018 10:27 6,6 C 3,9 C 77 % 1005,4 hPa 0,0 l/m 12,9 km/h (3 Bft) SW 225 0 min 0,000 mm 0,0 UV-I 69 W/m 2,9 C 2,1 C 19,3 km/h (3 Bft) 100,00 %
04.01.2018 10:28 6,6 C 3,9 C 77 % 1005,4 hPa 0,0 l/m 14,5 km/h (3 Bft) W-SW 247 0 min 0,000 mm 0,0 UV-I 67 W/m 2,9 C 1,3 C 19,3 km/h (3 Bft) 95,65 %
04.01.2018 10:29 6,6 C 3,9 C 77 % 1005,4 hPa 0,0 l/m 14,5 km/h (3 Bft) SW 225 0 min 0,000 mm 0,0 UV-I 67 W/m 2,9 C 1,3 C 19,3 km/h (3 Bft) 100,00 %
04.01.2018 10:30 6,6 C 3,9 C 77 % 1005,4 hPa 0,0 l/m 11,3 km/h (2 Bft) SW 225 0 min 0,000 mm 0,0 UV-I 69 W/m 2,9 C 3,0 C 17,7 km/h (3 Bft) 100,00 %
04.01.2018 10:31 6,6 C 3,9 C 77 % 1005,4 hPa 0,0 l/m 14,5 km/h (3 Bft) SW 225 0 min 0,000 mm 0,0 UV-I 69 W/m 2,9 C 1,3 C 19,3 km/h (3 Bft) 100,00 %
04.01.2018 10:32 6,6 C 3,9 C 77 % 1005,4 hPa 0,0 l/m 11,3 km/h (2 Bft) SW 225 0 min 0,000 mm 0,0 UV-I 69 W/m 2,9 C 3,0 C 17,7 km/h (3 Bft) 91,30 %
04.01.2018 10:33 6,6 C 3,9 C 77 % 1005,3 hPa 0,0 l/m 12,9 km/h (3 Bft) SW 225 0 min 0,000 mm 0,0 UV-I 69 W/m 2,9 C 2,1 C 17,7 km/h (3 Bft) 100,00 %
04.01.2018 10:34 6,6 C 3,9 C 77 % 1005,3 hPa 0,0 l/m 12,9 km/h (3 Bft) SW 225 0 min 0,000 mm 0,0 UV-I 65 W/m 2,9 C 2,1 C 16,1 km/h (3 Bft) 100,00 %
04.01.2018 10:35 6,6 C 3,9 C 77 % 1005,4 hPa 0,0 l/m 14,5 km/h (3 Bft) SW 225 0 min 0,000 mm 0,0 UV-I 62 W/m 2,9 C 1,3 C 22,5 km/h (4 Bft) 100,00 %
04.01.2018 10:36 6,6 C 3,9 C 77 % 1005,3 hPa 0,0 l/m 14,5 km/h (3 Bft) SW 225 0 min 0,000 mm 0,0 UV-I 60 W/m 2,9 C 1,3 C 20,9 km/h (4 Bft) 100,00 %
04.01.2018 10:37 6,6 C 3,9 C 77 % 1005,2 hPa 0,0 l/m 9,7 km/h (2 Bft) SW 225 0 min 0,000 mm 0,0 UV-I 56 W/m 2,9 C 4,0 C 14,5 km/h (3 Bft) 100,00 %
04.01.2018 10:38 6,6 C 3,9 C 77 % 1005,2 hPa 0,0 l/m 12,9 km/h (3 Bft) W-SW 247 0 min 0,000 mm 0,0 UV-I 54 W/m 2,9 C 2,1 C 16,1 km/h (3 Bft) 100,00 %
04.01.2018 10:39 6,6 C 3,9 C 78 % 1005,2 hPa 0,0 l/m 12,9 km/h (3 Bft) W-SW 247 0 min 0,000 mm 0,0 UV-I 54 W/m 3,0 C 2,1 C 17,7 km/h (3 Bft) 95,65 %
04.01.2018 10:40 6,6 C 3,9 C 78 % 1005,2 hPa 0,0 l/m 8,0 km/h (2 Bft) W-SW 247 0 min 0,000 mm 0,0 UV-I 56 W/m 3,0 C 5,3 C 11,3 km/h (2 Bft) 95,65 %
04.01.2018 10:41 6,6 C 3,9 C 78 % 1005,1 hPa 0,0 l/m 9,7 km/h (2 Bft) SW 225 0 min 0,000 mm 0,0 UV-I 54 W/m 3,0 C 4,0 C 16,1 km/h (3 Bft) 100,00 %
04.01.2018 10:42 6,6 C 3,9 C 78 % 1005,1 hPa 0,0 l/m 12,9 km/h (3 Bft) SW 225 0 min 0,000 mm 0,0 UV-I 54 W/m 3,0 C 2,1 C 20,9 km/h (4 Bft) 95,65 %
04.01.2018 10:43 6,5 C 3,9 C 78 % 1005,2 hPa 0,0 l/m 16,1 km/h (3 Bft) SW 225 0 min 0,000 mm 0,0 UV-I 54 W/m 2,9 C 0,4 C 19,3 km/h (3 Bft) 100,00 %
04.01.2018 10:44 6,5 C 3,9 C 78 % 1005,2 hPa 0,0 l/m 12,9 km/h (3 Bft) SW 225 0 min 0,000 mm 0,0 UV-I 54 W/m 2,9 C 2,0 C 20,9 km/h (4 Bft) 95,65 %
04.01.2018 10:45 6,5 C 3,9 C 78 % 1005,2 hPa 0,0 l/m 9,7 km/h (2 Bft) SW 225 0 min 0,000 mm 0,0 UV-I 53 W/m 2,9 C 3,9 C 16,1 km/h (3 Bft) 100,00 %
04.01.2018 10:46 6,5 C 3,9 C 78 % 1005,2 hPa 0,0 l/m 8,0 km/h (2 Bft) SW 225 0 min 0,000 mm 0,0 UV-I 53 W/m 2,9 C 5,2 C 11,3 km/h (2 Bft) 91,30 %
04.01.2018 10:47 6,5 C 3,9 C 79 % 1005,1 hPa 0,0 l/m 9,7 km/h (2 Bft) SW 225 0 min 0,000 mm 0,0 UV-I 58 W/m 3,1 C 3,9 C 12,9 km/h (3 Bft) 100,00 %
04.01.2018 10:48 6,5 C 3,9 C 79 % 1005,1 hPa 0,0 l/m 8,0 km/h (2 Bft) S-SW 202 0 min 0,000 mm 0,0 UV-I 63 W/m 3,1 C 5,2 C 14,5 km/h (3 Bft) 95,65 %
04.01.2018 10:49 6,5 C 3,9 C 79 % 1005,1 hPa 0,0 l/m 9,7 km/h (2 Bft) SW 225 0 min 0,000 mm 0,0 UV-I 65 W/m 3,1 C 3,9 C 12,9 km/h (3 Bft) 100,00 %
04.01.2018 10:50 6,5 C 3,9 C 79 % 1005,1 hPa 0,0 l/m 16,1 km/h (3 Bft) SW 225 0 min 0,000 mm 0,0 UV-I 67 W/m 3,1 C 0,4 C 20,9 km/h (4 Bft) 86,96 %
04.01.2018 10:51 6,5 C 3,9 C 79 % 1005,1 hPa 0,0 l/m 11,3 km/h (2 Bft) S-SW 202 0 min 0,000 mm 0,0 UV-I 70 W/m 3,1 C 2,9 C 17,7 km/h (3 Bft) 95,65 %
04.01.2018 10:52 6,5 C 3,9 C 79 % 1005,0 hPa 0,0 l/m 9,7 km/h (2 Bft) SW 225 0 min 0,000 mm 0,0 UV-I 72 W/m 3,1 C 3,9 C 12,9 km/h (3 Bft) 95,65 %
04.01.2018 10:53 6,5 C 3,9 C 79 % 1005,0 hPa 0,0 l/m 9,7 km/h (2 Bft) SW 225 0 min 0,000 mm 0,0 UV-I 67 W/m 3,1 C 3,9 C 14,5 km/h (3 Bft) 91,30 %
04.01.2018 10:54 6,4 C 3,9 C 79 % 1005,0 hPa 0,0 l/m 8,0 km/h (2 Bft) S-SW 202 0 min 0,000 mm 0,0 UV-I 63 W/m 3,0 C 5,1 C 11,3 km/h (2 Bft) 100,00 %
04.01.2018 10:55 6,4 C 3,9 C 79 % 1005,1 hPa 0,0 l/m 9,7 km/h (2 Bft) S-SW 202 0 min 0,000 mm 0,0 UV-I 65 W/m 3,0 C 3,8 C 11,3 km/h (2 Bft) 95,65 %
04.01.2018 10:56 6,4 C 3,9 C 79 % 1005,1 hPa 0,0 l/m 11,3 km/h (2 Bft) S-SW 202 0 min 0,000 mm 0,0 UV-I 67 W/m 3,0 C 2,8 C 20,9 km/h (4 Bft) 100,00 %
04.01.2018 10:57 6,4 C 3,9 C 79 % 1005,0 hPa 0,0 l/m 14,5 km/h (3 Bft) S-SW 202 0 min 0,000 mm 0,0 UV-I 67 W/m 3,0 C 1,0 C 24,1 km/h (4 Bft) 95,65 %
04.01.2018 10:58 6,4 C 3,9 C 79 % 1005,0 hPa 0,0 l/m 8,0 km/h (2 Bft) S-SW 202 0 min 0,000 mm 0,0 UV-I 67 W/m 3,0 C 5,1 C 11,3 km/h (2 Bft) 100,00 %
04.01.2018 10:59 6,4 C 3,9 C 79 % 1005,0 hPa 0,0 l/m 11,3 km/h (2 Bft) S-SW 202 0 min 0,000 mm 0,0 UV-I 64 W/m 3,0 C 2,8 C 16,1 km/h (3 Bft) 95,65 %
04.01.2018 11:00 6,4 C 3,9 C 79 % 1004,9 hPa 0,0 l/m 9,7 km/h (2 Bft) SW 225 0 min 0,051 mm 0,0 UV-I 62 W/m 3,0 C 3,8 C 16,1 km/h (3 Bft) 95,65 %
04.01.2018 11:01 6,4 C 3,9 C 80 % 1005,1 hPa 0,0 l/m 6,4 km/h (2 Bft) S-SW 202 0 min 0,000 mm 0,0 UV-I 65 W/m 3,2 C 6,4 C 9,7 km/h (2 Bft) 91,30 %
04.01.2018 11:02 6,4 C 3,9 C 80 % 1005,0 hPa 0,0 l/m 12,9 km/h (3 Bft) S-SW 202 0 min 0,000 mm 0,0 UV-I 65 W/m 3,2 C 1,9 C 17,7 km/h (3 Bft) 100,00 %
04.01.2018 11:03 6,3 C 3,9 C 80 % 1005,0 hPa 0,0 l/m 12,9 km/h (3 Bft) S-SW 202 0 min 0,000 mm 0,0 UV-I 65 W/m 3,1 C 1,7 C 22,5 km/h (4 Bft) 95,65 %
04.01.2018 11:04 6,3 C 3,9 C 80 % 1004,9 hPa 0,0 l/m 11,3 km/h (2 Bft) S-SW 202 0 min 0,000 mm 0,0 UV-I 75 W/m 3,1 C 2,7 C 17,7 km/h (3 Bft) 100,00 %
04.01.2018 11:05 6,3 C 3,9 C 80 % 1004,9 hPa 0,0 l/m 6,4 km/h (2 Bft) S-SW 202 0 min 0,000 mm 0,0 UV-I 86 W/m 3,1 C 6,3 C 12,9 km/h (3 Bft) 100,00 %
04.01.2018 11:06 6,3 C 3,9 C 80 % 1004,9 hPa 0,0 l/m 14,5 km/h (3 Bft) S-SW 202 0 min 0,000 mm 0,0 UV-I 91 W/m 3,1 C 0,9 C 19,3 km/h (3 Bft) 100,00 %
04.01.2018 11:07 6,3 C 3,9 C 80 % 1004,8 hPa 0,0 l/m 8,0 km/h (2 Bft) S-SW 202 0 min 0,000 mm 0,0 UV-I 97 W/m 3,1 C 5,0 C 14,5 km/h (3 Bft) 95,65 %
04.01.2018 11:08 6,3 C 3,9 C 80 % 1004,8 hPa 0,0 l/m 11,3 km/h (2 Bft) S-SW 202 0 min 0,000 mm 0,0 UV-I 97 W/m 3,1 C 2,7 C 16,1 km/h (3 Bft) 95,65 %
04.01.2018 11:09 6,3 C 3,9 C 80 % 1004,8 hPa 0,0 l/m 14,5 km/h (3 Bft) S-SW 202 0 min 0,000 mm 0,0 UV-I 100 W/m 3,1 C 0,9 C 19,3 km/h (3 Bft) 100,00 %
04.01.2018 11:10 6,3 C 3,9 C 80 % 1004,8 hPa 0,0 l/m 12,9 km/h (3 Bft) SW 225 0 min 0,000 mm 0,0 UV-I 101 W/m 3,1 C 1,7 C 20,9 km/h (4 Bft) 95,65 %
04.01.2018 11:11 6,3 C 3,9 C 80 % 1004,8 hPa 0,0 l/m 12,9 km/h (3 Bft) S-SW 202 0 min 0,000 mm 0,0 UV-I 104 W/m 3,1 C 1,7 C 17,7 km/h (3 Bft) 100,00 %
04.01.2018 11:12 6,3 C 3,9 C 80 % 1004,8 hPa 0,0 l/m 12,9 km/h (3 Bft) S-SW 202 0 min 0,000 mm 0,0 UV-I 107 W/m 3,1 C 1,7 C 19,3 km/h (3 Bft) 100,00 %
04.01.2018 11:13 6,4 C 3,9 C 80 % 1004,8 hPa 0,0 l/m 9,7 km/h (2 Bft) S-SW 202 0 min 0,000 mm 0,0 UV-I 111 W/m 3,2 C 3,8 C 14,5 km/h (3 Bft) 100,00 %
04.01.2018 11:14 6,4 C 3,9 C 80 % 1004,8 hPa 0,0 l/m 9,7 km/h (2 Bft) S-SW 202 0 min 0,000 mm 0,0 UV-I 114 W/m 3,2 C 3,8 C 14,5 km/h (3 Bft) 95,65 %
04.01.2018 11:15 6,4 C 3,9 C 80 % 1004,8 hPa 0,0 l/m 9,7 km/h (2 Bft) S-SW 202 0 min 0,000 mm 0,0 UV-I 114 W/m 3,2 C 3,8 C 12,9 km/h (3 Bft) 100,00 %
04.01.2018 11:16 6,4 C 3,9 C 80 % 1004,8 hPa 0,0 l/m 8,0 km/h (2 Bft) S-SW 202 0 min 0,000 mm 0,0 UV-I 119 W/m 3,2 C 5,1 C 11,3 km/h (2 Bft) 100,00 %
04.01.2018 11:17 6,4 C 3,9 C 81 % 1004,8 hPa 0,0 l/m 8,0 km/h (2 Bft) S-SW 202 0 min 0,000 mm 0,0 UV-I 130 W/m 3,4 C 5,1 C 12,9 km/h (3 Bft) 95,65 %
04.01.2018 11:18 6,4 C 3,9 C 81 % 1004,7 hPa 0,0 l/m 6,4 km/h (2 Bft) S-SW 202 0 min 0,000 mm 0,0 UV-I 135 W/m 3,4 C 6,4 C 12,9 km/h (3 Bft) 100,00 %
04.01.2018 11:19 6,4 C 3,9 C 81 % 1004,7 hPa 0,0 l/m 6,4 km/h (2 Bft) S-SW 202 0 min 0,000 mm 0,0 UV-I 139 W/m 3,4 C 6,4 C 9,7 km/h (2 Bft) 95,65 %
04.01.2018 11:20 6,4 C 3,9 C 81 % 1004,7 hPa 0,0 l/m 8,0 km/h (2 Bft) S-SW 202 0 min 0,000 mm 0,0 UV-I 141 W/m 3,4 C 5,1 C 12,9 km/h (3 Bft) 100,00 %
04.01.2018 11:21 6,4 C 3,9 C 81 % 1004,6 hPa 0,0 l/m 6,4 km/h (2 Bft) SW 225 0 min 0,000 mm 0,0 UV-I 141 W/m 3,4 C 6,4 C 11,3 km/h (2 Bft) 95,65 %
04.01.2018 11:22 6,4 C 3,9 C 80 % 1004,6 hPa 0,0 l/m 9,7 km/h (2 Bft) S-SW 202 0 min 0,000 mm 0,0 UV-I 141 W/m 3,2 C 3,8 C 17,7 km/h (3 Bft) 100,00 %
04.01.2018 11:23 6,4 C 3,9 C 80 % 1004,6 hPa 0,0 l/m 8,0 km/h (2 Bft) S-SW 202 0 min 0,000 mm 0,0 UV-I 142 W/m 3,2 C 5,1 C 12,9 km/h (3 Bft) 100,00 %
04.01.2018 11:24 6,4 C 3,9 C 80 % 1004,6 hPa 0,0 l/m 6,4 km/h (2 Bft) W-SW 247 0 min 0,000 mm 0,0 UV-I 146 W/m 3,2 C 6,4 C 11,3 km/h (2 Bft) 100,00 %
04.01.2018 11:25 6,4 C 3,9 C 80 % 1004,6 hPa 0,0 l/m 11,3 km/h (2 Bft) S-SW 202 0 min 0,000 mm 0,0 UV-I 149 W/m 3,2 C 2,8 C 14,5 km/h (3 Bft) 91,30 %
04.01.2018 11:26 6,4 C 3,9 C 80 % 1004,6 hPa 0,0 l/m 11,3 km/h (2 Bft) S-SW 202 0 min 0,000 mm 0,0 UV-I 153 W/m 3,2 C 2,8 C 12,9 km/h (3 Bft) 95,65 %
04.01.2018 11:27 6,5 C 3,9 C 80 % 1004,6 hPa 0,0 l/m 9,7 km/h (2 Bft) SW 225 0 min 0,000 mm 0,0 UV-I 155 W/m 3,3 C 3,9 C 12,9 km/h (3 Bft) 95,65 %
04.01.2018 11:28 6,5 C 3,9 C 80 % 1004,6 hPa 0,0 l/m 6,4 km/h (2 Bft) S-SW 202 0 min 0,000 mm 0,0 UV-I 156 W/m 3,3 C 6,5 C 8,0 km/h (2 Bft) 91,30 %
04.01.2018 11:29 6,5 C 3,9 C 80 % 1004,5 hPa 0,0 l/m 4,8 km/h (1 Bft) SW 225 0 min 0,000 mm 0,0 UV-I 153 W/m 3,3 C 6,5 C 11,3 km/h (2 Bft) 100,00 %
04.01.2018 11:30 6,5 C 3,9 C 80 % 1004,6 hPa 0,0 l/m 6,4 km/h (2 Bft) S-SW 202 0 min 0,000 mm 0,0 UV-I 149 W/m 3,3 C 6,5 C 8,0 km/h (2 Bft) 95,65 %
04.01.2018 11:31 6,5 C 3,9 C 80 % 1004,6 hPa 0,0 l/m 8,0 km/h (2 Bft) S-SW 202 0 min 0,000 mm 0,0 UV-I 146 W/m 3,3 C 5,2 C 9,7 km/h (2 Bft) 100,00 %
04.01.2018 11:32 6,6 C 3,9 C 80 % 1004,6 hPa 0,0 l/m 6,4 km/h (2 Bft) SW 225 0 min 0,000 mm 0,0 UV-I 146 W/m 3,4 C 6,6 C 9,7 km/h (2 Bft) 95,65 %
04.01.2018 11:33 6,6 C 3,9 C 80 % 1004,6 hPa 0,0 l/m 6,4 km/h (2 Bft) S 180 0 min 0,000 mm 0,0 UV-I 144 W/m 3,4 C 6,6 C 9,7 km/h (2 Bft) 100,00 %
04.01.2018 11:34 6,6 C 3,9 C 80 % 1004,6 hPa 0,0 l/m 6,4 km/h (2 Bft) S-SW 202 0 min 0,000 mm 0,0 UV-I 143 W/m 3,4 C 6,6 C 11,3 km/h (2 Bft) 95,65 %
04.01.2018 11:35 6,6 C 3,9 C 80 % 1004,6 hPa 0,0 l/m 9,7 km/h (2 Bft) SW 225 0 min 0,000 mm 0,0 UV-I 146 W/m 3,4 C 4,0 C 12,9 km/h (3 Bft) 91,30 %
04.01.2018 11:36 6,6 C 3,9 C 80 % 1004,6 hPa 0,0 l/m 9,7 km/h (2 Bft) S-SW 202 0 min 0,000 mm 0,0 UV-I 148 W/m 3,4 C 4,0 C 12,9 km/h (3 Bft) 100,00 %
04.01.2018 11:37 6,6 C 3,9 C 79 % 1004,5 hPa 0,0 l/m 11,3 km/h (2 Bft) S-SW 202 0 min 0,000 mm 0,0 UV-I 148 W/m 3,2 C 3,0 C 14,5 km/h (3 Bft) 95,65 %
04.01.2018 11:38 6,7 C 3,9 C 79 % 1004,5 hPa 0,0 l/m 9,7 km/h (2 Bft) SW 225 0 min 0,000 mm 0,0 UV-I 144 W/m 3,3 C 4,2 C 14,5 km/h (3 Bft) 100,00 %
04.01.2018 11:39 6,7 C 3,9 C 80 % 1004,5 hPa 0,0 l/m 8,0 km/h (2 Bft) SW 225 0 min 0,000 mm 0,0 UV-I 141 W/m 3,5 C 5,4 C 11,3 km/h (2 Bft) 95,65 %
04.01.2018 11:40 6,7 C 3,9 C 80 % 1004,5 hPa 0,0 l/m 12,9 km/h (3 Bft) SW 225 0 min 0,000 mm 0,0 UV-I 140 W/m 3,5 C 2,2 C 14,5 km/h (3 Bft) 100,00 %
04.01.2018 11:41 6,7 C 3,9 C 79 % 1004,4 hPa 0,0 l/m 12,9 km/h (3 Bft) S-SW 202 0 min 0,000 mm 0,0 UV-I 139 W/m 3,3 C 2,2 C 20,9 km/h (4 Bft) 95,65 %
04.01.2018 11:42 6,7 C 3,9 C 79 % 1004,4 hPa 0,0 l/m 14,5 km/h (3 Bft) SW 225 0 min 0,000 mm 0,0 UV-I 132 W/m 3,3 C 1,4 C 19,3 km/h (3 Bft) 95,65 %
04.01.2018 11:43 6,7 C 3,9 C 79 % 1004,4 hPa 0,0 l/m 12,9 km/h (3 Bft) S 180 0 min 0,000 mm 0,0 UV-I 127 W/m 3,3 C 2,2 C 22,5 km/h (4 Bft) 95,65 %
04.01.2018 11:44 6,7 C 3,9 C 79 % 1004,5 hPa 0,0 l/m 14,5 km/h (3 Bft) SW 225 0 min 0,000 mm 0,0 UV-I 125 W/m 3,3 C 1,4 C 19,3 km/h (3 Bft) 95,65 %
04.01.2018 11:45 6,7 C 3,9 C 78 % 1004,4 hPa 0,0 l/m 14,5 km/h (3 Bft) SW 225 0 min 0,000 mm 0,0 UV-I 134 W/m 3,1 C 1,4 C 19,3 km/h (3 Bft) 100,00 %
04.01.2018 11:46 6,7 C 3,9 C 79 % 1004,5 hPa 0,0 l/m 12,9 km/h (3 Bft) S-SW 202 0 min 0,000 mm 0,0 UV-I 139 W/m 3,3 C 2,2 C 19,3 km/h (3 Bft) 95,65 %
04.01.2018 11:47 6,7 C 3,9 C 79 % 1004,4 hPa 0,0 l/m 9,7 km/h (2 Bft) S-SW 202 0 min 0,000 mm 0,0 UV-I 141 W/m 3,3 C 4,2 C 12,9 km/h (3 Bft) 100,00 %
04.01.2018 11:48 6,7 C 3,9 C 79 % 1004,4 hPa 0,0 l/m 16,1 km/h (3 Bft) S-SW 202 0 min 0,000 mm 0,0 UV-I 139 W/m 3,3 C 0,6 C 25,7 km/h (4 Bft) 91,30 %
04.01.2018 11:49 6,7 C 3,9 C 79 % 1004,4 hPa 0,0 l/m 14,5 km/h (3 Bft) S-SW 202 0 min 0,000 mm 0,0 UV-I 137 W/m 3,3 C 1,4 C 20,9 km/h (4 Bft) 95,65 %
04.01.2018 11:50 6,7 C 3,9 C 79 % 1004,4 hPa 0,0 l/m 12,9 km/h (3 Bft) S-SW 202 0 min 0,000 mm 0,0 UV-I 135 W/m 3,3 C 2,2 C 19,3 km/h (3 Bft) 95,65 %
04.01.2018 11:51 6,7 C 3,9 C 79 % 1004,4 hPa 0,0 l/m 11,3 km/h (2 Bft) S-SW 202 0 min 0,000 mm 0,0 UV-I 139 W/m 3,3 C 3,1 C 16,1 km/h (3 Bft) 95,65 %
04.01.2018 11:52 6,8 C 3,9 C 79 % 1004,4 hPa 0,0 l/m 17,7 km/h (3 Bft) SW 225 0 min 0,000 mm 0,0 UV-I 141 W/m 3,4 C 0,1 C 29,0 km/h (5 Bft) 95,65 %
04.01.2018 11:53 6,8 C 3,9 C 79 % 1004,3 hPa 0,0 l/m 12,9 km/h (3 Bft) SW 225 0 min 0,000 mm 0,0 UV-I 144 W/m 3,4 C 2,3 C 20,9 km/h (4 Bft) 91,30 %
04.01.2018 11:54 6,8 C 3,9 C 79 % 1004,3 hPa 0,0 l/m 12,9 km/h (3 Bft) SW 225 0 min 0,000 mm 0,0 UV-I 148 W/m 3,4 C 2,3 C 20,9 km/h (4 Bft) 95,65 %
04.01.2018 11:55 6,8 C 3,9 C 79 % 1004,4 hPa 0,0 l/m 12,9 km/h (3 Bft) SW 225 0 min 0,000 mm 0,0 UV-I 153 W/m 3,4 C 2,3 C 25,7 km/h (4 Bft) 95,65 %
04.01.2018 11:56 6,8 C 3,9 C 79 % 1004,3 hPa 0,0 l/m 17,7 km/h (3 Bft) S-SW 202 0 min 0,000 mm 0,0 UV-I 156 W/m 3,4 C 0,1 C 24,1 km/h (4 Bft) 95,65 %
04.01.2018 11:57 6,8 C 3,9 C 79 % 1004,3 hPa 0,0 l/m 14,5 km/h (3 Bft) S-SW 202 0 min 0,000 mm 0,0 UV-I 161 W/m 3,4 C 1,5 C 24,1 km/h (4 Bft) 95,65 %
04.01.2018 11:58 6,8 C 3,9 C 79 % 1004,3 hPa 0,0 l/m 14,5 km/h (3 Bft) SW 225 0 min 0,000 mm 0,0 UV-I 167 W/m 3,4 C 1,5 C 22,5 km/h (4 Bft) 100,00 %
04.01.2018 11:59 6,8 C 3,9 C 79 % 1004,2 hPa 0,0 l/m 12,9 km/h (3 Bft) S-SW 202 0 min 0,000 mm 0,0 UV-I 172 W/m 3,4 C 2,3 C 19,3 km/h (3 Bft) 95,65 %
04.01.2018 12:00 6,8 C 3,9 C 79 % 1004,2 hPa 0,0 l/m 16,1 km/h (3 Bft) SW 225 0 min 0,076 mm 0,0 UV-I 176 W/m 3,4 C 0,7 C 24,1 km/h (4 Bft) 100,00 %
04.01.2018 12:01 6,8 C 3,9 C 79 % 1004,2 hPa 0,0 l/m 12,9 km/h (3 Bft) SW 225 0 min 0,000 mm 0,0 UV-I 178 W/m 3,4 C 2,3 C 17,7 km/h (3 Bft) 100,00 %
04.01.2018 12:02 6,8 C 3,9 C 79 % 1004,1 hPa 0,0 l/m 9,7 km/h (2 Bft) SW 225 0 min 0,000 mm 0,0 UV-I 178 W/m 3,4 C 4,3 C 16,1 km/h (3 Bft) 100,00 %
04.01.2018 12:03 6,8 C 3,9 C 79 % 1004,2 hPa 0,0 l/m 12,9 km/h (3 Bft) SW 225 0 min 0,000 mm 0,0 UV-I 177 W/m 3,4 C 2,3 C 17,7 km/h (3 Bft) 91,30 %
04.01.2018 12:04 6,8 C 3,9 C 79 % 1004,1 hPa 0,0 l/m 9,7 km/h (2 Bft) SW 225 0 min 0,000 mm 0,0 UV-I 174 W/m 3,4 C 4,3 C 16,1 km/h (3 Bft) 100,00 %
04.01.2018 12:05 6,8 C 3,9 C 79 % 1004,2 hPa 0,0 l/m 8,0 km/h (2 Bft) SW 225 0 min 0,000 mm 0,0 UV-I 176 W/m 3,4 C 5,5 C 11,3 km/h (2 Bft) 95,65 %
04.01.2018 12:06 6,8 C 3,9 C 80 % 1004,1 hPa 0,0 l/m 9,7 km/h (2 Bft) S-SW 202 0 min 0,000 mm 0,0 UV-I 178 W/m 3,6 C 4,3 C 12,9 km/h (3 Bft) 95,65 %
04.01.2018 12:07 6,8 C 3,9 C 79 % 1004,1 hPa 0,0 l/m 14,5 km/h (3 Bft) S-SW 202 0 min 0,000 mm 0,0 UV-I 178 W/m 3,4 C 1,5 C 19,3 km/h (3 Bft) 95,65 %
04.01.2018 12:08 6,9 C 3,9 C 79 % 1004,1 hPa 0,0 l/m 9,7 km/h (2 Bft) S-SW 202 0 min 0,000 mm 0,0 UV-I 178 W/m 3,5 C 4,4 C 14,5 km/h (3 Bft) 95,65 %
04.01.2018 12:09 6,9 C 3,9 C 80 % 1004,1 hPa 0,0 l/m 11,3 km/h (2 Bft) SW 225 0 min 0,000 mm 0,0 UV-I 175 W/m 3,7 C 3,4 C 20,9 km/h (4 Bft) 95,65 %
04.01.2018 12:10 6,9 C 3,9 C 79 % 1004,1 hPa 0,0 l/m 11,3 km/h (2 Bft) SW 225 0 min 0,000 mm 0,0 UV-I 171 W/m 3,5 C 3,4 C 14,5 km/h (3 Bft) 91,30 %
04.01.2018 12:11 6,9 C 3,9 C 79 % 1004,1 hPa 0,0 l/m 16,1 km/h (3 Bft) SW 225 0 min 0,000 mm 0,0 UV-I 167 W/m 3,5 C 0,9 C 20,9 km/h (4 Bft) 95,65 %
04.01.2018 12:12 6,9 C 3,9 C 79 % 1004,1 hPa 0,0 l/m 11,3 km/h (2 Bft) S-SW 202 0 min 0,000 mm 0,0 UV-I 162 W/m 3,5 C 3,4 C 24,1 km/h (4 Bft) 100,00 %
04.01.2018 12:13 6,9 C 3,9 C 79 % 1004,1 hPa 0,0 l/m 12,9 km/h (3 Bft) SW 225 0 min 0,000 mm 0,0 UV-I 158 W/m 3,5 C 2,4 C 20,9 km/h (4 Bft) 95,65 %
04.01.2018 12:14 6,9 C 3,9 C 79 % 1004,0 hPa 0,0 l/m 12,9 km/h (3 Bft) S-SW 202 0 min 0,000 mm 0,0 UV-I 153 W/m 3,5 C 2,4 C 17,7 km/h (3 Bft) 95,65 %
04.01.2018 12:15 6,9 C 3,9 C 79 % 1004,0 hPa 0,0 l/m 11,3 km/h (2 Bft) SW 225 0 min 0,000 mm 0,0 UV-I 146 W/m 3,5 C 3,4 C 14,5 km/h (3 Bft) 95,65 %
04.01.2018 12:16 6,9 C 3,9 C 79 % 1004,1 hPa 0,0 l/m 14,5 km/h (3 Bft) S-SW 202 0 min 0,000 mm 0,0 UV-I 141 W/m 3,5 C 1,6 C 17,7 km/h (3 Bft) 91,30 %
04.01.2018 12:17 6,9 C 3,9 C 79 % 1004,0 hPa 0,0 l/m 9,7 km/h (2 Bft) S-SW 202 0 min 0,000 mm 0,0 UV-I 137 W/m 3,5 C 4,4 C 16,1 km/h (3 Bft) 95,65 %
04.01.2018 12:18 6,9 C 3,9 C 79 % 1004,0 hPa 0,0 l/m 11,3 km/h (2 Bft) SW 225 0 min 0,000 mm 0,0 UV-I 135 W/m 3,5 C 3,4 C 16,1 km/h (3 Bft) 91,30 %
04.01.2018 12:19 6,9 C 3,9 C 79 % 1004,0 hPa 0,0 l/m 12,9 km/h (3 Bft) SW 225 0 min 0,000 mm 0,0 UV-I 137 W/m 3,5 C 2,4 C 19,3 km/h (3 Bft) 100,00 %
04.01.2018 12:20 6,9 C 3,9 C 79 % 1004,0 hPa 0,0 l/m 8,0 km/h (2 Bft) S 180 0 min 0,000 mm 0,0 UV-I 137 W/m 3,5 C 5,6 C 11,3 km/h (2 Bft) 95,65 %
04.01.2018 12:21 6,9 C 3,9 C 80 % 1003,9 hPa 0,0 l/m 9,7 km/h (2 Bft) SW 225 0 min 0,000 mm 0,0 UV-I 137 W/m 3,7 C 4,4 C 17,7 km/h (3 Bft) 100,00 %
04.01.2018 12:22 6,9 C 3,9 C 79 % 1004,0 hPa 0,0 l/m 11,3 km/h (2 Bft) SW 225 0 min 0,000 mm 0,0 UV-I 139 W/m 3,5 C 3,4 C 16,1 km/h (3 Bft) 95,65 %
04.01.2018 12:23 6,9 C 3,9 C 79 % 1004,0 hPa 0,0 l/m 8,0 km/h (2 Bft) SW 225 0 min 0,000 mm 0,0 UV-I 139 W/m 3,5 C 5,6 C 12,9 km/h (3 Bft) 100,00 %
04.01.2018 12:24 6,9 C 3,9 C 80 % 1003,9 hPa 0,0 l/m 9,7 km/h (2 Bft) S-SW 202 0 min 0,000 mm 0,0 UV-I 137 W/m 3,7 C 4,4 C 12,9 km/h (3 Bft) 91,30 %
04.01.2018 12:25 6,9 C 3,9 C 80 % 1003,9 hPa 0,0 l/m 8,0 km/h (2 Bft) S-SW 202 0 min 0,000 mm 0,0 UV-I 135 W/m 3,7 C 5,6 C 17,7 km/h (3 Bft) 100,00 %
04.01.2018 12:26 6,9 C 3,9 C 79 % 1003,8 hPa 0,0 l/m 9,7 km/h (2 Bft) SW 225 0 min 0,000 mm 0,0 UV-I 134 W/m 3,5 C 4,4 C 16,1 km/h (3 Bft) 91,30 %
04.01.2018 12:27 6,9 C 3,9 C 80 % 1003,8 hPa 0,0 l/m 11,3 km/h (2 Bft) W-SW 247 0 min 0,000 mm 0,0 UV-I 134 W/m 3,7 C 3,4 C 17,7 km/h (3 Bft) 100,00 %
04.01.2018 12:28 6,9 C 3,9 C 79 % 1003,9 hPa 0,0 l/m 9,7 km/h (2 Bft) S-SW 202 0 min 0,000 mm 0,0 UV-I 134 W/m 3,5 C 4,4 C 17,7 km/h (3 Bft) 100,00 %
04.01.2018 12:29 6,9 C 3,9 C 80 % 1003,8 hPa 0,0 l/m 14,5 km/h (3 Bft) S-SW 202 0 min 0,000 mm 0,0 UV-I 132 W/m 3,7 C 1,6 C 20,9 km/h (4 Bft) 100,00 %
04.01.2018 12:30 6,9 C 3,9 C 79 % 1003,8 hPa 0,0 l/m 17,7 km/h (3 Bft) SW 225 0 min 0,000 mm 0,0 UV-I 128 W/m 3,5 C 0,2 C 22,5 km/h (4 Bft) 100,00 %
04.01.2018 12:31 6,9 C 3,9 C 79 % 1003,8 hPa 0,0 l/m 12,9 km/h (3 Bft) SW 225 0 min 0,000 mm 0,0 UV-I 123 W/m 3,5 C 2,4 C 17,7 km/h (3 Bft) 86,96 %
04.01.2018 12:32 6,9 C 3,9 C 79 % 1003,8 hPa 0,0 l/m 12,9 km/h (3 Bft) S-SW 202 0 min 0,000 mm 0,0 UV-I 114 W/m 3,5 C 2,4 C 16,1 km/h (3 Bft) 100,00 %
04.01.2018 12:33 6,9 C 3,9 C 79 % 1003,8 hPa 0,0 l/m 11,3 km/h (2 Bft) SW 225 0 min 0,000 mm 0,0 UV-I 107 W/m 3,5 C 3,4 C 16,1 km/h (3 Bft) 100,00 %
04.01.2018 12:34 6,9 C 3,9 C 79 % 1003,7 hPa 0,0 l/m 11,3 km/h (2 Bft) S-SW 202 0 min 0,000 mm 0,0 UV-I 104 W/m 3,5 C 3,4 C 14,5 km/h (3 Bft) 100,00 %
04.01.2018 12:35 6,9 C 3,9 C 79 % 1003,7 hPa 0,0 l/m 11,3 km/h (2 Bft) S-SW 202 0 min 0,000 mm 0,0 UV-I 100 W/m 3,5 C 3,4 C 19,3 km/h (3 Bft) 100,00 %
04.01.2018 12:36 6,9 C 3,9 C 80 % 1003,7 hPa 0,0 l/m 9,7 km/h (2 Bft) S-SW 202 0 min 0,000 mm 0,0 UV-I 102 W/m 3,7 C 4,4 C 12,9 km/h (3 Bft) 91,30 %
04.01.2018 12:37 6,9 C 3,9 C 80 % 1003,7 hPa 0,0 l/m 6,4 km/h (2 Bft) SW 225 0 min 0,000 mm 0,0 UV-I 102 W/m 3,7 C 6,9 C 11,3 km/h (2 Bft) 100,00 %
04.01.2018 12:38 6,9 C 3,9 C 80 % 1003,7 hPa 0,0 l/m 12,9 km/h (3 Bft) SW 225 0 min 0,000 mm 0,0 UV-I 101 W/m 3,7 C 2,4 C 19,3 km/h (3 Bft) 91,30 %
04.01.2018 12:39 6,9 C 3,9 C 79 % 1003,6 hPa 0,0 l/m 8,0 km/h (2 Bft) SW 225 0 min 0,000 mm 0,0 UV-I 100 W/m 3,5 C 5,6 C 12,9 km/h (3 Bft) 100,00 %
04.01.2018 12:40 6,9 C 3,9 C 80 % 1003,6 hPa 0,0 l/m 6,4 km/h (2 Bft) S-SW 202 0 min 0,000 mm 0,0 UV-I 104 W/m 3,7 C 6,9 C 12,9 km/h (3 Bft) 100,00 %
04.01.2018 12:41 6,8 C 3,9 C 80 % 1003,6 hPa 0,0 l/m 8,0 km/h (2 Bft) S-SW 202 0 min 0,000 mm 0,0 UV-I 105 W/m 3,6 C 5,5 C 11,3 km/h (2 Bft) 95,65 %
04.01.2018 12:42 6,8 C 3,9 C 80 % 1003,5 hPa 0,0 l/m 6,4 km/h (2 Bft) SW 225 0 min 0,000 mm 0,0 UV-I 102 W/m 3,6 C 6,8 C 11,3 km/h (2 Bft) 100,00 %
04.01.2018 12:43 6,8 C 3,9 C 80 % 1003,5 hPa 0,0 l/m 6,4 km/h (2 Bft) S-SW 202 0 min 0,000 mm 0,0 UV-I 100 W/m 3,6 C 6,8 C 8,0 km/h (2 Bft) 100,00 %
04.01.2018 12:44 6,8 C 3,9 C 80 % 1003,5 hPa 0,0 l/m 8,0 km/h (2 Bft) S-SW 202 0 min 0,000 mm 0,0 UV-I 100 W/m 3,6 C 5,5 C 12,9 km/h (3 Bft) 100,00 %
04.01.2018 12:45 6,8 C 3,9 C 80 % 1003,5 hPa 0,0 l/m 16,1 km/h (3 Bft) S-SW 202 0 min 0,000 mm 0,0 UV-I 98 W/m 3,6 C 0,7 C 22,5 km/h (4 Bft) 95,65 %
04.01.2018 12:46 6,8 C 3,9 C 80 % 1003,5 hPa 0,0 l/m 11,3 km/h (2 Bft) S-SW 202 0 min 0,000 mm 0,0 UV-I 97 W/m 3,6 C 3,2 C 14,5 km/h (3 Bft) 95,65 %
04.01.2018 12:47 6,8 C 3,9 C 80 % 1003,5 hPa 0,0 l/m 9,7 km/h (2 Bft) S-SW 202 0 min 0,000 mm 0,0 UV-I 97 W/m 3,6 C 4,3 C 12,9 km/h (3 Bft) 100,00 %
04.01.2018 12:48 6,8 C 3,9 C 79 % 1003,5 hPa 0,0 l/m 9,7 km/h (2 Bft) SW 225 0 min 0,000 mm 0,0 UV-I 102 W/m 3,4 C 4,3 C 12,9 km/h (3 Bft) 95,65 %
04.01.2018 12:49 6,8 C 3,9 C 79 % 1003,4 hPa 0,0 l/m 8,0 km/h (2 Bft) S-SW 202 0 min 0,000 mm 0,0 UV-I 107 W/m 3,4 C 5,5 C 11,3 km/h (2 Bft) 100,00 %
04.01.2018 12:50 6,8 C 3,9 C 79 % 1003,4 hPa 0,0 l/m 9,7 km/h (2 Bft) S-SW 202 0 min 0,000 mm 0,0 UV-I 111 W/m 3,4 C 4,3 C 14,5 km/h (3 Bft) 91,30 %
04.01.2018 12:51 6,8 C 3,9 C 80 % 1003,4 hPa 0,0 l/m 4,8 km/h (1 Bft) S 180 0 min 0,000 mm 0,0 UV-I 109 W/m 3,6 C 6,8 C 11,3 km/h (2 Bft) 100,00 %
04.01.2018 12:52 6,8 C 3,9 C 80 % 1003,4 hPa 0,0 l/m 12,9 km/h (3 Bft) S-SW 202 0 min 0,000 mm 0,0 UV-I 105 W/m 3,6 C 2,3 C 16,1 km/h (3 Bft) 95,65 %
04.01.2018 12:53 6,8 C 3,9 C 80 % 1003,4 hPa 0,0 l/m 11,3 km/h (2 Bft) SW 225 0 min 0,000 mm 0,0 UV-I 100 W/m 3,6 C 3,2 C 14,5 km/h (3 Bft) 100,00 %
04.01.2018 12:54 6,8 C 3,9 C 80 % 1003,4 hPa 0,0 l/m 9,7 km/h (2 Bft) S-SW 202 0 min 0,000 mm 0,0 UV-I 95 W/m 3,6 C 4,3 C 12,9 km/h (3 Bft) 91,30 %
04.01.2018 12:55 6,9 C 3,9 C 80 % 1003,4 hPa 0,0 l/m 8,0 km/h (2 Bft) S-SW 202 0 min 0,000 mm 0,0 UV-I 91 W/m 3,7 C 5,6 C 11,3 km/h (2 Bft) 100,00 %
04.01.2018 12:56 6,9 C 3,9 C 80 % 1003,4 hPa 0,0 l/m 9,7 km/h (2 Bft) SW 225 0 min 0,000 mm 0,0 UV-I 89 W/m 3,7 C 4,4 C 12,9 km/h (3 Bft) 100,00 %
04.01.2018 12:57 6,9 C 3,9 C 80 % 1003,3 hPa 0,0 l/m 8,0 km/h (2 Bft) S-SW 202 0 min 0,000 mm 0,0 UV-I 88 W/m 3,7 C 5,6 C 12,9 km/h (3 Bft) 95,65 %
04.01.2018 12:58 6,9 C 3,9 C 80 % 1003,3 hPa 0,0 l/m 6,4 km/h (2 Bft) SW 225 0 min 0,000 mm 0,0 UV-I 86 W/m 3,7 C 6,9 C 9,7 km/h (2 Bft) 95,65 %
04.01.2018 12:59 6,8 C 3,9 C 80 % 1003,3 hPa 0,0 l/m 6,4 km/h (2 Bft) S-SW 202 0 min 0,000 mm 0,0 UV-I 90 W/m 3,6 C 6,8 C 11,3 km/h (2 Bft) 95,65 %
04.01.2018 13:00 6,9 C 3,9 C 80 % 1003,3 hPa 0,0 l/m 11,3 km/h (2 Bft) S-SW 202 0 min 0,076 mm 0,0 UV-I 95 W/m 3,7 C 3,4 C 16,1 km/h (3 Bft) 100,00 %
04.01.2018 13:01 6,9 C 3,9 C 79 % 1003,3 hPa 0,0 l/m 12,9 km/h (3 Bft) SW 225 0 min 0,000 mm 0,0 UV-I 98 W/m 3,5 C 2,4 C 19,3 km/h (3 Bft) 100,00 %
04.01.2018 13:02 6,9 C 3,9 C 79 % 1003,3 hPa 0,0 l/m 9,7 km/h (2 Bft) S-SW 202 0 min 0,000 mm 0,0 UV-I 98 W/m 3,5 C 4,4 C 14,5 km/h (3 Bft) 100,00 %
04.01.2018 13:03 6,9 C 3,9 C 79 % 1003,4 hPa 0,0 l/m 9,7 km/h (2 Bft) S-SW 202 0 min 0,000 mm 0,0 UV-I 97 W/m 3,5 C 4,4 C 12,9 km/h (3 Bft) 100,00 %
04.01.2018 13:04 6,9 C 3,9 C 80 % 1003,3 hPa 0,0 l/m 8,0 km/h (2 Bft) S-SW 202 0 min 0,000 mm 0,0 UV-I 98 W/m 3,7 C 5,6 C 11,3 km/h (2 Bft) 100,00 %
04.01.2018 13:05 6,9 C 3,9 C 80 % 1003,3 hPa 0,0 l/m 8,0 km/h (2 Bft) S-SW 202 0 min 0,000 mm 0,0 UV-I 97 W/m 3,7 C 5,6 C 11,3 km/h (2 Bft) 100,00 %
04.01.2018 13:06 6,9 C 3,9 C 80 % 1003,2 hPa 0,0 l/m 9,7 km/h (2 Bft) S-SW 202 0 min 0,000 mm 0,0 UV-I 95 W/m 3,7 C 4,4 C 14,5 km/h (3 Bft) 95,65 %
04.01.2018 13:07 6,9 C 3,9 C 80 % 1003,3 hPa 0,0 l/m 8,0 km/h (2 Bft) SW 225 0 min 0,000 mm 0,0 UV-I 87 W/m 3,7 C 5,6 C 14,5 km/h (3 Bft) 100,00 %
04.01.2018 13:08 6,9 C 3,9 C 80 % 1003,3 hPa 0,0 l/m 11,3 km/h (2 Bft) S-SW 202 0 min 0,000 mm 0,0 UV-I 79 W/m 3,7 C 3,4 C 22,5 km/h (4 Bft) 100,00 %
04.01.2018 13:09 6,9 C 3,9 C 80 % 1003,3 hPa 0,0 l/m 16,1 km/h (3 Bft) S-SW 202 0 min 0,000 mm 0,0 UV-I 77 W/m 3,7 C 0,9 C 22,5 km/h (4 Bft) 95,65 %
04.01.2018 13:10 6,9 C 3,9 C 80 % 1003,2 hPa 0,0 l/m 16,1 km/h (3 Bft) S-SW 202 0 min 0,000 mm 0,0 UV-I 77 W/m 3,7 C 0,9 C 24,1 km/h (4 Bft) 100,00 %
04.01.2018 13:11 6,9 C 3,9 C 80 % 1003,2 hPa 0,0 l/m 16,1 km/h (3 Bft) S-SW 202 0 min 0,000 mm 0,0 UV-I 77 W/m 3,7 C 0,9 C 22,5 km/h (4 Bft) 100,00 %
04.01.2018 13:12 6,8 C 3,9 C 80 % 1003,2 hPa 0,0 l/m 14,5 km/h (3 Bft) S-SW 202 0 min 0,000 mm 0,0 UV-I 77 W/m 3,6 C 1,5 C 22,5 km/h (4 Bft) 100,00 %
04.01.2018 13:13 6,8 C 3,9 C 80 % 1003,1 hPa 0,0 l/m 11,3 km/h (2 Bft) S-SW 202 0 min 0,000 mm 0,0 UV-I 85 W/m 3,6 C 3,2 C 17,7 km/h (3 Bft) 91,30 %
04.01.2018 13:14 6,8 C 3,9 C 80 % 1003,1 hPa 0,0 l/m 9,7 km/h (2 Bft) S-SW 202 0 min 0,000 mm 0,0 UV-I 90 W/m 3,6 C 4,3 C 14,5 km/h (3 Bft) 100,00 %
04.01.2018 13:15 6,8 C 3,9 C 80 % 1003,1 hPa 0,0 l/m 14,5 km/h (3 Bft) SW 225 0 min 0,000 mm 0,0 UV-I 91 W/m 3,6 C 1,5 C 22,5 km/h (4 Bft) 95,65 %
04.01.2018 13:16 6,8 C 3,9 C 80 % 1003,1 hPa 0,0 l/m 12,9 km/h (3 Bft) SW 225 0 min 0,000 mm 0,0 UV-I 95 W/m 3,6 C 2,3 C 17,7 km/h (3 Bft) 91,30 %
04.01.2018 13:17 6,8 C 3,9 C 81 % 1003,0 hPa 0,0 l/m 6,4 km/h (2 Bft) S-SW 202 0 min 0,000 mm 0,0 UV-I 98 W/m 3,8 C 6,8 C 12,9 km/h (3 Bft) 100,00 %
04.01.2018 13:18 6,8 C 3,9 C 81 % 1003,0 hPa 0,0 l/m 14,5 km/h (3 Bft) S-SW 202 0 min 0,000 mm 0,0 UV-I 102 W/m 3,8 C 1,5 C 22,5 km/h (4 Bft) 95,65 %
04.01.2018 13:19 6,8 C 3,9 C 81 % 1003,0 hPa 0,0 l/m 17,7 km/h (3 Bft) S-SW 202 0 min 0,000 mm 0,0 UV-I 98 W/m 3,8 C 0,1 C 25,7 km/h (4 Bft) 95,65 %
04.01.2018 13:20 6,8 C 3,9 C 81 % 1003,0 hPa 0,0 l/m 11,3 km/h (2 Bft) S-SW 202 0 min 0,000 mm 0,0 UV-I 88 W/m 3,8 C 3,2 C 14,5 km/h (3 Bft) 95,65 %
04.01.2018 13:21 6,8 C 3,9 C 81 % 1003,0 hPa 0,0 l/m 8,0 km/h (2 Bft) SW 225 0 min 0,000 mm 0,0 UV-I 81 W/m 3,8 C 5,5 C 12,9 km/h (3 Bft) 100,00 %
04.01.2018 13:22 6,8 C 3,9 C 81 % 1003,0 hPa 0,0 l/m 8,0 km/h (2 Bft) SW 225 0 min 0,000 mm 0,0 UV-I 79 W/m 3,8 C 5,5 C 14,5 km/h (3 Bft) 95,65 %
04.01.2018 13:23 6,8 C 3,9 C 81 % 1003,0 hPa 0,0 l/m 11,3 km/h (2 Bft) S-SW 202 0 min 0,000 mm 0,0 UV-I 77 W/m 3,8 C 3,2 C 17,7 km/h (3 Bft) 95,65 %
04.01.2018 13:24 6,7 C 3,9 C 82 % 1002,9 hPa 0,0 l/m 9,7 km/h (2 Bft) S-SW 202 0 min 0,000 mm 0,0 UV-I 72 W/m 3,8 C 4,2 C 17,7 km/h (3 Bft) 95,65 %
04.01.2018 13:25 6,7 C 3,9 C 82 % 1002,9 hPa 0,0 l/m 12,9 km/h (3 Bft) S-SW 202 0 min 0,000 mm 0,0 UV-I 67 W/m 3,8 C 2,2 C 17,7 km/h (3 Bft) 91,30 %
04.01.2018 13:26 6,7 C 3,9 C 82 % 1002,9 hPa 0,0 l/m 12,9 km/h (3 Bft) S-SW 202 0 min 0,000 mm 0,0 UV-I 65 W/m 3,8 C 2,2 C 16,1 km/h (3 Bft) 95,65 %
04.01.2018 13:27 6,7 C 3,9 C 82 % 1002,9 hPa 0,0 l/m 8,0 km/h (2 Bft) S-SW 202 0 min 0,000 mm 0,0 UV-I 63 W/m 3,8 C 5,4 C 11,3 km/h (2 Bft) 91,30 %
04.01.2018 13:28 6,7 C 3,9 C 82 % 1002,9 hPa 0,0 l/m 8,0 km/h (2 Bft) S-SW 202 0 min 0,000 mm 0,0 UV-I 60 W/m 3,8 C 5,4 C 14,5 km/h (3 Bft) 91,30 %
04.01.2018 13:29 6,6 C 3,9 C 82 % 1002,9 hPa 0,0 l/m 6,4 km/h (2 Bft) S-SW 202 0 min 0,000 mm 0,0 UV-I 54 W/m 3,8 C 6,6 C 9,7 km/h (2 Bft) 100,00 %
04.01.2018 13:30 6,6 C 3,9 C 82 % 1002,8 hPa 0,0 l/m 12,9 km/h (3 Bft) S-SW 202 0 min 0,000 mm 0,0 UV-I 49 W/m 3,8 C 2,1 C 22,5 km/h (4 Bft) 91,30 %
04.01.2018 13:31 6,6 C 3,9 C 83 % 1002,9 hPa 0,0 l/m 17,7 km/h (3 Bft) SW 225 0 min 0,000 mm 0,0 UV-I 46 W/m 3,9 C -0,2 C 27,4 km/h (4 Bft) 100,00 %
04.01.2018 13:32 6,6 C 3,9 C 83 % 1002,8 hPa 0,0 l/m 9,7 km/h (2 Bft) S-SW 202 0 min 0,000 mm 0,0 UV-I 46 W/m 3,9 C 4,0 C 14,5 km/h (3 Bft) 91,30 %
04.01.2018 13:33 6,6 C 3,9 C 83 % 1002,8 hPa 0,0 l/m 11,3 km/h (2 Bft) S-SW 202 0 min 0,000 mm 0,0 UV-I 44 W/m 3,9 C 3,0 C 17,7 km/h (3 Bft) 95,65 %
04.01.2018 13:34 6,5 C 3,9 C 83 % 1002,7 hPa 0,0 l/m 12,9 km/h (3 Bft) S-SW 202 0 min 0,000 mm 0,0 UV-I 42 W/m 3,8 C 2,0 C 17,7 km/h (3 Bft) 95,65 %
04.01.2018 13:35 6,5 C 3,9 C 83 % 1002,7 hPa 0,0 l/m 9,7 km/h (2 Bft) SW 225 0 min 0,000 mm 0,0 UV-I 40 W/m 3,8 C 3,9 C 14,5 km/h (3 Bft) 86,96 %
04.01.2018 13:36 6,4 C 3,9 C 83 % 1002,7 hPa 0,0 l/m 11,3 km/h (2 Bft) S-SW 202 0 min 0,000 mm 0,0 UV-I 40 W/m 3,7 C 2,8 C 12,9 km/h (3 Bft) 91,30 %
04.01.2018 13:37 6,4 C 3,9 C 84 % 1002,7 hPa 0,0 l/m 8,0 km/h (2 Bft) SW 225 0 min 0,000 mm 0,0 UV-I 39 W/m 3,9 C 5,1 C 11,3 km/h (2 Bft) 91,30 %
04.01.2018 13:38 6,4 C 3,9 C 84 % 1002,7 hPa 0,0 l/m 9,7 km/h (2 Bft) SW 225 0 min 0,000 mm 0,0 UV-I 37 W/m 3,9 C 3,8 C 16,1 km/h (3 Bft) 95,65 %
04.01.2018 13:39 6,4 C 3,9 C 84 % 1002,6 hPa 0,0 l/m 11,3 km/h (2 Bft) S-SW 202 0 min 0,000 mm 0,0 UV-I 37 W/m 3,9 C 2,8 C 16,1 km/h (3 Bft) 91,30 %
04.01.2018 13:40 6,4 C 3,9 C 84 % 1002,6 hPa 0,0 l/m 9,7 km/h (2 Bft) SW 225 0 min 0,000 mm 0,0 UV-I 37 W/m 3,9 C 3,8 C 12,9 km/h (3 Bft) 100,00 %
04.01.2018 13:41 6,4 C 3,9 C 84 % 1002,6 hPa 0,0 l/m 12,9 km/h (3 Bft) S-SW 202 0 min 0,000 mm 0,0 UV-I 39 W/m 3,9 C 1,9 C 17,7 km/h (3 Bft) 95,65 %
04.01.2018 13:42 6,4 C 3,9 C 84 % 1002,6 hPa 0,0 l/m 12,9 km/h (3 Bft) S-SW 202 0 min 0,000 mm 0,0 UV-I 39 W/m 3,9 C 1,9 C 16,1 km/h (3 Bft) 95,65 %
04.01.2018 13:43 6,4 C 3,9 C 84 % 1002,7 hPa 0,0 l/m 9,7 km/h (2 Bft) S-SW 202 0 min 0,000 mm 0,0 UV-I 38 W/m 3,9 C 3,8 C 12,9 km/h (3 Bft) 91,30 %
04.01.2018 13:44 6,3 C 3,9 C 84 % 1002,6 hPa 0,0 l/m 9,7 km/h (2 Bft) S-SW 202 0 min 0,000 mm 0,0 UV-I 37 W/m 3,8 C 3,7 C 12,9 km/h (3 Bft) 100,00 %
04.01.2018 13:45 6,3 C 3,9 C 84 % 1002,6 hPa 0,0 l/m 8,0 km/h (2 Bft) S-SW 202 0 min 0,000 mm 0,0 UV-I 37 W/m 3,8 C 5,0 C 12,9 km/h (3 Bft) 91,30 %
04.01.2018 13:46 6,3 C 3,9 C 85 % 1002,6 hPa 0,0 l/m 11,3 km/h (2 Bft) S-SW 202 0 min 0,000 mm 0,0 UV-I 37 W/m 4,0 C 2,7 C 14,5 km/h (3 Bft) 95,65 %
04.01.2018 13:47 6,3 C 3,9 C 85 % 1002,5 hPa 0,0 l/m 9,7 km/h (2 Bft) S 180 0 min 0,000 mm 0,0 UV-I 37 W/m 4,0 C 3,7 C 16,1 km/h (3 Bft) 100,00 %
04.01.2018 13:48 6,3 C 3,9 C 85 % 1002,5 hPa 0,0 l/m 8,0 km/h (2 Bft) S-SW 202 0 min 0,000 mm 0,0 UV-I 36 W/m 4,0 C 5,0 C 14,5 km/h (3 Bft) 91,30 %
04.01.2018 13:49 6,3 C 3,9 C 85 % 1002,5 hPa 0,0 l/m 6,4 km/h (2 Bft) S-SW 202 0 min 0,000 mm 0,0 UV-I 35 W/m 4,0 C 6,3 C 8,0 km/h (2 Bft) 100,00 %
04.01.2018 13:50 6,3 C 3,9 C 85 % 1002,5 hPa 0,0 l/m 4,8 km/h (1 Bft) SW 225 0 min 0,000 mm 0,0 UV-I 35 W/m 4,0 C 6,3 C 6,4 km/h (2 Bft) 95,65 %
04.01.2018 13:51 6,3 C 3,9 C 85 % 1002,4 hPa 0,0 l/m 4,8 km/h (1 Bft) W-SW 247 0 min 0,000 mm 0,0 UV-I 37 W/m 4,0 C 6,3 C 6,4 km/h (2 Bft) 100,00 %
04.01.2018 13:52 6,3 C 3,9 C 86 % 1002,4 hPa 0,0 l/m 3,2 km/h (1 Bft) SW 225 0 min 0,000 mm 0,0 UV-I 37 W/m 4,1 C 6,3 C 4,8 km/h (1 Bft) 95,65 %
04.01.2018 13:53 6,3 C 3,9 C 86 % 1002,3 hPa 0,0 l/m 12,9 km/h (3 Bft) S-SW 202 0 min 0,000 mm 0,0 UV-I 39 W/m 4,1 C 1,7 C 17,7 km/h (3 Bft) 100,00 %
04.01.2018 13:54 6,3 C 3,9 C 86 % 1002,4 hPa 0,0 l/m 9,7 km/h (2 Bft) S-SW 202 0 min 0,000 mm 0,0 UV-I 40 W/m 4,1 C 3,7 C 14,5 km/h (3 Bft) 95,65 %
04.01.2018 13:55 6,2 C 3,9 C 86 % 1002,4 hPa 0,0 l/m 8,0 km/h (2 Bft) SW 225 0 min 0,000 mm 0,0 UV-I 42 W/m 4,0 C 4,9 C 14,5 km/h (3 Bft) 86,96 %
04.01.2018 13:56 6,2 C 3,9 C 86 % 1002,4 hPa 0,0 l/m 6,4 km/h (2 Bft) S-SW 202 0 min 0,000 mm 0,0 UV-I 44 W/m 4,0 C 6,2 C 8,0 km/h (2 Bft) 95,65 %
04.01.2018 13:57 6,2 C 3,9 C 86 % 1002,4 hPa 0,0 l/m 4,8 km/h (1 Bft) W-SW 247 0 min 0,000 mm 0,0 UV-I 44 W/m 4,0 C 6,2 C 6,4 km/h (2 Bft) 100,00 %
04.01.2018 13:58 6,2 C 3,9 C 86 % 1002,4 hPa 0,0 l/m 4,8 km/h (1 Bft) W-SW 247 0 min 0,000 mm 0,0 UV-I 44 W/m 4,0 C 6,2 C 8,0 km/h (2 Bft) 100,00 %
04.01.2018 13:59 6,2 C 3,9 C 86 % 1002,3 hPa 0,0 l/m 6,4 km/h (2 Bft) SW 225 0 min 0,000 mm 0,0 UV-I 44 W/m 4,0 C 6,2 C 8,0 km/h (2 Bft) 95,65 %
04.01.2018 14:00 6,2 C 3,9 C 86 % 1002,3 hPa 0,0 l/m 6,4 km/h (2 Bft) S-SW 202 0 min 0,051 mm 0,0 UV-I 45 W/m 4,0 C 6,2 C 8,0 km/h (2 Bft) 100,00 %
04.01.2018 14:01 6,2 C 3,9 C 86 % 1002,2 hPa 0,0 l/m 6,4 km/h (2 Bft) S-SW 202 0 min 0,000 mm 0,0 UV-I 49 W/m 4,0 C 6,2 C 8,0 km/h (2 Bft) 100,00 %
04.01.2018 14:02 6,2 C 3,9 C 86 % 1002,2 hPa 0,0 l/m 3,2 km/h (1 Bft) S-SW 202 0 min 0,000 mm 0,0 UV-I 53 W/m 4,0 C 6,2 C 6,4 km/h (2 Bft) 95,65 %
04.01.2018 14:03 6,2 C 3,9 C 86 % 1002,2 hPa 0,0 l/m 3,2 km/h (1 Bft) S-SW 202 0 min 0,000 mm 0,0 UV-I 53 W/m 4,0 C 6,2 C 4,8 km/h (1 Bft) 95,65 %
04.01.2018 14:04 6,2 C 3,9 C 86 % 1002,2 hPa 0,0 l/m 3,2 km/h (1 Bft) S-SW 202 0 min 0,000 mm 0,0 UV-I 53 W/m 4,0 C 6,2 C 4,8 km/h (1 Bft) 100,00 %
04.01.2018 14:05 6,2 C 3,9 C 86 % 1002,1 hPa 0,0 l/m 4,8 km/h (1 Bft) S-SW 202 0 min 0,000 mm 0,0 UV-I 51 W/m 4,0 C 6,2 C 6,4 km/h (2 Bft) 100,00 %
04.01.2018 14:06 6,2 C 3,9 C 87 % 1002,2 hPa 0,0 l/m 4,8 km/h (1 Bft) S-SW 202 0 min 0,000 mm 0,0 UV-I 54 W/m 4,2 C 6,2 C 8,0 km/h (2 Bft) 100,00 %
04.01.2018 14:07 6,2 C 3,9 C 87 % 1002,1 hPa 0,0 l/m 4,8 km/h (1 Bft) S-SW 202 0 min 0,000 mm 0,0 UV-I 58 W/m 4,2 C 6,2 C 8,0 km/h (2 Bft) 100,00 %
04.01.2018 14:08 6,2 C 3,9 C 87 % 1002,1 hPa 0,0 l/m 3,2 km/h (1 Bft) S-SW 202 0 min 0,000 mm 0,0 UV-I 63 W/m 4,2 C 6,2 C 6,4 km/h (2 Bft) 95,65 %
04.01.2018 14:09 6,1 C 3,9 C 87 % 1002,1 hPa 0,0 l/m 3,2 km/h (1 Bft) S-SW 202 0 min 0,000 mm 0,0 UV-I 67 W/m 4,1 C 6,1 C 4,8 km/h (1 Bft) 100,00 %
04.01.2018 14:10 6,1 C 3,9 C 87 % 1002,0 hPa 0,0 l/m 6,4 km/h (2 Bft) S-SW 202 0 min 0,000 mm 0,0 UV-I 69 W/m 4,1 C 6,1 C 9,7 km/h (2 Bft) 95,65 %
04.01.2018 14:11 6,1 C 3,9 C 87 % 1002,0 hPa 0,0 l/m 6,4 km/h (2 Bft) S-SW 202 0 min 0,000 mm 0,0 UV-I 67 W/m 4,1 C 6,1 C 8,0 km/h (2 Bft) 100,00 %
04.01.2018 14:12 6,1 C 3,9 C 88 % 1002,0 hPa 0,0 l/m 4,8 km/h (1 Bft) S-SW 202 0 min 0,000 mm 0,0 UV-I 62 W/m 4,3 C 6,1 C 8,0 km/h (2 Bft) 95,65 %
04.01.2018 14:13 6,1 C 3,9 C 88 % 1002,0 hPa 0,0 l/m 1,6 km/h (1 Bft) S-SW 202 0 min 0,000 mm 0,0 UV-I 58 W/m 4,3 C 6,1 C 6,4 km/h (2 Bft) 100,00 %
04.01.2018 14:14 6,1 C 3,9 C 88 % 1002,0 hPa 0,0 l/m 4,8 km/h (1 Bft) S-SW 202 0 min 0,000 mm 0,0 UV-I 54 W/m 4,3 C 6,1 C 8,0 km/h (2 Bft) 100,00 %
04.01.2018 14:15 6,1 C 3,9 C 89 % 1002,1 hPa 0,0 l/m 4,8 km/h (1 Bft) S-SW 202 0 min 0,000 mm 0,0 UV-I 53 W/m 4,4 C 6,1 C 8,0 km/h (2 Bft) 100,00 %
04.01.2018 14:16 6,1 C 3,9 C 89 % 1002,1 hPa 0,0 l/m 6,4 km/h (2 Bft) S-SW 202 0 min 0,000 mm 0,0 UV-I 51 W/m 4,4 C 6,1 C 6,4 km/h (2 Bft) 100,00 %
04.01.2018 14:17 6,1 C 3,9 C 88 % 1002,1 hPa 0,0 l/m 3,2 km/h (1 Bft) S-SW 202 0 min 0,000 mm 0,0 UV-I 49 W/m 4,3 C 6,1 C 6,4 km/h (2 Bft) 95,65 %
04.01.2018 14:18 6,1 C 3,9 C 88 % 1002,1 hPa 0,0 l/m 4,8 km/h (1 Bft) S-SW 202 0 min 0,000 mm 0,0 UV-I 48 W/m 4,3 C 6,1 C 9,7 km/h (2 Bft) 100,00 %
04.01.2018 14:19 6,1 C 3,9 C 88 % 1002,1 hPa 0,0 l/m 6,4 km/h (2 Bft) S-SW 202 0 min 0,000 mm 0,0 UV-I 47 W/m 4,3 C 6,1 C 8,0 km/h (2 Bft) 100,00 %
04.01.2018 14:20 6,1 C 3,9 C 88 % 1002,1 hPa 0,0 l/m 8,0 km/h (2 Bft) S-SW 202 0 min 0,000 mm 0,0 UV-I 44 W/m 4,3 C 4,8 C 9,7 km/h (2 Bft) 100,00 %
04.01.2018 14:21 6,1 C 3,9 C 89 % 1002,2 hPa 0,0 l/m 6,4 km/h (2 Bft) SW 225 0 min 0,000 mm 0,0 UV-I 42 W/m 4,4 C 6,1 C 6,4 km/h (2 Bft) 100,00 %
04.01.2018 14:22 6,1 C 3,9 C 89 % 1002,2 hPa 0,0 l/m 4,8 km/h (1 Bft) SW 225 0 min 0,000 mm 0,0 UV-I 39 W/m 4,4 C 6,1 C 6,4 km/h (2 Bft) 100,00 %
04.01.2018 14:23 6,0 C 3,9 C 89 % 1002,1 hPa 0,0 l/m 4,8 km/h (1 Bft) SW 225 0 min 0,000 mm 0,0 UV-I 37 W/m 4,3 C 6,0 C 6,4 km/h (2 Bft) 100,00 %
04.01.2018 14:24 6,0 C 3,9 C 89 % 1002,1 hPa 0,0 l/m 8,0 km/h (2 Bft) S-SW 202 0 min 0,000 mm 0,0 UV-I 35 W/m 4,3 C 4,7 C 11,3 km/h (2 Bft) 95,65 %
04.01.2018 14:25 6,0 C 3,9 C 89 % 1002,2 hPa 0,0 l/m 8,0 km/h (2 Bft) S-SW 202 0 min 0,000 mm 0,0 UV-I 35 W/m 4,3 C 4,7 C 11,3 km/h (2 Bft) 100,00 %
04.01.2018 14:26 6,0 C 3,9 C 89 % 1002,2 hPa 0,0 l/m 6,4 km/h (2 Bft) S-SW 202 0 min 0,000 mm 0,0 UV-I 35 W/m 4,3 C 6,0 C 8,0 km/h (2 Bft) 100,00 %
04.01.2018 14:27 5,9 C 3,9 C 89 % 1002,2 hPa 0,0 l/m 6,4 km/h (2 Bft) S-SW 202 0 min 0,000 mm 0,0 UV-I 35 W/m 4,2 C 5,9 C 8,0 km/h (2 Bft) 100,00 %
04.01.2018 14:28 5,9 C 3,9 C 89 % 1002,1 hPa 0,0 l/m 6,4 km/h (2 Bft) S-SW 202 0 min 0,000 mm 0,0 UV-I 35 W/m 4,2 C 5,9 C 9,7 km/h (2 Bft) 100,00 %
04.01.2018 14:29 5,9 C 3,9 C 89 % 1002,2 hPa 0,0 l/m 6,4 km/h (2 Bft) S 180 0 min 0,000 mm 0,0 UV-I 37 W/m 4,2 C 5,9 C 9,7 km/h (2 Bft) 100,00 %
04.01.2018 14:30 5,9 C 3,9 C 90 % 1002,2 hPa 0,0 l/m 11,3 km/h (2 Bft) S-SW 202 0 min 0,000 mm 0,0 UV-I 39 W/m 4,4 C 2,2 C 12,9 km/h (3 Bft) 100,00 %
04.01.2018 14:31 5,9 C 3,9 C 89 % 1002,1 hPa 0,0 l/m 8,0 km/h (2 Bft) S-SW 202 0 min 0,000 mm 0,0 UV-I 39 W/m 4,2 C 4,5 C 11,3 km/h (2 Bft) 95,65 %
04.01.2018 14:32 5,9 C 3,9 C 90 % 1002,1 hPa 0,0 l/m 8,0 km/h (2 Bft) SW 225 0 min 0,000 mm 0,0 UV-I 39 W/m 4,4 C 4,5 C 11,3 km/h (2 Bft) 100,00 %
04.01.2018 14:33 5,9 C 3,9 C 90 % 1002,1 hPa 0,0 l/m 4,8 km/h (1 Bft) SW 225 0 min 0,000 mm 0,0 UV-I 40 W/m 4,4 C 5,9 C 6,4 km/h (2 Bft) 100,00 %
04.01.2018 14:34 5,9 C 3,9 C 90 % 1002,1 hPa 0,0 l/m 6,4 km/h (2 Bft) S-SW 202 0 min 0,000 mm 0,0 UV-I 40 W/m 4,4 C 5,9 C 9,7 km/h (2 Bft) 100,00 %
04.01.2018 14:35 5,9 C 3,9 C 90 % 1002,1 hPa 0,0 l/m 6,4 km/h (2 Bft) S-SW 202 0 min 0,000 mm 0,0 UV-I 41 W/m 4,4 C 5,9 C 9,7 km/h (2 Bft) 100,00 %
04.01.2018 14:36 5,8 C 3,9 C 90 % 1002,1 hPa 0,0 l/m 4,8 km/h (1 Bft) S-SW 202 0 min 0,000 mm 0,0 UV-I 42 W/m 4,3 C 5,8 C 6,4 km/h (2 Bft) 100,00 %
04.01.2018 14:37 5,8 C 3,9 C 90 % 1002,1 hPa 0,0 l/m 6,4 km/h (2 Bft) S-SW 202 0 min 0,000 mm 0,0 UV-I 42 W/m 4,3 C 5,8 C 11,3 km/h (2 Bft) 100,00 %
04.01.2018 14:38 5,8 C 3,9 C 91 % 1002,2 hPa 0,0 l/m 4,8 km/h (1 Bft) S-SW 202 0 min 0,000 mm 0,0 UV-I 42 W/m 4,4 C 5,8 C 6,4 km/h (2 Bft) 95,65 %
04.01.2018 14:39 5,8 C 3,9 C 91 % 1002,2 hPa 0,0 l/m 6,4 km/h (2 Bft) S-SW 202 0 min 0,000 mm 0,0 UV-I 40 W/m 4,4 C 5,8 C 11,3 km/h (2 Bft) 100,00 %
04.01.2018 14:40 5,8 C 3,9 C 91 % 1002,2 hPa 0,0 l/m 8,0 km/h (2 Bft) SW 225 0 min 0,000 mm 0,0 UV-I 40 W/m 4,4 C 4,4 C 11,3 km/h (2 Bft) 100,00 %
04.01.2018 14:41 5,8 C 3,9 C 91 % 1002,2 hPa 0,0 l/m 8,0 km/h (2 Bft) SW 225 0 min 0,000 mm 0,0 UV-I 40 W/m 4,4 C 4,4 C 9,7 km/h (2 Bft) 95,65 %
04.01.2018 14:42 5,8 C 3,9 C 91 % 1002,2 hPa 0,0 l/m 6,4 km/h (2 Bft) S-SW 202 0 min 0,000 mm 0,0 UV-I 39 W/m 4,4 C 5,8 C 9,7 km/h (2 Bft) 100,00 %
04.01.2018 14:43 5,8 C 3,9 C 91 % 1002,2 hPa 0,0 l/m 9,7 km/h (2 Bft) S-SW 202 0 min 0,000 mm 0,0 UV-I 39 W/m 4,4 C 3,2 C 12,9 km/h (3 Bft) 95,65 %
04.01.2018 14:44 5,8 C 3,9 C 91 % 1002,1 hPa 0,0 l/m 8,0 km/h (2 Bft) S-SW 202 0 min 0,000 mm 0,0 UV-I 39 W/m 4,4 C 4,4 C 9,7 km/h (2 Bft) 100,00 %
04.01.2018 14:45 5,8 C 3,9 C 91 % 1002,1 hPa 0,0 l/m 6,4 km/h (2 Bft) S-SW 202 0 min 0,000 mm 0,0 UV-I 37 W/m 4,4 C 5,8 C 9,7 km/h (2 Bft) 91,30 %
04.01.2018 14:46 5,8 C 3,9 C 91 % 1002,1 hPa 0,0 l/m 4,8 km/h (1 Bft) S-SW 202 0 min 0,000 mm 0,0 UV-I 37 W/m 4,4 C 5,8 C 6,4 km/h (2 Bft) 100,00 %
04.01.2018 14:47 5,8 C 3,9 C 91 % 1002,1 hPa 0,0 l/m 8,0 km/h (2 Bft) SW 225 0 min 0,000 mm 0,0 UV-I 35 W/m 4,4 C 4,4 C 11,3 km/h (2 Bft) 95,65 %
04.01.2018 14:48 5,8 C 3,9 C 91 % 1002,1 hPa 0,0 l/m 6,4 km/h (2 Bft) SW 225 0 min 0,000 mm 0,0 UV-I 33 W/m 4,4 C 5,8 C 9,7 km/h (2 Bft) 100,00 %
04.01.2018 14:49 5,8 C 3,9 C 91 % 1002,1 hPa 0,0 l/m 6,4 km/h (2 Bft) S-SW 202 0 min 0,000 mm 0,0 UV-I 33 W/m 4,4 C 5,8 C 8,0 km/h (2 Bft) 95,65 %
04.01.2018 14:50 5,8 C 3,9 C 91 % 1002,1 hPa 0,0 l/m 6,4 km/h (2 Bft) SW 225 0 min 0,000 mm 0,0 UV-I 32 W/m 4,4 C 5,8 C 11,3 km/h (2 Bft) 100,00 %
04.01.2018 14:51 5,8 C 3,9 C 91 % 1002,1 hPa 0,2 l/m 4,8 km/h (1 Bft) SW 225 0 min 0,000 mm 0,0 UV-I 32 W/m 4,4 C 5,8 C 6,4 km/h (2 Bft) 95,65 %
04.01.2018 14:52 5,8 C 3,9 C 91 % 1002,1 hPa 0,0 l/m 6,4 km/h (2 Bft) SW 225 0 min 0,000 mm 0,0 UV-I 30 W/m 4,4 C 5,8 C 8,0 km/h (2 Bft) 95,65 %
04.01.2018 14:53 5,8 C 3,9 C 91 % 1002,1 hPa 0,0 l/m 4,8 km/h (1 Bft) SW 225 0 min 0,000 mm 0,0 UV-I 30 W/m 4,4 C 5,8 C 9,7 km/h (2 Bft) 95,65 %
04.01.2018 14:54 5,8 C 3,9 C 91 % 1002,1 hPa 0,0 l/m 4,8 km/h (1 Bft) SW 225 0 min 0,000 mm 0,0 UV-I 30 W/m 4,4 C 5,8 C 6,4 km/h (2 Bft) 95,65 %
04.01.2018 14:55 5,8 C 3,9 C 91 % 1002,1 hPa 0,0 l/m 8,0 km/h (2 Bft) S-SW 202 0 min 0,000 mm 0,0 UV-I 30 W/m 4,4 C 4,4 C 11,3 km/h (2 Bft) 100,00 %
04.01.2018 14:56 5,8 C 3,9 C 91 % 1002,1 hPa 0,0 l/m 6,4 km/h (2 Bft) S-SW 202 0 min 0,000 mm 0,0 UV-I 30 W/m 4,4 C 5,8 C 9,7 km/h (2 Bft) 91,30 %
04.01.2018 14:57 5,8 C 3,9 C 91 % 1002,1 hPa 0,0 l/m 8,0 km/h (2 Bft) SW 225 0 min 0,000 mm 0,0 UV-I 30 W/m 4,4 C 4,4 C 11,3 km/h (2 Bft) 100,00 %
04.01.2018 14:58 5,7 C 3,9 C 91 % 1002,1 hPa 0,0 l/m 6,4 km/h (2 Bft) SW 225 0 min 0,000 mm 0,0 UV-I 28 W/m 4,3 C 5,7 C 11,3 km/h (2 Bft) 95,65 %
04.01.2018 14:59 5,7 C 3,9 C 91 % 1002,2 hPa 0,0 l/m 8,0 km/h (2 Bft) S-SW 202 0 min 0,000 mm 0,0 UV-I 26 W/m 4,3 C 4,3 C 9,7 km/h (2 Bft) 95,65 %
04.01.2018 15:00 5,7 C 3,9 C 91 % 1002,1 hPa 0,0 l/m 4,8 km/h (1 Bft) S-SW 202 0 min 0,025 mm 0,0 UV-I 26 W/m 4,3 C 5,7 C 8,0 km/h (2 Bft) 95,65 %
04.01.2018 15:01 5,7 C 3,9 C 91 % 1002,1 hPa 0,0 l/m 6,4 km/h (2 Bft) S-SW 202 0 min 0,000 mm 0,0 UV-I 26 W/m 4,3 C 5,7 C 8,0 km/h (2 Bft) 100,00 %
04.01.2018 15:02 5,7 C 3,9 C 91 % 1002,1 hPa 0,0 l/m 6,4 km/h (2 Bft) S-SW 202 0 min 0,000 mm 0,0 UV-I 26 W/m 4,3 C 5,7 C 8,0 km/h (2 Bft) 95,65 %
04.01.2018 15:03 5,7 C 3,9 C 91 % 1002,1 hPa 0,2 l/m 4,8 km/h (1 Bft) S-SW 202 0 min 0,000 mm 0,0 UV-I 26 W/m 4,3 C 5,7 C 6,4 km/h (2 Bft) 100,00 %
04.01.2018 15:04 5,7 C 3,9 C 92 % 1002,1 hPa 0,0 l/m 3,2 km/h (1 Bft) S-SW 202 0 min 0,000 mm 0,0 UV-I 26 W/m 4,5 C 5,7 C 6,4 km/h (2 Bft) 95,65 %
04.01.2018 15:05 5,7 C 3,9 C 92 % 1002,1 hPa 0,0 l/m 6,4 km/h (2 Bft) S-SW 202 0 min 0,000 mm 0,0 UV-I 26 W/m 4,5 C 5,7 C 9,7 km/h (2 Bft) 100,00 %
04.01.2018 15:06 5,7 C 3,9 C 92 % 1002,1 hPa 0,0 l/m 3,2 km/h (1 Bft) S-SW 202 0 min 0,000 mm 0,0 UV-I 26 W/m 4,5 C 5,7 C 3,2 km/h (1 Bft) 91,30 %
04.01.2018 15:07 5,6 C 3,9 C 92 % 1002,1 hPa 0,0 l/m 4,8 km/h (1 Bft) S-SW 202 0 min 0,000 mm 0,0 UV-I 25 W/m 4,4 C 5,6 C 8,0 km/h (2 Bft) 100,00 %
04.01.2018 15:08 5,6 C 3,9 C 92 % 1002,1 hPa 0,0 l/m 4,8 km/h (1 Bft) SW 225 0 min 0,000 mm 0,0 UV-I 25 W/m 4,4 C 5,6 C 6,4 km/h (2 Bft) 100,00 %
04.01.2018 15:09 5,6 C 3,9 C 92 % 1002,1 hPa 0,0 l/m 3,2 km/h (1 Bft) SW 225 0 min 0,000 mm 0,0 UV-I 25 W/m 4,4 C 5,6 C 6,4 km/h (2 Bft) 95,65 %
04.01.2018 15:10 5,6 C 3,9 C 92 % 1002,1 hPa 0,0 l/m 4,8 km/h (1 Bft) S-SW 202 0 min 0,000 mm 0,0 UV-I 23 W/m 4,4 C 5,6 C 6,4 km/h (2 Bft) 100,00 %
04.01.2018 15:11 5,6 C 3,9 C 92 % 1002,1 hPa 0,0 l/m 3,2 km/h (1 Bft) S-SW 202 0 min 0,000 mm 0,0 UV-I 23 W/m 4,4 C 5,6 C 6,4 km/h (2 Bft) 100,00 %
04.01.2018 15:12 5,6 C 3,9 C 92 % 1002,1 hPa 0,0 l/m 3,2 km/h (1 Bft) S-SW 202 0 min 0,000 mm 0,0 UV-I 21 W/m 4,4 C 5,6 C 4,8 km/h (1 Bft) 95,65 %
04.01.2018 15:13 5,6 C 3,9 C 93 % 1002,1 hPa 0,0 l/m 4,8 km/h (1 Bft) S-SW 202 0 min 0,000 mm 0,0 UV-I 21 W/m 4,6 C 5,6 C 6,4 km/h (2 Bft) 95,65 %
04.01.2018 15:14 5,6 C 3,9 C 93 % 1002,1 hPa 0,0 l/m 3,2 km/h (1 Bft) S-SO 157 0 min 0,000 mm 0,0 UV-I 19 W/m 4,6 C 5,6 C 6,4 km/h (2 Bft) 100,00 %
04.01.2018 15:15 5,6 C 3,9 C 93 % 1002,1 hPa 0,2 l/m 3,2 km/h (1 Bft) S 180 0 min 0,000 mm 0,0 UV-I 19 W/m 4,6 C 5,6 C 6,4 km/h (2 Bft) 100,00 %
04.01.2018 15:16 5,6 C 3,9 C 93 % 1002,1 hPa 0,0 l/m 3,2 km/h (1 Bft) S 180 0 min 0,000 mm 0,0 UV-I 19 W/m 4,6 C 5,6 C 6,4 km/h (2 Bft) 95,65 %
04.01.2018 15:17 5,6 C 3,9 C 93 % 1002,0 hPa 0,0 l/m 3,2 km/h (1 Bft) S-SO 157 0 min 0,000 mm 0,0 UV-I 18 W/m 4,6 C 5,6 C 6,4 km/h (2 Bft) 100,00 %
04.01.2018 15:18 5,6 C 3,9 C 93 % 1002,1 hPa 0,0 l/m 4,8 km/h (1 Bft) S 180 0 min 0,000 mm 0,0 UV-I 18 W/m 4,6 C 5,6 C 8,0 km/h (2 Bft) 100,00 %
04.01.2018 15:19 5,6 C 3,9 C 93 % 1002,1 hPa 0,0 l/m 3,2 km/h (1 Bft) S 180 0 min 0,000 mm 0,0 UV-I 18 W/m 4,6 C 5,6 C 4,8 km/h (1 Bft) 100,00 %
04.01.2018 15:20 5,6 C 3,9 C 93 % 1002,1 hPa 0,0 l/m 3,2 km/h (1 Bft) S 180 0 min 0,000 mm 0,0 UV-I 18 W/m 4,6 C 5,6 C 4,8 km/h (1 Bft) 95,65 %
04.01.2018 15:21 5,6 C 3,9 C 93 % 1002,1 hPa 0,0 l/m 3,2 km/h (1 Bft) S 180 0 min 0,000 mm 0,0 UV-I 18 W/m 4,6 C 5,6 C 4,8 km/h (1 Bft) 91,30 %
04.01.2018 15:22 5,5 C 3,9 C 93 % 1002,1 hPa 0,2 l/m 3,2 km/h (1 Bft) S 180 0 min 0,000 mm 0,0 UV-I 16 W/m 4,5 C 5,5 C 4,8 km/h (1 Bft) 100,00 %
04.01.2018 15:23 5,5 C 3,9 C 93 % 1002,1 hPa 0,0 l/m 4,8 km/h (1 Bft) S 180 0 min 0,000 mm 0,0 UV-I 16 W/m 4,5 C 5,5 C 6,4 km/h (2 Bft) 100,00 %
04.01.2018 15:24 5,5 C 3,9 C 93 % 1002,1 hPa 0,0 l/m 1,6 km/h (1 Bft) S-SW 202 0 min 0,000 mm 0,0 UV-I 14 W/m 4,5 C 5,5 C 3,2 km/h (1 Bft) 100,00 %
04.01.2018 15:25 5,5 C 3,9 C 93 % 1002,1 hPa 0,0 l/m 4,8 km/h (1 Bft) S-SW 202 0 min 0,000 mm 0,0 UV-I 14 W/m 4,5 C 5,5 C 6,4 km/h (2 Bft) 95,65 %
04.01.2018 15:26 5,4 C 3,9 C 93 % 1002,1 hPa 0,0 l/m 4,8 km/h (1 Bft) S-SO 157 0 min 0,000 mm 0,0 UV-I 14 W/m 4,4 C 5,4 C 6,4 km/h (2 Bft) 100,00 %
04.01.2018 15:27 5,5 C 3,9 C 93 % 1002,0 hPa 0,0 l/m 3,2 km/h (1 Bft) S-SW 202 0 min 0,000 mm 0,0 UV-I 14 W/m 4,5 C 5,5 C 6,4 km/h (2 Bft) 91,30 %
04.01.2018 15:28 5,5 C 3,9 C 93 % 1002,0 hPa 0,0 l/m 3,2 km/h (1 Bft) S 180 0 min 0,000 mm 0,0 UV-I 14 W/m 4,5 C 5,5 C 8,0 km/h (2 Bft) 100,00 %
04.01.2018 15:29 5,5 C 3,9 C 93 % 1002,0 hPa 0,2 l/m 4,8 km/h (1 Bft) S-SW 202 0 min 0,000 mm 0,0 UV-I 14 W/m 4,5 C 5,5 C 6,4 km/h (2 Bft) 95,65 %
04.01.2018 15:30 5,5 C 3,9 C 93 % 1002,1 hPa 0,0 l/m 4,8 km/h (1 Bft) S-SO 157 0 min 0,000 mm 0,0 UV-I 14 W/m 4,5 C 5,5 C 6,4 km/h (2 Bft) 91,30 %
04.01.2018 15:31 5,5 C 3,9 C 93 % 1002,1 hPa 0,0 l/m 3,2 km/h (1 Bft) S-SO 157 0 min 0,000 mm 0,0 UV-I 14 W/m 4,5 C 5,5 C 6,4 km/h (2 Bft) 100,00 %
04.01.2018 15:32 5,5 C 3,9 C 93 % 1002,1 hPa 0,0 l/m 3,2 km/h (1 Bft) S 180 0 min 0,000 mm 0,0 UV-I 14 W/m 4,5 C 5,5 C 6,4 km/h (2 Bft) 95,65 %
04.01.2018 15:33 5,5 C 3,9 C 93 % 1002,1 hPa 0,0 l/m 4,8 km/h (1 Bft) S 180 0 min 0,000 mm 0,0 UV-I 14 W/m 4,5 C 5,5 C 6,4 km/h (2 Bft) 100,00 %
04.01.2018 15:34 5,5 C 3,9 C 93 % 1002,1 hPa 0,0 l/m 4,8 km/h (1 Bft) S-SO 157 0 min 0,000 mm 0,0 UV-I 14 W/m 4,5 C 5,5 C 8,0 km/h (2 Bft) 91,30 %
04.01.2018 15:35 5,5 C 3,9 C 93 % 1002,0 hPa 0,0 l/m 1,6 km/h (1 Bft) S-SO 157 0 min 0,000 mm 0,0 UV-I 14 W/m 4,5 C 5,5 C 3,2 km/h (1 Bft) 95,65 %
04.01.2018 15:36 5,5 C 3,9 C 93 % 1002,1 hPa 0,2 l/m 0,0 km/h (0 Bft) S-SO 157 0 min 0,000 mm 0,0 UV-I 14 W/m 4,5 C 5,5 C 1,6 km/h (1 Bft) 95,65 %
04.01.2018 15:37 5,5 C 3,9 C 93 % 1002,1 hPa 0,0 l/m 1,6 km/h (1 Bft) S-SO 157 0 min 0,000 mm 0,0 UV-I 12 W/m 4,5 C 5,5 C 3,2 km/h (1 Bft) 100,00 %
04.01.2018 15:38 5,5 C 3,9 C 93 % 1002,0 hPa 0,0 l/m 3,2 km/h (1 Bft) S-SO 157 0 min 0,000 mm 0,0 UV-I 14 W/m 4,5 C 5,5 C 6,4 km/h (2 Bft) 95,65 %
04.01.2018 15:39 5,5 C 3,9 C 93 % 1002,1 hPa 0,0 l/m 3,2 km/h (1 Bft) S-SO 157 0 min 0,000 mm 0,0 UV-I 12 W/m 4,5 C 5,5 C 4,8 km/h (1 Bft) 95,65 %
04.01.2018 15:40 5,5 C 3,9 C 93 % 1002,0 hPa 0,0 l/m 4,8 km/h (1 Bft) S-SO 157 0 min 0,000 mm 0,0 UV-I 12 W/m 4,5 C 5,5 C 8,0 km/h (2 Bft) 95,65 %
04.01.2018 15:41 5,4 C 3,9 C 93 % 1002,0 hPa 0,0 l/m 3,2 km/h (1 Bft) S-SO 157 0 min 0,000 mm 0,0 UV-I 12 W/m 4,4 C 5,4 C 4,8 km/h (1 Bft) 91,30 %
04.01.2018 15:42 5,4 C 3,9 C 93 % 1002,0 hPa 0,0 l/m 4,8 km/h (1 Bft) SO 135 0 min 0,000 mm 0,0 UV-I 12 W/m 4,4 C 5,4 C 8,0 km/h (2 Bft) 100,00 %
04.01.2018 15:43 5,4 C 3,9 C 94 % 1002,1 hPa 0,0 l/m 4,8 km/h (1 Bft) O-SO 112 0 min 0,000 mm 0,0 UV-I 12 W/m 4,5 C 5,4 C 6,4 km/h (2 Bft) 91,30 %
04.01.2018 15:44 5,4 C 3,9 C 94 % 1002,1 hPa 0,2 l/m 6,4 km/h (2 Bft) SO 135 0 min 0,000 mm 0,0 UV-I 12 W/m 4,5 C 5,4 C 8,0 km/h (2 Bft) 100,00 %
04.01.2018 15:45 5,4 C 3,9 C 94 % 1002,0 hPa 0,0 l/m 3,2 km/h (1 Bft) S-SO 157 0 min 0,000 mm 0,0 UV-I 11 W/m 4,5 C 5,4 C 9,7 km/h (2 Bft) 95,65 %
04.01.2018 15:46 5,4 C 3,9 C 94 % 1002,0 hPa 0,0 l/m 6,4 km/h (2 Bft) O-SO 112 0 min 0,000 mm 0,0 UV-I 11 W/m 4,5 C 5,4 C 8,0 km/h (2 Bft) 95,65 %
04.01.2018 15:47 5,3 C 3,9 C 94 % 1002,0 hPa 0,0 l/m 3,2 km/h (1 Bft) SO 135 0 min 0,000 mm 0,0 UV-I 11 W/m 4,4 C 5,3 C 6,4 km/h (2 Bft) 100,00 %
04.01.2018 15:48 5,3 C 3,9 C 94 % 1002,0 hPa 0,0 l/m 3,2 km/h (1 Bft) SO 135 0 min 0,000 mm 0,0 UV-I 11 W/m 4,4 C 5,3 C 6,4 km/h (2 Bft) 91,30 %
04.01.2018 15:49 5,3 C 3,9 C 94 % 1002,0 hPa 0,0 l/m 4,8 km/h (1 Bft) SO 135 0 min 0,000 mm 0,0 UV-I 11 W/m 4,4 C 5,3 C 8,0 km/h (2 Bft) 100,00 %
04.01.2018 15:50 5,3 C 3,9 C 94 % 1002,0 hPa 0,0 l/m 3,2 km/h (1 Bft) SO 135 0 min 0,000 mm 0,0 UV-I 11 W/m 4,4 C 5,3 C 4,8 km/h (1 Bft) 95,65 %
04.01.2018 15:51 5,3 C 3,9 C 94 % 1002,0 hPa 0,2 l/m 3,2 km/h (1 Bft) SO 135 0 min 0,000 mm 0,0 UV-I 11 W/m 4,4 C 5,3 C 4,8 km/h (1 Bft) 100,00 %
04.01.2018 15:52 5,3 C 3,9 C 94 % 1002,0 hPa 0,0 l/m 3,2 km/h (1 Bft) SO 135 0 min 0,000 mm 0,0 UV-I 9 W/m 4,4 C 5,3 C 6,4 km/h (2 Bft) 95,65 %
04.01.2018 15:53 5,2 C 3,9 C 94 % 1001,9 hPa 0,0 l/m 4,8 km/h (1 Bft) S-SO 157 0 min 0,000 mm 0,0 UV-I 9 W/m 4,3 C 5,2 C 6,4 km/h (2 Bft) 100,00 %
04.01.2018 15:54 5,2 C 3,9 C 95 % 1001,9 hPa 0,0 l/m 4,8 km/h (1 Bft) SO 135 0 min 0,000 mm 0,0 UV-I 9 W/m 4,5 C 5,2 C 8,0 km/h (2 Bft) 95,65 %
04.01.2018 15:55 5,2 C 3,9 C 95 % 1001,9 hPa 0,0 l/m 3,2 km/h (1 Bft) SO 135 0 min 0,000 mm 0,0 UV-I 9 W/m 4,5 C 5,2 C 6,4 km/h (2 Bft) 91,30 %
04.01.2018 15:56 5,2 C 3,9 C 95 % 1001,8 hPa 0,0 l/m 4,8 km/h (1 Bft) SO 135 0 min 0,000 mm 0,0 UV-I 9 W/m 4,5 C 5,2 C 6,4 km/h (2 Bft) 100,00 %
04.01.2018 15:57 5,2 C 3,9 C 95 % 1001,8 hPa 0,0 l/m 4,8 km/h (1 Bft) SO 135 0 min 0,000 mm 0,0 UV-I 9 W/m 4,5 C 5,2 C 11,3 km/h (2 Bft) 95,65 %
04.01.2018 15:58 5,2 C 3,9 C 95 % 1001,8 hPa 0,0 l/m 6,4 km/h (2 Bft) SO 135 0 min 0,000 mm 0,0 UV-I 9 W/m 4,5 C 5,2 C 8,0 km/h (2 Bft) 100,00 %
04.01.2018 15:59 5,2 C 3,9 C 95 % 1001,8 hPa 0,0 l/m 4,8 km/h (1 Bft) SO 135 0 min 0,000 mm 0,0 UV-I 7 W/m 4,5 C 5,2 C 6,4 km/h (2 Bft) 95,65 %
04.01.2018 16:00 5,2 C 3,9 C 95 % 1001,8 hPa 0,0 l/m 4,8 km/h (1 Bft) SO 135 0 min 0,000 mm 0,0 UV-I 7 W/m 4,5 C 5,2 C 11,3 km/h (2 Bft) 95,65 %
04.01.2018 16:01 5,2 C 3,9 C 95 % 1001,8 hPa 0,0 l/m 4,8 km/h (1 Bft) SO 135 0 min 0,000 mm 0,0 UV-I 7 W/m 4,5 C 5,2 C 8,0 km/h (2 Bft) 95,65 %
04.01.2018 16:02 5,1 C 3,9 C 95 % 1001,7 hPa 0,2 l/m 4,8 km/h (1 Bft) SO 135 0 min 0,000 mm 0,0 UV-I 7 W/m 4,4 C 5,1 C 6,4 km/h (2 Bft) 95,65 %
04.01.2018 16:03 5,1 C 3,9 C 95 % 1001,7 hPa 0,0 l/m 4,8 km/h (1 Bft) SO 135 0 min 0,000 mm 0,0 UV-I 7 W/m 4,4 C 5,1 C 8,0 km/h (2 Bft) 100,00 %
04.01.2018 16:04 5,1 C 3,9 C 95 % 1001,7 hPa 0,0 l/m 4,8 km/h (1 Bft) O-SO 112 0 min 0,000 mm 0,0 UV-I 7 W/m 4,4 C 5,1 C 8,0 km/h (2 Bft) 100,00 %
04.01.2018 16:05 5,1 C 3,9 C 95 % 1001,7 hPa 0,0 l/m 6,4 km/h (2 Bft) O-SO 112 0 min 0,000 mm 0,0 UV-I 7 W/m 4,4 C 5,1 C 11,3 km/h (2 Bft) 100,00 %
04.01.2018 16:06 5,1 C 3,9 C 95 % 1001,7 hPa 0,0 l/m 4,8 km/h (1 Bft) SO 135 0 min 0,000 mm 0,0 UV-I 7 W/m 4,4 C 5,1 C 8,0 km/h (2 Bft) 91,30 %
04.01.2018 16:07 5,1 C 3,9 C 95 % 1001,7 hPa 0,0 l/m 4,8 km/h (1 Bft) SO 135 0 min 0,000 mm 0,0 UV-I 7 W/m 4,4 C 5,1 C 6,4 km/h (2 Bft) 100,00 %
04.01.2018 16:08 5,1 C 3,9 C 95 % 1001,7 hPa 0,0 l/m 6,4 km/h (2 Bft) SO 135 0 min 0,000 mm 0,0 UV-I 7 W/m 4,4 C 5,1 C 9,7 km/h (2 Bft) 95,65 %
04.01.2018 16:09 5,1 C 3,9 C 95 % 1001,6 hPa 0,0 l/m 4,8 km/h (1 Bft) SO 135 0 min 0,000 mm 0,0 UV-I 7 W/m 4,4 C 5,1 C 8,0 km/h (2 Bft) 91,30 %
04.01.2018 16:10 5,1 C 3,9 C 95 % 1001,6 hPa 0,2 l/m 4,8 km/h (1 Bft) SO 135 0 min 0,000 mm 0,0 UV-I 7 W/m 4,4 C 5,1 C 6,4 km/h (2 Bft) 95,65 %
04.01.2018 16:11 5,1 C 3,9 C 95 % 1001,6 hPa 0,0 l/m 3,2 km/h (1 Bft) SO 135 0 min 0,000 mm 0,0 UV-I 7 W/m 4,4 C 5,1 C 6,4 km/h (2 Bft) 100,00 %
04.01.2018 16:12 5,0 C 3,9 C 95 % 1001,6 hPa 0,0 l/m 6,4 km/h (2 Bft) SO 135 0 min 0,000 mm 0,0 UV-I 7 W/m 4,3 C 5,0 C 9,7 km/h (2 Bft) 95,65 %
04.01.2018 16:13 5,0 C 3,9 C 95 % 1001,6 hPa 0,0 l/m 6,4 km/h (2 Bft) SO 135 0 min 0,000 mm 0,0 UV-I 7 W/m 4,3 C 5,0 C 8,0 km/h (2 Bft) 91,30 %
04.01.2018 16:14 5,0 C 3,9 C 95 % 1001,6 hPa 0,0 l/m 4,8 km/h (1 Bft) SO 135 0 min 0,000 mm 0,0 UV-I 7 W/m 4,3 C 5,0 C 8,0 km/h (2 Bft) 100,00 %
04.01.2018 16:15 5,0 C 3,9 C 95 % 1001,6 hPa 0,0 l/m 4,8 km/h (1 Bft) SO 135 0 min 0,000 mm 0,0 UV-I 7 W/m 4,3 C 5,0 C 6,4 km/h (2 Bft) 91,30 %
04.01.2018 16:16 4,9 C 3,9 C 95 % 1001,6 hPa 0,0 l/m 3,2 km/h (1 Bft) SO 135 0 min 0,000 mm 0,0 UV-I 5 W/m 4,2 C 4,9 C 6,4 km/h (2 Bft) 95,65 %
04.01.2018 16:17 4,9 C 3,9 C 95 % 1001,6 hPa 0,0 l/m 4,8 km/h (1 Bft) SO 135 0 min 0,000 mm 0,0 UV-I 5 W/m 4,2 C 4,9 C 8,0 km/h (2 Bft) 95,65 %
04.01.2018 16:18 4,9 C 3,9 C 95 % 1001,6 hPa 0,0 l/m 4,8 km/h (1 Bft) S-SO 157 0 min 0,000 mm 0,0 UV-I 5 W/m 4,2 C 4,9 C 11,3 km/h (2 Bft) 100,00 %
04.01.2018 16:19 4,9 C 3,9 C 95 % 1001,6 hPa 0,0 l/m 4,8 km/h (1 Bft) S-SO 157 0 min 0,000 mm 0,0 UV-I 5 W/m 4,2 C 4,9 C 8,0 km/h (2 Bft) 91,30 %
04.01.2018 16:20 4,9 C 3,9 C 95 % 1001,6 hPa 0,0 l/m 3,2 km/h (1 Bft) SO 135 0 min 0,000 mm 0,0 UV-I 5 W/m 4,2 C 4,9 C 6,4 km/h (2 Bft) 100,00 %
04.01.2018 16:21 4,9 C 3,9 C 95 % 1001,6 hPa 0,0 l/m 3,2 km/h (1 Bft) SO 135 0 min 0,000 mm 0,0 UV-I 5 W/m 4,2 C 4,9 C 4,8 km/h (1 Bft) 95,65 %
04.01.2018 16:22 4,9 C 3,9 C 95 % 1001,6 hPa 0,0 l/m 3,2 km/h (1 Bft) S-SO 157 0 min 0,000 mm 0,0 UV-I 5 W/m 4,2 C 4,9 C 9,7 km/h (2 Bft) 100,00 %
04.01.2018 16:23 4,9 C 3,9 C 95 % 1001,6 hPa 0,2 l/m 4,8 km/h (1 Bft) S-SO 157 0 min 0,000 mm 0,0 UV-I 5 W/m 4,2 C 4,9 C 8,0 km/h (2 Bft) 91,30 %
04.01.2018 16:24 4,9 C 3,9 C 95 % 1001,6 hPa 0,0 l/m 3,2 km/h (1 Bft) S-SO 157 0 min 0,000 mm 0,0 UV-I 5 W/m 4,2 C 4,9 C 6,4 km/h (2 Bft) 100,00 %
04.01.2018 16:25 4,9 C 3,9 C 95 % 1001,6 hPa 0,0 l/m 4,8 km/h (1 Bft) S-SO 157 0 min 0,000 mm 0,0 UV-I 5 W/m 4,2 C 4,9 C 12,9 km/h (3 Bft) 95,65 %
04.01.2018 16:26 4,9 C 3,9 C 95 % 1001,6 hPa 0,0 l/m 4,8 km/h (1 Bft) S-SO 157 0 min 0,000 mm 0,0 UV-I 5 W/m 4,2 C 4,9 C 9,7 km/h (2 Bft) 95,65 %
04.01.2018 16:27 4,9 C 3,9 C 95 % 1001,6 hPa 0,0 l/m 4,8 km/h (1 Bft) S-SO 157 0 min 0,000 mm 0,0 UV-I 0 W/m 4,2 C 4,9 C 9,7 km/h (2 Bft) 95,65 %
04.01.2018 16:28 4,9 C 3,9 C 95 % 1001,6 hPa 0,0 l/m 4,8 km/h (1 Bft) S-SO 157 0 min 0,000 mm 0,0 UV-I 0 W/m 4,2 C 4,9 C 6,4 km/h (2 Bft) 100,00 %
04.01.2018 16:29 4,9 C 3,9 C 94 % 1001,6 hPa 0,0 l/m 3,2 km/h (1 Bft) S-SO 157 0 min 0,000 mm 0,0 UV-I 0 W/m 4,0 C 4,9 C 8,0 km/h (2 Bft) 95,65 %
04.01.2018 16:30 4,9 C 3,9 C 94 % 1001,6 hPa 0,0 l/m 6,4 km/h (2 Bft) S-SO 157 0 min 0,000 mm 0,0 UV-I 0 W/m 4,0 C 4,9 C 11,3 km/h (2 Bft) 86,96 %
04.01.2018 16:31 4,9 C 3,9 C 94 % 1001,6 hPa 0,0 l/m 4,8 km/h (1 Bft) S-SO 157 0 min 0,000 mm 0,0 UV-I 0 W/m 4,0 C 4,9 C 9,7 km/h (2 Bft) 100,00 %
04.01.2018 16:32 4,9 C 3,9 C 94 % 1001,6 hPa 0,0 l/m 6,4 km/h (2 Bft) S-SO 157 0 min 0,000 mm 0,0 UV-I 0 W/m 4,0 C 4,9 C 14,5 km/h (3 Bft) 100,00 %
04.01.2018 16:33 4,9 C 3,9 C 94 % 1001,6 hPa 0,0 l/m 6,4 km/h (2 Bft) SO 135 0 min 0,000 mm 0,0 UV-I 0 W/m 4,0 C 4,9 C 12,9 km/h (3 Bft) 100,00 %
04.01.2018 16:34 4,9 C 3,9 C 94 % 1001,5 hPa 0,0 l/m 6,4 km/h (2 Bft) S-SO 157 0 min 0,000 mm 0,0 UV-I 0 W/m 4,0 C 4,9 C 9,7 km/h (2 Bft) 100,00 %
04.01.2018 16:35 4,8 C 3,9 C 94 % 1001,6 hPa 0,0 l/m 4,8 km/h (1 Bft) S-SO 157 0 min 0,000 mm 0,0 UV-I 0 W/m 3,9 C 4,8 C 9,7 km/h (2 Bft) 100,00 %
04.01.2018 16:36 4,8 C 3,9 C 94 % 1001,5 hPa 0,0 l/m 4,8 km/h (1 Bft) SO 135 0 min 0,000 mm 0,0 UV-I 0 W/m 3,9 C 4,8 C 8,0 km/h (2 Bft) 95,65 %
04.01.2018 16:37 4,8 C 3,9 C 94 % 1001,5 hPa 0,0 l/m 8,0 km/h (2 Bft) SO 135 0 min 0,000 mm 0,0 UV-I 0 W/m 3,9 C 3,4 C 11,3 km/h (2 Bft) 95,65 %
04.01.2018 16:38 4,8 C 3,9 C 94 % 1001,5 hPa 0,2 l/m 6,4 km/h (2 Bft) SO 135 0 min 0,000 mm 0,0 UV-I 0 W/m 3,9 C 4,8 C 11,3 km/h (2 Bft) 100,00 %
04.01.2018 16:39 4,8 C 3,9 C 94 % 1001,4 hPa 0,0 l/m 6,4 km/h (2 Bft) S-SO 157 0 min 0,000 mm 0,0 UV-I 0 W/m 3,9 C 4,8 C 12,9 km/h (3 Bft) 100,00 %
04.01.2018 16:40 4,8 C 3,9 C 94 % 1001,4 hPa 0,0 l/m 6,4 km/h (2 Bft) O-SO 112 0 min 0,000 mm 0,0 UV-I 0 W/m 3,9 C 4,8 C 12,9 km/h (3 Bft) 100,00 %
04.01.2018 16:41 4,8 C 3,9 C 94 % 1001,5 hPa 0,0 l/m 3,2 km/h (1 Bft) S-SO 157 0 min 0,000 mm 0,0 UV-I 0 W/m 3,9 C 4,8 C 4,8 km/h (1 Bft) 95,65 %
04.01.2018 16:42 4,7 C 3,9 C 94 % 1001,5 hPa 0,0 l/m 3,2 km/h (1 Bft) SO 135 0 min 0,000 mm 0,0 UV-I 0 W/m 3,8 C 4,7 C 6,4 km/h (2 Bft) 100,00 %
04.01.2018 16:43 4,7 C 3,9 C 94 % 1001,5 hPa 0,0 l/m 4,8 km/h (1 Bft) S-SO 157 0 min 0,000 mm 0,0 UV-I 0 W/m 3,8 C 4,7 C 9,7 km/h (2 Bft) 100,00 %
04.01.2018 16:44 4,7 C 3,9 C 94 % 1001,5 hPa 0,0 l/m 6,4 km/h (2 Bft) S-SO 157 0 min 0,000 mm 0,0 UV-I 0 W/m 3,8 C 4,7 C 14,5 km/h (3 Bft) 95,65 %
04.01.2018 16:45 4,7 C 3,9 C 94 % 1001,4 hPa 0,0 l/m 6,4 km/h (2 Bft) S-SO 157 0 min 0,000 mm 0,0 UV-I 0 W/m 3,8 C 4,7 C 9,7 km/h (2 Bft) 95,65 %
04.01.2018 16:46 4,7 C 3,9 C 94 % 1001,4 hPa 0,0 l/m 4,8 km/h (1 Bft) S-SO 157 0 min 0,000 mm 0,0 UV-I 0 W/m 3,8 C 4,7 C 8,0 km/h (2 Bft) 100,00 %
04.01.2018 16:47 4,7 C 3,9 C 94 % 1001,4 hPa 0,0 l/m 3,2 km/h (1 Bft) S-SO 157 0 min 0,000 mm 0,0 UV-I 0 W/m 3,8 C 4,7 C 6,4 km/h (2 Bft) 100,00 %
04.01.2018 16:48 4,7 C 3,9 C 94 % 1001,4 hPa 0,0 l/m 3,2 km/h (1 Bft) SO 135 0 min 0,000 mm 0,0 UV-I 0 W/m 3,8 C 4,7 C 6,4 km/h (2 Bft) 100,00 %
04.01.2018 16:49 4,7 C 3,9 C 94 % 1001,4 hPa 0,0 l/m 1,6 km/h (1 Bft) S-SO 157 0 min 0,000 mm 0,0 UV-I 0 W/m 3,8 C 4,7 C 3,2 km/h (1 Bft) 95,65 %
04.01.2018 16:50 4,7 C 3,9 C 94 % 1001,4 hPa 0,0 l/m 3,2 km/h (1 Bft) S-SO 157 0 min 0,000 mm 0,0 UV-I 0 W/m 3,8 C 4,7 C 8,0 km/h (2 Bft) 100,00 %
04.01.2018 16:51 4,7 C 3,9 C 94 % 1001,4 hPa 0,0 l/m 3,2 km/h (1 Bft) S-SO 157 0 min 0,000 mm 0,0 UV-I 0 W/m 3,8 C 4,7 C 6,4 km/h (2 Bft) 95,65 %
04.01.2018 16:52 4,7 C 3,9 C 95 % 1001,4 hPa 0,0 l/m 3,2 km/h (1 Bft) SO 135 0 min 0,000 mm 0,0 UV-I 0 W/m 4,0 C 4,7 C 6,4 km/h (2 Bft) 100,00 %
04.01.2018 16:53 4,7 C 3,9 C 95 % 1001,4 hPa 0,0 l/m 3,2 km/h (1 Bft) SO 135 0 min 0,000 mm 0,0 UV-I 0 W/m 4,0 C 4,7 C 4,8 km/h (1 Bft) 100,00 %
04.01.2018 16:54 4,7 C 3,9 C 95 % 1001,3 hPa 0,2 l/m 3,2 km/h (1 Bft) S-SO 157 0 min 0,000 mm 0,0 UV-I 0 W/m 4,0 C 4,7 C 6,4 km/h (2 Bft) 100,00 %
04.01.2018 16:55 4,6 C 3,9 C 95 % 1001,3 hPa 0,0 l/m 3,2 km/h (1 Bft) S 180 0 min 0,000 mm 0,0 UV-I 0 W/m 3,9 C 4,6 C 6,4 km/h (2 Bft) 100,00 %
04.01.2018 16:56 4,7 C 3,9 C 95 % 1001,3 hPa 0,0 l/m 4,8 km/h (1 Bft) SO 135 0 min 0,000 mm 0,0 UV-I 0 W/m 4,0 C 4,7 C 9,7 km/h (2 Bft) 100,00 %
04.01.2018 16:57 4,6 C 3,9 C 95 % 1001,3 hPa 0,0 l/m 3,2 km/h (1 Bft) S-SO 157 0 min 0,000 mm 0,0 UV-I 0 W/m 3,9 C 4,6 C 6,4 km/h (2 Bft) 100,00 %
04.01.2018 16:58 4,7 C 3,9 C 95 % 1001,3 hPa 0,0 l/m 6,4 km/h (2 Bft) S-SO 157 0 min 0,000 mm 0,0 UV-I 0 W/m 4,0 C 4,7 C 11,3 km/h (2 Bft) 95,65 %
04.01.2018 16:59 4,7 C 3,9 C 95 % 1001,3 hPa 0,0 l/m 4,8 km/h (1 Bft) S-SO 157 0 min 0,000 mm 0,0 UV-I 0 W/m 4,0 C 4,7 C 8,0 km/h (2 Bft) 100,00 %
04.01.2018 17:00 4,7 C 3,9 C 95 % 1001,3 hPa 0,0 l/m 3,2 km/h (1 Bft) S-SO 157 0 min 0,000 mm 0,0 UV-I 0 W/m 4,0 C 4,7 C 4,8 km/h (1 Bft) 95,65 %
04.01.2018 17:01 4,7 C 3,9 C 95 % 1001,3 hPa 0,0 l/m 3,2 km/h (1 Bft) S-SO 157 0 min 0,000 mm 0,0 UV-I 0 W/m 4,0 C 4,7 C 8,0 km/h (2 Bft) 95,65 %
04.01.2018 17:02 4,7 C 3,9 C 95 % 1001,3 hPa 0,0 l/m 4,8 km/h (1 Bft) S-SO 157 0 min 0,000 mm 0,0 UV-I 0 W/m 4,0 C 4,7 C 6,4 km/h (2 Bft) 100,00 %
04.01.2018 17:03 4,6 C 3,9 C 95 % 1001,3 hPa 0,0 l/m 3,2 km/h (1 Bft) SO 135 0 min 0,000 mm 0,0 UV-I 0 W/m 3,9 C 4,6 C 6,4 km/h (2 Bft) 95,65 %
04.01.2018 17:04 4,6 C 3,9 C 95 % 1001,4 hPa 0,0 l/m 4,8 km/h (1 Bft) S-SO 157 0 min 0,000 mm 0,0 UV-I 0 W/m 3,9 C 4,6 C 8,0 km/h (2 Bft) 100,00 %
04.01.2018 17:05 4,6 C 3,9 C 95 % 1001,3 hPa 0,0 l/m 3,2 km/h (1 Bft) S-SO 157 0 min 0,000 mm 0,0 UV-I 0 W/m 3,9 C 4,6 C 6,4 km/h (2 Bft) 95,65 %
04.01.2018 17:06 4,6 C 3,9 C 95 % 1001,3 hPa 0,0 l/m 4,8 km/h (1 Bft) S-SO 157 0 min 0,000 mm 0,0 UV-I 0 W/m 3,9 C 4,6 C 6,4 km/h (2 Bft) 100,00 %
04.01.2018 17:07 4,6 C 3,9 C 95 % 1001,4 hPa 0,2 l/m 4,8 km/h (1 Bft) SO 135 0 min 0,000 mm 0,0 UV-I 0 W/m 3,9 C 4,6 C 6,4 km/h (2 Bft) 100,00 %
04.01.2018 17:08 4,6 C 3,9 C 95 % 1001,3 hPa 0,0 l/m 3,2 km/h (1 Bft) S-SO 157 0 min 0,000 mm 0,0 UV-I 0 W/m 3,9 C 4,6 C 6,4 km/h (2 Bft) 100,00 %
04.01.2018 17:09 4,6 C 3,9 C 95 % 1001,4 hPa 0,0 l/m 3,2 km/h (1 Bft) S-SO 157 0 min 0,000 mm 0,0 UV-I 0 W/m 3,9 C 4,6 C 4,8 km/h (1 Bft) 100,00 %
04.01.2018 17:10 4,6 C 3,9 C 95 % 1001,4 hPa 0,0 l/m 3,2 km/h (1 Bft) S-SO 157 0 min 0,000 mm 0,0 UV-I 0 W/m 3,9 C 4,6 C 4,8 km/h (1 Bft) 100,00 %
04.01.2018 17:11 4,6 C 3,9 C 95 % 1001,3 hPa 0,0 l/m 4,8 km/h (1 Bft) S-SO 157 0 min 0,000 mm 0,0 UV-I 0 W/m 3,9 C 4,6 C 6,4 km/h (2 Bft) 100,00 %
04.01.2018 17:12 4,6 C 3,9 C 95 % 1001,3 hPa 0,0 l/m 3,2 km/h (1 Bft) S-SO 157 0 min 0,000 mm 0,0 UV-I 0 W/m 3,9 C 4,6 C 6,4 km/h (2 Bft) 95,65 %
04.01.2018 17:13 4,6 C 3,9 C 95 % 1001,3 hPa 0,0 l/m 3,2 km/h (1 Bft) S-SO 157 0 min 0,000 mm 0,0 UV-I 0 W/m 3,9 C 4,6 C 8,0 km/h (2 Bft) 100,00 %
04.01.2018 17:14 4,6 C 3,9 C 95 % 1001,3 hPa 0,0 l/m 3,2 km/h (1 Bft) S-SO 157 0 min 0,000 mm 0,0 UV-I 0 W/m 3,9 C 4,6 C 6,4 km/h (2 Bft) 100,00 %
04.01.2018 17:15 4,6 C 3,9 C 95 % 1001,4 hPa 0,0 l/m 3,2 km/h (1 Bft) S-SO 157 0 min 0,000 mm 0,0 UV-I 0 W/m 3,9 C 4,6 C 6,4 km/h (2 Bft) 95,65 %
04.01.2018 17:16 4,6 C 3,9 C 95 % 1001,4 hPa 0,0 l/m 3,2 km/h (1 Bft) S-SO 157 0 min 0,000 mm 0,0 UV-I 0 W/m 3,9 C 4,6 C 6,4 km/h (2 Bft) 100,00 %
04.01.2018 17:17 4,6 C 3,9 C 95 % 1001,3 hPa 0,0 l/m 1,6 km/h (1 Bft) S-SO 157 0 min 0,000 mm 0,0 UV-I 0 W/m 3,9 C 4,6 C 4,8 km/h (1 Bft) 100,00 %
04.01.2018 17:18 4,6 C 3,9 C 95 % 1001,3 hPa 0,0 l/m 3,2 km/h (1 Bft) S-SO 157 0 min 0,000 mm 0,0 UV-I 0 W/m 3,9 C 4,6 C 3,2 km/h (1 Bft) 95,65 %
04.01.2018 17:19 4,6 C 3,9 C 95 % 1001,3 hPa 0,0 l/m 3,2 km/h (1 Bft) S-SO 157 0 min 0,000 mm 0,0 UV-I 0 W/m 3,9 C 4,6 C 8,0 km/h (2 Bft) 91,30 %
04.01.2018 17:20 4,6 C 3,9 C 95 % 1001,3 hPa 0,0 l/m 3,2 km/h (1 Bft) S 180 0 min 0,000 mm 0,0 UV-I 0 W/m 3,9 C 4,6 C 6,4 km/h (2 Bft) 100,00 %
04.01.2018 17:21 4,6 C 3,9 C 95 % 1001,2 hPa 0,0 l/m 3,2 km/h (1 Bft) S 180 0 min 0,000 mm 0,0 UV-I 0 W/m 3,9 C 4,6 C 6,4 km/h (2 Bft) 100,00 %
04.01.2018 17:22 4,6 C 3,9 C 95 % 1001,3 hPa 0,0 l/m 3,2 km/h (1 Bft) S-SO 157 0 min 0,000 mm 0,0 UV-I 0 W/m 3,9 C 4,6 C 6,4 km/h (2 Bft) 95,65 %
04.01.2018 17:23 4,6 C 3,9 C 95 % 1001,2 hPa 0,0 l/m 4,8 km/h (1 Bft) S-SO 157 0 min 0,000 mm 0,0 UV-I 0 W/m 3,9 C 4,6 C 8,0 km/h (2 Bft) 100,00 %
04.01.2018 17:24 4,6 C 3,9 C 95 % 1001,3 hPa 0,0 l/m 4,8 km/h (1 Bft) S-SO 157 0 min 0,000 mm 0,0 UV-I 0 W/m 3,9 C 4,6 C 8,0 km/h (2 Bft) 100,00 %
04.01.2018 17:25 4,6 C 3,9 C 95 % 1001,2 hPa 0,0 l/m 3,2 km/h (1 Bft) S-SO 157 0 min 0,000 mm 0,0 UV-I 0 W/m 3,9 C 4,6 C 6,4 km/h (2 Bft) 100,00 %
04.01.2018 17:26 4,6 C 3,9 C 95 % 1001,2 hPa 0,2 l/m 1,6 km/h (1 Bft) S-SO 157 0 min 0,000 mm 0,0 UV-I 0 W/m 3,9 C 4,6 C 4,8 km/h (1 Bft) 91,30 %
04.01.2018 17:27 4,5 C 3,9 C 95 % 1001,2 hPa 0,0 l/m 0,0 km/h (0 Bft) S-SO 157 0 min 0,000 mm 0,0 UV-I 0 W/m 3,8 C 4,5 C 1,6 km/h (1 Bft) 91,30 %
04.01.2018 17:28 4,5 C 3,9 C 95 % 1001,2 hPa 0,0 l/m 1,6 km/h (1 Bft) S-SO 157 0 min 0,000 mm 0,0 UV-I 0 W/m 3,8 C 4,5 C 3,2 km/h (1 Bft) 100,00 %
04.01.2018 17:29 4,5 C 3,9 C 95 % 1001,2 hPa 0,0 l/m 3,2 km/h (1 Bft) S-SO 157 0 min 0,000 mm 0,0 UV-I 0 W/m 3,8 C 4,5 C 3,2 km/h (1 Bft) 91,30 %
04.01.2018 17:30 4,5 C 3,9 C 95 % 1001,2 hPa 0,0 l/m 1,6 km/h (1 Bft) S-SO 157 0 min 0,000 mm 0,0 UV-I 0 W/m 3,8 C 4,5 C 3,2 km/h (1 Bft) 91,30 %
04.01.2018 17:31 4,5 C 3,9 C 95 % 1001,2 hPa 0,0 l/m 1,6 km/h (1 Bft) S-SO 157 0 min 0,000 mm 0,0 UV-I 0 W/m 3,8 C 4,5 C 6,4 km/h (2 Bft) 95,65 %
04.01.2018 17:32 4,5 C 3,9 C 95 % 1001,2 hPa 0,0 l/m 1,6 km/h (1 Bft) S-SO 157 0 min 0,000 mm 0,0 UV-I 0 W/m 3,8 C 4,5 C 3,2 km/h (1 Bft) 91,30 %
04.01.2018 17:33 4,5 C 3,9 C 95 % 1001,2 hPa 0,0 l/m 3,2 km/h (1 Bft) S-SO 157 0 min 0,000 mm 0,0 UV-I 0 W/m 3,8 C 4,5 C 6,4 km/h (2 Bft) 95,65 %
04.01.2018 17:34 4,5 C 3,9 C 95 % 1001,2 hPa 0,0 l/m 4,8 km/h (1 Bft) SO 135 0 min 0,000 mm 0,0 UV-I 0 W/m 3,8 C 4,5 C 8,0 km/h (2 Bft) 91,30 %
04.01.2018 17:35 4,5 C 3,9 C 95 % 1001,2 hPa 0,2 l/m 4,8 km/h (1 Bft) S-SO 157 0 min 0,000 mm 0,0 UV-I 0 W/m 3,8 C 4,5 C 8,0 km/h (2 Bft) 100,00 %
04.01.2018 17:36 4,5 C 3,9 C 95 % 1001,2 hPa 0,0 l/m 3,2 km/h (1 Bft) S-SO 157 0 min 0,000 mm 0,0 UV-I 0 W/m 3,8 C 4,5 C 4,8 km/h (1 Bft) 91,30 %
04.01.2018 17:37 4,5 C 3,9 C 95 % 1001,2 hPa 0,0 l/m 3,2 km/h (1 Bft) S-SO 157 0 min 0,000 mm 0,0 UV-I 0 W/m 3,8 C 4,5 C 6,4 km/h (2 Bft) 100,00 %
04.01.2018 17:38 4,5 C 3,9 C 95 % 1001,2 hPa 0,0 l/m 1,6 km/h (1 Bft) S-SO 157 0 min 0,000 mm 0,0 UV-I 0 W/m 3,8 C 4,5 C 4,8 km/h (1 Bft) 91,30 %
04.01.2018 17:39 4,5 C 3,9 C 95 % 1001,2 hPa 0,0 l/m 1,6 km/h (1 Bft) S 180 0 min 0,000 mm 0,0 UV-I 0 W/m 3,8 C 4,5 C 4,8 km/h (1 Bft) 95,65 %
04.01.2018 17:40 4,5 C 3,9 C 95 % 1001,1 hPa 0,0 l/m 1,6 km/h (1 Bft) S 180 0 min 0,000 mm 0,0 UV-I 0 W/m 3,8 C 4,5 C 3,2 km/h (1 Bft) 91,30 %
04.01.2018 17:41 4,4 C 3,9 C 95 % 1001,1 hPa 0,0 l/m 3,2 km/h (1 Bft) S 180 0 min 0,000 mm 0,0 UV-I 0 W/m 3,7 C 4,4 C 6,4 km/h (2 Bft) 95,65 %
04.01.2018 17:42 4,5 C 3,9 C 95 % 1001,1 hPa 0,0 l/m 3,2 km/h (1 Bft) S 180 0 min 0,000 mm 0,0 UV-I 0 W/m 3,8 C 4,5 C 6,4 km/h (2 Bft) 95,65 %
04.01.2018 17:43 4,5 C 3,9 C 95 % 1001,1 hPa 0,2 l/m 1,6 km/h (1 Bft) S 180 0 min 0,000 mm 0,0 UV-I 0 W/m 3,8 C 4,5 C 3,2 km/h (1 Bft) 91,30 %
04.01.2018 17:44 4,5 C 3,9 C 95 % 1001,1 hPa 0,0 l/m 1,6 km/h (1 Bft) S 180 0 min 0,000 mm 0,0 UV-I 0 W/m 3,8 C 4,5 C 4,8 km/h (1 Bft) 91,30 %
04.01.2018 17:45 4,5 C 3,9 C 95 % 1001,2 hPa 0,0 l/m 3,2 km/h (1 Bft) S-SO 157 0 min 0,000 mm 0,0 UV-I 0 W/m 3,8 C 4,5 C 8,0 km/h (2 Bft) 95,65 %
04.01.2018 17:46 4,5 C 3,9 C 95 % 1001,1 hPa 0,0 l/m 1,6 km/h (1 Bft) S-SO 157 0 min 0,000 mm 0,0 UV-I 0 W/m 3,8 C 4,5 C 3,2 km/h (1 Bft) 95,65 %
04.01.2018 17:47 4,5 C 3,9 C 95 % 1001,1 hPa 0,0 l/m 1,6 km/h (1 Bft) S-SO 157 0 min 0,000 mm 0,0 UV-I 0 W/m 3,8 C 4,5 C 4,8 km/h (1 Bft) 91,30 %
04.01.2018 17:48 4,5 C 3,9 C 95 % 1001,1 hPa 0,0 l/m 3,2 km/h (1 Bft) SO 135 0 min 0,000 mm 0,0 UV-I 0 W/m 3,8 C 4,5 C 6,4 km/h (2 Bft) 86,96 %
04.01.2018 17:49 4,4 C 3,9 C 95 % 1001,2 hPa 0,0 l/m 3,2 km/h (1 Bft) S-SO 157 0 min 0,000 mm 0,0 UV-I 0 W/m 3,7 C 4,4 C 4,8 km/h (1 Bft) 95,65 %
04.01.2018 17:50 4,5 C 3,9 C 95 % 1001,1 hPa 0,0 l/m 4,8 km/h (1 Bft) S-SO 157 0 min 0,000 mm 0,0 UV-I 0 W/m 3,8 C 4,5 C 6,4 km/h (2 Bft) 95,65 %
04.01.2018 17:51 4,4 C 3,9 C 95 % 1001,1 hPa 0,2 l/m 4,8 km/h (1 Bft) S-SW 202 0 min 0,000 mm 0,0 UV-I 0 W/m 3,7 C 4,4 C 8,0 km/h (2 Bft) 100,00 %
04.01.2018 17:52 4,4 C 3,9 C 95 % 1001,1 hPa 0,0 l/m 4,8 km/h (1 Bft) S-SW 202 0 min 0,000 mm 0,0 UV-I 0 W/m 3,7 C 4,4 C 6,4 km/h (2 Bft) 95,65 %
04.01.2018 17:53 4,4 C 3,9 C 95 % 1001,1 hPa 0,0 l/m 3,2 km/h (1 Bft) SW 225 0 min 0,000 mm 0,0 UV-I 0 W/m 3,7 C 4,4 C 4,8 km/h (1 Bft) 100,00 %
04.01.2018 17:54 4,4 C 3,9 C 95 % 1001,1 hPa 0,0 l/m 4,8 km/h (1 Bft) SW 225 0 min 0,000 mm 0,0 UV-I 0 W/m 3,7 C 4,4 C 6,4 km/h (2 Bft) 91,30 %
04.01.2018 17:55 4,4 C 3,9 C 95 % 1001,1 hPa 0,0 l/m 4,8 km/h (1 Bft) SW 225 0 min 0,000 mm 0,0 UV-I 0 W/m 3,7 C 4,4 C 6,4 km/h (2 Bft) 95,65 %
04.01.2018 17:56 4,4 C 3,9 C 95 % 1001,1 hPa 0,0 l/m 4,8 km/h (1 Bft) SW 225 0 min 0,000 mm 0,0 UV-I 0 W/m 3,7 C 4,4 C 8,0 km/h (2 Bft) 95,65 %
04.01.2018 17:57 4,4 C 3,9 C 95 % 1001,1 hPa 0,0 l/m 3,2 km/h (1 Bft) S-SW 202 0 min 0,000 mm 0,0 UV-I 0 W/m 3,7 C 4,4 C 6,4 km/h (2 Bft) 91,30 %
04.01.2018 17:58 4,4 C 3,9 C 95 % 1001,1 hPa 0,0 l/m 3,2 km/h (1 Bft) S-SW 202 0 min 0,000 mm 0,0 UV-I 0 W/m 3,7 C 4,4 C 6,4 km/h (2 Bft) 95,65 %
04.01.2018 17:59 4,4 C 3,9 C 95 % 1001,0 hPa 0,2 l/m 3,2 km/h (1 Bft) S-SW 202 0 min 0,000 mm 0,0 UV-I 0 W/m 3,7 C 4,4 C 6,4 km/h (2 Bft) 95,65 %
04.01.2018 18:00 4,4 C 3,9 C 95 % 1001,1 hPa 0,0 l/m 3,2 km/h (1 Bft) S-SW 202 0 min 0,000 mm 0,0 UV-I 0 W/m 3,7 C 4,4 C 4,8 km/h (1 Bft) 95,65 %
04.01.2018 18:01 4,3 C 3,9 C 95 % 1001,1 hPa 0,0 l/m 3,2 km/h (1 Bft) SW 225 0 min 0,000 mm 0,0 UV-I 0 W/m 3,6 C 4,3 C 6,4 km/h (2 Bft) 91,30 %
04.01.2018 18:02 4,3 C 3,9 C 95 % 1001,0 hPa 0,0 l/m 4,8 km/h (1 Bft) S-SW 202 0 min 0,000 mm 0,0 UV-I 0 W/m 3,6 C 4,3 C 6,4 km/h (2 Bft) 100,00 %
04.01.2018 18:03 4,3 C 3,9 C 95 % 1001,0 hPa 0,2 l/m 3,2 km/h (1 Bft) S-SW 202 0 min 0,000 mm 0,0 UV-I 0 W/m 3,6 C 4,3 C 4,8 km/h (1 Bft) 95,65 %
04.01.2018 18:04 4,3 C 3,9 C 95 % 1001,0 hPa 0,0 l/m 1,6 km/h (1 Bft) S 180 0 min 0,000 mm 0,0 UV-I 0 W/m 3,6 C 4,3 C 4,8 km/h (1 Bft) 95,65 %
04.01.2018 18:05 4,3 C 3,9 C 95 % 1001,0 hPa 0,0 l/m 3,2 km/h (1 Bft) S 180 0 min 0,000 mm 0,0 UV-I 0 W/m 3,6 C 4,3 C 4,8 km/h (1 Bft) 95,65 %
04.01.2018 18:06 4,3 C 3,9 C 95 % 1000,9 hPa 0,0 l/m 1,6 km/h (1 Bft) S 180 0 min 0,000 mm 0,0 UV-I 0 W/m 3,6 C 4,3 C 4,8 km/h (1 Bft) 100,00 %
04.01.2018 18:07 4,3 C 3,9 C 95 % 1000,9 hPa 0,0 l/m 3,2 km/h (1 Bft) S 180 0 min 0,000 mm 0,0 UV-I 0 W/m 3,6 C 4,3 C 4,8 km/h (1 Bft) 100,00 %
04.01.2018 18:08 4,3 C 3,9 C 95 % 1000,8 hPa 0,2 l/m 3,2 km/h (1 Bft) S-SO 157 0 min 0,000 mm 0,0 UV-I 0 W/m 3,6 C 4,3 C 8,0 km/h (2 Bft) 95,65 %
04.01.2018 18:09 4,3 C 3,9 C 95 % 1000,9 hPa 0,0 l/m 1,6 km/h (1 Bft) S-SO 157 0 min 0,000 mm 0,0 UV-I 0 W/m 3,6 C 4,3 C 3,2 km/h (1 Bft) 100,00 %
04.01.2018 18:10 4,3 C 3,9 C 95 % 1000,9 hPa 0,0 l/m 0,0 km/h (0 Bft) S-SO 157 0 min 0,000 mm 0,0 UV-I 0 W/m 3,6 C 4,3 C 1,6 km/h (1 Bft) 100,00 %
04.01.2018 18:11 4,4 C 3,9 C 95 % 1000,9 hPa 0,2 l/m 0,0 km/h (0 Bft) S-SO 157 0 min 0,000 mm 0,0 UV-I 0 W/m 3,7 C 4,4 C 1,6 km/h (1 Bft) 100,00 %
04.01.2018 18:12 4,3 C 3,9 C 95 % 1000,8 hPa 0,0 l/m 3,2 km/h (1 Bft) S-SO 157 0 min 0,000 mm 0,0 UV-I 0 W/m 3,6 C 4,3 C 6,4 km/h (2 Bft) 100,00 %
04.01.2018 18:13 4,3 C 3,9 C 95 % 1000,8 hPa 0,0 l/m 4,8 km/h (1 Bft) S 180 0 min 0,000 mm 0,0 UV-I 0 W/m 3,6 C 4,3 C 4,8 km/h (1 Bft) 95,65 %
04.01.2018 18:14 4,3 C 3,9 C 95 % 1000,8 hPa 0,0 l/m 3,2 km/h (1 Bft) S 180 0 min 0,000 mm 0,0 UV-I 0 W/m 3,6 C 4,3 C 4,8 km/h (1 Bft) 100,00 %
04.01.2018 18:15 4,4 C 3,9 C 95 % 1000,8 hPa 0,0 l/m 1,6 km/h (1 Bft) S 180 0 min 0,000 mm 0,0 UV-I 0 W/m 3,7 C 4,4 C 3,2 km/h (1 Bft) 95,65 %
04.01.2018 18:16 4,3 C 3,9 C 95 % 1000,7 hPa 0,0 l/m 1,6 km/h (1 Bft) S 180 0 min 0,000 mm 0,0 UV-I 0 W/m 3,6 C 4,3 C 3,2 km/h (1 Bft) 100,00 %
04.01.2018 18:17 4,4 C 3,9 C 96 % 1000,7 hPa 0,2 l/m 1,6 km/h (1 Bft) S 180 0 min 0,000 mm 0,0 UV-I 0 W/m 3,8 C 4,4 C 3,2 km/h (1 Bft) 100,00 %
04.01.2018 18:18 4,3 C 3,9 C 96 % 1000,7 hPa 0,0 l/m 1,6 km/h (1 Bft) S 180 0 min 0,000 mm 0,0 UV-I 0 W/m 3,7 C 4,3 C 3,2 km/h (1 Bft) 100,00 %
04.01.2018 18:19 4,4 C 3,9 C 95 % 1000,7 hPa 0,0 l/m 1,6 km/h (1 Bft) S 180 0 min 0,000 mm 0,0 UV-I 0 W/m 3,7 C 4,4 C 4,8 km/h (1 Bft) 100,00 %
04.01.2018 18:20 4,3 C 3,9 C 95 % 1000,6 hPa 0,0 l/m 3,2 km/h (1 Bft) S 180 0 min 0,000 mm 0,0 UV-I 0 W/m 3,6 C 4,3 C 4,8 km/h (1 Bft) 100,00 %
04.01.2018 18:21 4,3 C 3,9 C 95 % 1000,6 hPa 0,0 l/m 4,8 km/h (1 Bft) S 180 0 min 0,000 mm 0,0 UV-I 0 W/m 3,6 C 4,3 C 6,4 km/h (2 Bft) 100,00 %
04.01.2018 18:22 4,3 C 3,9 C 95 % 1000,7 hPa 0,2 l/m 1,6 km/h (1 Bft) SO 135 0 min 0,000 mm 0,0 UV-I 0 W/m 3,6 C 4,3 C 4,8 km/h (1 Bft) 95,65 %
04.01.2018 18:23 4,3 C 3,9 C 95 % 1000,7 hPa 0,0 l/m 1,6 km/h (1 Bft) S-SO 157 0 min 0,000 mm 0,0 UV-I 0 W/m 3,6 C 4,3 C 4,8 km/h (1 Bft) 100,00 %
04.01.2018 18:24 4,3 C 3,9 C 95 % 1000,7 hPa 0,0 l/m 0,0 km/h (0 Bft) S-SO 157 0 min 0,000 mm 0,0 UV-I 0 W/m 3,6 C 4,3 C 1,6 km/h (1 Bft) 100,00 %
04.01.2018 18:25 4,3 C 3,9 C 95 % 1000,6 hPa 0,2 l/m 0,0 km/h (0 Bft) S-SO 157 0 min 0,000 mm 0,0 UV-I 0 W/m 3,6 C 4,3 C 1,6 km/h (1 Bft) 95,65 %
04.01.2018 18:26 4,3 C 3,9 C 95 % 1000,6 hPa 0,0 l/m 0,0 km/h (0 Bft) N 0 0 min 0,000 mm 0,0 UV-I 0 W/m 3,6 C 4,3 C 0,0 km/h (0 Bft) 100,00 %
04.01.2018 18:27 4,3 C 3,9 C 95 % 1000,6 hPa 0,0 l/m 0,0 km/h (0 Bft) N 0 0 min 0,000 mm 0,0 UV-I 0 W/m 3,6 C 4,3 C 0,0 km/h (0 Bft) 100,00 %
04.01.2018 18:28 4,3 C 3,9 C 95 % 1000,5 hPa 0,2 l/m 0,0 km/h (0 Bft) N 0 0 min 0,000 mm 0,0 UV-I 0 W/m 3,6 C 4,3 C 0,0 km/h (0 Bft) 95,65 %
04.01.2018 18:29 4,3 C 3,9 C 95 % 1000,5 hPa 0,0 l/m 0,0 km/h (0 Bft) N 0 0 min 0,000 mm 0,0 UV-I 0 W/m 3,6 C 4,3 C 0,0 km/h (0 Bft) 95,65 %
04.01.2018 18:30 4,3 C 3,9 C 95 % 1000,5 hPa 0,0 l/m 0,0 km/h (0 Bft) N 0 0 min 0,000 mm 0,0 UV-I 0 W/m 3,6 C 4,3 C 0,0 km/h (0 Bft) 100,00 %
04.01.2018 18:31 4,3 C 3,9 C 96 % 1000,5 hPa 0,0 l/m 0,0 km/h (0 Bft) N 0 0 min 0,000 mm 0,0 UV-I 0 W/m 3,7 C 4,3 C 0,0 km/h (0 Bft) 100,00 %
04.01.2018 18:32 4,3 C 3,9 C 96 % 1000,4 hPa 0,2 l/m 0,0 km/h (0 Bft) N 0 0 min 0,000 mm 0,0 UV-I 0 W/m 3,7 C 4,3 C 0,0 km/h (0 Bft) 100,00 %
04.01.2018 18:33 4,3 C 3,9 C 95 % 1000,4 hPa 0,0 l/m 1,6 km/h (1 Bft) S-SO 157 0 min 0,000 mm 0,0 UV-I 0 W/m 3,6 C 4,3 C 1,6 km/h (1 Bft) 100,00 %
04.01.2018 18:34 4,3 C 3,9 C 96 % 1000,4 hPa 0,0 l/m 1,6 km/h (1 Bft) S-SO 157 0 min 0,000 mm 0,0 UV-I 0 W/m 3,7 C 4,3 C 3,2 km/h (1 Bft) 100,00 %
04.01.2018 18:35 4,3 C 3,9 C 96 % 1000,4 hPa 0,0 l/m 3,2 km/h (1 Bft) S-SO 157 0 min 0,000 mm 0,0 UV-I 0 W/m 3,7 C 4,3 C 4,8 km/h (1 Bft) 100,00 %
04.01.2018 18:36 4,3 C 3,9 C 96 % 1000,3 hPa 0,2 l/m 4,8 km/h (1 Bft) SO 135 0 min 0,000 mm 0,0 UV-I 0 W/m 3,7 C 4,3 C 6,4 km/h (2 Bft) 95,65 %
04.01.2018 18:37 4,3 C 3,9 C 96 % 1000,3 hPa 0,0 l/m 4,8 km/h (1 Bft) SO 135 0 min 0,000 mm 0,0 UV-I 0 W/m 3,7 C 4,3 C 6,4 km/h (2 Bft) 100,00 %
04.01.2018 18:38 4,3 C 3,9 C 96 % 1000,3 hPa 0,0 l/m 4,8 km/h (1 Bft) SO 135 0 min 0,000 mm 0,0 UV-I 0 W/m 3,7 C 4,3 C 6,4 km/h (2 Bft) 100,00 %
04.01.2018 18:39 4,3 C 3,9 C 96 % 1000,3 hPa 0,0 l/m 4,8 km/h (1 Bft) O-SO 112 0 min 0,000 mm 0,0 UV-I 0 W/m 3,7 C 4,3 C 6,4 km/h (2 Bft) 100,00 %
04.01.2018 18:40 4,3 C 3,9 C 96 % 1000,3 hPa 0,0 l/m 4,8 km/h (1 Bft) O-SO 112 0 min 0,000 mm 0,0 UV-I 0 W/m 3,7 C 4,3 C 6,4 km/h (2 Bft) 100,00 %
04.01.2018 18:41 4,3 C 3,9 C 96 % 1000,2 hPa 0,2 l/m 4,8 km/h (1 Bft) O-SO 112 0 min 0,000 mm 0,0 UV-I 0 W/m 3,7 C 4,3 C 9,7 km/h (2 Bft) 100,00 %
04.01.2018 18:42 4,3 C 3,9 C 96 % 1000,3 hPa 0,0 l/m 4,8 km/h (1 Bft) SO 135 0 min 0,000 mm 0,0 UV-I 0 W/m 3,7 C 4,3 C 6,4 km/h (2 Bft) 100,00 %
04.01.2018 18:43 4,3 C 3,9 C 96 % 1000,2 hPa 0,0 l/m 4,8 km/h (1 Bft) SO 135 0 min 0,000 mm 0,0 UV-I 0 W/m 3,7 C 4,3 C 6,4 km/h (2 Bft) 95,65 %
04.01.2018 18:44 4,3 C 3,9 C 96 % 1000,3 hPa 0,0 l/m 3,2 km/h (1 Bft) O-SO 112 0 min 0,000 mm 0,0 UV-I 0 W/m 3,7 C 4,3 C 4,8 km/h (1 Bft) 100,00 %
04.01.2018 18:45 4,3 C 3,9 C 96 % 1000,3 hPa 0,2 l/m 3,2 km/h (1 Bft) S-SO 157 0 min 0,000 mm 0,0 UV-I 0 W/m 3,7 C 4,3 C 4,8 km/h (1 Bft) 95,65 %
04.01.2018 18:46 4,3 C 3,9 C 96 % 1000,4 hPa 0,0 l/m 3,2 km/h (1 Bft) S-SO 157 0 min 0,000 mm 0,0 UV-I 0 W/m 3,7 C 4,3 C 3,2 km/h (1 Bft) 100,00 %
04.01.2018 18:47 4,3 C 3,9 C 96 % 1000,3 hPa 0,0 l/m 3,2 km/h (1 Bft) SO 135 0 min 0,000 mm 0,0 UV-I 0 W/m 3,7 C 4,3 C 8,0 km/h (2 Bft) 100,00 %
04.01.2018 18:48 4,3 C 3,9 C 96 % 1000,4 hPa 0,0 l/m 0,0 km/h (0 Bft) SO 135 0 min 0,000 mm 0,0 UV-I 0 W/m 3,7 C 4,3 C 1,6 km/h (1 Bft) 95,65 %
04.01.2018 18:49 4,2 C 3,9 C 96 % 1000,4 hPa 0,0 l/m 0,0 km/h (0 Bft) N 0 0 min 0,000 mm 0,0 UV-I 0 W/m 3,6 C 4,2 C 0,0 km/h (0 Bft) 100,00 %
04.01.2018 18:50 4,2 C 3,9 C 96 % 1000,4 hPa 0,0 l/m 1,6 km/h (1 Bft) SO 135 0 min 0,000 mm 0,0 UV-I 0 W/m 3,6 C 4,2 C 3,2 km/h (1 Bft) 91,30 %
04.01.2018 18:51 4,2 C 3,9 C 96 % 1000,3 hPa 0,0 l/m 1,6 km/h (1 Bft) SO 135 0 min 0,000 mm 0,0 UV-I 0 W/m 3,6 C 4,2 C 3,2 km/h (1 Bft) 95,65 %
04.01.2018 18:52 4,2 C 3,9 C 96 % 1000,3 hPa 0,0 l/m 0,0 km/h (0 Bft) SO 135 0 min 0,000 mm 0,0 UV-I 0 W/m 3,6 C 4,2 C 1,6 km/h (1 Bft) 91,30 %
04.01.2018 18:53 4,2 C 3,9 C 96 % 1000,3 hPa 0,2 l/m 0,0 km/h (0 Bft) SO 135 0 min 0,000 mm 0,0 UV-I 0 W/m 3,6 C 4,2 C 1,6 km/h (1 Bft) 91,30 %
04.01.2018 18:54 4,2 C 3,9 C 96 % 1000,3 hPa 0,0 l/m 0,0 km/h (0 Bft) N 0 0 min 0,000 mm 0,0 UV-I 0 W/m 3,6 C 4,2 C 0,0 km/h (0 Bft) 100,00 %
04.01.2018 18:55 4,2 C 3,9 C 96 % 1000,3 hPa 0,0 l/m 1,6 km/h (1 Bft) SO 135 0 min 0,000 mm 0,0 UV-I 0 W/m 3,6 C 4,2 C 3,2 km/h (1 Bft) 95,65 %
04.01.2018 18:56 4,2 C 3,9 C 96 % 1000,3 hPa 0,0 l/m 4,8 km/h (1 Bft) SO 135 0 min 0,000 mm 0,0 UV-I 0 W/m 3,6 C 4,2 C 8,0 km/h (2 Bft) 100,00 %
04.01.2018 18:57 4,2 C 3,9 C 96 % 1000,2 hPa 0,0 l/m 4,8 km/h (1 Bft) O-SO 112 0 min 0,000 mm 0,0 UV-I 0 W/m 3,6 C 4,2 C 9,7 km/h (2 Bft) 91,30 %
04.01.2018 18:58 4,2 C 3,9 C 96 % 1000,3 hPa 0,2 l/m 1,6 km/h (1 Bft) SO 135 0 min 0,000 mm 0,0 UV-I 0 W/m 3,6 C 4,2 C 3,2 km/h (1 Bft) 100,00 %
04.01.2018 18:59 4,2 C 3,9 C 96 % 1000,3 hPa 0,0 l/m 3,2 km/h (1 Bft) SO 135 0 min 0,000 mm 0,0 UV-I 0 W/m 3,6 C 4,2 C 6,4 km/h (2 Bft) 95,65 %
04.01.2018 19:00 4,2 C 3,9 C 96 % 1000,2 hPa 0,0 l/m 4,8 km/h (1 Bft) SO 135 0 min 0,000 mm 0,0 UV-I 0 W/m 3,6 C 4,2 C 6,4 km/h (2 Bft) 100,00 %
04.01.2018 19:01 4,2 C 3,9 C 96 % 1000,2 hPa 0,0 l/m 1,6 km/h (1 Bft) SO 135 0 min 0,000 mm 0,0 UV-I 0 W/m 3,6 C 4,2 C 4,8 km/h (1 Bft) 95,65 %
04.01.2018 19:02 4,2 C 3,9 C 96 % 1000,2 hPa 0,0 l/m 1,6 km/h (1 Bft) SO 135 0 min 0,000 mm 0,0 UV-I 0 W/m 3,6 C 4,2 C 4,8 km/h (1 Bft) 100,00 %
04.01.2018 19:03 4,2 C 3,9 C 96 % 1000,1 hPa 0,0 l/m 3,2 km/h (1 Bft) SO 135 0 min 0,000 mm 0,0 UV-I 0 W/m 3,6 C 4,2 C 8,0 km/h (2 Bft) 91,30 %
04.01.2018 19:04 4,2 C 3,9 C 96 % 1000,0 hPa 0,0 l/m 8,0 km/h (2 Bft) O-SO 112 0 min 0,000 mm 0,0 UV-I 0 W/m 3,6 C 2,8 C 9,7 km/h (2 Bft) 95,65 %
04.01.2018 19:05 4,2 C 3,9 C 96 % 999,9 hPa 0,0 l/m 6,4 km/h (2 Bft) O-SO 112 0 min 0,000 mm 0,0 UV-I 0 W/m 3,6 C 4,2 C 9,7 km/h (2 Bft) 95,65 %
04.01.2018 19:06 4,2 C 3,9 C 96 % 999,9 hPa 0,0 l/m 8,0 km/h (2 Bft) O-SO 112 0 min 0,000 mm 0,0 UV-I 0 W/m 3,6 C 2,8 C 11,3 km/h (2 Bft) 100,00 %
04.01.2018 19:07 4,2 C 3,9 C 96 % 999,9 hPa 0,0 l/m 8,0 km/h (2 Bft) O-SO 112 0 min 0,000 mm 0,0 UV-I 0 W/m 3,6 C 2,8 C 11,3 km/h (2 Bft) 95,65 %
04.01.2018 19:08 4,2 C 3,9 C 96 % 999,9 hPa 0,2 l/m 8,0 km/h (2 Bft) O-SO 112 0 min 0,000 mm 0,0 UV-I 0 W/m 3,6 C 2,8 C 11,3 km/h (2 Bft) 95,65 %
04.01.2018 19:09 4,2 C 3,9 C 96 % 999,9 hPa 0,0 l/m 9,7 km/h (2 Bft) O-SO 112 0 min 0,000 mm 0,0 UV-I 0 W/m 3,6 C 1,4 C 12,9 km/h (3 Bft) 100,00 %
04.01.2018 19:10 4,2 C 3,9 C 96 % 999,9 hPa 0,0 l/m 8,0 km/h (2 Bft) S-SO 157 0 min 0,000 mm 0,0 UV-I 0 W/m 3,6 C 2,8 C 14,5 km/h (3 Bft) 95,65 %
04.01.2018 19:11 4,2 C 3,9 C 96 % 999,9 hPa 0,0 l/m 4,8 km/h (1 Bft) O-SO 112 0 min 0,000 mm 0,0 UV-I 0 W/m 3,6 C 4,2 C 9,7 km/h (2 Bft) 95,65 %
04.01.2018 19:12 4,2 C 3,9 C 96 % 999,9 hPa 0,0 l/m 9,7 km/h (2 Bft) O-SO 112 0 min 0,000 mm 0,0 UV-I 0 W/m 3,6 C 1,4 C 12,9 km/h (3 Bft) 100,00 %
04.01.2018 19:13 4,2 C 3,9 C 96 % 999,8 hPa 0,0 l/m 9,7 km/h (2 Bft) O-SO 112 0 min 0,000 mm 0,0 UV-I 0 W/m 3,6 C 1,4 C 12,9 km/h (3 Bft) 100,00 %
04.01.2018 19:14 4,2 C 3,9 C 96 % 999,8 hPa 0,0 l/m 9,7 km/h (2 Bft) O-SO 112 0 min 0,000 mm 0,0 UV-I 0 W/m 3,6 C 1,4 C 12,9 km/h (3 Bft) 91,30 %
04.01.2018 19:15 4,2 C 3,9 C 96 % 999,8 hPa 0,2 l/m 6,4 km/h (2 Bft) O-SO 112 0 min 0,000 mm 0,0 UV-I 0 W/m 3,6 C 4,2 C 11,3 km/h (2 Bft) 95,65 %
04.01.2018 19:16 4,2 C 3,9 C 96 % 999,9 hPa 0,0 l/m 8,0 km/h (2 Bft) O-SO 112 0 min 0,000 mm 0,0 UV-I 0 W/m 3,6 C 2,8 C 11,3 km/h (2 Bft) 100,00 %
04.01.2018 19:17 4,2 C 3,9 C 96 % 999,9 hPa 0,0 l/m 4,8 km/h (1 Bft) SO 135 0 min 0,000 mm 0,0 UV-I 0 W/m 3,6 C 4,2 C 6,4 km/h (2 Bft) 100,00 %
04.01.2018 19:18 4,2 C 3,9 C 96 % 999,9 hPa 0,0 l/m 8,0 km/h (2 Bft) O-SO 112 0 min 0,000 mm 0,0 UV-I 0 W/m 3,6 C 2,8 C 11,3 km/h (2 Bft) 95,65 %
04.01.2018 19:19 4,2 C 3,9 C 96 % 999,9 hPa 0,0 l/m 6,4 km/h (2 Bft) O-SO 112 0 min 0,000 mm 0,0 UV-I 0 W/m 3,6 C 4,2 C 9,7 km/h (2 Bft) 100,00 %
04.01.2018 19:20 4,2 C 3,9 C 96 % 999,9 hPa 0,0 l/m 6,4 km/h (2 Bft) O 90 0 min 0,000 mm 0,0 UV-I 0 W/m 3,6 C 4,2 C 9,7 km/h (2 Bft) 100,00 %
04.01.2018 19:21 4,2 C 3,9 C 96 % 999,9 hPa 0,0 l/m 8,0 km/h (2 Bft) O-SO 112 0 min 0,000 mm 0,0 UV-I 0 W/m 3,6 C 2,8 C 9,7 km/h (2 Bft) 100,00 %
04.01.2018 19:22 4,2 C 3,9 C 96 % 1000,0 hPa 0,0 l/m 4,8 km/h (1 Bft) O-SO 112 0 min 0,000 mm 0,0 UV-I 0 W/m 3,6 C 4,2 C 6,4 km/h (2 Bft) 100,00 %
04.01.2018 19:23 4,2 C 3,9 C 96 % 1000,0 hPa 0,2 l/m 4,8 km/h (1 Bft) O-SO 112 0 min 0,000 mm 0,0 UV-I 0 W/m 3,6 C 4,2 C 8,0 km/h (2 Bft) 95,65 %
04.01.2018 19:24 4,2 C 3,9 C 96 % 1000,0 hPa 0,0 l/m 3,2 km/h (1 Bft) O-SO 112 0 min 0,000 mm 0,0 UV-I 0 W/m 3,6 C 4,2 C 4,8 km/h (1 Bft) 100,00 %
04.01.2018 19:25 4,2 C 3,9 C 96 % 1000,0 hPa 0,0 l/m 0,0 km/h (0 Bft) O-SO 112 0 min 0,000 mm 0,0 UV-I 0 W/m 3,6 C 4,2 C 1,6 km/h (1 Bft) 95,65 %
04.01.2018 19:26 4,2 C 3,9 C 96 % 1000,0 hPa 0,0 l/m 0,0 km/h (0 Bft) O-SO 112 0 min 0,000 mm 0,0 UV-I 0 W/m 3,6 C 4,2 C 1,6 km/h (1 Bft) 95,65 %
04.01.2018 19:27 4,2 C 3,9 C 96 % 1000,0 hPa 0,0 l/m 0,0 km/h (0 Bft) O-SO 112 0 min 0,000 mm 0,0 UV-I 0 W/m 3,6 C 4,2 C 3,2 km/h (1 Bft) 100,00 %
04.01.2018 19:28 4,2 C 3,9 C 96 % 1000,0 hPa 0,2 l/m 1,6 km/h (1 Bft) O-SO 112 0 min 0,000 mm 0,0 UV-I 0 W/m 3,6 C 4,2 C 3,2 km/h (1 Bft) 95,65 %
04.01.2018 19:29 4,2 C 3,9 C 96 % 1000,0 hPa 0,0 l/m 1,6 km/h (1 Bft) O-SO 112 0 min 0,000 mm 0,0 UV-I 0 W/m 3,6 C 4,2 C 1,6 km/h (1 Bft) 100,00 %
04.01.2018 19:30 4,2 C 3,9 C 97 % 999,9 hPa 0,0 l/m 0,0 km/h (0 Bft) N 0 0 min 0,000 mm 0,0 UV-I 0 W/m 3,8 C 4,2 C 0,0 km/h (0 Bft) 100,00 %
04.01.2018 19:31 4,2 C 3,9 C 96 % 999,9 hPa 0,0 l/m 0,0 km/h (0 Bft) O-SO 112 0 min 0,000 mm 0,0 UV-I 0 W/m 3,6 C 4,2 C 1,6 km/h (1 Bft) 100,00 %
04.01.2018 19:32 4,2 C 3,9 C 97 % 999,9 hPa 0,0 l/m 0,0 km/h (0 Bft) N 0 0 min 0,000 mm 0,0 UV-I 0 W/m 3,8 C 4,2 C 0,0 km/h (0 Bft) 91,30 %
04.01.2018 19:33 4,2 C 3,9 C 97 % 999,9 hPa 0,0 l/m 0,0 km/h (0 Bft) N 0 0 min 0,000 mm 0,0 UV-I 0 W/m 3,8 C 4,2 C 0,0 km/h (0 Bft) 95,65 %
04.01.2018 19:34 4,2 C 3,9 C 97 % 999,9 hPa 0,2 l/m 0,0 km/h (0 Bft) O-SO 112 0 min 0,000 mm 0,0 UV-I 0 W/m 3,8 C 4,2 C 3,2 km/h (1 Bft) 91,30 %
04.01.2018 19:35 4,2 C 3,9 C 97 % 999,7 hPa 0,0 l/m 4,8 km/h (1 Bft) O-SO 112 0 min 0,000 mm 0,0 UV-I 0 W/m 3,8 C 4,2 C 6,4 km/h (2 Bft) 95,65 %
04.01.2018 19:36 4,2 C 3,9 C 97 % 999,7 hPa 0,0 l/m 4,8 km/h (1 Bft) O-SO 112 0 min 0,000 mm 0,0 UV-I 0 W/m 3,8 C 4,2 C 6,4 km/h (2 Bft) 91,30 %
04.01.2018 19:37 4,2 C 3,9 C 97 % 999,6 hPa 0,2 l/m 4,8 km/h (1 Bft) SO 135 0 min 0,000 mm 0,0 UV-I 0 W/m 3,8 C 4,2 C 8,0 km/h (2 Bft) 100,00 %
04.01.2018 19:38 4,2 C 3,9 C 97 % 999,6 hPa 0,0 l/m 6,4 km/h (2 Bft) O-SO 112 0 min 0,000 mm 0,0 UV-I 0 W/m 3,8 C 4,2 C 8,0 km/h (2 Bft) 86,96 %
04.01.2018 19:39 4,2 C 3,9 C 97 % 999,5 hPa 0,0 l/m 8,0 km/h (2 Bft) O-SO 112 0 min 0,000 mm 0,0 UV-I 0 W/m 3,8 C 2,8 C 12,9 km/h (3 Bft) 95,65 %
04.01.2018 19:40 4,2 C 3,9 C 97 % 999,3 hPa 0,0 l/m 11,3 km/h (2 Bft) O-SO 112 0 min 0,000 mm 0,0 UV-I 0 W/m 3,8 C 0,3 C 16,1 km/h (3 Bft) 91,30 %
04.01.2018 19:41 4,2 C 3,9 C 97 % 999,4 hPa 0,0 l/m 9,7 km/h (2 Bft) O-SO 112 0 min 0,000 mm 0,0 UV-I 0 W/m 3,8 C 1,4 C 11,3 km/h (2 Bft) 95,65 %
04.01.2018 19:42 4,2 C 3,9 C 97 % 999,4 hPa 0,0 l/m 9,7 km/h (2 Bft) O 90 0 min 0,000 mm 0,0 UV-I 0 W/m 3,8 C 1,4 C 12,9 km/h (3 Bft) 100,00 %
04.01.2018 19:43 4,2 C 3,9 C 97 % 999,6 hPa 0,0 l/m 11,3 km/h (2 Bft) O 90 0 min 0,000 mm 0,0 UV-I 0 W/m 3,8 C 0,3 C 14,5 km/h (3 Bft) 95,65 %
04.01.2018 19:44 4,2 C 3,9 C 97 % 999,6 hPa 0,0 l/m 4,8 km/h (1 Bft) O 90 0 min 0,000 mm 0,0 UV-I 0 W/m 3,8 C 4,2 C 8,0 km/h (2 Bft) 100,00 %
04.01.2018 19:45 4,2 C 3,9 C 97 % 999,5 hPa 0,2 l/m 4,8 km/h (1 Bft) O 90 0 min 0,000 mm 0,0 UV-I 0 W/m 3,8 C 4,2 C 6,4 km/h (2 Bft) 95,65 %
04.01.2018 19:46 4,2 C 3,9 C 97 % 999,5 hPa 0,0 l/m 6,4 km/h (2 Bft) O 90 0 min 0,000 mm 0,0 UV-I 0 W/m 3,8 C 4,2 C 9,7 km/h (2 Bft) 100,00 %
04.01.2018 19:47 4,2 C 3,9 C 97 % 999,6 hPa 0,2 l/m 6,4 km/h (2 Bft) O-NO 67 0 min 0,000 mm 0,0 UV-I 0 W/m 3,8 C 4,2 C 8,0 km/h (2 Bft) 91,30 %
04.01.2018 19:48 4,2 C 3,9 C 97 % 999,7 hPa 0,0 l/m 4,8 km/h (1 Bft) O 90 0 min 0,000 mm 0,0 UV-I 0 W/m 3,8 C 4,2 C 8,0 km/h (2 Bft) 100,00 %
04.01.2018 19:49 4,2 C 3,9 C 97 % 999,7 hPa 0,0 l/m 4,8 km/h (1 Bft) O-NO 67 0 min 0,000 mm 0,0 UV-I 0 W/m 3,8 C 4,2 C 6,4 km/h (2 Bft) 95,65 %
04.01.2018 19:50 4,2 C 3,9 C 97 % 999,8 hPa 0,0 l/m 4,8 km/h (1 Bft) O-NO 67 0 min 0,000 mm 0,0 UV-I 0 W/m 3,8 C 4,2 C 8,0 km/h (2 Bft) 95,65 %
04.01.2018 19:51 4,3 C 3,9 C 97 % 999,8 hPa 0,2 l/m 6,4 km/h (2 Bft) O-NO 67 0 min 0,000 mm 0,0 UV-I 0 W/m 3,9 C 4,3 C 6,4 km/h (2 Bft) 95,65 %
04.01.2018 19:52 4,3 C 3,9 C 97 % 999,8 hPa 0,0 l/m 3,2 km/h (1 Bft) NO 45 0 min 0,000 mm 0,0 UV-I 0 W/m 3,9 C 4,3 C 4,8 km/h (1 Bft) 95,65 %
04.01.2018 19:53 4,3 C 3,9 C 97 % 999,8 hPa 0,2 l/m 3,2 km/h (1 Bft) NO 45 0 min 0,000 mm 0,0 UV-I 0 W/m 3,9 C 4,3 C 4,8 km/h (1 Bft) 100,00 %
04.01.2018 19:54 4,3 C 3,9 C 97 % 999,8 hPa 0,0 l/m 3,2 km/h (1 Bft) NO 45 0 min 0,000 mm 0,0 UV-I 0 W/m 3,9 C 4,3 C 4,8 km/h (1 Bft) 91,30 %
04.01.2018 19:55 4,2 C 3,9 C 97 % 999,9 hPa 0,0 l/m 1,6 km/h (1 Bft) NO 45 0 min 0,000 mm 0,0 UV-I 0 W/m 3,8 C 4,2 C 3,2 km/h (1 Bft) 100,00 %
04.01.2018 19:56 4,2 C 3,9 C 97 % 999,9 hPa 0,0 l/m 0,0 km/h (0 Bft) NO 45 0 min 0,000 mm 0,0 UV-I 0 W/m 3,8 C 4,2 C 1,6 km/h (1 Bft) 95,65 %
04.01.2018 19:57 4,2 C 3,9 C 97 % 1000,0 hPa 0,2 l/m 0,0 km/h (0 Bft) NO 45 0 min 0,000 mm 0,0 UV-I 0 W/m 3,8 C 4,2 C 1,6 km/h (1 Bft) 100,00 %
04.01.2018 19:58 4,2 C 3,9 C 97 % 1000,0 hPa 0,0 l/m 0,0 km/h (0 Bft) NO 45 0 min 0,000 mm 0,0 UV-I 0 W/m 3,8 C 4,2 C 1,6 km/h (1 Bft) 95,65 %
04.01.2018 19:59 4,2 C 3,9 C 97 % 1000,0 hPa 0,2 l/m 0,0 km/h (0 Bft) NO 45 0 min 0,000 mm 0,0 UV-I 0 W/m 3,8 C 4,2 C 1,6 km/h (1 Bft) 95,65 %
04.01.2018 20:00 4,2 C 3,9 C 97 % 1000,1 hPa 0,0 l/m 1,6 km/h (1 Bft) NO 45 0 min 0,000 mm 0,0 UV-I 0 W/m 3,8 C 4,2 C 4,8 km/h (1 Bft) 100,00 %
04.01.2018 20:01 4,2 C 3,9 C 97 % 1000,0 hPa 0,2 l/m 3,2 km/h (1 Bft) NO 45 0 min 0,000 mm 0,0 UV-I 0 W/m 3,8 C 4,2 C 4,8 km/h (1 Bft) 91,30 %
04.01.2018 20:02 4,2 C 3,9 C 97 % 1000,0 hPa 0,2 l/m 1,6 km/h (1 Bft) NO 45 0 min 0,000 mm 0,0 UV-I 0 W/m 3,8 C 4,2 C 3,2 km/h (1 Bft) 100,00 %
04.01.2018 20:03 4,2 C 3,9 C 97 % 1000,0 hPa 0,0 l/m 0,0 km/h (0 Bft) N 0 0 min 0,000 mm 0,0 UV-I 0 W/m 3,8 C 4,2 C 0,0 km/h (0 Bft) 95,65 %
04.01.2018 20:04 4,2 C 3,9 C 97 % 1000,0 hPa 0,0 l/m 0,0 km/h (0 Bft) N 0 0 min 0,000 mm 0,0 UV-I 0 W/m 3,8 C 4,2 C 0,0 km/h (0 Bft) 100,00 %
04.01.2018 20:05 4,2 C 3,9 C 97 % 1000,0 hPa 0,2 l/m 0,0 km/h (0 Bft) N 0 0 min 0,000 mm 0,0 UV-I 0 W/m 3,8 C 4,2 C 0,0 km/h (0 Bft) 95,65 %
04.01.2018 20:06 4,2 C 3,9 C 97 % 999,9 hPa 0,0 l/m 3,2 km/h (1 Bft) NO 45 0 min 0,000 mm 0,0 UV-I 0 W/m 3,8 C 4,2 C 3,2 km/h (1 Bft) 95,65 %
04.01.2018 20:07 4,2 C 3,9 C 97 % 999,8 hPa 0,0 l/m 3,2 km/h (1 Bft) NO 45 0 min 0,000 mm 0,0 UV-I 0 W/m 3,8 C 4,2 C 4,8 km/h (1 Bft) 100,00 %
04.01.2018 20:08 4,2 C 3,9 C 97 % 999,7 hPa 0,2 l/m 4,8 km/h (1 Bft) O-NO 67 0 min 0,000 mm 0,0 UV-I 0 W/m 3,8 C 4,2 C 6,4 km/h (2 Bft) 95,65 %
04.01.2018 20:09 4,2 C 3,9 C 97 % 999,7 hPa 0,0 l/m 1,6 km/h (1 Bft) O-NO 67 0 min 0,000 mm 0,0 UV-I 0 W/m 3,8 C 4,2 C 3,2 km/h (1 Bft) 100,00 %
04.01.2018 20:10 4,2 C 3,9 C 97 % 999,7 hPa 0,0 l/m 4,8 km/h (1 Bft) O-NO 67 0 min 0,000 mm 0,0 UV-I 0 W/m 3,8 C 4,2 C 6,4 km/h (2 Bft) 100,00 %
04.01.2018 20:11 4,2 C 3,9 C 97 % 999,7 hPa 0,0 l/m 6,4 km/h (2 Bft) O 90 0 min 0,000 mm 0,0 UV-I 0 W/m 3,8 C 4,2 C 9,7 km/h (2 Bft) 95,65 %
04.01.2018 20:12 4,2 C 3,9 C 97 % 999,6 hPa 0,0 l/m 6,4 km/h (2 Bft) O 90 0 min 0,000 mm 0,0 UV-I 0 W/m 3,8 C 4,2 C 8,0 km/h (2 Bft) 95,65 %
04.01.2018 20:13 4,2 C 3,9 C 97 % 999,7 hPa 0,0 l/m 1,6 km/h (1 Bft) SO 135 0 min 0,000 mm 0,0 UV-I 0 W/m 3,8 C 4,2 C 6,4 km/h (2 Bft) 100,00 %
04.01.2018 20:14 4,2 C 3,9 C 97 % 999,7 hPa 0,0 l/m 3,2 km/h (1 Bft) SO 135 0 min 0,000 mm 0,0 UV-I 0 W/m 3,8 C 4,2 C 3,2 km/h (1 Bft) 95,65 %
04.01.2018 20:15 4,2 C 3,9 C 97 % 999,7 hPa 0,2 l/m 0,0 km/h (0 Bft) SO 135 0 min 0,000 mm 0,0 UV-I 0 W/m 3,8 C 4,2 C 1,6 km/h (1 Bft) 95,65 %
04.01.2018 20:16 4,2 C 3,9 C 97 % 999,8 hPa 0,0 l/m 0,0 km/h (0 Bft) SO 135 0 min 0,000 mm 0,0 UV-I 0 W/m 3,8 C 4,2 C 1,6 km/h (1 Bft) 95,65 %
04.01.2018 20:17 4,2 C 3,9 C 97 % 999,7 hPa 0,0 l/m 0,0 km/h (0 Bft) SO 135 0 min 0,000 mm 0,0 UV-I 0 W/m 3,8 C 4,2 C 1,6 km/h (1 Bft) 100,00 %
04.01.2018 20:18 4,2 C 3,9 C 97 % 999,8 hPa 0,0 l/m 3,2 km/h (1 Bft) SO 135 0 min 0,000 mm 0,0 UV-I 0 W/m 3,8 C 4,2 C 4,8 km/h (1 Bft) 95,65 %
04.01.2018 20:19 4,2 C 3,9 C 97 % 999,7 hPa 0,0 l/m 3,2 km/h (1 Bft) SO 135 0 min 0,000 mm 0,0 UV-I 0 W/m 3,8 C 4,2 C 3,2 km/h (1 Bft) 100,00 %
04.01.2018 20:20 4,2 C 3,9 C 97 % 999,8 hPa 0,2 l/m 3,2 km/h (1 Bft) SO 135 0 min 0,000 mm 0,0 UV-I 0 W/m 3,8 C 4,2 C 4,8 km/h (1 Bft) 91,30 %
04.01.2018 20:21 4,3 C 3,9 C 97 % 999,8 hPa 0,0 l/m 3,2 km/h (1 Bft) SO 135 0 min 0,000 mm 0,0 UV-I 0 W/m 3,9 C 4,3 C 4,8 km/h (1 Bft) 100,00 %
04.01.2018 20:22 4,3 C 3,9 C 97 % 999,7 hPa 0,0 l/m 3,2 km/h (1 Bft) SO 135 0 min 0,000 mm 0,0 UV-I 0 W/m 3,9 C 4,3 C 4,8 km/h (1 Bft) 91,30 %
04.01.2018 20:23 4,3 C 3,9 C 97 % 999,8 hPa 0,0 l/m 3,2 km/h (1 Bft) SO 135 0 min 0,000 mm 0,0 UV-I 0 W/m 3,9 C 4,3 C 4,8 km/h (1 Bft) 100,00 %
04.01.2018 20:24 4,3 C 3,9 C 97 % 999,8 hPa 0,0 l/m 3,2 km/h (1 Bft) SO 135 0 min 0,000 mm 0,0 UV-I 0 W/m 3,9 C 4,3 C 4,8 km/h (1 Bft) 95,65 %
04.01.2018 20:25 4,3 C 3,9 C 97 % 999,8 hPa 0,0 l/m 1,6 km/h (1 Bft) SO 135 0 min 0,000 mm 0,0 UV-I 0 W/m 3,9 C 4,3 C 3,2 km/h (1 Bft) 100,00 %
04.01.2018 20:26 4,3 C 3,9 C 97 % 999,8 hPa 0,2 l/m 1,6 km/h (1 Bft) SO 135 0 min 0,000 mm 0,0 UV-I 0 W/m 3,9 C 4,3 C 3,2 km/h (1 Bft) 91,30 %
04.01.2018 20:27 4,3 C 3,9 C 97 % 999,8 hPa 0,0 l/m 0,0 km/h (0 Bft) SO 135 0 min 0,000 mm 0,0 UV-I 0 W/m 3,9 C 4,3 C 1,6 km/h (1 Bft) 100,00 %
04.01.2018 20:28 4,3 C 3,9 C 97 % 999,9 hPa 0,0 l/m 0,0 km/h (0 Bft) N 0 0 min 0,000 mm 0,0 UV-I 0 W/m 3,9 C 4,3 C 0,0 km/h (0 Bft) 95,65 %
04.01.2018 20:29 4,3 C 3,9 C 97 % 999,9 hPa 0,0 l/m 0,0 km/h (0 Bft) N 0 0 min 0,000 mm 0,0 UV-I 0 W/m 3,9 C 4,3 C 0,0 km/h (0 Bft) 91,30 %
04.01.2018 20:30 4,3 C 3,9 C 97 % 999,9 hPa 0,0 l/m 4,8 km/h (1 Bft) O-SO 112 0 min 0,000 mm 0,0 UV-I 0 W/m 3,9 C 4,3 C 6,4 km/h (2 Bft) 95,65 %
04.01.2018 20:31 4,3 C 3,9 C 97 % 999,8 hPa 0,0 l/m 3,2 km/h (1 Bft) O-SO 112 0 min 0,000 mm 0,0 UV-I 0 W/m 3,9 C 4,3 C 4,8 km/h (1 Bft) 95,65 %
04.01.2018 20:32 4,3 C 3,9 C 97 % 999,9 hPa 0,2 l/m 3,2 km/h (1 Bft) O-SO 112 0 min 0,000 mm 0,0 UV-I 0 W/m 3,9 C 4,3 C 4,8 km/h (1 Bft) 100,00 %
04.01.2018 20:33 4,3 C 3,9 C 97 % 999,9 hPa 0,0 l/m 1,6 km/h (1 Bft) O-SO 112 0 min 0,000 mm 0,0 UV-I 0 W/m 3,9 C 4,3 C 1,6 km/h (1 Bft) 100,00 %
04.01.2018 20:34 4,3 C 3,9 C 97 % 999,9 hPa 0,0 l/m 1,6 km/h (1 Bft) O-SO 112 0 min 0,000 mm 0,0 UV-I 0 W/m 3,9 C 4,3 C 1,6 km/h (1 Bft) 95,65 %
04.01.2018 20:35 4,3 C 3,9 C 97 % 1000,0 hPa 0,0 l/m 1,6 km/h (1 Bft) O-SO 112 0 min 0,000 mm 0,0 UV-I 0 W/m 3,9 C 4,3 C 3,2 km/h (1 Bft) 100,00 %
04.01.2018 20:36 4,3 C 3,9 C 97 % 1000,0 hPa 0,0 l/m 0,0 km/h (0 Bft) O-SO 112 0 min 0,000 mm 0,0 UV-I 0 W/m 3,9 C 4,3 C 1,6 km/h (1 Bft) 95,65 %
04.01.2018 20:37 4,3 C 3,9 C 97 % 1000,0 hPa 0,2 l/m 0,0 km/h (0 Bft) O-SO 112 0 min 0,000 mm 0,0 UV-I 0 W/m 3,9 C 4,3 C 1,6 km/h (1 Bft) 95,65 %
04.01.2018 20:38 4,3 C 3,9 C 97 % 999,9 hPa 0,0 l/m 3,2 km/h (1 Bft) O-SO 112 0 min 0,000 mm 0,0 UV-I 0 W/m 3,9 C 4,3 C 6,4 km/h (2 Bft) 100,00 %
04.01.2018 20:39 4,3 C 3,9 C 97 % 999,7 hPa 0,2 l/m 6,4 km/h (2 Bft) O 90 0 min 0,000 mm 0,0 UV-I 0 W/m 3,9 C 4,3 C 6,4 km/h (2 Bft) 95,65 %
04.01.2018 20:40 4,3 C 3,9 C 97 % 999,7 hPa 0,0 l/m 4,8 km/h (1 Bft) O-NO 67 0 min 0,000 mm 0,0 UV-I 0 W/m 3,9 C 4,3 C 8,0 km/h (2 Bft) 95,65 %
04.01.2018 20:41 4,3 C 3,9 C 97 % 999,7 hPa 0,0 l/m 3,2 km/h (1 Bft) O-NO 67 0 min 0,000 mm 0,0 UV-I 0 W/m 3,9 C 4,3 C 4,8 km/h (1 Bft) 100,00 %
04.01.2018 20:42 4,3 C 3,9 C 97 % 999,8 hPa 0,0 l/m 0,0 km/h (0 Bft) O-NO 67 0 min 0,000 mm 0,0 UV-I 0 W/m 3,9 C 4,3 C 1,6 km/h (1 Bft) 100,00 %
04.01.2018 20:43 4,3 C 3,9 C 97 % 999,7 hPa 0,0 l/m 1,6 km/h (1 Bft) O-NO 67 0 min 0,000 mm 0,0 UV-I 0 W/m 3,9 C 4,3 C 4,8 km/h (1 Bft) 95,65 %
04.01.2018 20:44 4,3 C 3,9 C 97 % 999,7 hPa 0,2 l/m 3,2 km/h (1 Bft) O-NO 67 0 min 0,000 mm 0,0 UV-I 0 W/m 3,9 C 4,3 C 4,8 km/h (1 Bft) 100,00 %
04.01.2018 20:45 4,3 C 3,9 C 97 % 999,6 hPa 0,0 l/m 3,2 km/h (1 Bft) O-NO 67 0 min 0,000 mm 0,0 UV-I 0 W/m 3,9 C 4,3 C 6,4 km/h (2 Bft) 100,00 %
04.01.2018 20:46 4,2 C 3,9 C 97 % 999,4 hPa 0,2 l/m 8,0 km/h (2 Bft) O-NO 67 0 min 0,000 mm 0,0 UV-I 0 W/m 3,8 C 2,8 C 11,3 km/h (2 Bft) 100,00 %
04.01.2018 20:47 4,2 C 3,9 C 97 % 999,3 hPa 0,0 l/m 6,4 km/h (2 Bft) O-NO 67 0 min 0,000 mm 0,0 UV-I 0 W/m 3,8 C 4,2 C 8,0 km/h (2 Bft) 100,00 %
04.01.2018 20:48 4,2 C 3,9 C 97 % 999,3 hPa 0,0 l/m 6,4 km/h (2 Bft) O-NO 67 0 min 0,000 mm 0,0 UV-I 0 W/m 3,8 C 4,2 C 8,0 km/h (2 Bft) 100,00 %
04.01.2018 20:49 4,2 C 3,9 C 97 % 999,3 hPa 0,2 l/m 6,4 km/h (2 Bft) O-NO 67 0 min 0,000 mm 0,0 UV-I 0 W/m 3,8 C 4,2 C 8,0 km/h (2 Bft) 100,00 %
04.01.2018 20:50 4,2 C 3,9 C 97 % 999,3 hPa 0,0 l/m 8,0 km/h (2 Bft) O-NO 67 0 min 0,000 mm 0,0 UV-I 0 W/m 3,8 C 2,8 C 9,7 km/h (2 Bft) 95,65 %
04.01.2018 20:51 4,2 C 3,9 C 97 % 999,2 hPa 0,2 l/m 8,0 km/h (2 Bft) O-NO 67 0 min 0,000 mm 0,0 UV-I 0 W/m 3,8 C 2,8 C 11,3 km/h (2 Bft) 95,65 %
04.01.2018 20:52 4,2 C 3,9 C 97 % 999,2 hPa 0,0 l/m 9,7 km/h (2 Bft) O 90 0 min 0,000 mm 0,0 UV-I 0 W/m 3,8 C 1,4 C 12,9 km/h (3 Bft) 100,00 %
04.01.2018 20:53 4,2 C 3,9 C 97 % 999,1 hPa 0,0 l/m 9,7 km/h (2 Bft) O-SO 112 0 min 0,000 mm 0,0 UV-I 0 W/m 3,8 C 1,4 C 12,9 km/h (3 Bft) 100,00 %
04.01.2018 20:54 4,3 C 3,9 C 97 % 999,2 hPa 0,0 l/m 9,7 km/h (2 Bft) O-SO 112 0 min 0,000 mm 0,0 UV-I 0 W/m 3,9 C 1,5 C 16,1 km/h (3 Bft) 100,00 %
04.01.2018 20:55 4,3 C 3,9 C 97 % 999,1 hPa 0,2 l/m 9,7 km/h (2 Bft) O-SO 112 0 min 0,000 mm 0,0 UV-I 0 W/m 3,9 C 1,5 C 12,9 km/h (3 Bft) 100,00 %
04.01.2018 20:56 4,3 C 3,9 C 97 % 999,1 hPa 0,0 l/m 9,7 km/h (2 Bft) SO 135 0 min 0,000 mm 0,0 UV-I 0 W/m 3,9 C 1,5 C 14,5 km/h (3 Bft) 100,00 %
04.01.2018 20:57 4,3 C 3,9 C 97 % 999,1 hPa 0,0 l/m 12,9 km/h (3 Bft) O-SO 112 0 min 0,000 mm 0,0 UV-I 0 W/m 3,9 C -0,6 C 14,5 km/h (3 Bft) 86,96 %
04.01.2018 20:58 4,3 C 3,9 C 97 % 999,0 hPa 0,2 l/m 16,1 km/h (3 Bft) O-SO 112 0 min 0,000 mm 0,0 UV-I 0 W/m 3,9 C -2,3 C 19,3 km/h (3 Bft) 100,00 %
04.01.2018 20:59 4,3 C 3,9 C 97 % 999,0 hPa 0,0 l/m 12,9 km/h (3 Bft) O-SO 112 0 min 0,000 mm 0,0 UV-I 0 W/m 3,9 C -0,6 C 14,5 km/h (3 Bft) 100,00 %
04.01.2018 21:00 4,3 C 3,9 C 97 % 998,9 hPa 0,0 l/m 14,5 km/h (3 Bft) O-SO 112 0 min 0,000 mm 0,0 UV-I 0 W/m 3,9 C -1,5 C 19,3 km/h (3 Bft) 95,65 %
04.01.2018 21:01 4,3 C 3,9 C 97 % 998,9 hPa 0,0 l/m 14,5 km/h (3 Bft) O 90 0 min 0,000 mm 0,0 UV-I 0 W/m 3,9 C -1,5 C 16,1 km/h (3 Bft) 100,00 %
04.01.2018 21:02 4,3 C 3,9 C 97 % 999,0 hPa 0,2 l/m 11,3 km/h (2 Bft) O 90 0 min 0,000 mm 0,0 UV-I 0 W/m 3,9 C 0,4 C 17,7 km/h (3 Bft) 100,00 %
04.01.2018 21:03 4,3 C 3,9 C 97 % 999,0 hPa 0,0 l/m 9,7 km/h (2 Bft) O 90 0 min 0,000 mm 0,0 UV-I 0 W/m 3,9 C 1,5 C 14,5 km/h (3 Bft) 100,00 %
04.01.2018 21:04 4,3 C 3,9 C 97 % 999,1 hPa 0,0 l/m 6,4 km/h (2 Bft) O-NO 67 0 min 0,000 mm 0,0 UV-I 0 W/m 3,9 C 4,3 C 11,3 km/h (2 Bft) 95,65 %
04.01.2018 21:05 4,3 C 3,9 C 97 % 999,0 hPa 0,2 l/m 6,4 km/h (2 Bft) O-NO 67 0 min 0,000 mm 0,0 UV-I 0 W/m 3,9 C 4,3 C 11,3 km/h (2 Bft) 100,00 %
04.01.2018 21:06 4,3 C 3,9 C 97 % 999,0 hPa 0,0 l/m 8,0 km/h (2 Bft) O 90 0 min 0,000 mm 0,0 UV-I 0 W/m 3,9 C 2,9 C 17,7 km/h (3 Bft) 100,00 %
04.01.2018 21:07 4,3 C 3,9 C 97 % 999,0 hPa 0,0 l/m 16,1 km/h (3 Bft) O 90 0 min 0,000 mm 0,0 UV-I 0 W/m 3,9 C -2,3 C 19,3 km/h (3 Bft) 100,00 %
04.01.2018 21:08 4,3 C 3,9 C 97 % 999,0 hPa 0,0 l/m 12,9 km/h (3 Bft) O 90 0 min 0,000 mm 0,0 UV-I 0 W/m 3,9 C -0,6 C 17,7 km/h (3 Bft) 95,65 %
04.01.2018 21:09 4,3 C 3,9 C 97 % 998,9 hPa 0,2 l/m 16,1 km/h (3 Bft) O-SO 112 0 min 0,000 mm 0,0 UV-I 0 W/m 3,9 C -2,3 C 19,3 km/h (3 Bft) 95,65 %
04.01.2018 21:10 4,3 C 3,9 C 97 % 998,9 hPa 0,0 l/m 11,3 km/h (2 Bft) O 90 0 min 0,000 mm 0,0 UV-I 0 W/m 3,9 C 0,4 C 16,1 km/h (3 Bft) 100,00 %
04.01.2018 21:11 4,3 C 3,9 C 97 % 998,8 hPa 0,0 l/m 12,9 km/h (3 Bft) O-SO 112 0 min 0,000 mm 0,0 UV-I 0 W/m 3,9 C -0,6 C 16,1 km/h (3 Bft) 95,65 %
04.01.2018 21:12 4,3 C 3,9 C 97 % 998,8 hPa 0,2 l/m 11,3 km/h (2 Bft) O-SO 112 0 min 0,000 mm 0,0 UV-I 0 W/m 3,9 C 0,4 C 16,1 km/h (3 Bft) 100,00 %
04.01.2018 21:13 4,3 C 3,9 C 97 % 998,9 hPa 0,0 l/m 11,3 km/h (2 Bft) O-SO 112 0 min 0,000 mm 0,0 UV-I 0 W/m 3,9 C 0,4 C 12,9 km/h (3 Bft) 95,65 %
04.01.2018 21:14 4,3 C 3,9 C 97 % 998,8 hPa 0,2 l/m 12,9 km/h (3 Bft) O-SO 112 0 min 0,000 mm 0,0 UV-I 0 W/m 3,9 C -0,6 C 17,7 km/h (3 Bft) 100,00 %
04.01.2018 21:15 4,3 C 3,9 C 97 % 998,8 hPa 0,0 l/m 12,9 km/h (3 Bft) O-SO 112 0 min 0,000 mm 0,0 UV-I 0 W/m 3,9 C -0,6 C 16,1 km/h (3 Bft) 95,65 %
04.01.2018 21:16 4,3 C 3,9 C 97 % 998,8 hPa 0,2 l/m 14,5 km/h (3 Bft) O-SO 112 0 min 0,000 mm 0,0 UV-I 0 W/m 3,9 C -1,5 C 19,3 km/h (3 Bft) 100,00 %
04.01.2018 21:17 4,3 C 3,9 C 97 % 998,7 hPa 0,0 l/m 14,5 km/h (3 Bft) O-SO 112 0 min 0,000 mm 0,0 UV-I 0 W/m 3,9 C -1,5 C 17,7 km/h (3 Bft) 100,00 %
04.01.2018 21:18 4,3 C 3,9 C 97 % 998,7 hPa 0,0 l/m 9,7 km/h (2 Bft) O-SO 112 0 min 0,000 mm 0,0 UV-I 0 W/m 3,9 C 1,5 C 17,7 km/h (3 Bft) 95,65 %
04.01.2018 21:19 4,4 C 3,9 C 97 % 998,7 hPa 0,0 l/m 8,0 km/h (2 Bft) O-SO 112 0 min 0,000 mm 0,0 UV-I 0 W/m 4,0 C 3,0 C 14,5 km/h (3 Bft) 95,65 %
04.01.2018 21:20 4,4 C 3,9 C 97 % 998,7 hPa 0,0 l/m 12,9 km/h (3 Bft) O-SO 112 0 min 0,000 mm 0,0 UV-I 0 W/m 4,0 C -0,5 C 17,7 km/h (3 Bft) 100,00 %
04.01.2018 21:21 4,3 C 3,9 C 97 % 998,6 hPa 0,0 l/m 12,9 km/h (3 Bft) O-SO 112 0 min 0,000 mm 0,0 UV-I 0 W/m 3,9 C -0,6 C 16,1 km/h (3 Bft) 100,00 %
04.01.2018 21:22 4,4 C 3,9 C 97 % 998,6 hPa 0,2 l/m 14,5 km/h (3 Bft) O-SO 112 0 min 0,000 mm 0,0 UV-I 0 W/m 4,0 C -1,4 C 16,1 km/h (3 Bft) 100,00 %
04.01.2018 21:23 4,4 C 3,9 C 97 % 998,5 hPa 0,0 l/m 14,5 km/h (3 Bft) O-SO 112 0 min 0,000 mm 0,0 UV-I 0 W/m 4,0 C -1,4 C 19,3 km/h (3 Bft) 100,00 %
04.01.2018 21:24 4,4 C 3,9 C 97 % 998,5 hPa 0,0 l/m 14,5 km/h (3 Bft) O-SO 112 0 min 0,000 mm 0,0 UV-I 0 W/m 4,0 C -1,4 C 17,7 km/h (3 Bft) 100,00 %
04.01.2018 21:25 4,4 C 3,9 C 97 % 998,5 hPa 0,0 l/m 8,0 km/h (2 Bft) O-SO 112 0 min 0,000 mm 0,0 UV-I 0 W/m 4,0 C 3,0 C 14,5 km/h (3 Bft) 95,65 %
04.01.2018 21:26 4,4 C 3,9 C 97 % 998,4 hPa 0,0 l/m 8,0 km/h (2 Bft) SO 135 0 min 0,000 mm 0,0 UV-I 0 W/m 4,0 C 3,0 C 14,5 km/h (3 Bft) 100,00 %
04.01.2018 21:27 4,3 C 3,9 C 97 % 998,4 hPa 0,0 l/m 9,7 km/h (2 Bft) S-SO 157 0 min 0,000 mm 0,0 UV-I 0 W/m 3,9 C 1,5 C 17,7 km/h (3 Bft) 100,00 %
04.01.2018 21:28 4,4 C 3,9 C 97 % 998,4 hPa 0,2 l/m 11,3 km/h (2 Bft) SO 135 0 min 0,000 mm 0,0 UV-I 0 W/m 4,0 C 0,5 C 16,1 km/h (3 Bft) 100,00 %
04.01.2018 21:29 4,4 C 3,9 C 97 % 998,5 hPa 0,0 l/m 11,3 km/h (2 Bft) O-SO 112 0 min 0,000 mm 0,0 UV-I 0 W/m 4,0 C 0,5 C 20,9 km/h (4 Bft) 95,65 %
04.01.2018 21:30 4,4 C 3,9 C 97 % 998,5 hPa 0,0 l/m 12,9 km/h (3 Bft) O-SO 112 0 min 0,000 mm 0,0 UV-I 0 W/m 4,0 C -0,5 C 19,3 km/h (3 Bft) 100,00 %
04.01.2018 21:31 4,4 C 3,9 C 97 % 998,4 hPa 0,0 l/m 12,9 km/h (3 Bft) O-SO 112 0 min 0,000 mm 0,0 UV-I 0 W/m 4,0 C -0,5 C 16,1 km/h (3 Bft) 100,00 %
04.01.2018 21:32 4,4 C 3,9 C 97 % 998,5 hPa 0,0 l/m 12,9 km/h (3 Bft) O-SO 112 0 min 0,000 mm 0,0 UV-I 0 W/m 4,0 C -0,5 C 16,1 km/h (3 Bft) 95,65 %
04.01.2018 21:33 4,4 C 3,9 C 97 % 998,5 hPa 0,0 l/m 9,7 km/h (2 Bft) O-SO 112 0 min 0,000 mm 0,0 UV-I 0 W/m 4,0 C 1,6 C 12,9 km/h (3 Bft) 91,30 %
04.01.2018 21:34 4,4 C 3,9 C 97 % 998,6 hPa 0,0 l/m 6,4 km/h (2 Bft) O 90 0 min 0,000 mm 0,0 UV-I 0 W/m 4,0 C 4,4 C 11,3 km/h (2 Bft) 95,65 %
04.01.2018 21:35 4,4 C 3,9 C 97 % 998,7 hPa 0,0 l/m 4,8 km/h (1 Bft) N-NO 22 0 min 0,000 mm 0,0 UV-I 0 W/m 4,0 C 4,4 C 6,4 km/h (2 Bft) 95,65 %
04.01.2018 21:36 4,4 C 3,9 C 97 % 999,0 hPa 0,2 l/m 3,2 km/h (1 Bft) N 360 0 min 0,000 mm 0,0 UV-I 0 W/m 4,0 C 4,4 C 4,8 km/h (1 Bft) 100,00 %
04.01.2018 21:37 4,4 C 3,9 C 97 % 999,2 hPa 0,0 l/m 4,8 km/h (1 Bft) N-NO 22 0 min 0,000 mm 0,0 UV-I 0 W/m 4,0 C 4,4 C 9,7 km/h (2 Bft) 95,65 %
04.01.2018 21:38 4,4 C 3,9 C 97 % 999,3 hPa 0,0 l/m 9,7 km/h (2 Bft) NW 315 0 min 0,000 mm 0,0 UV-I 0 W/m 4,0 C 1,6 C 17,7 km/h (3 Bft) 95,65 %
04.01.2018 21:39 4,4 C 3,9 C 97 % 999,3 hPa 0,2 l/m 4,8 km/h (1 Bft) N-NO 22 0 min 0,000 mm 0,0 UV-I 0 W/m 4,0 C 4,4 C 9,7 km/h (2 Bft) 86,96 %
04.01.2018 21:40 4,4 C 3,9 C 97 % 999,1 hPa 0,0 l/m 4,8 km/h (1 Bft) O-SO 112 0 min 0,000 mm 0,0 UV-I 0 W/m 4,0 C 4,4 C 11,3 km/h (2 Bft) 95,65 %
04.01.2018 21:41 4,4 C 3,9 C 97 % 998,8 hPa 0,0 l/m 9,7 km/h (2 Bft) SO 135 0 min 0,000 mm 0,0 UV-I 0 W/m 4,0 C 1,6 C 14,5 km/h (3 Bft) 91,30 %
04.01.2018 21:42 4,4 C 3,9 C 97 % 998,6 hPa 0,2 l/m 12,9 km/h (3 Bft) O-SO 112 0 min 0,000 mm 0,0 UV-I 0 W/m 4,0 C -0,5 C 17,7 km/h (3 Bft) 95,65 %
04.01.2018 21:43 4,4 C 3,9 C 97 % 998,5 hPa 0,0 l/m 9,7 km/h (2 Bft) SO 135 0 min 0,000 mm 0,0 UV-I 0 W/m 4,0 C 1,6 C 16,1 km/h (3 Bft) 86,96 %
04.01.2018 21:44 4,4 C 3,9 C 97 % 998,5 hPa 0,0 l/m 11,3 km/h (2 Bft) O-SO 112 0 min 0,000 mm 0,0 UV-I 0 W/m 4,0 C 0,5 C 16,1 km/h (3 Bft) 100,00 %
04.01.2018 21:45 4,4 C 3,9 C 97 % 998,5 hPa 0,0 l/m 8,0 km/h (2 Bft) O-SO 112 0 min 0,000 mm 0,0 UV-I 0 W/m 4,0 C 3,0 C 11,3 km/h (2 Bft) 91,30 %
04.01.2018 21:46 4,4 C 3,9 C 97 % 998,5 hPa 0,0 l/m 9,7 km/h (2 Bft) O-SO 112 0 min 0,000 mm 0,0 UV-I 0 W/m 4,0 C 1,6 C 12,9 km/h (3 Bft) 91,30 %
04.01.2018 21:47 4,5 C 3,9 C 97 % 998,6 hPa 0,0 l/m 4,8 km/h (1 Bft) O-SO 112 0 min 0,000 mm 0,0 UV-I 0 W/m 4,1 C 4,5 C 9,7 km/h (2 Bft) 91,30 %
04.01.2018 21:48 4,5 C 3,9 C 97 % 998,7 hPa 0,0 l/m 3,2 km/h (1 Bft) NO 45 0 min 0,000 mm 0,0 UV-I 0 W/m 4,1 C 4,5 C 6,4 km/h (2 Bft) 95,65 %
04.01.2018 21:49 4,5 C 3,9 C 97 % 998,8 hPa 0,0 l/m 1,6 km/h (1 Bft) N-NO 22 0 min 0,000 mm 0,0 UV-I 0 W/m 4,1 C 4,5 C 4,8 km/h (1 Bft) 95,65 %
04.01.2018 21:50 4,5 C 3,9 C 97 % 998,8 hPa 0,0 l/m 1,6 km/h (1 Bft) N 360 0 min 0,000 mm 0,0 UV-I 0 W/m 4,1 C 4,5 C 3,2 km/h (1 Bft) 91,30 %
04.01.2018 21:51 4,5 C 3,9 C 97 % 998,9 hPa 0,2 l/m 4,8 km/h (1 Bft) N-NO 22 0 min 0,000 mm 0,0 UV-I 0 W/m 4,1 C 4,5 C 8,0 km/h (2 Bft) 100,00 %
04.01.2018 21:52 4,5 C 3,9 C 97 % 998,9 hPa 0,0 l/m 9,7 km/h (2 Bft) N-NO 22 0 min 0,000 mm 0,0 UV-I 0 W/m 4,1 C 1,7 C 11,3 km/h (2 Bft) 91,30 %
04.01.2018 21:53 4,4 C 3,9 C 97 % 998,9 hPa 0,0 l/m 8,0 km/h (2 Bft) N-NO 22 0 min 0,000 mm 0,0 UV-I 0 W/m 4,0 C 3,0 C 9,7 km/h (2 Bft) 95,65 %
04.01.2018 21:54 4,5 C 3,9 C 97 % 998,9 hPa 0,0 l/m 8,0 km/h (2 Bft) NO 45 0 min 0,000 mm 0,0 UV-I 0 W/m 4,1 C 3,1 C 9,7 km/h (2 Bft) 91,30 %
04.01.2018 21:55 4,5 C 3,9 C 97 % 998,8 hPa 0,0 l/m 8,0 km/h (2 Bft) O-NO 67 0 min 0,000 mm 0,0 UV-I 0 W/m 4,1 C 3,1 C 12,9 km/h (3 Bft) 100,00 %
04.01.2018 21:56 4,5 C 3,9 C 97 % 998,7 hPa 0,2 l/m 8,0 km/h (2 Bft) O-NO 67 0 min 0,000 mm 0,0 UV-I 0 W/m 4,1 C 3,1 C 11,3 km/h (2 Bft) 95,65 %
04.01.2018 21:57 4,5 C 3,9 C 97 % 998,7 hPa 0,0 l/m 6,4 km/h (2 Bft) O 90 0 min 0,000 mm 0,0 UV-I 0 W/m 4,1 C 4,5 C 9,7 km/h (2 Bft) 100,00 %
04.01.2018 21:58 4,5 C 3,9 C 97 % 998,6 hPa 0,0 l/m 8,0 km/h (2 Bft) O 90 0 min 0,000 mm 0,0 UV-I 0 W/m 4,1 C 3,1 C 11,3 km/h (2 Bft) 95,65 %
04.01.2018 21:59 4,5 C 3,9 C 97 % 998,6 hPa 0,0 l/m 4,8 km/h (1 Bft) O 90 0 min 0,000 mm 0,0 UV-I 0 W/m 4,1 C 4,5 C 8,0 km/h (2 Bft) 91,30 %
04.01.2018 22:00 4,5 C 3,9 C 97 % 998,7 hPa 0,0 l/m 4,8 km/h (1 Bft) O-SO 112 0 min 0,000 mm 0,0 UV-I 0 W/m 4,1 C 4,5 C 11,3 km/h (2 Bft) 95,65 %
04.01.2018 22:01 4,6 C 3,9 C 97 % 998,7 hPa 0,2 l/m 4,8 km/h (1 Bft) S-SO 157 0 min 0,000 mm 0,0 UV-I 0 W/m 4,2 C 4,6 C 8,0 km/h (2 Bft) 86,96 %
04.01.2018 22:02 4,5 C 3,9 C 97 % 998,7 hPa 0,0 l/m 3,2 km/h (1 Bft) O-SO 112 0 min 0,000 mm 0,0 UV-I 0 W/m 4,1 C 4,5 C 6,4 km/h (2 Bft) 100,00 %
04.01.2018 22:03 4,5 C 3,9 C 97 % 998,9 hPa 0,0 l/m 3,2 km/h (1 Bft) O-SO 112 0 min 0,000 mm 0,0 UV-I 0 W/m 4,1 C 4,5 C 6,4 km/h (2 Bft) 95,65 %
04.01.2018 22:04 4,6 C 3,9 C 97 % 999,2 hPa 0,0 l/m 3,2 km/h (1 Bft) N-NW 337 0 min 0,000 mm 0,0 UV-I 0 W/m 4,2 C 4,6 C 6,4 km/h (2 Bft) 100,00 %
04.01.2018 22:05 4,6 C 3,9 C 97 % 999,3 hPa 0,0 l/m 6,4 km/h (2 Bft) N-NW 337 0 min 0,000 mm 0,0 UV-I 0 W/m 4,2 C 4,6 C 16,1 km/h (3 Bft) 95,65 %
04.01.2018 22:06 4,6 C 3,9 C 97 % 999,3 hPa 0,0 l/m 6,4 km/h (2 Bft) NW 315 0 min 0,000 mm 0,0 UV-I 0 W/m 4,2 C 4,6 C 11,3 km/h (2 Bft) 100,00 %
04.01.2018 22:07 4,6 C 3,9 C 97 % 999,2 hPa 0,2 l/m 4,8 km/h (1 Bft) N 360 0 min 0,000 mm 0,0 UV-I 0 W/m 4,2 C 4,6 C 9,7 km/h (2 Bft) 91,30 %
04.01.2018 22:08 4,5 C 3,9 C 97 % 999,1 hPa 0,0 l/m 4,8 km/h (1 Bft) O-NO 67 0 min 0,000 mm 0,0 UV-I 0 W/m 4,1 C 4,5 C 6,4 km/h (2 Bft) 95,65 %
04.01.2018 22:09 4,5 C 3,9 C 97 % 998,8 hPa 0,0 l/m 9,7 km/h (2 Bft) O-SO 112 0 min 0,000 mm 0,0 UV-I 0 W/m 4,1 C 1,7 C 12,9 km/h (3 Bft) 100,00 %
04.01.2018 22:10 4,5 C 3,9 C 97 % 998,6 hPa 0,0 l/m 11,3 km/h (2 Bft) SO 135 0 min 0,000 mm 0,0 UV-I 0 W/m 4,1 C 0,6 C 14,5 km/h (3 Bft) 95,65 %
04.01.2018 22:11 4,5 C 3,9 C 97 % 998,6 hPa 0,0 l/m 6,4 km/h (2 Bft) O-SO 112 0 min 0,000 mm 0,0 UV-I 0 W/m 4,1 C 4,5 C 12,9 km/h (3 Bft) 100,00 %
04.01.2018 22:12 4,5 C 3,9 C 97 % 998,6 hPa 0,0 l/m 9,7 km/h (2 Bft) SO 135 0 min 0,000 mm 0,0 UV-I 0 W/m 4,1 C 1,7 C 12,9 km/h (3 Bft) 100,00 %
04.01.2018 22:13 4,5 C 3,9 C 97 % 998,6 hPa 0,0 l/m 9,7 km/h (2 Bft) S-SO 157 0 min 0,000 mm 0,0 UV-I 0 W/m 4,1 C 1,7 C 14,5 km/h (3 Bft) 100,00 %
04.01.2018 22:14 4,5 C 3,9 C 97 % 998,5 hPa 0,2 l/m 9,7 km/h (2 Bft) SO 135 0 min 0,000 mm 0,0 UV-I 0 W/m 4,1 C 1,7 C 14,5 km/h (3 Bft) 95,65 %
04.01.2018 22:15 4,5 C 3,9 C 97 % 998,5 hPa 0,0 l/m 8,0 km/h (2 Bft) S-SO 157 0 min 0,000 mm 0,0 UV-I 0 W/m 4,1 C 3,1 C 14,5 km/h (3 Bft) 100,00 %
04.01.2018 22:16 4,6 C 3,9 C 97 % 998,5 hPa 0,0 l/m 9,7 km/h (2 Bft) S-SO 157 0 min 0,000 mm 0,0 UV-I 0 W/m 4,2 C 1,8 C 16,1 km/h (3 Bft) 95,65 %
04.01.2018 22:17 4,6 C 3,9 C 97 % 998,6 hPa 0,0 l/m 4,8 km/h (1 Bft) S-SO 157 0 min 0,000 mm 0,0 UV-I 0 W/m 4,2 C 4,6 C 8,0 km/h (2 Bft) 91,30 %
04.01.2018 22:18 4,6 C 3,9 C 97 % 998,6 hPa 0,0 l/m 3,2 km/h (1 Bft) S 180 0 min 0,000 mm 0,0 UV-I 0 W/m 4,2 C 4,6 C 6,4 km/h (2 Bft) 100,00 %
04.01.2018 22:19 4,6 C 3,9 C 97 % 998,7 hPa 0,0 l/m 0,0 km/h (0 Bft) S 180 0 min 0,000 mm 0,0 UV-I 0 W/m 4,2 C 4,6 C 1,6 km/h (1 Bft) 100,00 %
04.01.2018 22:20 4,6 C 3,9 C 97 % 998,7 hPa 0,0 l/m 1,6 km/h (1 Bft) S 180 0 min 0,000 mm 0,0 UV-I 0 W/m 4,2 C 4,6 C 3,2 km/h (1 Bft) 100,00 %
04.01.2018 22:21 4,6 C 3,9 C 97 % 998,8 hPa 0,0 l/m 1,6 km/h (1 Bft) O 90 0 min 0,000 mm 0,0 UV-I 0 W/m 4,2 C 4,6 C 3,2 km/h (1 Bft) 95,65 %
04.01.2018 22:22 4,6 C 3,9 C 97 % 998,9 hPa 0,0 l/m 1,6 km/h (1 Bft) NW 315 0 min 0,000 mm 0,0 UV-I 0 W/m 4,2 C 4,6 C 3,2 km/h (1 Bft) 100,00 %
04.01.2018 22:23 4,6 C 3,9 C 97 % 999,0 hPa 0,0 l/m 1,6 km/h (1 Bft) N-NO 22 0 min 0,000 mm 0,0 UV-I 0 W/m 4,2 C 4,6 C 3,2 km/h (1 Bft) 100,00 %
04.01.2018 22:24 4,6 C 3,9 C 97 % 998,9 hPa 0,0 l/m 3,2 km/h (1 Bft) N-NO 22 0 min 0,000 mm 0,0 UV-I 0 W/m 4,2 C 4,6 C 4,8 km/h (1 Bft) 100,00 %
04.01.2018 22:25 4,6 C 3,9 C 97 % 998,9 hPa 0,0 l/m 1,6 km/h (1 Bft) N-NO 22 0 min 0,000 mm 0,0 UV-I 0 W/m 4,2 C 4,6 C 3,2 km/h (1 Bft) 100,00 %
04.01.2018 22:26 4,6 C 3,9 C 97 % 998,8 hPa 0,0 l/m 3,2 km/h (1 Bft) N-NO 22 0 min 0,000 mm 0,0 UV-I 0 W/m 4,2 C 4,6 C 4,8 km/h (1 Bft) 100,00 %
04.01.2018 22:27 4,6 C 3,9 C 97 % 998,8 hPa 0,0 l/m 1,6 km/h (1 Bft) N-NO 22 0 min 0,000 mm 0,0 UV-I 0 W/m 4,2 C 4,6 C 4,8 km/h (1 Bft) 100,00 %
04.01.2018 22:28 4,6 C 3,9 C 97 % 998,9 hPa 0,0 l/m 3,2 km/h (1 Bft) N-NO 22 0 min 0,000 mm 0,0 UV-I 0 W/m 4,2 C 4,6 C 3,2 km/h (1 Bft) 91,30 %
04.01.2018 22:29 4,6 C 3,9 C 97 % 998,9 hPa 0,0 l/m 0,0 km/h (0 Bft) N-NO 22 0 min 0,000 mm 0,0 UV-I 0 W/m 4,2 C 4,6 C 1,6 km/h (1 Bft) 100,00 %
04.01.2018 22:30 4,6 C 3,9 C 97 % 999,0 hPa 0,0 l/m 0,0 km/h (0 Bft) N 0 0 min 0,000 mm 0,0 UV-I 0 W/m 4,2 C 4,6 C 0,0 km/h (0 Bft) 100,00 %
04.01.2018 22:31 4,6 C 3,9 C 97 % 999,1 hPa 0,0 l/m 0,0 km/h (0 Bft) N-NO 22 0 min 0,000 mm 0,0 UV-I 0 W/m 4,2 C 4,6 C 1,6 km/h (1 Bft) 100,00 %
04.01.2018 22:32 4,6 C 3,9 C 97 % 999,1 hPa 0,2 l/m 0,0 km/h (0 Bft) O-NO 67 0 min 0,000 mm 0,0 UV-I 0 W/m 4,2 C 4,6 C 3,2 km/h (1 Bft) 100,00 %
04.01.2018 22:33 4,6 C 3,9 C 97 % 999,2 hPa 0,0 l/m 1,6 km/h (1 Bft) N-NW 337 0 min 0,000 mm 0,0 UV-I 0 W/m 4,2 C 4,6 C 6,4 km/h (2 Bft) 100,00 %
04.01.2018 22:34 4,6 C 3,9 C 97 % 999,2 hPa 0,0 l/m 3,2 km/h (1 Bft) N-NO 22 0 min 0,000 mm 0,0 UV-I 0 W/m 4,2 C 4,6 C 4,8 km/h (1 Bft) 100,00 %
04.01.2018 22:35 4,6 C 3,9 C 97 % 999,1 hPa 0,0 l/m 0,0 km/h (0 Bft) N-NO 22 0 min 0,000 mm 0,0 UV-I 0 W/m 4,2 C 4,6 C 1,6 km/h (1 Bft) 95,65 %
04.01.2018 22:36 4,6 C 3,9 C 97 % 999,1 hPa 0,0 l/m 0,0 km/h (0 Bft) N-NO 22 0 min 0,000 mm 0,0 UV-I 0 W/m 4,2 C 4,6 C 1,6 km/h (1 Bft) 100,00 %
04.01.2018 22:37 4,6 C 3,9 C 97 % 999,0 hPa 0,0 l/m 0,0 km/h (0 Bft) S-SO 157 0 min 0,000 mm 0,0 UV-I 0 W/m 4,2 C 4,6 C 3,2 km/h (1 Bft) 100,00 %
04.01.2018 22:38 4,7 C 3,9 C 97 % 998,8 hPa 0,2 l/m 3,2 km/h (1 Bft) S-SO 157 0 min 0,000 mm 0,0 UV-I 0 W/m 4,3 C 4,7 C 6,4 km/h (2 Bft) 95,65 %
04.01.2018 22:39 4,7 C 3,9 C 97 % 998,8 hPa 0,0 l/m 1,6 km/h (1 Bft) S-SO 157 0 min 0,000 mm 0,0 UV-I 0 W/m 4,3 C 4,7 C 3,2 km/h (1 Bft) 100,00 %
04.01.2018 22:40 4,7 C 3,9 C 97 % 998,8 hPa 0,0 l/m 4,8 km/h (1 Bft) S-SO 157 0 min 0,000 mm 0,0 UV-I 0 W/m 4,3 C 4,7 C 6,4 km/h (2 Bft) 100,00 %
04.01.2018 22:41 4,7 C 3,9 C 97 % 998,8 hPa 0,2 l/m 4,8 km/h (1 Bft) SO 135 0 min 0,000 mm 0,0 UV-I 0 W/m 4,3 C 4,7 C 6,4 km/h (2 Bft) 100,00 %
04.01.2018 22:42 4,7 C 3,9 C 97 % 998,8 hPa 0,0 l/m 8,0 km/h (2 Bft) NO 45 0 min 0,000 mm 0,0 UV-I 0 W/m 4,3 C 3,3 C 9,7 km/h (2 Bft) 95,65 %
04.01.2018 22:43 4,7 C 3,9 C 97 % 998,9 hPa 0,0 l/m 11,3 km/h (2 Bft) N-NO 22 0 min 0,000 mm 0,0 UV-I 0 W/m 4,3 C 0,9 C 14,5 km/h (3 Bft) 100,00 %
04.01.2018 22:44 4,6 C 3,9 C 97 % 998,8 hPa 0,0 l/m 9,7 km/h (2 Bft) NO 45 0 min 0,000 mm 0,0 UV-I 0 W/m 4,2 C 1,8 C 12,9 km/h (3 Bft) 100,00 %
04.01.2018 22:45 4,6 C 3,9 C 97 % 998,8 hPa 0,0 l/m 6,4 km/h (2 Bft) O-NO 67 0 min 0,000 mm 0,0 UV-I 0 W/m 4,2 C 4,6 C 8,0 km/h (2 Bft) 100,00 %
04.01.2018 22:46 4,6 C 3,9 C 97 % 998,8 hPa 0,2 l/m 6,4 km/h (2 Bft) O 90 0 min 0,000 mm 0,0 UV-I 0 W/m 4,2 C 4,6 C 9,7 km/h (2 Bft) 95,65 %
04.01.2018 22:47 4,6 C 3,9 C 97 % 998,8 hPa 0,0 l/m 3,2 km/h (1 Bft) SO 135 0 min 0,000 mm 0,0 UV-I 0 W/m 4,2 C 4,6 C 6,4 km/h (2 Bft) 100,00 %
04.01.2018 22:48 4,6 C 3,9 C 97 % 998,8 hPa 0,0 l/m 4,8 km/h (1 Bft) S-SO 157 0 min 0,000 mm 0,0 UV-I 0 W/m 4,2 C 4,6 C 8,0 km/h (2 Bft) 100,00 %
04.01.2018 22:49 4,6 C 3,9 C 97 % 998,9 hPa 0,0 l/m 4,8 km/h (1 Bft) S 180 0 min 0,000 mm 0,0 UV-I 0 W/m 4,2 C 4,6 C 6,4 km/h (2 Bft) 95,65 %
04.01.2018 22:50 4,6 C 3,9 C 97 % 998,9 hPa 0,2 l/m 4,8 km/h (1 Bft) S 180 0 min 0,000 mm 0,0 UV-I 0 W/m 4,2 C 4,6 C 6,4 km/h (2 Bft) 100,00 %
04.01.2018 22:51 4,6 C 3,9 C 97 % 998,8 hPa 0,0 l/m 6,4 km/h (2 Bft) S-SO 157 0 min 0,000 mm 0,0 UV-I 0 W/m 4,2 C 4,6 C 8,0 km/h (2 Bft) 100,00 %
04.01.2018 22:52 4,7 C 3,9 C 97 % 998,7 hPa 0,2 l/m 3,2 km/h (1 Bft) S-SO 157 0 min 0,000 mm 0,0 UV-I 0 W/m 4,3 C 4,7 C 6,4 km/h (2 Bft) 95,65 %
04.01.2018 22:53 4,7 C 3,9 C 97 % 998,8 hPa 0,0 l/m 4,8 km/h (1 Bft) S-SO 157 0 min 0,000 mm 0,0 UV-I 0 W/m 4,3 C 4,7 C 8,0 km/h (2 Bft) 100,00 %
04.01.2018 22:54 4,7 C 3,9 C 97 % 998,8 hPa 0,0 l/m 1,6 km/h (1 Bft) SO 135 0 min 0,000 mm 0,0 UV-I 0 W/m 4,3 C 4,7 C 3,2 km/h (1 Bft) 95,65 %
04.01.2018 22:55 4,8 C 3,9 C 97 % 998,8 hPa 0,2 l/m 1,6 km/h (1 Bft) SW 225 0 min 0,000 mm 0,0 UV-I 0 W/m 4,4 C 4,8 C 3,2 km/h (1 Bft) 100,00 %
04.01.2018 22:56 4,8 C 3,9 C 98 % 998,8 hPa 0,0 l/m 3,2 km/h (1 Bft) SW 225 0 min 0,000 mm 0,0 UV-I 0 W/m 4,5 C 4,8 C 6,4 km/h (2 Bft) 91,30 %
04.01.2018 22:57 4,9 C 3,9 C 97 % 998,8 hPa 0,2 l/m 4,8 km/h (1 Bft) SW 225 0 min 0,000 mm 0,0 UV-I 0 W/m 4,5 C 4,9 C 4,8 km/h (1 Bft) 100,00 %
04.01.2018 22:58 4,9 C 3,9 C 97 % 998,9 hPa 0,0 l/m 4,8 km/h (1 Bft) W 270 0 min 0,000 mm 0,0 UV-I 0 W/m 4,5 C 4,9 C 6,4 km/h (2 Bft) 95,65 %
04.01.2018 22:59 4,9 C 3,9 C 97 % 999,0 hPa 0,2 l/m 1,6 km/h (1 Bft) W-NW 292 0 min 0,000 mm 0,0 UV-I 0 W/m 4,5 C 4,9 C 3,2 km/h (1 Bft) 100,00 %
04.01.2018 23:00 4,8 C 3,9 C 97 % 999,0 hPa 0,2 l/m 1,6 km/h (1 Bft) NW 315 0 min 0,000 mm 0,0 UV-I 0 W/m 4,4 C 4,8 C 1,6 km/h (1 Bft) 95,65 %
04.01.2018 23:01 4,8 C 3,9 C 97 % 999,0 hPa 0,0 l/m 1,6 km/h (1 Bft) NW 315 0 min 0,000 mm 0,0 UV-I 0 W/m 4,4 C 4,8 C 3,2 km/h (1 Bft) 100,00 %
04.01.2018 23:02 4,8 C 3,9 C 98 % 999,0 hPa 0,4 l/m 0,0 km/h (0 Bft) N-NO 22 0 min 0,000 mm 0,0 UV-I 0 W/m 4,5 C 4,8 C 1,6 km/h (1 Bft) 95,65 %
04.01.2018 23:03 4,7 C 3,9 C 98 % 999,1 hPa 0,2 l/m 1,6 km/h (1 Bft) N-NW 337 0 min 0,000 mm 0,0 UV-I 0 W/m 4,4 C 4,7 C 3,2 km/h (1 Bft) 95,65 %
04.01.2018 23:04 4,7 C 3,9 C 97 % 999,1 hPa 0,2 l/m 1,6 km/h (1 Bft) N-NO 22 0 min 0,000 mm 0,0 UV-I 0 W/m 4,3 C 4,7 C 4,8 km/h (1 Bft) 95,65 %
04.01.2018 23:05 4,7 C 3,9 C 97 % 999,0 hPa 0,2 l/m 3,2 km/h (1 Bft) N-NO 22 0 min 0,000 mm 0,0 UV-I 0 W/m 4,3 C 4,7 C 4,8 km/h (1 Bft) 95,65 %
04.01.2018 23:06 4,7 C 3,9 C 97 % 999,0 hPa 0,2 l/m 3,2 km/h (1 Bft) N-NO 22 0 min 0,000 mm 0,0 UV-I 0 W/m 4,3 C 4,7 C 8,0 km/h (2 Bft) 95,65 %
04.01.2018 23:07 4,8 C 3,9 C 97 % 999,0 hPa 0,2 l/m 6,4 km/h (2 Bft) N-NO 22 0 min 0,000 mm 0,0 UV-I 0 W/m 4,4 C 4,8 C 8,0 km/h (2 Bft) 100,00 %
04.01.2018 23:08 4,7 C 3,9 C 97 % 999,0 hPa 0,2 l/m 4,8 km/h (1 Bft) N-NO 22 0 min 0,000 mm 0,0 UV-I 0 W/m 4,3 C 4,7 C 6,4 km/h (2 Bft) 95,65 %
04.01.2018 23:09 4,7 C 3,9 C 97 % 999,0 hPa 0,0 l/m 0,0 km/h (0 Bft) N-NO 22 0 min 0,000 mm 0,0 UV-I 0 W/m 4,3 C 4,7 C 3,2 km/h (1 Bft) 95,65 %
04.01.2018 23:10 4,8 C 3,9 C 97 % 999,0 hPa 0,2 l/m 0,0 km/h (0 Bft) N 0 0 min 0,000 mm 0,0 UV-I 0 W/m 4,4 C 4,8 C 0,0 km/h (0 Bft) 95,65 %
04.01.2018 23:11 4,8 C 3,9 C 97 % 998,9 hPa 0,2 l/m 0,0 km/h (0 Bft) N-NO 22 0 min 0,000 mm 0,0 UV-I 0 W/m 4,4 C 4,8 C 1,6 km/h (1 Bft) 95,65 %
04.01.2018 23:12 4,8 C 3,9 C 98 % 998,9 hPa 0,0 l/m 0,0 km/h (0 Bft) N 0 0 min 0,000 mm 0,0 UV-I 0 W/m 4,5 C 4,8 C 0,0 km/h (0 Bft) 100,00 %
04.01.2018 23:13 4,8 C 3,9 C 97 % 999,0 hPa 0,2 l/m 0,0 km/h (0 Bft) N-NO 22 0 min 0,000 mm 0,0 UV-I 0 W/m 4,4 C 4,8 C 1,6 km/h (1 Bft) 95,65 %
04.01.2018 23:14 4,9 C 3,9 C 97 % 998,9 hPa 0,2 l/m 3,2 km/h (1 Bft) N-NO 22 0 min 0,000 mm 0,0 UV-I 0 W/m 4,5 C 4,9 C 4,8 km/h (1 Bft) 100,00 %
04.01.2018 23:15 5,0 C 3,9 C 97 % 998,8 hPa 0,2 l/m 3,2 km/h (1 Bft) NO 45 0 min 0,000 mm 0,0 UV-I 0 W/m 4,6 C 5,0 C 4,8 km/h (1 Bft) 95,65 %
04.01.2018 23:16 5,0 C 3,9 C 98 % 998,9 hPa 0,2 l/m 6,4 km/h (2 Bft) NO 45 0 min 0,000 mm 0,0 UV-I 0 W/m 4,7 C 5,0 C 9,7 km/h (2 Bft) 100,00 %
04.01.2018 23:17 5,0 C 3,9 C 98 % 998,9 hPa 0,0 l/m 4,8 km/h (1 Bft) NO 45 0 min 0,000 mm 0,0 UV-I 0 W/m 4,7 C 5,0 C 6,4 km/h (2 Bft) 91,30 %
04.01.2018 23:18 4,9 C 3,9 C 97 % 998,8 hPa 0,2 l/m 1,6 km/h (1 Bft) NO 45 0 min 0,000 mm 0,0 UV-I 0 W/m 4,5 C 4,9 C 1,6 km/h (1 Bft) 100,00 %
04.01.2018 23:19 4,9 C 3,9 C 97 % 998,8 hPa 0,0 l/m 6,4 km/h (2 Bft) O-NO 67 0 min 0,000 mm 0,0 UV-I 0 W/m 4,5 C 4,9 C 9,7 km/h (2 Bft) 100,00 %
04.01.2018 23:20 4,8 C 3,9 C 97 % 998,8 hPa 0,2 l/m 1,6 km/h (1 Bft) O-NO 67 0 min 0,000 mm 0,0 UV-I 0 W/m 4,4 C 4,8 C 6,4 km/h (2 Bft) 100,00 %
04.01.2018 23:21 4,8 C 3,9 C 97 % 998,7 hPa 0,2 l/m 8,0 km/h (2 Bft) O-NO 67 0 min 0,000 mm 0,0 UV-I 0 W/m 4,4 C 3,4 C 9,7 km/h (2 Bft) 100,00 %
04.01.2018 23:22 4,8 C 3,9 C 98 % 998,6 hPa 0,2 l/m 8,0 km/h (2 Bft) NO 45 0 min 0,000 mm 0,0 UV-I 0 W/m 4,5 C 3,4 C 11,3 km/h (2 Bft) 95,65 %
04.01.2018 23:23 4,8 C 3,9 C 98 % 998,7 hPa 0,0 l/m 4,8 km/h (1 Bft) W 270 0 min 0,000 mm 0,0 UV-I 0 W/m 4,5 C 4,8 C 11,3 km/h (2 Bft) 100,00 %
04.01.2018 23:24 4,8 C 3,9 C 98 % 998,6 hPa 0,2 l/m 3,2 km/h (1 Bft) N-NW 337 0 min 0,000 mm 0,0 UV-I 0 W/m 4,5 C 4,8 C 8,0 km/h (2 Bft) 95,65 %
04.01.2018 23:25 5,1 C 3,9 C 98 % 998,6 hPa 0,0 l/m 12,9 km/h (3 Bft) SO 135 0 min 0,000 mm 0,0 UV-I 0 W/m 4,8 C 0,3 C 19,3 km/h (3 Bft) 100,00 %
04.01.2018 23:26 5,6 C 3,9 C 98 % 998,6 hPa 0,2 l/m 6,4 km/h (2 Bft) W 270 0 min 0,000 mm 0,0 UV-I 0 W/m 5,3 C 5,6 C 11,3 km/h (2 Bft) 100,00 %
04.01.2018 23:27 5,6 C 3,9 C 98 % 998,6 hPa 0,0 l/m 1,6 km/h (1 Bft) W-NW 292 0 min 0,000 mm 0,0 UV-I 0 W/m 5,3 C 5,6 C 4,8 km/h (1 Bft) 100,00 %
04.01.2018 23:28 5,6 C 3,9 C 98 % 998,7 hPa 0,0 l/m 0,0 km/h (0 Bft) W-NW 292 0 min 0,000 mm 0,0 UV-I 0 W/m 5,3 C 5,6 C 3,2 km/h (1 Bft) 100,00 %
04.01.2018 23:29 5,6 C 3,9 C 98 % 998,7 hPa 0,2 l/m 3,2 km/h (1 Bft) W-NW 292 0 min 0,000 mm 0,0 UV-I 0 W/m 5,3 C 5,6 C 4,8 km/h (1 Bft) 100,00 %
04.01.2018 23:30 5,7 C 3,9 C 98 % 998,6 hPa 0,0 l/m 0,0 km/h (0 Bft) W-NW 292 0 min 0,000 mm 0,0 UV-I 0 W/m 5,4 C 5,7 C 1,6 km/h (1 Bft) 100,00 %
04.01.2018 23:31 5,7 C 3,9 C 98 % 998,7 hPa 0,2 l/m 0,0 km/h (0 Bft) W-NW 292 0 min 0,000 mm 0,0 UV-I 0 W/m 5,4 C 5,7 C 1,6 km/h (1 Bft) 95,65 %
04.01.2018 23:32 5,7 C 3,9 C 98 % 998,6 hPa 0,0 l/m 0,0 km/h (0 Bft) W-NW 292 0 min 0,000 mm 0,0 UV-I 0 W/m 5,4 C 5,7 C 1,6 km/h (1 Bft) 100,00 %
04.01.2018 23:33 5,7 C 3,9 C 98 % 998,6 hPa 0,0 l/m 0,0 km/h (0 Bft) N 0 0 min 0,000 mm 0,0 UV-I 0 W/m 5,4 C 5,7 C 0,0 km/h (0 Bft) 100,00 %
04.01.2018 23:34 5,7 C 3,9 C 98 % 998,6 hPa 0,0 l/m 1,6 km/h (1 Bft) W-NW 292 0 min 0,000 mm 0,0 UV-I 0 W/m 5,4 C 5,7 C 3,2 km/h (1 Bft) 95,65 %
04.01.2018 23:35 5,8 C 3,9 C 98 % 998,7 hPa 0,2 l/m 1,6 km/h (1 Bft) W-NW 292 0 min 0,000 mm 0,0 UV-I 0 W/m 5,5 C 5,8 C 1,6 km/h (1 Bft) 100,00 %
04.01.2018 23:36 5,8 C 3,9 C 98 % 998,6 hPa 0,0 l/m 0,0 km/h (0 Bft) N 0 0 min 0,000 mm 0,0 UV-I 0 W/m 5,5 C 5,8 C 0,0 km/h (0 Bft) 100,00 %
04.01.2018 23:37 5,8 C 3,9 C 98 % 998,6 hPa 0,0 l/m 0,0 km/h (0 Bft) W-NW 292 0 min 0,000 mm 0,0 UV-I 0 W/m 5,5 C 5,8 C 1,6 km/h (1 Bft) 100,00 %
04.01.2018 23:38 5,8 C 3,9 C 98 % 998,6 hPa 0,0 l/m 1,6 km/h (1 Bft) W-NW 292 0 min 0,000 mm 0,0 UV-I 0 W/m 5,5 C 5,8 C 3,2 km/h (1 Bft) 95,65 %
04.01.2018 23:39 5,9 C 3,9 C 98 % 998,5 hPa 0,2 l/m 1,6 km/h (1 Bft) W-SW 247 0 min 0,000 mm 0,0 UV-I 0 W/m 5,6 C 5,9 C 3,2 km/h (1 Bft) 100,00 %
04.01.2018 23:40 5,9 C 3,9 C 98 % 998,5 hPa 0,0 l/m 0,0 km/h (0 Bft) W-SW 247 0 min 0,000 mm 0,0 UV-I 0 W/m 5,6 C 5,9 C 3,2 km/h (1 Bft) 95,65 %
04.01.2018 23:41 5,9 C 3,9 C 98 % 998,5 hPa 0,0 l/m 0,0 km/h (0 Bft) W-SW 247 0 min 0,000 mm 0,0 UV-I 0 W/m 5,6 C 5,9 C 1,6 km/h (1 Bft) 100,00 %
04.01.2018 23:42 5,8 C 3,9 C 98 % 998,5 hPa 0,0 l/m 0,0 km/h (0 Bft) N 0 0 min 0,000 mm 0,0 UV-I 0 W/m 5,5 C 5,8 C 0,0 km/h (0 Bft) 95,65 %
04.01.2018 23:43 5,9 C 3,9 C 98 % 998,5 hPa 0,0 l/m 0,0 km/h (0 Bft) W-SW 247 0 min 0,000 mm 0,0 UV-I 0 W/m 5,6 C 5,9 C 1,6 km/h (1 Bft) 95,65 %
04.01.2018 23:44 5,9 C 3,9 C 98 % 998,4 hPa 0,0 l/m 3,2 km/h (1 Bft) W-SW 247 0 min 0,000 mm 0,0 UV-I 0 W/m 5,6 C 5,9 C 8,0 km/h (2 Bft) 95,65 %
04.01.2018 23:45 5,7 C 3,9 C 98 % 998,4 hPa 0,0 l/m 4,8 km/h (1 Bft) NO 45 0 min 0,000 mm 0,0 UV-I 0 W/m 5,4 C 5,7 C 6,4 km/h (2 Bft) 91,30 %
04.01.2018 23:46 5,5 C 3,9 C 98 % 998,5 hPa 0,0 l/m 4,8 km/h (1 Bft) NO 45 0 min 0,000 mm 0,0 UV-I 0 W/m 5,2 C 5,5 C 6,4 km/h (2 Bft) 95,65 %
04.01.2018 23:47 5,3 C 3,9 C 98 % 998,5 hPa 0,0 l/m 4,8 km/h (1 Bft) NO 45 0 min 0,000 mm 0,0 UV-I 0 W/m 5,0 C 5,3 C 6,4 km/h (2 Bft) 95,65 %
04.01.2018 23:48 5,2 C 3,9 C 98 % 998,4 hPa 0,2 l/m 4,8 km/h (1 Bft) NO 45 0 min 0,000 mm 0,0 UV-I 0 W/m 4,9 C 5,2 C 6,4 km/h (2 Bft) 100,00 %
04.01.2018 23:49 5,2 C 3,9 C 97 % 998,5 hPa 0,0 l/m 3,2 km/h (1 Bft) N-NO 22 0 min 0,000 mm 0,0 UV-I 0 W/m 4,8 C 5,2 C 6,4 km/h (2 Bft) 95,65 %
04.01.2018 23:50 5,2 C 3,9 C 97 % 998,5 hPa 0,0 l/m 3,2 km/h (1 Bft) N-NO 22 0 min 0,000 mm 0,0 UV-I 0 W/m 4,8 C 5,2 C 6,4 km/h (2 Bft) 100,00 %
04.01.2018 23:51 5,1 C 3,9 C 97 % 998,5 hPa 0,0 l/m 6,4 km/h (2 Bft) NO 45 0 min 0,000 mm 0,0 UV-I 0 W/m 4,7 C 5,1 C 8,0 km/h (2 Bft) 95,65 %
04.01.2018 23:52 5,1 C 3,9 C 97 % 998,5 hPa 0,0 l/m 6,4 km/h (2 Bft) NO 45 0 min 0,000 mm 0,0 UV-I 0 W/m 4,7 C 5,1 C 8,0 km/h (2 Bft) 91,30 %
04.01.2018 23:53 5,1 C 3,9 C 97 % 998,4 hPa 0,2 l/m 4,8 km/h (1 Bft) NO 45 0 min 0,000 mm 0,0 UV-I 0 W/m 4,7 C 5,1 C 6,4 km/h (2 Bft) 100,00 %
04.01.2018 23:54 5,1 C 3,9 C 97 % 998,4 hPa 0,0 l/m 4,8 km/h (1 Bft) NO 45 0 min 0,000 mm 0,0 UV-I 0 W/m 4,7 C 5,1 C 6,4 km/h (2 Bft) 91,30 %
04.01.2018 23:55 5,1 C 3,9 C 97 % 998,4 hPa 0,0 l/m 6,4 km/h (2 Bft) NO 45 0 min 0,000 mm 0,0 UV-I 0 W/m 4,7 C 5,1 C 8,0 km/h (2 Bft) 100,00 %
04.01.2018 23:56 5,2 C 3,9 C 97 % 998,4 hPa 0,0 l/m 6,4 km/h (2 Bft) O-NO 67 0 min 0,000 mm 0,0 UV-I 0 W/m 4,8 C 5,2 C 8,0 km/h (2 Bft) 95,65 %
04.01.2018 23:57 5,2 C 3,9 C 97 % 998,4 hPa 0,0 l/m 4,8 km/h (1 Bft) O-NO 67 0 min 0,000 mm 0,0 UV-I 0 W/m 4,8 C 5,2 C 6,4 km/h (2 Bft) 100,00 %
04.01.2018 23:58 5,2 C 3,9 C 97 % 998,3 hPa 0,2 l/m 4,8 km/h (1 Bft) O-NO 67 0 min 0,000 mm 0,0 UV-I 0 W/m 4,8 C 5,2 C 4,8 km/h (1 Bft) 95,65 %
04.01.2018 23:59 5,1 C 3,9 C 97 % 998,3 hPa 0,0 l/m 3,2 km/h (1 Bft) O 90 0 min 0,000 mm 0,0 UV-I 0 W/m 4,7 C 5,1 C 6,4 km/h (2 Bft) 95,65 %
_ Min-Zeit 19:20 00:00 00:00 23:58 - 15:36 - - - - - - 00:00 01:03 18:26 00:55
Minimum _ 4,1 C 3,9 C 66 % 998,3 hPa - 0,0 km/h (0 Bft) - - - - - - 0,9 C -6,4 C 0,0 km/h (0 Bft) 86,96 %
_ Max-Zeit 12:08 00:00 22:56 10:27 23:02 00:23 - - 08:06 00:00 00:00 12:01 23:39 12:37 00:26 00:02
Maximum _ 6,9 C 3,9 C 98 % 1005,4 hPa 0,4 l/m 41,8 km/h
W-SW (6 Bft)
- - 1 min 0,102 mm 0,0 UV-I 178 W/m 5,6 C 6,9 C 61,2 km/h
W (7 Bft)
100,00 %
Durchschnitt _ 5,7 C 3,9 C 83 % 1002,8 hPa #22,6 l/m 11,9 km/h (2 Bft) SW - #14 min. #0,991 mm 0,0 UV-I 63 W/m 2,9 C 1,9 C 17,4 km/h (3 Bft) 97,15 %